<?xml version="1.0" encoding="UTF-8" standalone="no" ?>
<gpx xmlns="http://www.topografix.com/GPX/1/1" xmlns:xsi="http://www.w3.org/2001/XMLSchema-instance" xsi:schemaLocation="http://www.topografix.com/GPX/1/1 http://www.topografix.com/GPX/1/1/gpx.xsd" version="1.1" creator="VisuGPX - https://www.visugpx.com">
  <metadata>
    <name>Pornichet Cyclisme</name>
    <desc><![CDATA[Sortie VTT du dimanche 02 mai 2021]]></desc>
  </metadata>
  <trk>
    <name><![CDATA[Pornichet Cyclisme]]></name>
    <trkseg>
      <trkpt lat="47.2637" lon="-2.31578">
        <ele>8.3</ele>
        <time>2021-05-02T07:03:42.000Z</time>
      </trkpt>
      <trkpt lat="47.2637" lon="-2.31581">
        <ele>8.3</ele>
        <time>2021-05-02T07:03:43.000Z</time>
      </trkpt>
      <trkpt lat="47.26371" lon="-2.31589">
        <ele>8.3</ele>
        <time>2021-05-02T07:03:45.000Z</time>
      </trkpt>
      <trkpt lat="47.26371" lon="-2.31593">
        <ele>3</ele>
        <time>2021-05-02T07:03:46.000Z</time>
      </trkpt>
      <trkpt lat="47.26371" lon="-2.31597">
        <ele>5.5999999046326</ele>
        <time>2021-05-02T07:03:47.000Z</time>
      </trkpt>
      <trkpt lat="47.26371" lon="-2.31601">
        <ele>8.1999998092651</ele>
        <time>2021-05-02T07:03:48.000Z</time>
      </trkpt>
      <trkpt lat="47.26371" lon="-2.31605">
        <ele>11</ele>
        <time>2021-05-02T07:03:49.000Z</time>
      </trkpt>
      <trkpt lat="47.2637" lon="-2.31622">
        <ele>11</ele>
        <time>2021-05-02T07:03:53.000Z</time>
      </trkpt>
      <trkpt lat="47.26384" lon="-2.31655">
        <ele>11</ele>
        <time>2021-05-02T07:04:00.000Z</time>
      </trkpt>
      <trkpt lat="47.26387" lon="-2.31685">
        <ele>11</ele>
        <time>2021-05-02T07:04:07.000Z</time>
      </trkpt>
      <trkpt lat="47.26376" lon="-2.31693">
        <ele>11</ele>
        <time>2021-05-02T07:04:11.000Z</time>
      </trkpt>
      <trkpt lat="47.26351" lon="-2.31707">
        <ele>11</ele>
        <time>2021-05-02T07:04:17.000Z</time>
      </trkpt>
      <trkpt lat="47.26323" lon="-2.31721">
        <ele>11</ele>
        <time>2021-05-02T07:04:23.000Z</time>
      </trkpt>
      <trkpt lat="47.26318" lon="-2.31722">
        <ele>8.3999996185303</ele>
        <time>2021-05-02T07:04:24.000Z</time>
      </trkpt>
      <trkpt lat="47.26314" lon="-2.31724">
        <ele>5.8000001907349</ele>
        <time>2021-05-02T07:04:25.000Z</time>
      </trkpt>
      <trkpt lat="47.2631" lon="-2.31727">
        <ele>3.2000000476837</ele>
        <time>2021-05-02T07:04:26.000Z</time>
      </trkpt>
      <trkpt lat="47.26306" lon="-2.3173">
        <ele>0.60000002384186</ele>
        <time>2021-05-02T07:04:27.000Z</time>
      </trkpt>
      <trkpt lat="47.26302" lon="-2.31732">
        <ele>-2</ele>
        <time>2021-05-02T07:04:28.000Z</time>
      </trkpt>
      <trkpt lat="47.26287" lon="-2.31743">
        <ele>-2.4000000953674</ele>
        <time>2021-05-02T07:04:32.000Z</time>
      </trkpt>
      <trkpt lat="47.26286" lon="-2.31747">
        <ele>-2.7999999523163</ele>
        <time>2021-05-02T07:04:33.000Z</time>
      </trkpt>
      <trkpt lat="47.26286" lon="-2.31752">
        <ele>-3.4000000953674</ele>
        <time>2021-05-02T07:04:34.000Z</time>
      </trkpt>
      <trkpt lat="47.26287" lon="-2.31757">
        <ele>-3.7999999523163</ele>
        <time>2021-05-02T07:04:35.000Z</time>
      </trkpt>
      <trkpt lat="47.26288" lon="-2.31763">
        <ele>-4.1999998092651</ele>
        <time>2021-05-02T07:04:36.000Z</time>
      </trkpt>
      <trkpt lat="47.26291" lon="-2.318">
        <ele>-4.1999998092651</ele>
        <time>2021-05-02T07:04:43.000Z</time>
      </trkpt>
      <trkpt lat="47.26291" lon="-2.31828">
        <ele>-4.1999998092651</ele>
        <time>2021-05-02T07:04:48.000Z</time>
      </trkpt>
      <trkpt lat="47.26287" lon="-2.31859">
        <ele>-4.1999998092651</ele>
        <time>2021-05-02T07:04:54.000Z</time>
      </trkpt>
      <trkpt lat="47.26286" lon="-2.31892">
        <ele>-4.1999998092651</ele>
        <time>2021-05-02T07:05:00.000Z</time>
      </trkpt>
      <trkpt lat="47.26284" lon="-2.319">
        <ele>-4.1999998092651</ele>
        <time>2021-05-02T07:05:02.000Z</time>
      </trkpt>
      <trkpt lat="47.26278" lon="-2.31906">
        <ele>-4.1999998092651</ele>
        <time>2021-05-02T07:05:04.000Z</time>
      </trkpt>
      <trkpt lat="47.26271" lon="-2.3191">
        <ele>-4.1999998092651</ele>
        <time>2021-05-02T07:05:06.000Z</time>
      </trkpt>
      <trkpt lat="47.26265" lon="-2.31915">
        <ele>-4.1999998092651</ele>
        <time>2021-05-02T07:05:08.000Z</time>
      </trkpt>
      <trkpt lat="47.2626" lon="-2.3192">
        <ele>-4.1999998092651</ele>
        <time>2021-05-02T07:05:10.000Z</time>
      </trkpt>
      <trkpt lat="47.26247" lon="-2.31943">
        <ele>-4.1999998092651</ele>
        <time>2021-05-02T07:05:16.000Z</time>
      </trkpt>
      <trkpt lat="47.26235" lon="-2.31968">
        <ele>-4.1999998092651</ele>
        <time>2021-05-02T07:05:22.000Z</time>
      </trkpt>
      <trkpt lat="47.26223" lon="-2.31983">
        <ele>-4.1999998092651</ele>
        <time>2021-05-02T07:05:27.000Z</time>
      </trkpt>
      <trkpt lat="47.2621" lon="-2.32001">
        <ele>-4.1999998092651</ele>
        <time>2021-05-02T07:05:32.000Z</time>
      </trkpt>
      <trkpt lat="47.26192" lon="-2.32013">
        <ele>-4.1999998092651</ele>
        <time>2021-05-02T07:05:38.000Z</time>
      </trkpt>
      <trkpt lat="47.2619" lon="-2.32015">
        <ele>-4.1999998092651</ele>
        <time>2021-05-02T07:05:39.000Z</time>
      </trkpt>
      <trkpt lat="47.26189" lon="-2.32026">
        <ele>-4.1999998092651</ele>
        <time>2021-05-02T07:05:42.000Z</time>
      </trkpt>
      <trkpt lat="47.26188" lon="-2.32029">
        <ele>-4.1999998092651</ele>
        <time>2021-05-02T07:05:43.000Z</time>
      </trkpt>
      <trkpt lat="47.26186" lon="-2.3203">
        <ele>-4.1999998092651</ele>
        <time>2021-05-02T07:05:44.000Z</time>
      </trkpt>
      <trkpt lat="47.26179" lon="-2.3203">
        <ele>-4.1999998092651</ele>
        <time>2021-05-02T07:05:47.000Z</time>
      </trkpt>
      <trkpt lat="47.26176" lon="-2.3203">
        <ele>-4.1999998092651</ele>
        <time>2021-05-02T07:05:48.000Z</time>
      </trkpt>
      <trkpt lat="47.2616" lon="-2.32034">
        <ele>-4.1999998092651</ele>
        <time>2021-05-02T07:05:53.000Z</time>
      </trkpt>
      <trkpt lat="47.26149" lon="-2.32044">
        <ele>-4.1999998092651</ele>
        <time>2021-05-02T07:05:56.000Z</time>
      </trkpt>
      <trkpt lat="47.26143" lon="-2.32055">
        <ele>-4.1999998092651</ele>
        <time>2021-05-02T07:05:58.000Z</time>
      </trkpt>
      <trkpt lat="47.26139" lon="-2.32068">
        <ele>-4.1999998092651</ele>
        <time>2021-05-02T07:06:00.000Z</time>
      </trkpt>
      <trkpt lat="47.26137" lon="-2.32075">
        <ele>-4.1999998092651</ele>
        <time>2021-05-02T07:06:01.000Z</time>
      </trkpt>
      <trkpt lat="47.26133" lon="-2.32092">
        <ele>-4.1999998092651</ele>
        <time>2021-05-02T07:06:04.000Z</time>
      </trkpt>
      <trkpt lat="47.26121" lon="-2.32131">
        <ele>-4.1999998092651</ele>
        <time>2021-05-02T07:06:11.000Z</time>
      </trkpt>
      <trkpt lat="47.26115" lon="-2.32152">
        <ele>-4.1999998092651</ele>
        <time>2021-05-02T07:06:15.000Z</time>
      </trkpt>
      <trkpt lat="47.26106" lon="-2.32179">
        <ele>-4.1999998092651</ele>
        <time>2021-05-02T07:06:20.000Z</time>
      </trkpt>
      <trkpt lat="47.26092" lon="-2.32216">
        <ele>-4.1999998092651</ele>
        <time>2021-05-02T07:06:27.000Z</time>
      </trkpt>
      <trkpt lat="47.26073" lon="-2.32246">
        <ele>-4.1999998092651</ele>
        <time>2021-05-02T07:06:34.000Z</time>
      </trkpt>
      <trkpt lat="47.2605" lon="-2.32274">
        <ele>-4.1999998092651</ele>
        <time>2021-05-02T07:06:41.000Z</time>
      </trkpt>
      <trkpt lat="47.26047" lon="-2.32277">
        <ele>-4.1999998092651</ele>
        <time>2021-05-02T07:06:42.000Z</time>
      </trkpt>
      <trkpt lat="47.26028" lon="-2.32295">
        <ele>-4.1999998092651</ele>
        <time>2021-05-02T07:06:47.000Z</time>
      </trkpt>
      <trkpt lat="47.26" lon="-2.32325">
        <ele>-4.1999998092651</ele>
        <time>2021-05-02T07:06:55.000Z</time>
      </trkpt>
      <trkpt lat="47.25969" lon="-2.32367">
        <ele>-4.1999998092651</ele>
        <time>2021-05-02T07:07:04.000Z</time>
      </trkpt>
      <trkpt lat="47.25944" lon="-2.32403">
        <ele>-4.1999998092651</ele>
        <time>2021-05-02T07:07:12.000Z</time>
      </trkpt>
      <trkpt lat="47.2594" lon="-2.32407">
        <ele>-4.1999998092651</ele>
        <time>2021-05-02T07:07:13.000Z</time>
      </trkpt>
      <trkpt lat="47.25924" lon="-2.3243">
        <ele>-4.1999998092651</ele>
        <time>2021-05-02T07:07:18.000Z</time>
      </trkpt>
      <trkpt lat="47.25899" lon="-2.32462">
        <ele>-4.1999998092651</ele>
        <time>2021-05-02T07:07:26.000Z</time>
      </trkpt>
      <trkpt lat="47.25881" lon="-2.32487">
        <ele>-4.1999998092651</ele>
        <time>2021-05-02T07:07:33.000Z</time>
      </trkpt>
      <trkpt lat="47.2587" lon="-2.32499">
        <ele>-4.1999998092651</ele>
        <time>2021-05-02T07:07:37.000Z</time>
      </trkpt>
      <trkpt lat="47.25847" lon="-2.32495">
        <ele>-4.1999998092651</ele>
        <time>2021-05-02T07:07:42.000Z</time>
      </trkpt>
      <trkpt lat="47.25813" lon="-2.32492">
        <ele>-4.1999998092651</ele>
        <time>2021-05-02T07:07:51.000Z</time>
      </trkpt>
      <trkpt lat="47.25806" lon="-2.32497">
        <ele>-4.1999998092651</ele>
        <time>2021-05-02T07:07:54.000Z</time>
      </trkpt>
      <trkpt lat="47.25803" lon="-2.32505">
        <ele>-4.1999998092651</ele>
        <time>2021-05-02T07:07:56.000Z</time>
      </trkpt>
      <trkpt lat="47.25805" lon="-2.32511">
        <ele>-4.1999998092651</ele>
        <time>2021-05-02T07:07:57.000Z</time>
      </trkpt>
      <trkpt lat="47.25808" lon="-2.32524">
        <ele>-4.1999998092651</ele>
        <time>2021-05-02T07:07:59.000Z</time>
      </trkpt>
      <trkpt lat="47.25819" lon="-2.32568">
        <ele>-4.1999998092651</ele>
        <time>2021-05-02T07:08:06.000Z</time>
      </trkpt>
      <trkpt lat="47.25826" lon="-2.32599">
        <ele>-4.1999998092651</ele>
        <time>2021-05-02T07:08:11.000Z</time>
      </trkpt>
      <trkpt lat="47.25831" lon="-2.32624">
        <ele>-4.1999998092651</ele>
        <time>2021-05-02T07:08:15.000Z</time>
      </trkpt>
      <trkpt lat="47.25842" lon="-2.3267">
        <ele>-4.1999998092651</ele>
        <time>2021-05-02T07:08:22.000Z</time>
      </trkpt>
      <trkpt lat="47.25852" lon="-2.32707">
        <ele>-4.1999998092651</ele>
        <time>2021-05-02T07:08:28.000Z</time>
      </trkpt>
      <trkpt lat="47.25859" lon="-2.32717">
        <ele>-4.1999998092651</ele>
        <time>2021-05-02T07:08:30.000Z</time>
      </trkpt>
      <trkpt lat="47.25862" lon="-2.32722">
        <ele>-4.1999998092651</ele>
        <time>2021-05-02T07:08:31.000Z</time>
      </trkpt>
      <trkpt lat="47.25862" lon="-2.32736">
        <ele>-4.1999998092651</ele>
        <time>2021-05-02T07:08:33.000Z</time>
      </trkpt>
      <trkpt lat="47.25868" lon="-2.32762">
        <ele>-4.1999998092651</ele>
        <time>2021-05-02T07:08:37.000Z</time>
      </trkpt>
      <trkpt lat="47.25889" lon="-2.32828">
        <ele>-4.1999998092651</ele>
        <time>2021-05-02T07:08:47.000Z</time>
      </trkpt>
      <trkpt lat="47.25906" lon="-2.32879">
        <ele>-4.1999998092651</ele>
        <time>2021-05-02T07:08:55.000Z</time>
      </trkpt>
      <trkpt lat="47.25915" lon="-2.32905">
        <ele>-4.1999998092651</ele>
        <time>2021-05-02T07:08:59.000Z</time>
      </trkpt>
      <trkpt lat="47.2593" lon="-2.32942">
        <ele>-4.1999998092651</ele>
        <time>2021-05-02T07:09:05.000Z</time>
      </trkpt>
      <trkpt lat="47.25958" lon="-2.33016">
        <ele>-4.1999998092651</ele>
        <time>2021-05-02T07:09:17.000Z</time>
      </trkpt>
      <trkpt lat="47.25978" lon="-2.33073">
        <ele>-4.1999998092651</ele>
        <time>2021-05-02T07:09:26.000Z</time>
      </trkpt>
      <trkpt lat="47.25991" lon="-2.33103">
        <ele>-4.1999998092651</ele>
        <time>2021-05-02T07:09:31.000Z</time>
      </trkpt>
      <trkpt lat="47.25992" lon="-2.3311">
        <ele>-4.1999998092651</ele>
        <time>2021-05-02T07:09:32.000Z</time>
      </trkpt>
      <trkpt lat="47.25995" lon="-2.33124">
        <ele>-4.1999998092651</ele>
        <time>2021-05-02T07:09:34.000Z</time>
      </trkpt>
      <trkpt lat="47.26003" lon="-2.3315">
        <ele>-4.1999998092651</ele>
        <time>2021-05-02T07:09:38.000Z</time>
      </trkpt>
      <trkpt lat="47.26028" lon="-2.3322">
        <ele>-4.1999998092651</ele>
        <time>2021-05-02T07:09:49.000Z</time>
      </trkpt>
      <trkpt lat="47.26051" lon="-2.33284">
        <ele>-4.1999998092651</ele>
        <time>2021-05-02T07:09:59.000Z</time>
      </trkpt>
      <trkpt lat="47.26059" lon="-2.33309">
        <ele>-4.1999998092651</ele>
        <time>2021-05-02T07:10:03.000Z</time>
      </trkpt>
      <trkpt lat="47.26068" lon="-2.33334">
        <ele>-4.1999998092651</ele>
        <time>2021-05-02T07:10:07.000Z</time>
      </trkpt>
      <trkpt lat="47.26084" lon="-2.33375">
        <ele>-4.5999999046326</ele>
        <time>2021-05-02T07:10:14.000Z</time>
      </trkpt>
      <trkpt lat="47.26087" lon="-2.33379">
        <ele>-5</ele>
        <time>2021-05-02T07:10:15.000Z</time>
      </trkpt>
      <trkpt lat="47.26091" lon="-2.33381">
        <ele>-5.4000000953674</ele>
        <time>2021-05-02T07:10:16.000Z</time>
      </trkpt>
      <trkpt lat="47.26094" lon="-2.33383">
        <ele>-5.8000001907349</ele>
        <time>2021-05-02T07:10:17.000Z</time>
      </trkpt>
      <trkpt lat="47.26098" lon="-2.33386">
        <ele>-6.1999998092651</ele>
        <time>2021-05-02T07:10:18.000Z</time>
      </trkpt>
      <trkpt lat="47.26101" lon="-2.33391">
        <ele>-6.1999998092651</ele>
        <time>2021-05-02T07:10:19.000Z</time>
      </trkpt>
      <trkpt lat="47.26104" lon="-2.33395">
        <ele>-6.1999998092651</ele>
        <time>2021-05-02T07:10:20.000Z</time>
      </trkpt>
      <trkpt lat="47.26121" lon="-2.33416">
        <ele>-6.1999998092651</ele>
        <time>2021-05-02T07:10:25.000Z</time>
      </trkpt>
      <trkpt lat="47.26125" lon="-2.33418">
        <ele>-6.1999998092651</ele>
        <time>2021-05-02T07:10:26.000Z</time>
      </trkpt>
      <trkpt lat="47.26137" lon="-2.33429">
        <ele>-6.1999998092651</ele>
        <time>2021-05-02T07:10:30.000Z</time>
      </trkpt>
      <trkpt lat="47.26135" lon="-2.33443">
        <ele>-6.1999998092651</ele>
        <time>2021-05-02T07:10:33.000Z</time>
      </trkpt>
      <trkpt lat="47.2613" lon="-2.33458">
        <ele>-6.1999998092651</ele>
        <time>2021-05-02T07:10:36.000Z</time>
      </trkpt>
      <trkpt lat="47.26123" lon="-2.33475">
        <ele>-6.1999998092651</ele>
        <time>2021-05-02T07:10:39.000Z</time>
      </trkpt>
      <trkpt lat="47.26105" lon="-2.33528">
        <ele>-6.1999998092651</ele>
        <time>2021-05-02T07:10:47.000Z</time>
      </trkpt>
      <trkpt lat="47.26085" lon="-2.33583">
        <ele>-6.1999998092651</ele>
        <time>2021-05-02T07:10:56.000Z</time>
      </trkpt>
      <trkpt lat="47.26064" lon="-2.33635">
        <ele>-6.1999998092651</ele>
        <time>2021-05-02T07:11:05.000Z</time>
      </trkpt>
      <trkpt lat="47.26049" lon="-2.33683">
        <ele>-6.1999998092651</ele>
        <time>2021-05-02T07:11:13.000Z</time>
      </trkpt>
      <trkpt lat="47.26042" lon="-2.337">
        <ele>-6.1999998092651</ele>
        <time>2021-05-02T07:11:16.000Z</time>
      </trkpt>
      <trkpt lat="47.26035" lon="-2.33716">
        <ele>-6.1999998092651</ele>
        <time>2021-05-02T07:11:19.000Z</time>
      </trkpt>
      <trkpt lat="47.26033" lon="-2.33721">
        <ele>-6.1999998092651</ele>
        <time>2021-05-02T07:11:20.000Z</time>
      </trkpt>
      <trkpt lat="47.26026" lon="-2.33743">
        <ele>-6.1999998092651</ele>
        <time>2021-05-02T07:11:24.000Z</time>
      </trkpt>
      <trkpt lat="47.26023" lon="-2.33749">
        <ele>-6.1999998092651</ele>
        <time>2021-05-02T07:11:25.000Z</time>
      </trkpt>
      <trkpt lat="47.26021" lon="-2.33755">
        <ele>-6.1999998092651</ele>
        <time>2021-05-02T07:11:26.000Z</time>
      </trkpt>
      <trkpt lat="47.26013" lon="-2.33776">
        <ele>-6.1999998092651</ele>
        <time>2021-05-02T07:11:30.000Z</time>
      </trkpt>
      <trkpt lat="47.26009" lon="-2.33786">
        <ele>-6.1999998092651</ele>
        <time>2021-05-02T07:11:32.000Z</time>
      </trkpt>
      <trkpt lat="47.26008" lon="-2.33807">
        <ele>-6.1999998092651</ele>
        <time>2021-05-02T07:11:35.000Z</time>
      </trkpt>
      <trkpt lat="47.2601" lon="-2.33823">
        <ele>-6.1999998092651</ele>
        <time>2021-05-02T07:11:37.000Z</time>
      </trkpt>
      <trkpt lat="47.26012" lon="-2.33857">
        <ele>-6.1999998092651</ele>
        <time>2021-05-02T07:11:42.000Z</time>
      </trkpt>
      <trkpt lat="47.26012" lon="-2.33864">
        <ele>-6.1999998092651</ele>
        <time>2021-05-02T07:11:43.000Z</time>
      </trkpt>
      <trkpt lat="47.2601" lon="-2.33883">
        <ele>-6.1999998092651</ele>
        <time>2021-05-02T07:11:46.000Z</time>
      </trkpt>
      <trkpt lat="47.2601" lon="-2.3389">
        <ele>-6.1999998092651</ele>
        <time>2021-05-02T07:11:47.000Z</time>
      </trkpt>
      <trkpt lat="47.26011" lon="-2.33909">
        <ele>-6.1999998092651</ele>
        <time>2021-05-02T07:11:50.000Z</time>
      </trkpt>
      <trkpt lat="47.26009" lon="-2.33925">
        <ele>-6.1999998092651</ele>
        <time>2021-05-02T07:11:53.000Z</time>
      </trkpt>
      <trkpt lat="47.26006" lon="-2.33962">
        <ele>-6.1999998092651</ele>
        <time>2021-05-02T07:11:59.000Z</time>
      </trkpt>
      <trkpt lat="47.26002" lon="-2.34015">
        <ele>-6.1999998092651</ele>
        <time>2021-05-02T07:12:07.000Z</time>
      </trkpt>
      <trkpt lat="47.25996" lon="-2.34073">
        <ele>-6.1999998092651</ele>
        <time>2021-05-02T07:12:16.000Z</time>
      </trkpt>
      <trkpt lat="47.26" lon="-2.34087">
        <ele>-6.1999998092651</ele>
        <time>2021-05-02T07:12:19.000Z</time>
      </trkpt>
      <trkpt lat="47.26011" lon="-2.34093">
        <ele>-6.1999998092651</ele>
        <time>2021-05-02T07:12:22.000Z</time>
      </trkpt>
      <trkpt lat="47.26041" lon="-2.34106">
        <ele>-6.1999998092651</ele>
        <time>2021-05-02T07:12:29.000Z</time>
      </trkpt>
      <trkpt lat="47.2608" lon="-2.34121">
        <ele>-6.1999998092651</ele>
        <time>2021-05-02T07:12:38.000Z</time>
      </trkpt>
      <trkpt lat="47.26109" lon="-2.34133">
        <ele>-6.1999998092651</ele>
        <time>2021-05-02T07:12:45.000Z</time>
      </trkpt>
      <trkpt lat="47.26135" lon="-2.34144">
        <ele>-6.1999998092651</ele>
        <time>2021-05-02T07:12:51.000Z</time>
      </trkpt>
      <trkpt lat="47.26143" lon="-2.3415">
        <ele>-6.1999998092651</ele>
        <time>2021-05-02T07:12:53.000Z</time>
      </trkpt>
      <trkpt lat="47.26157" lon="-2.34166">
        <ele>-6.1999998092651</ele>
        <time>2021-05-02T07:12:57.000Z</time>
      </trkpt>
      <trkpt lat="47.26188" lon="-2.34199">
        <ele>-6.1999998092651</ele>
        <time>2021-05-02T07:13:05.000Z</time>
      </trkpt>
      <trkpt lat="47.26218" lon="-2.34232">
        <ele>-6.1999998092651</ele>
        <time>2021-05-02T07:13:13.000Z</time>
      </trkpt>
      <trkpt lat="47.26249" lon="-2.34264">
        <ele>-6.1999998092651</ele>
        <time>2021-05-02T07:13:21.000Z</time>
      </trkpt>
      <trkpt lat="47.26275" lon="-2.34293">
        <ele>-6.1999998092651</ele>
        <time>2021-05-02T07:13:28.000Z</time>
      </trkpt>
      <trkpt lat="47.2631" lon="-2.34329">
        <ele>-6.1999998092651</ele>
        <time>2021-05-02T07:13:37.000Z</time>
      </trkpt>
      <trkpt lat="47.26321" lon="-2.3434">
        <ele>-6.1999998092651</ele>
        <time>2021-05-02T07:13:40.000Z</time>
      </trkpt>
      <trkpt lat="47.26335" lon="-2.34347">
        <ele>-6.1999998092651</ele>
        <time>2021-05-02T07:13:43.000Z</time>
      </trkpt>
      <trkpt lat="47.26349" lon="-2.34365">
        <ele>-6.1999998092651</ele>
        <time>2021-05-02T07:13:47.000Z</time>
      </trkpt>
      <trkpt lat="47.26358" lon="-2.34372">
        <ele>-6.1999998092651</ele>
        <time>2021-05-02T07:13:49.000Z</time>
      </trkpt>
      <trkpt lat="47.2637" lon="-2.34381">
        <ele>-6.1999998092651</ele>
        <time>2021-05-02T07:13:52.000Z</time>
      </trkpt>
      <trkpt lat="47.26412" lon="-2.34416">
        <ele>-6.1999998092651</ele>
        <time>2021-05-02T07:14:02.000Z</time>
      </trkpt>
      <trkpt lat="47.26457" lon="-2.34451">
        <ele>-6.1999998092651</ele>
        <time>2021-05-02T07:14:13.000Z</time>
      </trkpt>
      <trkpt lat="47.26494" lon="-2.34478">
        <ele>-6.1999998092651</ele>
        <time>2021-05-02T07:14:22.000Z</time>
      </trkpt>
      <trkpt lat="47.26528" lon="-2.345">
        <ele>-6.1999998092651</ele>
        <time>2021-05-02T07:14:30.000Z</time>
      </trkpt>
      <trkpt lat="47.26541" lon="-2.34508">
        <ele>-6.1999998092651</ele>
        <time>2021-05-02T07:14:33.000Z</time>
      </trkpt>
      <trkpt lat="47.26551" lon="-2.34522">
        <ele>-6.1999998092651</ele>
        <time>2021-05-02T07:14:36.000Z</time>
      </trkpt>
      <trkpt lat="47.26555" lon="-2.34527">
        <ele>-6.1999998092651</ele>
        <time>2021-05-02T07:14:37.000Z</time>
      </trkpt>
      <trkpt lat="47.26574" lon="-2.34548">
        <ele>-6.1999998092651</ele>
        <time>2021-05-02T07:14:42.000Z</time>
      </trkpt>
      <trkpt lat="47.26609" lon="-2.34586">
        <ele>-6.1999998092651</ele>
        <time>2021-05-02T07:14:51.000Z</time>
      </trkpt>
      <trkpt lat="47.26642" lon="-2.34628">
        <ele>-6.1999998092651</ele>
        <time>2021-05-02T07:15:00.000Z</time>
      </trkpt>
      <trkpt lat="47.26675" lon="-2.34667">
        <ele>-6.1999998092651</ele>
        <time>2021-05-02T07:15:09.000Z</time>
      </trkpt>
      <trkpt lat="47.26707" lon="-2.34707">
        <ele>-6.1999998092651</ele>
        <time>2021-05-02T07:15:18.000Z</time>
      </trkpt>
      <trkpt lat="47.26739" lon="-2.34746">
        <ele>-6.1999998092651</ele>
        <time>2021-05-02T07:15:27.000Z</time>
      </trkpt>
      <trkpt lat="47.26752" lon="-2.34763">
        <ele>-6.1999998092651</ele>
        <time>2021-05-02T07:15:31.000Z</time>
      </trkpt>
      <trkpt lat="47.26766" lon="-2.34781">
        <ele>-6.1999998092651</ele>
        <time>2021-05-02T07:15:35.000Z</time>
      </trkpt>
      <trkpt lat="47.26783" lon="-2.34803">
        <ele>-6.5999999046326</ele>
        <time>2021-05-02T07:15:40.000Z</time>
      </trkpt>
      <trkpt lat="47.26787" lon="-2.34809">
        <ele>-7</ele>
        <time>2021-05-02T07:15:41.000Z</time>
      </trkpt>
      <trkpt lat="47.2679" lon="-2.34814">
        <ele>-7.4000000953674</ele>
        <time>2021-05-02T07:15:42.000Z</time>
      </trkpt>
      <trkpt lat="47.26793" lon="-2.34818">
        <ele>-7.8000001907349</ele>
        <time>2021-05-02T07:15:43.000Z</time>
      </trkpt>
      <trkpt lat="47.26797" lon="-2.34823">
        <ele>-8.1999998092651</ele>
        <time>2021-05-02T07:15:44.000Z</time>
      </trkpt>
      <trkpt lat="47.26816" lon="-2.34853">
        <ele>-8.1999998092651</ele>
        <time>2021-05-02T07:15:50.000Z</time>
      </trkpt>
      <trkpt lat="47.26842" lon="-2.34892">
        <ele>-8.1999998092651</ele>
        <time>2021-05-02T07:15:58.000Z</time>
      </trkpt>
      <trkpt lat="47.26871" lon="-2.34935">
        <ele>-8.1999998092651</ele>
        <time>2021-05-02T07:16:07.000Z</time>
      </trkpt>
      <trkpt lat="47.26907" lon="-2.34989">
        <ele>-8.1999998092651</ele>
        <time>2021-05-02T07:16:18.000Z</time>
      </trkpt>
      <trkpt lat="47.2694" lon="-2.35038">
        <ele>-8.1999998092651</ele>
        <time>2021-05-02T07:16:28.000Z</time>
      </trkpt>
      <trkpt lat="47.26972" lon="-2.3509">
        <ele>-8.1999998092651</ele>
        <time>2021-05-02T07:16:38.000Z</time>
      </trkpt>
      <trkpt lat="47.26998" lon="-2.35129">
        <ele>-8.1999998092651</ele>
        <time>2021-05-02T07:16:46.000Z</time>
      </trkpt>
      <trkpt lat="47.27027" lon="-2.35173">
        <ele>-8.1999998092651</ele>
        <time>2021-05-02T07:16:55.000Z</time>
      </trkpt>
      <trkpt lat="47.27052" lon="-2.35211">
        <ele>-8.1999998092651</ele>
        <time>2021-05-02T07:17:03.000Z</time>
      </trkpt>
      <trkpt lat="47.2706" lon="-2.35225">
        <ele>-8.1999998092651</ele>
        <time>2021-05-02T07:17:06.000Z</time>
      </trkpt>
      <trkpt lat="47.27069" lon="-2.3524">
        <ele>-8.1999998092651</ele>
        <time>2021-05-02T07:17:09.000Z</time>
      </trkpt>
      <trkpt lat="47.27072" lon="-2.35245">
        <ele>-8.1999998092651</ele>
        <time>2021-05-02T07:17:10.000Z</time>
      </trkpt>
      <trkpt lat="47.27104" lon="-2.35294">
        <ele>-8.1999998092651</ele>
        <time>2021-05-02T07:17:20.000Z</time>
      </trkpt>
      <trkpt lat="47.27125" lon="-2.35329">
        <ele>-8.1999998092651</ele>
        <time>2021-05-02T07:17:27.000Z</time>
      </trkpt>
      <trkpt lat="47.27148" lon="-2.3537">
        <ele>-8.1999998092651</ele>
        <time>2021-05-02T07:17:35.000Z</time>
      </trkpt>
      <trkpt lat="47.27171" lon="-2.35412">
        <ele>-8.1999998092651</ele>
        <time>2021-05-02T07:17:43.000Z</time>
      </trkpt>
      <trkpt lat="47.27194" lon="-2.35455">
        <ele>-8.1999998092651</ele>
        <time>2021-05-02T07:17:51.000Z</time>
      </trkpt>
      <trkpt lat="47.272" lon="-2.35465">
        <ele>-8.1999998092651</ele>
        <time>2021-05-02T07:17:53.000Z</time>
      </trkpt>
      <trkpt lat="47.27209" lon="-2.3548">
        <ele>-8.1999998092651</ele>
        <time>2021-05-02T07:17:56.000Z</time>
      </trkpt>
      <trkpt lat="47.27225" lon="-2.35512">
        <ele>-8.1999998092651</ele>
        <time>2021-05-02T07:18:02.000Z</time>
      </trkpt>
      <trkpt lat="47.27231" lon="-2.35524">
        <ele>-8.1999998092651</ele>
        <time>2021-05-02T07:18:04.000Z</time>
      </trkpt>
      <trkpt lat="47.27236" lon="-2.35536">
        <ele>-8.1999998092651</ele>
        <time>2021-05-02T07:18:06.000Z</time>
      </trkpt>
      <trkpt lat="47.27247" lon="-2.35559">
        <ele>-8.1999998092651</ele>
        <time>2021-05-02T07:18:10.000Z</time>
      </trkpt>
      <trkpt lat="47.27268" lon="-2.35607">
        <ele>-8.1999998092651</ele>
        <time>2021-05-02T07:18:18.000Z</time>
      </trkpt>
      <trkpt lat="47.2729" lon="-2.35655">
        <ele>-8.1999998092651</ele>
        <time>2021-05-02T07:18:26.000Z</time>
      </trkpt>
      <trkpt lat="47.27311" lon="-2.357">
        <ele>-8.6000003814697</ele>
        <time>2021-05-02T07:18:34.000Z</time>
      </trkpt>
      <trkpt lat="47.27314" lon="-2.35707">
        <ele>-9.1999998092651</ele>
        <time>2021-05-02T07:18:35.000Z</time>
      </trkpt>
      <trkpt lat="47.27317" lon="-2.35712">
        <ele>-9.6000003814697</ele>
        <time>2021-05-02T07:18:36.000Z</time>
      </trkpt>
      <trkpt lat="47.2732" lon="-2.35717">
        <ele>-10</ele>
        <time>2021-05-02T07:18:37.000Z</time>
      </trkpt>
      <trkpt lat="47.27325" lon="-2.35718">
        <ele>-10.39999961853</ele>
        <time>2021-05-02T07:18:38.000Z</time>
      </trkpt>
      <trkpt lat="47.2734" lon="-2.3571">
        <ele>-10.39999961853</ele>
        <time>2021-05-02T07:18:41.000Z</time>
      </trkpt>
      <trkpt lat="47.27345" lon="-2.35706">
        <ele>-10.39999961853</ele>
        <time>2021-05-02T07:18:42.000Z</time>
      </trkpt>
      <trkpt lat="47.27371" lon="-2.35684">
        <ele>-10.39999961853</ele>
        <time>2021-05-02T07:18:48.000Z</time>
      </trkpt>
      <trkpt lat="47.27402" lon="-2.3566">
        <ele>-10.39999961853</ele>
        <time>2021-05-02T07:18:56.000Z</time>
      </trkpt>
      <trkpt lat="47.27419" lon="-2.35655">
        <ele>-10.39999961853</ele>
        <time>2021-05-02T07:19:01.000Z</time>
      </trkpt>
      <trkpt lat="47.27423" lon="-2.35657">
        <ele>-10.39999961853</ele>
        <time>2021-05-02T07:19:02.000Z</time>
      </trkpt>
      <trkpt lat="47.2744" lon="-2.35664">
        <ele>-10.39999961853</ele>
        <time>2021-05-02T07:19:06.000Z</time>
      </trkpt>
      <trkpt lat="47.27445" lon="-2.35665">
        <ele>-10.39999961853</ele>
        <time>2021-05-02T07:19:07.000Z</time>
      </trkpt>
      <trkpt lat="47.27472" lon="-2.35671">
        <ele>-10.39999961853</ele>
        <time>2021-05-02T07:19:13.000Z</time>
      </trkpt>
      <trkpt lat="47.27485" lon="-2.35673">
        <ele>-10.39999961853</ele>
        <time>2021-05-02T07:19:16.000Z</time>
      </trkpt>
      <trkpt lat="47.27499" lon="-2.35678">
        <ele>-10.39999961853</ele>
        <time>2021-05-02T07:19:19.000Z</time>
      </trkpt>
      <trkpt lat="47.27534" lon="-2.35686">
        <ele>-10.39999961853</ele>
        <time>2021-05-02T07:19:27.000Z</time>
      </trkpt>
      <trkpt lat="47.27575" lon="-2.35696">
        <ele>-10.39999961853</ele>
        <time>2021-05-02T07:19:36.000Z</time>
      </trkpt>
      <trkpt lat="47.2761" lon="-2.35705">
        <ele>-10.39999961853</ele>
        <time>2021-05-02T07:19:44.000Z</time>
      </trkpt>
      <trkpt lat="47.27643" lon="-2.35713">
        <ele>-10.39999961853</ele>
        <time>2021-05-02T07:19:52.000Z</time>
      </trkpt>
      <trkpt lat="47.27646" lon="-2.35714">
        <ele>-10</ele>
        <time>2021-05-02T07:19:53.000Z</time>
      </trkpt>
      <trkpt lat="47.2765" lon="-2.35715">
        <ele>-9.6000003814697</ele>
        <time>2021-05-02T07:19:54.000Z</time>
      </trkpt>
      <trkpt lat="47.27654" lon="-2.35716">
        <ele>-9.1999998092651</ele>
        <time>2021-05-02T07:19:55.000Z</time>
      </trkpt>
      <trkpt lat="47.27658" lon="-2.35718">
        <ele>-8.8000001907349</ele>
        <time>2021-05-02T07:19:56.000Z</time>
      </trkpt>
      <trkpt lat="47.27663" lon="-2.3572">
        <ele>-8.3999996185303</ele>
        <time>2021-05-02T07:19:57.000Z</time>
      </trkpt>
      <trkpt lat="47.27666" lon="-2.35721">
        <ele>-8.3999996185303</ele>
        <time>2021-05-02T07:19:58.000Z</time>
      </trkpt>
      <trkpt lat="47.27683" lon="-2.35723">
        <ele>-8.3999996185303</ele>
        <time>2021-05-02T07:20:02.000Z</time>
      </trkpt>
      <trkpt lat="47.27687" lon="-2.35724">
        <ele>-8.3999996185303</ele>
        <time>2021-05-02T07:20:03.000Z</time>
      </trkpt>
      <trkpt lat="47.27702" lon="-2.35716">
        <ele>-8.3999996185303</ele>
        <time>2021-05-02T07:20:07.000Z</time>
      </trkpt>
      <trkpt lat="47.27713" lon="-2.35706">
        <ele>-8.3999996185303</ele>
        <time>2021-05-02T07:20:10.000Z</time>
      </trkpt>
      <trkpt lat="47.27716" lon="-2.35702">
        <ele>-7.8000001907349</ele>
        <time>2021-05-02T07:20:11.000Z</time>
      </trkpt>
      <trkpt lat="47.27719" lon="-2.35698">
        <ele>-7.4000000953674</ele>
        <time>2021-05-02T07:20:12.000Z</time>
      </trkpt>
      <trkpt lat="47.27722" lon="-2.35694">
        <ele>-7</ele>
        <time>2021-05-02T07:20:13.000Z</time>
      </trkpt>
      <trkpt lat="47.27725" lon="-2.35691">
        <ele>-6.4000000953674</ele>
        <time>2021-05-02T07:20:14.000Z</time>
      </trkpt>
      <trkpt lat="47.27729" lon="-2.35687">
        <ele>-6</ele>
        <time>2021-05-02T07:20:15.000Z</time>
      </trkpt>
      <trkpt lat="47.27734" lon="-2.35678">
        <ele>-6</ele>
        <time>2021-05-02T07:20:17.000Z</time>
      </trkpt>
      <trkpt lat="47.27746" lon="-2.35661">
        <ele>-6</ele>
        <time>2021-05-02T07:20:21.000Z</time>
      </trkpt>
      <trkpt lat="47.2777" lon="-2.35631">
        <ele>-6</ele>
        <time>2021-05-02T07:20:29.000Z</time>
      </trkpt>
      <trkpt lat="47.27791" lon="-2.35614">
        <ele>-5.5999999046326</ele>
        <time>2021-05-02T07:20:35.000Z</time>
      </trkpt>
      <trkpt lat="47.27796" lon="-2.35613">
        <ele>-5.1999998092651</ele>
        <time>2021-05-02T07:20:36.000Z</time>
      </trkpt>
      <trkpt lat="47.278" lon="-2.35611">
        <ele>-4.5999999046326</ele>
        <time>2021-05-02T07:20:37.000Z</time>
      </trkpt>
      <trkpt lat="47.27804" lon="-2.3561">
        <ele>-4.1999998092651</ele>
        <time>2021-05-02T07:20:38.000Z</time>
      </trkpt>
      <trkpt lat="47.27808" lon="-2.35608">
        <ele>-3.7999999523163</ele>
        <time>2021-05-02T07:20:39.000Z</time>
      </trkpt>
      <trkpt lat="47.27827" lon="-2.35602">
        <ele>-3.7999999523163</ele>
        <time>2021-05-02T07:20:44.000Z</time>
      </trkpt>
      <trkpt lat="47.27855" lon="-2.35593">
        <ele>-3.7999999523163</ele>
        <time>2021-05-02T07:20:51.000Z</time>
      </trkpt>
      <trkpt lat="47.27879" lon="-2.35588">
        <ele>-3.4000000953674</ele>
        <time>2021-05-02T07:20:57.000Z</time>
      </trkpt>
      <trkpt lat="47.27882" lon="-2.35587">
        <ele>-3</ele>
        <time>2021-05-02T07:20:58.000Z</time>
      </trkpt>
      <trkpt lat="47.27886" lon="-2.35586">
        <ele>-2.5999999046326</ele>
        <time>2021-05-02T07:20:59.000Z</time>
      </trkpt>
      <trkpt lat="47.27889" lon="-2.35585">
        <ele>-2.2000000476837</ele>
        <time>2021-05-02T07:21:00.000Z</time>
      </trkpt>
      <trkpt lat="47.27893" lon="-2.35584">
        <ele>-1.7999999523163</ele>
        <time>2021-05-02T07:21:01.000Z</time>
      </trkpt>
      <trkpt lat="47.27906" lon="-2.35581">
        <ele>-1.7999999523163</ele>
        <time>2021-05-02T07:21:05.000Z</time>
      </trkpt>
      <trkpt lat="47.2793" lon="-2.35579">
        <ele>-1.7999999523163</ele>
        <time>2021-05-02T07:21:13.000Z</time>
      </trkpt>
      <trkpt lat="47.27936" lon="-2.35586">
        <ele>-1.7999999523163</ele>
        <time>2021-05-02T07:21:16.000Z</time>
      </trkpt>
      <trkpt lat="47.27939" lon="-2.35586">
        <ele>-1.7999999523163</ele>
        <time>2021-05-02T07:21:17.000Z</time>
      </trkpt>
      <trkpt lat="47.27956" lon="-2.35582">
        <ele>-1.2000000476837</ele>
        <time>2021-05-02T07:21:22.000Z</time>
      </trkpt>
      <trkpt lat="47.27959" lon="-2.35581">
        <ele>-0.80000001192093</ele>
        <time>2021-05-02T07:21:23.000Z</time>
      </trkpt>
      <trkpt lat="47.27962" lon="-2.3558">
        <ele>-0.40000000596046</ele>
        <time>2021-05-02T07:21:24.000Z</time>
      </trkpt>
      <trkpt lat="47.27966" lon="-2.3558">
        <ele>19.7</ele>
        <time>2021-05-02T07:21:25.000Z</time>
      </trkpt>
      <trkpt lat="47.27969" lon="-2.35579">
        <ele>0.40000000596046</ele>
        <time>2021-05-02T07:21:26.000Z</time>
      </trkpt>
      <trkpt lat="47.27979" lon="-2.35575">
        <ele>0.40000000596046</ele>
        <time>2021-05-02T07:21:29.000Z</time>
      </trkpt>
      <trkpt lat="47.28001" lon="-2.35566">
        <ele>0.40000000596046</ele>
        <time>2021-05-02T07:21:36.000Z</time>
      </trkpt>
      <trkpt lat="47.2802" lon="-2.35563">
        <ele>0.40000000596046</ele>
        <time>2021-05-02T07:21:42.000Z</time>
      </trkpt>
      <trkpt lat="47.28035" lon="-2.35571">
        <ele>0.40000000596046</ele>
        <time>2021-05-02T07:21:47.000Z</time>
      </trkpt>
      <trkpt lat="47.28049" lon="-2.35578">
        <ele>0.40000000596046</ele>
        <time>2021-05-02T07:21:52.000Z</time>
      </trkpt>
      <trkpt lat="47.28066" lon="-2.35584">
        <ele>0.40000000596046</ele>
        <time>2021-05-02T07:21:59.000Z</time>
      </trkpt>
      <trkpt lat="47.28071" lon="-2.35592">
        <ele>0.80000001192093</ele>
        <time>2021-05-02T07:22:02.000Z</time>
      </trkpt>
      <trkpt lat="47.28073" lon="-2.35595">
        <ele>1.2000000476837</ele>
        <time>2021-05-02T07:22:03.000Z</time>
      </trkpt>
      <trkpt lat="47.28075" lon="-2.35599">
        <ele>1.6000000238419</ele>
        <time>2021-05-02T07:22:04.000Z</time>
      </trkpt>
      <trkpt lat="47.28076" lon="-2.35602">
        <ele>2.4000000953674</ele>
        <time>2021-05-02T07:22:05.000Z</time>
      </trkpt>
      <trkpt lat="47.28088" lon="-2.35625">
        <ele>2.4000000953674</ele>
        <time>2021-05-02T07:22:12.000Z</time>
      </trkpt>
      <trkpt lat="47.28091" lon="-2.35635">
        <ele>2.4000000953674</ele>
        <time>2021-05-02T07:22:18.000Z</time>
      </trkpt>
      <trkpt lat="47.28091" lon="-2.35635">
        <ele>2.4000000953674</ele>
        <time>2021-05-02T07:22:19.000Z</time>
      </trkpt>
      <trkpt lat="47.28089" lon="-2.35632">
        <ele>-1.6000000238419</ele>
        <time>2021-05-02T07:38:22.000Z</time>
      </trkpt>
      <trkpt lat="47.28087" lon="-2.35625">
        <ele>-1.6000000238419</ele>
        <time>2021-05-02T07:38:25.000Z</time>
      </trkpt>
      <trkpt lat="47.28081" lon="-2.35621">
        <ele>-1.6000000238419</ele>
        <time>2021-05-02T07:38:29.000Z</time>
      </trkpt>
      <trkpt lat="47.28079" lon="-2.35623">
        <ele>-1.6000000238419</ele>
        <time>2021-05-02T07:38:30.000Z</time>
      </trkpt>
      <trkpt lat="47.28079" lon="-2.35634">
        <ele>-1.6000000238419</ele>
        <time>2021-05-02T07:38:34.000Z</time>
      </trkpt>
      <trkpt lat="47.28079" lon="-2.35637">
        <ele>-1.6000000238419</ele>
        <time>2021-05-02T07:38:36.000Z</time>
      </trkpt>
      <trkpt lat="47.28081" lon="-2.35647">
        <ele>-1.2000000476837</ele>
        <time>2021-05-02T07:38:41.000Z</time>
      </trkpt>
      <trkpt lat="47.28082" lon="-2.3565">
        <ele>-0.80000001192093</ele>
        <time>2021-05-02T07:38:42.000Z</time>
      </trkpt>
      <trkpt lat="47.28083" lon="-2.35652">
        <ele>-0.40000000596046</ele>
        <time>2021-05-02T07:38:43.000Z</time>
      </trkpt>
      <trkpt lat="47.28083" lon="-2.35656">
        <ele>25.9</ele>
        <time>2021-05-02T07:38:44.000Z</time>
      </trkpt>
      <trkpt lat="47.28083" lon="-2.3566">
        <ele>0.40000000596046</ele>
        <time>2021-05-02T07:38:45.000Z</time>
      </trkpt>
      <trkpt lat="47.28084" lon="-2.35666">
        <ele>0.40000000596046</ele>
        <time>2021-05-02T07:38:47.000Z</time>
      </trkpt>
      <trkpt lat="47.28085" lon="-2.35677">
        <ele>0.80000001192093</ele>
        <time>2021-05-02T07:38:50.000Z</time>
      </trkpt>
      <trkpt lat="47.28088" lon="-2.35682">
        <ele>1.2000000476837</ele>
        <time>2021-05-02T07:38:51.000Z</time>
      </trkpt>
      <trkpt lat="47.28089" lon="-2.35686">
        <ele>1.6000000238419</ele>
        <time>2021-05-02T07:38:52.000Z</time>
      </trkpt>
      <trkpt lat="47.2809" lon="-2.35689">
        <ele>2.2000000476837</ele>
        <time>2021-05-02T07:38:53.000Z</time>
      </trkpt>
      <trkpt lat="47.28091" lon="-2.35693">
        <ele>2.5999999046326</ele>
        <time>2021-05-02T07:38:54.000Z</time>
      </trkpt>
      <trkpt lat="47.28091" lon="-2.35718">
        <ele>2.5999999046326</ele>
        <time>2021-05-02T07:39:00.000Z</time>
      </trkpt>
      <trkpt lat="47.28086" lon="-2.35748">
        <ele>2.5999999046326</ele>
        <time>2021-05-02T07:39:05.000Z</time>
      </trkpt>
      <trkpt lat="47.28076" lon="-2.35795">
        <ele>2.5999999046326</ele>
        <time>2021-05-02T07:39:12.000Z</time>
      </trkpt>
      <trkpt lat="47.28076" lon="-2.358">
        <ele>2.2000000476837</ele>
        <time>2021-05-02T07:39:13.000Z</time>
      </trkpt>
      <trkpt lat="47.28076" lon="-2.35804">
        <ele>1.6000000238419</ele>
        <time>2021-05-02T07:39:14.000Z</time>
      </trkpt>
      <trkpt lat="47.28076" lon="-2.35806">
        <ele>1.2000000476837</ele>
        <time>2021-05-02T07:39:15.000Z</time>
      </trkpt>
      <trkpt lat="47.28076" lon="-2.35807">
        <ele>0.80000001192093</ele>
        <time>2021-05-02T07:39:16.000Z</time>
      </trkpt>
      <trkpt lat="47.28077" lon="-2.35808">
        <ele>0.40000000596046</ele>
        <time>2021-05-02T07:39:17.000Z</time>
      </trkpt>
      <trkpt lat="47.2808" lon="-2.35809">
        <ele>22.6</ele>
        <time>2021-05-02T07:39:20.000Z</time>
      </trkpt>
      <trkpt lat="47.28082" lon="-2.35809">
        <ele>-0.40000000596046</ele>
        <time>2021-05-02T07:39:21.000Z</time>
      </trkpt>
      <trkpt lat="47.28084" lon="-2.35809">
        <ele>-1.2000000476837</ele>
        <time>2021-05-02T07:39:22.000Z</time>
      </trkpt>
      <trkpt lat="47.28085" lon="-2.35811">
        <ele>-1.6000000238419</ele>
        <time>2021-05-02T07:39:23.000Z</time>
      </trkpt>
      <trkpt lat="47.28093" lon="-2.35815">
        <ele>-1.6000000238419</ele>
        <time>2021-05-02T07:39:28.000Z</time>
      </trkpt>
      <trkpt lat="47.28102" lon="-2.35823">
        <ele>-1.6000000238419</ele>
        <time>2021-05-02T07:39:35.000Z</time>
      </trkpt>
      <trkpt lat="47.28122" lon="-2.35827">
        <ele>0.80000001192093</ele>
        <time>2021-05-02T07:40:11.000Z</time>
      </trkpt>
      <trkpt lat="47.28129" lon="-2.35819">
        <ele>0.80000001192093</ele>
        <time>2021-05-02T07:40:14.000Z</time>
      </trkpt>
      <trkpt lat="47.28143" lon="-2.35811">
        <ele>0.80000001192093</ele>
        <time>2021-05-02T07:40:20.000Z</time>
      </trkpt>
      <trkpt lat="47.28159" lon="-2.35827">
        <ele>0.80000001192093</ele>
        <time>2021-05-02T07:40:26.000Z</time>
      </trkpt>
      <trkpt lat="47.28169" lon="-2.35848">
        <ele>0.80000001192093</ele>
        <time>2021-05-02T07:40:33.000Z</time>
      </trkpt>
      <trkpt lat="47.28173" lon="-2.35873">
        <ele>0.80000001192093</ele>
        <time>2021-05-02T07:40:40.000Z</time>
      </trkpt>
      <trkpt lat="47.28189" lon="-2.35912">
        <ele>0.80000001192093</ele>
        <time>2021-05-02T07:40:44.000Z</time>
      </trkpt>
      <trkpt lat="47.28185" lon="-2.35942">
        <ele>0.20000000298023</ele>
        <time>2021-05-02T07:40:49.000Z</time>
      </trkpt>
      <trkpt lat="47.28183" lon="-2.35944">
        <ele>-0.20000000298023</ele>
        <time>2021-05-02T07:40:50.000Z</time>
      </trkpt>
      <trkpt lat="47.28183" lon="-2.35947">
        <ele>-0.60000002384186</ele>
        <time>2021-05-02T07:40:51.000Z</time>
      </trkpt>
      <trkpt lat="47.28183" lon="-2.3595">
        <ele>-1</ele>
        <time>2021-05-02T07:40:52.000Z</time>
      </trkpt>
      <trkpt lat="47.28185" lon="-2.35954">
        <ele>-1.6000000238419</ele>
        <time>2021-05-02T07:40:53.000Z</time>
      </trkpt>
      <trkpt lat="47.28186" lon="-2.35958">
        <ele>-1.6000000238419</ele>
        <time>2021-05-02T07:40:54.000Z</time>
      </trkpt>
      <trkpt lat="47.28197" lon="-2.35986">
        <ele>-1.6000000238419</ele>
        <time>2021-05-02T07:40:59.000Z</time>
      </trkpt>
      <trkpt lat="47.282" lon="-2.35992">
        <ele>-2</ele>
        <time>2021-05-02T07:41:00.000Z</time>
      </trkpt>
      <trkpt lat="47.28203" lon="-2.35997">
        <ele>-2.7999999523163</ele>
        <time>2021-05-02T07:41:01.000Z</time>
      </trkpt>
      <trkpt lat="47.28206" lon="-2.36002">
        <ele>-3.2000000476837</ele>
        <time>2021-05-02T07:41:02.000Z</time>
      </trkpt>
      <trkpt lat="47.28208" lon="-2.36006">
        <ele>-3.5999999046326</ele>
        <time>2021-05-02T07:41:03.000Z</time>
      </trkpt>
      <trkpt lat="47.28213" lon="-2.36012">
        <ele>-3.5999999046326</ele>
        <time>2021-05-02T07:41:05.000Z</time>
      </trkpt>
      <trkpt lat="47.2822" lon="-2.36037">
        <ele>-3.5999999046326</ele>
        <time>2021-05-02T07:41:10.000Z</time>
      </trkpt>
      <trkpt lat="47.2822" lon="-2.3606">
        <ele>-3.5999999046326</ele>
        <time>2021-05-02T07:41:14.000Z</time>
      </trkpt>
      <trkpt lat="47.28227" lon="-2.36084">
        <ele>-3.5999999046326</ele>
        <time>2021-05-02T07:41:18.000Z</time>
      </trkpt>
      <trkpt lat="47.28229" lon="-2.3609">
        <ele>-3.5999999046326</ele>
        <time>2021-05-02T07:41:19.000Z</time>
      </trkpt>
      <trkpt lat="47.28235" lon="-2.36111">
        <ele>-3.2000000476837</ele>
        <time>2021-05-02T07:41:23.000Z</time>
      </trkpt>
      <trkpt lat="47.28236" lon="-2.36115">
        <ele>-2.7999999523163</ele>
        <time>2021-05-02T07:41:24.000Z</time>
      </trkpt>
      <trkpt lat="47.28238" lon="-2.3612">
        <ele>-1.7999999523163</ele>
        <time>2021-05-02T07:41:25.000Z</time>
      </trkpt>
      <trkpt lat="47.2824" lon="-2.36125">
        <ele>-1.2000000476837</ele>
        <time>2021-05-02T07:41:26.000Z</time>
      </trkpt>
      <trkpt lat="47.28242" lon="-2.36132">
        <ele>-1.2000000476837</ele>
        <time>2021-05-02T07:41:27.000Z</time>
      </trkpt>
      <trkpt lat="47.28246" lon="-2.36146">
        <ele>-1.2000000476837</ele>
        <time>2021-05-02T07:41:29.000Z</time>
      </trkpt>
      <trkpt lat="47.28249" lon="-2.36157">
        <ele>-1.2000000476837</ele>
        <time>2021-05-02T07:41:30.000Z</time>
      </trkpt>
      <trkpt lat="47.28254" lon="-2.36178">
        <ele>-1.6000000238419</ele>
        <time>2021-05-02T07:41:32.000Z</time>
      </trkpt>
      <trkpt lat="47.28256" lon="-2.36186">
        <ele>-2.2000000476837</ele>
        <time>2021-05-02T07:41:33.000Z</time>
      </trkpt>
      <trkpt lat="47.28259" lon="-2.36195">
        <ele>-2.5999999046326</ele>
        <time>2021-05-02T07:41:34.000Z</time>
      </trkpt>
      <trkpt lat="47.28262" lon="-2.36203">
        <ele>-3</ele>
        <time>2021-05-02T07:41:35.000Z</time>
      </trkpt>
      <trkpt lat="47.28264" lon="-2.36211">
        <ele>-3.5999999046326</ele>
        <time>2021-05-02T07:41:36.000Z</time>
      </trkpt>
      <trkpt lat="47.28269" lon="-2.36226">
        <ele>-3.5999999046326</ele>
        <time>2021-05-02T07:41:38.000Z</time>
      </trkpt>
      <trkpt lat="47.28272" lon="-2.36233">
        <ele>-3.5999999046326</ele>
        <time>2021-05-02T07:41:39.000Z</time>
      </trkpt>
      <trkpt lat="47.28288" lon="-2.36245">
        <ele>-3.5999999046326</ele>
        <time>2021-05-02T07:41:43.000Z</time>
      </trkpt>
      <trkpt lat="47.28298" lon="-2.36246">
        <ele>-3.5999999046326</ele>
        <time>2021-05-02T07:41:45.000Z</time>
      </trkpt>
      <trkpt lat="47.2831" lon="-2.36246">
        <ele>-3.5999999046326</ele>
        <time>2021-05-02T07:41:48.000Z</time>
      </trkpt>
      <trkpt lat="47.28329" lon="-2.36251">
        <ele>-3.5999999046326</ele>
        <time>2021-05-02T07:41:54.000Z</time>
      </trkpt>
      <trkpt lat="47.28338" lon="-2.36254">
        <ele>-3.2000000476837</ele>
        <time>2021-05-02T07:41:57.000Z</time>
      </trkpt>
      <trkpt lat="47.28341" lon="-2.36255">
        <ele>-2.7999999523163</ele>
        <time>2021-05-02T07:41:58.000Z</time>
      </trkpt>
      <trkpt lat="47.28344" lon="-2.36255">
        <ele>-2.4000000953674</ele>
        <time>2021-05-02T07:41:59.000Z</time>
      </trkpt>
      <trkpt lat="47.28347" lon="-2.36257">
        <ele>-2</ele>
        <time>2021-05-02T07:42:00.000Z</time>
      </trkpt>
      <trkpt lat="47.28349" lon="-2.36258">
        <ele>-1.6000000238419</ele>
        <time>2021-05-02T07:42:01.000Z</time>
      </trkpt>
      <trkpt lat="47.28355" lon="-2.36266">
        <ele>-1.6000000238419</ele>
        <time>2021-05-02T07:42:05.000Z</time>
      </trkpt>
      <trkpt lat="47.28355" lon="-2.36269">
        <ele>-1.6000000238419</ele>
        <time>2021-05-02T07:42:06.000Z</time>
      </trkpt>
      <trkpt lat="47.28357" lon="-2.36285">
        <ele>-1.6000000238419</ele>
        <time>2021-05-02T07:42:12.000Z</time>
      </trkpt>
      <trkpt lat="47.28362" lon="-2.36292">
        <ele>-1.2000000476837</ele>
        <time>2021-05-02T07:42:15.000Z</time>
      </trkpt>
      <trkpt lat="47.28364" lon="-2.36293">
        <ele>-0.80000001192093</ele>
        <time>2021-05-02T07:42:16.000Z</time>
      </trkpt>
      <trkpt lat="47.28365" lon="-2.36294">
        <ele>-0.40000000596046</ele>
        <time>2021-05-02T07:42:17.000Z</time>
      </trkpt>
      <trkpt lat="47.28367" lon="-2.36295">
        <ele>25.8</ele>
        <time>2021-05-02T07:42:18.000Z</time>
      </trkpt>
      <trkpt lat="47.28368" lon="-2.36295">
        <ele>0.40000000596046</ele>
        <time>2021-05-02T07:42:19.000Z</time>
      </trkpt>
      <trkpt lat="47.28377" lon="-2.36309">
        <ele>0.40000000596046</ele>
        <time>2021-05-02T07:42:25.000Z</time>
      </trkpt>
      <trkpt lat="47.28391" lon="-2.36331">
        <ele>0.40000000596046</ele>
        <time>2021-05-02T07:42:32.000Z</time>
      </trkpt>
      <trkpt lat="47.28392" lon="-2.36335">
        <ele>1</ele>
        <time>2021-05-02T07:42:33.000Z</time>
      </trkpt>
      <trkpt lat="47.28394" lon="-2.36338">
        <ele>1.3999999761581</ele>
        <time>2021-05-02T07:42:34.000Z</time>
      </trkpt>
      <trkpt lat="47.28396" lon="-2.36342">
        <ele>1.7999999523163</ele>
        <time>2021-05-02T07:42:35.000Z</time>
      </trkpt>
      <trkpt lat="47.28399" lon="-2.36346">
        <ele>2.2000000476837</ele>
        <time>2021-05-02T07:42:36.000Z</time>
      </trkpt>
      <trkpt lat="47.284" lon="-2.36348">
        <ele>2.5999999046326</ele>
        <time>2021-05-02T07:42:37.000Z</time>
      </trkpt>
      <trkpt lat="47.28408" lon="-2.36354">
        <ele>2.5999999046326</ele>
        <time>2021-05-02T07:42:39.000Z</time>
      </trkpt>
      <trkpt lat="47.28426" lon="-2.36367">
        <ele>2.5999999046326</ele>
        <time>2021-05-02T07:42:46.000Z</time>
      </trkpt>
      <trkpt lat="47.28444" lon="-2.36384">
        <ele>3.2000000476837</ele>
        <time>2021-05-02T07:42:54.000Z</time>
      </trkpt>
      <trkpt lat="47.28448" lon="-2.36388">
        <ele>3.5999999046326</ele>
        <time>2021-05-02T07:42:55.000Z</time>
      </trkpt>
      <trkpt lat="47.28449" lon="-2.3639">
        <ele>4</ele>
        <time>2021-05-02T07:42:56.000Z</time>
      </trkpt>
      <trkpt lat="47.28452" lon="-2.36394">
        <ele>4.4000000953674</ele>
        <time>2021-05-02T07:42:57.000Z</time>
      </trkpt>
      <trkpt lat="47.28454" lon="-2.36398">
        <ele>5</ele>
        <time>2021-05-02T07:42:58.000Z</time>
      </trkpt>
      <trkpt lat="47.28459" lon="-2.36403">
        <ele>5</ele>
        <time>2021-05-02T07:42:59.000Z</time>
      </trkpt>
      <trkpt lat="47.28479" lon="-2.36423">
        <ele>5</ele>
        <time>2021-05-02T07:43:06.000Z</time>
      </trkpt>
      <trkpt lat="47.28497" lon="-2.36437">
        <ele>5</ele>
        <time>2021-05-02T07:43:11.000Z</time>
      </trkpt>
      <trkpt lat="47.28515" lon="-2.36461">
        <ele>5</ele>
        <time>2021-05-02T07:43:17.000Z</time>
      </trkpt>
      <trkpt lat="47.28519" lon="-2.3649">
        <ele>5</ele>
        <time>2021-05-02T07:43:23.000Z</time>
      </trkpt>
      <trkpt lat="47.28518" lon="-2.36516">
        <ele>5</ele>
        <time>2021-05-02T07:43:29.000Z</time>
      </trkpt>
      <trkpt lat="47.28516" lon="-2.36526">
        <ele>4.4000000953674</ele>
        <time>2021-05-02T07:43:31.000Z</time>
      </trkpt>
      <trkpt lat="47.28514" lon="-2.36531">
        <ele>4</ele>
        <time>2021-05-02T07:43:32.000Z</time>
      </trkpt>
      <trkpt lat="47.28511" lon="-2.36536">
        <ele>3.5999999046326</ele>
        <time>2021-05-02T07:43:33.000Z</time>
      </trkpt>
      <trkpt lat="47.28509" lon="-2.36541">
        <ele>3.2000000476837</ele>
        <time>2021-05-02T07:43:34.000Z</time>
      </trkpt>
      <trkpt lat="47.28505" lon="-2.36548">
        <ele>2.7999999523163</ele>
        <time>2021-05-02T07:43:35.000Z</time>
      </trkpt>
      <trkpt lat="47.28488" lon="-2.36571">
        <ele>2.7999999523163</ele>
        <time>2021-05-02T07:43:39.000Z</time>
      </trkpt>
      <trkpt lat="47.28486" lon="-2.36578">
        <ele>2.7999999523163</ele>
        <time>2021-05-02T07:43:40.000Z</time>
      </trkpt>
      <trkpt lat="47.28486" lon="-2.366">
        <ele>2.4000000953674</ele>
        <time>2021-05-02T07:43:43.000Z</time>
      </trkpt>
      <trkpt lat="47.28488" lon="-2.36607">
        <ele>2</ele>
        <time>2021-05-02T07:43:44.000Z</time>
      </trkpt>
      <trkpt lat="47.2849" lon="-2.36615">
        <ele>1.6000000238419</ele>
        <time>2021-05-02T07:43:45.000Z</time>
      </trkpt>
      <trkpt lat="47.28491" lon="-2.36622">
        <ele>1.2000000476837</ele>
        <time>2021-05-02T07:43:46.000Z</time>
      </trkpt>
      <trkpt lat="47.28493" lon="-2.3663">
        <ele>0.80000001192093</ele>
        <time>2021-05-02T07:43:47.000Z</time>
      </trkpt>
      <trkpt lat="47.28498" lon="-2.36651">
        <ele>0.80000001192093</ele>
        <time>2021-05-02T07:43:50.000Z</time>
      </trkpt>
      <trkpt lat="47.28503" lon="-2.36669">
        <ele>0.80000001192093</ele>
        <time>2021-05-02T07:43:53.000Z</time>
      </trkpt>
      <trkpt lat="47.28509" lon="-2.36679">
        <ele>0.80000001192093</ele>
        <time>2021-05-02T07:43:55.000Z</time>
      </trkpt>
      <trkpt lat="47.2853" lon="-2.36715">
        <ele>0.80000001192093</ele>
        <time>2021-05-02T07:44:01.000Z</time>
      </trkpt>
      <trkpt lat="47.28543" lon="-2.36741">
        <ele>0.20000000298023</ele>
        <time>2021-05-02T07:44:04.000Z</time>
      </trkpt>
      <trkpt lat="47.28548" lon="-2.3675">
        <ele>-0.20000000298023</ele>
        <time>2021-05-02T07:44:05.000Z</time>
      </trkpt>
      <trkpt lat="47.28553" lon="-2.36759">
        <ele>-0.60000002384186</ele>
        <time>2021-05-02T07:44:06.000Z</time>
      </trkpt>
      <trkpt lat="47.28557" lon="-2.36768">
        <ele>-1</ele>
        <time>2021-05-02T07:44:07.000Z</time>
      </trkpt>
      <trkpt lat="47.28562" lon="-2.36777">
        <ele>-1.3999999761581</ele>
        <time>2021-05-02T07:44:08.000Z</time>
      </trkpt>
      <trkpt lat="47.28577" lon="-2.36811">
        <ele>-2</ele>
        <time>2021-05-02T07:44:12.000Z</time>
      </trkpt>
      <trkpt lat="47.28581" lon="-2.36818">
        <ele>-2.4000000953674</ele>
        <time>2021-05-02T07:44:13.000Z</time>
      </trkpt>
      <trkpt lat="47.28584" lon="-2.36825">
        <ele>-2.7999999523163</ele>
        <time>2021-05-02T07:44:14.000Z</time>
      </trkpt>
      <trkpt lat="47.28587" lon="-2.36831">
        <ele>-3.4000000953674</ele>
        <time>2021-05-02T07:44:15.000Z</time>
      </trkpt>
      <trkpt lat="47.28589" lon="-2.36836">
        <ele>-4</ele>
        <time>2021-05-02T07:44:16.000Z</time>
      </trkpt>
      <trkpt lat="47.28592" lon="-2.3684">
        <ele>-4.5999999046326</ele>
        <time>2021-05-02T07:44:17.000Z</time>
      </trkpt>
      <trkpt lat="47.28594" lon="-2.36844">
        <ele>-5</ele>
        <time>2021-05-02T07:44:18.000Z</time>
      </trkpt>
      <trkpt lat="47.28597" lon="-2.36848">
        <ele>-5.5999999046326</ele>
        <time>2021-05-02T07:44:19.000Z</time>
      </trkpt>
      <trkpt lat="47.286" lon="-2.36849">
        <ele>-6.1999998092651</ele>
        <time>2021-05-02T07:44:20.000Z</time>
      </trkpt>
      <trkpt lat="47.28604" lon="-2.36849">
        <ele>-6.1999998092651</ele>
        <time>2021-05-02T07:44:21.000Z</time>
      </trkpt>
      <trkpt lat="47.28616" lon="-2.36841">
        <ele>-6.1999998092651</ele>
        <time>2021-05-02T07:44:24.000Z</time>
      </trkpt>
      <trkpt lat="47.28618" lon="-2.36836">
        <ele>-6.1999998092651</ele>
        <time>2021-05-02T07:44:25.000Z</time>
      </trkpt>
      <trkpt lat="47.28633" lon="-2.36818">
        <ele>-6.1999998092651</ele>
        <time>2021-05-02T07:44:30.000Z</time>
      </trkpt>
      <trkpt lat="47.28652" lon="-2.36792">
        <ele>-6.1999998092651</ele>
        <time>2021-05-02T07:44:38.000Z</time>
      </trkpt>
      <trkpt lat="47.28657" lon="-2.36784">
        <ele>-5.8000001907349</ele>
        <time>2021-05-02T07:44:41.000Z</time>
      </trkpt>
      <trkpt lat="47.2866" lon="-2.36782">
        <ele>-5.4000000953674</ele>
        <time>2021-05-02T07:44:42.000Z</time>
      </trkpt>
      <trkpt lat="47.28662" lon="-2.36781">
        <ele>-5</ele>
        <time>2021-05-02T07:44:43.000Z</time>
      </trkpt>
      <trkpt lat="47.28664" lon="-2.36779">
        <ele>-4.5999999046326</ele>
        <time>2021-05-02T07:44:44.000Z</time>
      </trkpt>
      <trkpt lat="47.28666" lon="-2.36776">
        <ele>-4.1999998092651</ele>
        <time>2021-05-02T07:44:45.000Z</time>
      </trkpt>
      <trkpt lat="47.28674" lon="-2.36763">
        <ele>-4.1999998092651</ele>
        <time>2021-05-02T07:44:49.000Z</time>
      </trkpt>
      <trkpt lat="47.28676" lon="-2.3676">
        <ele>-3.7999999523163</ele>
        <time>2021-05-02T07:44:50.000Z</time>
      </trkpt>
      <trkpt lat="47.28678" lon="-2.36758">
        <ele>-3.4000000953674</ele>
        <time>2021-05-02T07:44:51.000Z</time>
      </trkpt>
      <trkpt lat="47.2868" lon="-2.36756">
        <ele>-2.7999999523163</ele>
        <time>2021-05-02T07:44:52.000Z</time>
      </trkpt>
      <trkpt lat="47.28682" lon="-2.36753">
        <ele>-2.4000000953674</ele>
        <time>2021-05-02T07:44:53.000Z</time>
      </trkpt>
      <trkpt lat="47.28684" lon="-2.36751">
        <ele>-2</ele>
        <time>2021-05-02T07:44:54.000Z</time>
      </trkpt>
      <trkpt lat="47.28694" lon="-2.36736">
        <ele>-2</ele>
        <time>2021-05-02T07:44:59.000Z</time>
      </trkpt>
      <trkpt lat="47.28697" lon="-2.36728">
        <ele>-1.6000000238419</ele>
        <time>2021-05-02T07:45:01.000Z</time>
      </trkpt>
      <trkpt lat="47.287" lon="-2.36724">
        <ele>-0.80000001192093</ele>
        <time>2021-05-02T07:45:02.000Z</time>
      </trkpt>
      <trkpt lat="47.28702" lon="-2.36719">
        <ele>-0.40000000596046</ele>
        <time>2021-05-02T07:45:03.000Z</time>
      </trkpt>
      <trkpt lat="47.28704" lon="-2.36715">
        <ele>27.9</ele>
        <time>2021-05-02T07:45:04.000Z</time>
      </trkpt>
      <trkpt lat="47.28707" lon="-2.36706">
        <ele>28.3</ele>
        <time>2021-05-02T07:45:06.000Z</time>
      </trkpt>
      <trkpt lat="47.28719" lon="-2.36681">
        <ele>0.60000002384186</ele>
        <time>2021-05-02T07:45:12.000Z</time>
      </trkpt>
      <trkpt lat="47.2872" lon="-2.36677">
        <ele>1</ele>
        <time>2021-05-02T07:45:13.000Z</time>
      </trkpt>
      <trkpt lat="47.28722" lon="-2.36673">
        <ele>1.3999999761581</ele>
        <time>2021-05-02T07:45:14.000Z</time>
      </trkpt>
      <trkpt lat="47.28724" lon="-2.3667">
        <ele>1.7999999523163</ele>
        <time>2021-05-02T07:45:15.000Z</time>
      </trkpt>
      <trkpt lat="47.28726" lon="-2.36666">
        <ele>2.2000000476837</ele>
        <time>2021-05-02T07:45:16.000Z</time>
      </trkpt>
      <trkpt lat="47.28734" lon="-2.36651">
        <ele>2.5999999046326</ele>
        <time>2021-05-02T07:45:20.000Z</time>
      </trkpt>
      <trkpt lat="47.28736" lon="-2.36646">
        <ele>3</ele>
        <time>2021-05-02T07:45:21.000Z</time>
      </trkpt>
      <trkpt lat="47.28738" lon="-2.36641">
        <ele>3.4000000953674</ele>
        <time>2021-05-02T07:45:22.000Z</time>
      </trkpt>
      <trkpt lat="47.28741" lon="-2.36636">
        <ele>3.7999999523163</ele>
        <time>2021-05-02T07:45:23.000Z</time>
      </trkpt>
      <trkpt lat="47.28744" lon="-2.36631">
        <ele>4.1999998092651</ele>
        <time>2021-05-02T07:45:24.000Z</time>
      </trkpt>
      <trkpt lat="47.28749" lon="-2.36619">
        <ele>4.1999998092651</ele>
        <time>2021-05-02T07:45:27.000Z</time>
      </trkpt>
      <trkpt lat="47.28761" lon="-2.36596">
        <ele>4.1999998092651</ele>
        <time>2021-05-02T07:45:33.000Z</time>
      </trkpt>
      <trkpt lat="47.28775" lon="-2.36574">
        <ele>4.1999998092651</ele>
        <time>2021-05-02T07:45:38.000Z</time>
      </trkpt>
      <trkpt lat="47.28778" lon="-2.3657">
        <ele>4.1999998092651</ele>
        <time>2021-05-02T07:45:39.000Z</time>
      </trkpt>
      <trkpt lat="47.28785" lon="-2.3657">
        <ele>4.1999998092651</ele>
        <time>2021-05-02T07:45:42.000Z</time>
      </trkpt>
      <trkpt lat="47.28788" lon="-2.36577">
        <ele>4.1999998092651</ele>
        <time>2021-05-02T07:45:44.000Z</time>
      </trkpt>
      <trkpt lat="47.28798" lon="-2.36594">
        <ele>4.1999998092651</ele>
        <time>2021-05-02T07:45:48.000Z</time>
      </trkpt>
      <trkpt lat="47.28816" lon="-2.36635">
        <ele>4.1999998092651</ele>
        <time>2021-05-02T07:45:54.000Z</time>
      </trkpt>
      <trkpt lat="47.28816" lon="-2.36643">
        <ele>3.7999999523163</ele>
        <time>2021-05-02T07:45:55.000Z</time>
      </trkpt>
      <trkpt lat="47.28816" lon="-2.36652">
        <ele>3.4000000953674</ele>
        <time>2021-05-02T07:45:56.000Z</time>
      </trkpt>
      <trkpt lat="47.28814" lon="-2.3666">
        <ele>2.7999999523163</ele>
        <time>2021-05-02T07:45:57.000Z</time>
      </trkpt>
      <trkpt lat="47.28812" lon="-2.36668">
        <ele>2.4000000953674</ele>
        <time>2021-05-02T07:45:58.000Z</time>
      </trkpt>
      <trkpt lat="47.2881" lon="-2.36677">
        <ele>2</ele>
        <time>2021-05-02T07:45:59.000Z</time>
      </trkpt>
      <trkpt lat="47.28808" lon="-2.36686">
        <ele>1.6000000238419</ele>
        <time>2021-05-02T07:46:00.000Z</time>
      </trkpt>
      <trkpt lat="47.28806" lon="-2.36697">
        <ele>1</ele>
        <time>2021-05-02T07:46:01.000Z</time>
      </trkpt>
      <trkpt lat="47.28804" lon="-2.36707">
        <ele>0.60000002384186</ele>
        <time>2021-05-02T07:46:02.000Z</time>
      </trkpt>
      <trkpt lat="47.28801" lon="-2.36717">
        <ele>-0.40000000596046</ele>
        <time>2021-05-02T07:46:03.000Z</time>
      </trkpt>
      <trkpt lat="47.28799" lon="-2.36726">
        <ele>-1.2000000476837</ele>
        <time>2021-05-02T07:46:04.000Z</time>
      </trkpt>
      <trkpt lat="47.28797" lon="-2.36734">
        <ele>-2.2000000476837</ele>
        <time>2021-05-02T07:46:05.000Z</time>
      </trkpt>
      <trkpt lat="47.28796" lon="-2.36741">
        <ele>-3</ele>
        <time>2021-05-02T07:46:06.000Z</time>
      </trkpt>
      <trkpt lat="47.28794" lon="-2.36749">
        <ele>-4</ele>
        <time>2021-05-02T07:46:07.000Z</time>
      </trkpt>
      <trkpt lat="47.28792" lon="-2.36757">
        <ele>-5</ele>
        <time>2021-05-02T07:46:08.000Z</time>
      </trkpt>
      <trkpt lat="47.2879" lon="-2.36766">
        <ele>-5.8000001907349</ele>
        <time>2021-05-02T07:46:09.000Z</time>
      </trkpt>
      <trkpt lat="47.28786" lon="-2.36782">
        <ele>-6.1999998092651</ele>
        <time>2021-05-02T07:46:11.000Z</time>
      </trkpt>
      <trkpt lat="47.28784" lon="-2.3679">
        <ele>-6.8000001907349</ele>
        <time>2021-05-02T07:46:12.000Z</time>
      </trkpt>
      <trkpt lat="47.28782" lon="-2.36796">
        <ele>-7.1999998092651</ele>
        <time>2021-05-02T07:46:13.000Z</time>
      </trkpt>
      <trkpt lat="47.2878" lon="-2.36803">
        <ele>-7.5999999046326</ele>
        <time>2021-05-02T07:46:14.000Z</time>
      </trkpt>
      <trkpt lat="47.28778" lon="-2.36809">
        <ele>-8</ele>
        <time>2021-05-02T07:46:15.000Z</time>
      </trkpt>
      <trkpt lat="47.28777" lon="-2.36815">
        <ele>-8.8000001907349</ele>
        <time>2021-05-02T07:46:16.000Z</time>
      </trkpt>
      <trkpt lat="47.28777" lon="-2.3682">
        <ele>-9.1999998092651</ele>
        <time>2021-05-02T07:46:17.000Z</time>
      </trkpt>
      <trkpt lat="47.28777" lon="-2.36825">
        <ele>-9.6000003814697</ele>
        <time>2021-05-02T07:46:18.000Z</time>
      </trkpt>
      <trkpt lat="47.28777" lon="-2.3683">
        <ele>-10</ele>
        <time>2021-05-02T07:46:19.000Z</time>
      </trkpt>
      <trkpt lat="47.28777" lon="-2.36834">
        <ele>-10.39999961853</ele>
        <time>2021-05-02T07:46:20.000Z</time>
      </trkpt>
      <trkpt lat="47.28776" lon="-2.36839">
        <ele>-11</ele>
        <time>2021-05-02T07:46:21.000Z</time>
      </trkpt>
      <trkpt lat="47.28776" lon="-2.36843">
        <ele>-11.39999961853</ele>
        <time>2021-05-02T07:46:22.000Z</time>
      </trkpt>
      <trkpt lat="47.28776" lon="-2.36848">
        <ele>-11.800000190735</ele>
        <time>2021-05-02T07:46:23.000Z</time>
      </trkpt>
      <trkpt lat="47.28776" lon="-2.36852">
        <ele>-12.199999809265</ele>
        <time>2021-05-02T07:46:24.000Z</time>
      </trkpt>
      <trkpt lat="47.28776" lon="-2.36857">
        <ele>-12.199999809265</ele>
        <time>2021-05-02T07:46:25.000Z</time>
      </trkpt>
      <trkpt lat="47.28774" lon="-2.36872">
        <ele>-12.60000038147</ele>
        <time>2021-05-02T07:46:28.000Z</time>
      </trkpt>
      <trkpt lat="47.28772" lon="-2.36877">
        <ele>-13.199999809265</ele>
        <time>2021-05-02T07:46:29.000Z</time>
      </trkpt>
      <trkpt lat="47.2877" lon="-2.3688">
        <ele>-13.60000038147</ele>
        <time>2021-05-02T07:46:30.000Z</time>
      </trkpt>
      <trkpt lat="47.28767" lon="-2.36884">
        <ele>-14</ele>
        <time>2021-05-02T07:46:31.000Z</time>
      </trkpt>
      <trkpt lat="47.28764" lon="-2.36888">
        <ele>-14.60000038147</ele>
        <time>2021-05-02T07:46:32.000Z</time>
      </trkpt>
      <trkpt lat="47.28757" lon="-2.36893">
        <ele>-14.60000038147</ele>
        <time>2021-05-02T07:46:34.000Z</time>
      </trkpt>
      <trkpt lat="47.28747" lon="-2.36906">
        <ele>-14.60000038147</ele>
        <time>2021-05-02T07:46:37.000Z</time>
      </trkpt>
      <trkpt lat="47.28746" lon="-2.3691">
        <ele>-14</ele>
        <time>2021-05-02T07:46:38.000Z</time>
      </trkpt>
      <trkpt lat="47.28746" lon="-2.36913">
        <ele>-13.60000038147</ele>
        <time>2021-05-02T07:46:39.000Z</time>
      </trkpt>
      <trkpt lat="47.28747" lon="-2.36916">
        <ele>-13.199999809265</ele>
        <time>2021-05-02T07:46:40.000Z</time>
      </trkpt>
      <trkpt lat="47.28747" lon="-2.36919">
        <ele>-12.199999809265</ele>
        <time>2021-05-02T07:46:41.000Z</time>
      </trkpt>
      <trkpt lat="47.28751" lon="-2.36926">
        <ele>-11.800000190735</ele>
        <time>2021-05-02T07:46:43.000Z</time>
      </trkpt>
      <trkpt lat="47.28752" lon="-2.36929">
        <ele>-11.199999809265</ele>
        <time>2021-05-02T07:46:44.000Z</time>
      </trkpt>
      <trkpt lat="47.28754" lon="-2.36933">
        <ele>-10.800000190735</ele>
        <time>2021-05-02T07:46:45.000Z</time>
      </trkpt>
      <trkpt lat="47.28755" lon="-2.36937">
        <ele>-10.39999961853</ele>
        <time>2021-05-02T07:46:46.000Z</time>
      </trkpt>
      <trkpt lat="47.28756" lon="-2.3694">
        <ele>-9.8000001907349</ele>
        <time>2021-05-02T07:46:47.000Z</time>
      </trkpt>
      <trkpt lat="47.28756" lon="-2.36944">
        <ele>-9.3999996185303</ele>
        <time>2021-05-02T07:46:48.000Z</time>
      </trkpt>
      <trkpt lat="47.28756" lon="-2.36947">
        <ele>-9</ele>
        <time>2021-05-02T07:46:49.000Z</time>
      </trkpt>
      <trkpt lat="47.28756" lon="-2.36951">
        <ele>-8.6000003814697</ele>
        <time>2021-05-02T07:46:50.000Z</time>
      </trkpt>
      <trkpt lat="47.28756" lon="-2.36954">
        <ele>-8.1999998092651</ele>
        <time>2021-05-02T07:46:51.000Z</time>
      </trkpt>
      <trkpt lat="47.28756" lon="-2.36957">
        <ele>-7.8000001907349</ele>
        <time>2021-05-02T07:46:52.000Z</time>
      </trkpt>
      <trkpt lat="47.28757" lon="-2.36961">
        <ele>-7.1999998092651</ele>
        <time>2021-05-02T07:46:53.000Z</time>
      </trkpt>
      <trkpt lat="47.28758" lon="-2.36965">
        <ele>-6.8000001907349</ele>
        <time>2021-05-02T07:46:54.000Z</time>
      </trkpt>
      <trkpt lat="47.28759" lon="-2.36968">
        <ele>-6.1999998092651</ele>
        <time>2021-05-02T07:46:55.000Z</time>
      </trkpt>
      <trkpt lat="47.2876" lon="-2.36972">
        <ele>-5.8000001907349</ele>
        <time>2021-05-02T07:46:56.000Z</time>
      </trkpt>
      <trkpt lat="47.28762" lon="-2.36976">
        <ele>-5.8000001907349</ele>
        <time>2021-05-02T07:46:57.000Z</time>
      </trkpt>
      <trkpt lat="47.28773" lon="-2.36996">
        <ele>-5.8000001907349</ele>
        <time>2021-05-02T07:47:02.000Z</time>
      </trkpt>
      <trkpt lat="47.28785" lon="-2.37037">
        <ele>-5.8000001907349</ele>
        <time>2021-05-02T07:47:09.000Z</time>
      </trkpt>
      <trkpt lat="47.28791" lon="-2.37061">
        <ele>-6.1999998092651</ele>
        <time>2021-05-02T07:47:12.000Z</time>
      </trkpt>
      <trkpt lat="47.28792" lon="-2.37075">
        <ele>-6.5999999046326</ele>
        <time>2021-05-02T07:47:13.000Z</time>
      </trkpt>
      <trkpt lat="47.28793" lon="-2.37084">
        <ele>-7</ele>
        <time>2021-05-02T07:47:14.000Z</time>
      </trkpt>
      <trkpt lat="47.28794" lon="-2.37093">
        <ele>-7.4000000953674</ele>
        <time>2021-05-02T07:47:15.000Z</time>
      </trkpt>
      <trkpt lat="47.28795" lon="-2.37101">
        <ele>-8</ele>
        <time>2021-05-02T07:47:16.000Z</time>
      </trkpt>
      <trkpt lat="47.28797" lon="-2.37107">
        <ele>-8.6000003814697</ele>
        <time>2021-05-02T07:47:17.000Z</time>
      </trkpt>
      <trkpt lat="47.28798" lon="-2.3711">
        <ele>-9.1999998092651</ele>
        <time>2021-05-02T07:47:18.000Z</time>
      </trkpt>
      <trkpt lat="47.288" lon="-2.37112">
        <ele>-9.8000001907349</ele>
        <time>2021-05-02T07:47:19.000Z</time>
      </trkpt>
      <trkpt lat="47.28802" lon="-2.37113">
        <ele>-10.39999961853</ele>
        <time>2021-05-02T07:47:20.000Z</time>
      </trkpt>
      <trkpt lat="47.28809" lon="-2.37112">
        <ele>-10.800000190735</ele>
        <time>2021-05-02T07:47:22.000Z</time>
      </trkpt>
      <trkpt lat="47.28814" lon="-2.3711">
        <ele>-11.199999809265</ele>
        <time>2021-05-02T07:47:23.000Z</time>
      </trkpt>
      <trkpt lat="47.28817" lon="-2.37108">
        <ele>-11.800000190735</ele>
        <time>2021-05-02T07:47:24.000Z</time>
      </trkpt>
      <trkpt lat="47.2882" lon="-2.37107">
        <ele>-12.39999961853</ele>
        <time>2021-05-02T07:47:25.000Z</time>
      </trkpt>
      <trkpt lat="47.28822" lon="-2.37108">
        <ele>-13</ele>
        <time>2021-05-02T07:47:26.000Z</time>
      </trkpt>
      <trkpt lat="47.28824" lon="-2.37113">
        <ele>-13.60000038147</ele>
        <time>2021-05-02T07:47:27.000Z</time>
      </trkpt>
      <trkpt lat="47.28825" lon="-2.37117">
        <ele>-14.199999809265</ele>
        <time>2021-05-02T07:47:28.000Z</time>
      </trkpt>
      <trkpt lat="47.28824" lon="-2.37122">
        <ele>-14.800000190735</ele>
        <time>2021-05-02T07:47:29.000Z</time>
      </trkpt>
      <trkpt lat="47.28824" lon="-2.37128">
        <ele>-16</ele>
        <time>2021-05-02T07:47:30.000Z</time>
      </trkpt>
      <trkpt lat="47.28824" lon="-2.37134">
        <ele>-16.60000038147</ele>
        <time>2021-05-02T07:47:31.000Z</time>
      </trkpt>
      <trkpt lat="47.28824" lon="-2.3714">
        <ele>-17.200000762939</ele>
        <time>2021-05-02T07:47:32.000Z</time>
      </trkpt>
      <trkpt lat="47.28825" lon="-2.37147">
        <ele>-17.200000762939</ele>
        <time>2021-05-02T07:47:33.000Z</time>
      </trkpt>
      <trkpt lat="47.28833" lon="-2.3719">
        <ele>-17.200000762939</ele>
        <time>2021-05-02T07:47:39.000Z</time>
      </trkpt>
      <trkpt lat="47.28842" lon="-2.37235">
        <ele>-17.200000762939</ele>
        <time>2021-05-02T07:47:46.000Z</time>
      </trkpt>
      <trkpt lat="47.28844" lon="-2.3724">
        <ele>-17.200000762939</ele>
        <time>2021-05-02T07:47:47.000Z</time>
      </trkpt>
      <trkpt lat="47.28849" lon="-2.37252">
        <ele>-17.200000762939</ele>
        <time>2021-05-02T07:47:49.000Z</time>
      </trkpt>
      <trkpt lat="47.2885" lon="-2.37259">
        <ele>-17.200000762939</ele>
        <time>2021-05-02T07:47:50.000Z</time>
      </trkpt>
      <trkpt lat="47.28857" lon="-2.37315">
        <ele>-17.200000762939</ele>
        <time>2021-05-02T07:47:58.000Z</time>
      </trkpt>
      <trkpt lat="47.28861" lon="-2.37349">
        <ele>-17.200000762939</ele>
        <time>2021-05-02T07:48:04.000Z</time>
      </trkpt>
      <trkpt lat="47.28867" lon="-2.37394">
        <ele>-17.200000762939</ele>
        <time>2021-05-02T07:48:11.000Z</time>
      </trkpt>
      <trkpt lat="47.28874" lon="-2.37448">
        <ele>-17.200000762939</ele>
        <time>2021-05-02T07:48:17.000Z</time>
      </trkpt>
      <trkpt lat="47.2888" lon="-2.37491">
        <ele>-17.200000762939</ele>
        <time>2021-05-02T07:48:22.000Z</time>
      </trkpt>
      <trkpt lat="47.28883" lon="-2.3751">
        <ele>-17.200000762939</ele>
        <time>2021-05-02T07:48:25.000Z</time>
      </trkpt>
      <trkpt lat="47.28884" lon="-2.37516">
        <ele>-17.60000038147</ele>
        <time>2021-05-02T07:48:26.000Z</time>
      </trkpt>
      <trkpt lat="47.28886" lon="-2.37522">
        <ele>-18</ele>
        <time>2021-05-02T07:48:27.000Z</time>
      </trkpt>
      <trkpt lat="47.28887" lon="-2.37527">
        <ele>-18.39999961853</ele>
        <time>2021-05-02T07:48:28.000Z</time>
      </trkpt>
      <trkpt lat="47.28889" lon="-2.3753">
        <ele>-18.799999237061</ele>
        <time>2021-05-02T07:48:29.000Z</time>
      </trkpt>
      <trkpt lat="47.2889" lon="-2.37532">
        <ele>-19.200000762939</ele>
        <time>2021-05-02T07:48:30.000Z</time>
      </trkpt>
      <trkpt lat="47.2889" lon="-2.37533">
        <ele>-19.200000762939</ele>
        <time>2021-05-02T07:48:31.000Z</time>
      </trkpt>
      <trkpt lat="47.2889" lon="-2.37533">
        <ele>-19.200000762939</ele>
        <time>2021-05-02T07:48:32.000Z</time>
      </trkpt>
      <trkpt lat="47.28891" lon="-2.37538">
        <ele>-19.200000762939</ele>
        <time>2021-05-02T07:48:36.000Z</time>
      </trkpt>
      <trkpt lat="47.28892" lon="-2.37541">
        <ele>-19.200000762939</ele>
        <time>2021-05-02T07:48:37.000Z</time>
      </trkpt>
      <trkpt lat="47.28898" lon="-2.37561">
        <ele>-19.200000762939</ele>
        <time>2021-05-02T07:48:41.000Z</time>
      </trkpt>
      <trkpt lat="47.28904" lon="-2.37592">
        <ele>-19.200000762939</ele>
        <time>2021-05-02T07:48:46.000Z</time>
      </trkpt>
      <trkpt lat="47.28905" lon="-2.37598">
        <ele>-19.200000762939</ele>
        <time>2021-05-02T07:48:47.000Z</time>
      </trkpt>
      <trkpt lat="47.2891" lon="-2.37642">
        <ele>-19.200000762939</ele>
        <time>2021-05-02T07:48:54.000Z</time>
      </trkpt>
      <trkpt lat="47.28912" lon="-2.37646">
        <ele>-19.200000762939</ele>
        <time>2021-05-02T07:48:55.000Z</time>
      </trkpt>
      <trkpt lat="47.28919" lon="-2.37649">
        <ele>-19.200000762939</ele>
        <time>2021-05-02T07:48:57.000Z</time>
      </trkpt>
      <trkpt lat="47.28926" lon="-2.37647">
        <ele>-19.200000762939</ele>
        <time>2021-05-02T07:48:59.000Z</time>
      </trkpt>
      <trkpt lat="47.28936" lon="-2.37648">
        <ele>-19.200000762939</ele>
        <time>2021-05-02T07:49:02.000Z</time>
      </trkpt>
      <trkpt lat="47.28937" lon="-2.37657">
        <ele>-19.60000038147</ele>
        <time>2021-05-02T07:49:04.000Z</time>
      </trkpt>
      <trkpt lat="47.28938" lon="-2.37664">
        <ele>-20</ele>
        <time>2021-05-02T07:49:05.000Z</time>
      </trkpt>
      <trkpt lat="47.28939" lon="-2.37671">
        <ele>-20.39999961853</ele>
        <time>2021-05-02T07:49:06.000Z</time>
      </trkpt>
      <trkpt lat="47.28939" lon="-2.37678">
        <ele>-21</ele>
        <time>2021-05-02T07:49:07.000Z</time>
      </trkpt>
      <trkpt lat="47.28938" lon="-2.37685">
        <ele>-21.39999961853</ele>
        <time>2021-05-02T07:49:08.000Z</time>
      </trkpt>
      <trkpt lat="47.28938" lon="-2.37693">
        <ele>-21.39999961853</ele>
        <time>2021-05-02T07:49:09.000Z</time>
      </trkpt>
      <trkpt lat="47.28934" lon="-2.37751">
        <ele>-21.39999961853</ele>
        <time>2021-05-02T07:49:16.000Z</time>
      </trkpt>
      <trkpt lat="47.28929" lon="-2.37821">
        <ele>-21.39999961853</ele>
        <time>2021-05-02T07:49:24.000Z</time>
      </trkpt>
      <trkpt lat="47.28925" lon="-2.37865">
        <ele>-21.39999961853</ele>
        <time>2021-05-02T07:49:29.000Z</time>
      </trkpt>
      <trkpt lat="47.28925" lon="-2.37883">
        <ele>-21.39999961853</ele>
        <time>2021-05-02T07:49:31.000Z</time>
      </trkpt>
      <trkpt lat="47.28921" lon="-2.37927">
        <ele>-21.39999961853</ele>
        <time>2021-05-02T07:49:36.000Z</time>
      </trkpt>
      <trkpt lat="47.28917" lon="-2.37971">
        <ele>-21.39999961853</ele>
        <time>2021-05-02T07:49:41.000Z</time>
      </trkpt>
      <trkpt lat="47.28916" lon="-2.37987">
        <ele>-21.39999961853</ele>
        <time>2021-05-02T07:49:43.000Z</time>
      </trkpt>
      <trkpt lat="47.28912" lon="-2.38035">
        <ele>-21.39999961853</ele>
        <time>2021-05-02T07:49:50.000Z</time>
      </trkpt>
      <trkpt lat="47.28913" lon="-2.38053">
        <ele>-21.39999961853</ele>
        <time>2021-05-02T07:49:53.000Z</time>
      </trkpt>
      <trkpt lat="47.28917" lon="-2.38065">
        <ele>-21.39999961853</ele>
        <time>2021-05-02T07:49:55.000Z</time>
      </trkpt>
      <trkpt lat="47.28928" lon="-2.38108">
        <ele>-21.39999961853</ele>
        <time>2021-05-02T07:50:01.000Z</time>
      </trkpt>
      <trkpt lat="47.28934" lon="-2.38143">
        <ele>-21.799999237061</ele>
        <time>2021-05-02T07:50:06.000Z</time>
      </trkpt>
      <trkpt lat="47.28935" lon="-2.3815">
        <ele>-22.200000762939</ele>
        <time>2021-05-02T07:50:07.000Z</time>
      </trkpt>
      <trkpt lat="47.28935" lon="-2.38158">
        <ele>-22.60000038147</ele>
        <time>2021-05-02T07:50:08.000Z</time>
      </trkpt>
      <trkpt lat="47.28936" lon="-2.38165">
        <ele>-23</ele>
        <time>2021-05-02T07:50:09.000Z</time>
      </trkpt>
      <trkpt lat="47.28937" lon="-2.38172">
        <ele>-23.39999961853</ele>
        <time>2021-05-02T07:50:10.000Z</time>
      </trkpt>
      <trkpt lat="47.2894" lon="-2.38217">
        <ele>-23.39999961853</ele>
        <time>2021-05-02T07:50:16.000Z</time>
      </trkpt>
      <trkpt lat="47.2894" lon="-2.38264">
        <ele>-23.39999961853</ele>
        <time>2021-05-02T07:50:22.000Z</time>
      </trkpt>
      <trkpt lat="47.2894" lon="-2.38272">
        <ele>-23.39999961853</ele>
        <time>2021-05-02T07:50:23.000Z</time>
      </trkpt>
      <trkpt lat="47.28937" lon="-2.38303">
        <ele>-23.39999961853</ele>
        <time>2021-05-02T07:50:27.000Z</time>
      </trkpt>
      <trkpt lat="47.28936" lon="-2.38317">
        <ele>-23.39999961853</ele>
        <time>2021-05-02T07:50:29.000Z</time>
      </trkpt>
      <trkpt lat="47.28939" lon="-2.38372">
        <ele>-23.39999961853</ele>
        <time>2021-05-02T07:50:36.000Z</time>
      </trkpt>
      <trkpt lat="47.28944" lon="-2.3844">
        <ele>-23.39999961853</ele>
        <time>2021-05-02T07:50:44.000Z</time>
      </trkpt>
      <trkpt lat="47.2895" lon="-2.38505">
        <ele>-23.39999961853</ele>
        <time>2021-05-02T07:50:51.000Z</time>
      </trkpt>
      <trkpt lat="47.28958" lon="-2.38579">
        <ele>-23.39999961853</ele>
        <time>2021-05-02T07:50:59.000Z</time>
      </trkpt>
      <trkpt lat="47.28961" lon="-2.38635">
        <ele>-23.39999961853</ele>
        <time>2021-05-02T07:51:05.000Z</time>
      </trkpt>
      <trkpt lat="47.28961" lon="-2.38669">
        <ele>-23.39999961853</ele>
        <time>2021-05-02T07:51:09.000Z</time>
      </trkpt>
      <trkpt lat="47.28962" lon="-2.38686">
        <ele>-23.39999961853</ele>
        <time>2021-05-02T07:51:11.000Z</time>
      </trkpt>
      <trkpt lat="47.28962" lon="-2.38746">
        <ele>-23.39999961853</ele>
        <time>2021-05-02T07:51:18.000Z</time>
      </trkpt>
      <trkpt lat="47.28963" lon="-2.38829">
        <ele>-23.39999961853</ele>
        <time>2021-05-02T07:51:27.000Z</time>
      </trkpt>
      <trkpt lat="47.28962" lon="-2.38874">
        <ele>-23.39999961853</ele>
        <time>2021-05-02T07:51:32.000Z</time>
      </trkpt>
      <trkpt lat="47.28961" lon="-2.38892">
        <ele>-23.39999961853</ele>
        <time>2021-05-02T07:51:34.000Z</time>
      </trkpt>
      <trkpt lat="47.28961" lon="-2.3891">
        <ele>-23.39999961853</ele>
        <time>2021-05-02T07:51:36.000Z</time>
      </trkpt>
      <trkpt lat="47.2896" lon="-2.38938">
        <ele>-23.39999961853</ele>
        <time>2021-05-02T07:51:39.000Z</time>
      </trkpt>
      <trkpt lat="47.28959" lon="-2.38955">
        <ele>-23.39999961853</ele>
        <time>2021-05-02T07:51:41.000Z</time>
      </trkpt>
      <trkpt lat="47.28955" lon="-2.38989">
        <ele>-23.39999961853</ele>
        <time>2021-05-02T07:51:45.000Z</time>
      </trkpt>
      <trkpt lat="47.28951" lon="-2.39043">
        <ele>-23.39999961853</ele>
        <time>2021-05-02T07:51:51.000Z</time>
      </trkpt>
      <trkpt lat="47.28944" lon="-2.39102">
        <ele>-23.39999961853</ele>
        <time>2021-05-02T07:51:58.000Z</time>
      </trkpt>
      <trkpt lat="47.28939" lon="-2.39155">
        <ele>-23.39999961853</ele>
        <time>2021-05-02T07:52:05.000Z</time>
      </trkpt>
      <trkpt lat="47.28936" lon="-2.3918">
        <ele>-23.39999961853</ele>
        <time>2021-05-02T07:52:09.000Z</time>
      </trkpt>
      <trkpt lat="47.28937" lon="-2.39193">
        <ele>-23.39999961853</ele>
        <time>2021-05-02T07:52:11.000Z</time>
      </trkpt>
      <trkpt lat="47.28939" lon="-2.39244">
        <ele>-23.39999961853</ele>
        <time>2021-05-02T07:52:17.000Z</time>
      </trkpt>
      <trkpt lat="47.28942" lon="-2.3927">
        <ele>-23.39999961853</ele>
        <time>2021-05-02T07:52:20.000Z</time>
      </trkpt>
      <trkpt lat="47.28948" lon="-2.39295">
        <ele>-23.39999961853</ele>
        <time>2021-05-02T07:52:23.000Z</time>
      </trkpt>
      <trkpt lat="47.28962" lon="-2.39313">
        <ele>-23.39999961853</ele>
        <time>2021-05-02T07:52:26.000Z</time>
      </trkpt>
      <trkpt lat="47.28975" lon="-2.39316">
        <ele>-23.39999961853</ele>
        <time>2021-05-02T07:52:28.000Z</time>
      </trkpt>
      <trkpt lat="47.28988" lon="-2.3932">
        <ele>-23.39999961853</ele>
        <time>2021-05-02T07:52:30.000Z</time>
      </trkpt>
      <trkpt lat="47.29031" lon="-2.39337">
        <ele>-23.39999961853</ele>
        <time>2021-05-02T07:52:37.000Z</time>
      </trkpt>
      <trkpt lat="47.29064" lon="-2.39355">
        <ele>-23.39999961853</ele>
        <time>2021-05-02T07:52:44.000Z</time>
      </trkpt>
      <trkpt lat="47.29081" lon="-2.39363">
        <ele>-23.39999961853</ele>
        <time>2021-05-02T07:52:48.000Z</time>
      </trkpt>
      <trkpt lat="47.29089" lon="-2.39368">
        <ele>-23.39999961853</ele>
        <time>2021-05-02T07:52:50.000Z</time>
      </trkpt>
      <trkpt lat="47.29099" lon="-2.39376">
        <ele>-23.39999961853</ele>
        <time>2021-05-02T07:52:53.000Z</time>
      </trkpt>
      <trkpt lat="47.29109" lon="-2.39373">
        <ele>-23.39999961853</ele>
        <time>2021-05-02T07:52:56.000Z</time>
      </trkpt>
      <trkpt lat="47.29118" lon="-2.39366">
        <ele>-23.39999961853</ele>
        <time>2021-05-02T07:52:58.000Z</time>
      </trkpt>
      <trkpt lat="47.29133" lon="-2.39353">
        <ele>-23.39999961853</ele>
        <time>2021-05-02T07:53:01.000Z</time>
      </trkpt>
      <trkpt lat="47.29172" lon="-2.39324">
        <ele>-23.39999961853</ele>
        <time>2021-05-02T07:53:08.000Z</time>
      </trkpt>
      <trkpt lat="47.29203" lon="-2.39315">
        <ele>-23.39999961853</ele>
        <time>2021-05-02T07:53:14.000Z</time>
      </trkpt>
      <trkpt lat="47.29223" lon="-2.39309">
        <ele>-24.200000762939</ele>
        <time>2021-05-02T07:53:18.000Z</time>
      </trkpt>
      <trkpt lat="47.29228" lon="-2.39307">
        <ele>-24.60000038147</ele>
        <time>2021-05-02T07:53:19.000Z</time>
      </trkpt>
      <trkpt lat="47.29233" lon="-2.39304">
        <ele>-25</ele>
        <time>2021-05-02T07:53:20.000Z</time>
      </trkpt>
      <trkpt lat="47.29238" lon="-2.39302">
        <ele>-25.39999961853</ele>
        <time>2021-05-02T07:53:21.000Z</time>
      </trkpt>
      <trkpt lat="47.29269" lon="-2.39286">
        <ele>-25.39999961853</ele>
        <time>2021-05-02T07:53:27.000Z</time>
      </trkpt>
      <trkpt lat="47.29293" lon="-2.39291">
        <ele>-25.39999961853</ele>
        <time>2021-05-02T07:53:31.000Z</time>
      </trkpt>
      <trkpt lat="47.29299" lon="-2.39294">
        <ele>-25.39999961853</ele>
        <time>2021-05-02T07:53:32.000Z</time>
      </trkpt>
      <trkpt lat="47.29326" lon="-2.3931">
        <ele>-25.39999961853</ele>
        <time>2021-05-02T07:53:37.000Z</time>
      </trkpt>
      <trkpt lat="47.29336" lon="-2.39315">
        <ele>-25.39999961853</ele>
        <time>2021-05-02T07:53:39.000Z</time>
      </trkpt>
      <trkpt lat="47.29345" lon="-2.39316">
        <ele>-25.39999961853</ele>
        <time>2021-05-02T07:53:41.000Z</time>
      </trkpt>
      <trkpt lat="47.29352" lon="-2.39329">
        <ele>-25</ele>
        <time>2021-05-02T07:53:44.000Z</time>
      </trkpt>
      <trkpt lat="47.29353" lon="-2.39336">
        <ele>-24.60000038147</ele>
        <time>2021-05-02T07:53:45.000Z</time>
      </trkpt>
      <trkpt lat="47.29352" lon="-2.39344">
        <ele>-24.200000762939</ele>
        <time>2021-05-02T07:53:46.000Z</time>
      </trkpt>
      <trkpt lat="47.29352" lon="-2.39353">
        <ele>-23.60000038147</ele>
        <time>2021-05-02T07:53:47.000Z</time>
      </trkpt>
      <trkpt lat="47.29352" lon="-2.39362">
        <ele>-23.200000762939</ele>
        <time>2021-05-02T07:53:48.000Z</time>
      </trkpt>
      <trkpt lat="47.29354" lon="-2.3942">
        <ele>-23.200000762939</ele>
        <time>2021-05-02T07:53:55.000Z</time>
      </trkpt>
      <trkpt lat="47.29356" lon="-2.39436">
        <ele>-23.200000762939</ele>
        <time>2021-05-02T07:53:57.000Z</time>
      </trkpt>
      <trkpt lat="47.29365" lon="-2.39458">
        <ele>-23.200000762939</ele>
        <time>2021-05-02T07:54:00.000Z</time>
      </trkpt>
      <trkpt lat="47.29382" lon="-2.39465">
        <ele>-23.200000762939</ele>
        <time>2021-05-02T07:54:03.000Z</time>
      </trkpt>
      <trkpt lat="47.29388" lon="-2.39465">
        <ele>-23.200000762939</ele>
        <time>2021-05-02T07:54:04.000Z</time>
      </trkpt>
      <trkpt lat="47.29418" lon="-2.39467">
        <ele>-23.200000762939</ele>
        <time>2021-05-02T07:54:09.000Z</time>
      </trkpt>
      <trkpt lat="47.29452" lon="-2.39468">
        <ele>-23.200000762939</ele>
        <time>2021-05-02T07:54:15.000Z</time>
      </trkpt>
      <trkpt lat="47.29468" lon="-2.39468">
        <ele>-23.200000762939</ele>
        <time>2021-05-02T07:54:18.000Z</time>
      </trkpt>
      <trkpt lat="47.29479" lon="-2.3947">
        <ele>-23.200000762939</ele>
        <time>2021-05-02T07:54:20.000Z</time>
      </trkpt>
      <trkpt lat="47.2949" lon="-2.3947">
        <ele>-23.200000762939</ele>
        <time>2021-05-02T07:54:22.000Z</time>
      </trkpt>
      <trkpt lat="47.29501" lon="-2.39468">
        <ele>-23.200000762939</ele>
        <time>2021-05-02T07:54:24.000Z</time>
      </trkpt>
      <trkpt lat="47.29507" lon="-2.39468">
        <ele>-23.200000762939</ele>
        <time>2021-05-02T07:54:25.000Z</time>
      </trkpt>
      <trkpt lat="47.29541" lon="-2.39476">
        <ele>-23.200000762939</ele>
        <time>2021-05-02T07:54:31.000Z</time>
      </trkpt>
      <trkpt lat="47.29547" lon="-2.39478">
        <ele>-23.200000762939</ele>
        <time>2021-05-02T07:54:32.000Z</time>
      </trkpt>
      <trkpt lat="47.2956" lon="-2.39486">
        <ele>-23.200000762939</ele>
        <time>2021-05-02T07:54:35.000Z</time>
      </trkpt>
      <trkpt lat="47.29561" lon="-2.39491">
        <ele>-23.200000762939</ele>
        <time>2021-05-02T07:54:36.000Z</time>
      </trkpt>
      <trkpt lat="47.29558" lon="-2.39502">
        <ele>-23.200000762939</ele>
        <time>2021-05-02T07:54:38.000Z</time>
      </trkpt>
      <trkpt lat="47.29555" lon="-2.39522">
        <ele>-23.200000762939</ele>
        <time>2021-05-02T07:54:42.000Z</time>
      </trkpt>
      <trkpt lat="47.29557" lon="-2.3953">
        <ele>-23.200000762939</ele>
        <time>2021-05-02T07:54:44.000Z</time>
      </trkpt>
      <trkpt lat="47.29557" lon="-2.39534">
        <ele>-23.200000762939</ele>
        <time>2021-05-02T07:54:45.000Z</time>
      </trkpt>
      <trkpt lat="47.29556" lon="-2.39539">
        <ele>-23.200000762939</ele>
        <time>2021-05-02T07:54:46.000Z</time>
      </trkpt>
      <trkpt lat="47.29557" lon="-2.39542">
        <ele>-23.200000762939</ele>
        <time>2021-05-02T07:54:47.000Z</time>
      </trkpt>
      <trkpt lat="47.29562" lon="-2.39545">
        <ele>-23.200000762939</ele>
        <time>2021-05-02T07:54:49.000Z</time>
      </trkpt>
      <trkpt lat="47.29566" lon="-2.39545">
        <ele>-22.799999237061</ele>
        <time>2021-05-02T07:54:50.000Z</time>
      </trkpt>
      <trkpt lat="47.2957" lon="-2.39545">
        <ele>-22.39999961853</ele>
        <time>2021-05-02T07:54:51.000Z</time>
      </trkpt>
      <trkpt lat="47.29574" lon="-2.39546">
        <ele>-22</ele>
        <time>2021-05-02T07:54:52.000Z</time>
      </trkpt>
      <trkpt lat="47.29578" lon="-2.39546">
        <ele>-21.60000038147</ele>
        <time>2021-05-02T07:54:53.000Z</time>
      </trkpt>
      <trkpt lat="47.29581" lon="-2.39547">
        <ele>-21</ele>
        <time>2021-05-02T07:54:54.000Z</time>
      </trkpt>
      <trkpt lat="47.29584" lon="-2.39548">
        <ele>-20.60000038147</ele>
        <time>2021-05-02T07:54:55.000Z</time>
      </trkpt>
      <trkpt lat="47.29588" lon="-2.39548">
        <ele>-20.200000762939</ele>
        <time>2021-05-02T07:54:56.000Z</time>
      </trkpt>
      <trkpt lat="47.29591" lon="-2.39549">
        <ele>-19.60000038147</ele>
        <time>2021-05-02T07:54:57.000Z</time>
      </trkpt>
      <trkpt lat="47.29595" lon="-2.3955">
        <ele>-19.200000762939</ele>
        <time>2021-05-02T07:54:58.000Z</time>
      </trkpt>
      <trkpt lat="47.29599" lon="-2.39551">
        <ele>-18.799999237061</ele>
        <time>2021-05-02T07:54:59.000Z</time>
      </trkpt>
      <trkpt lat="47.29608" lon="-2.39553">
        <ele>-18.799999237061</ele>
        <time>2021-05-02T07:55:01.000Z</time>
      </trkpt>
      <trkpt lat="47.29624" lon="-2.39558">
        <ele>-18.799999237061</ele>
        <time>2021-05-02T07:55:05.000Z</time>
      </trkpt>
      <trkpt lat="47.29619" lon="-2.39564">
        <ele>-19.200000762939</ele>
        <time>2021-05-02T07:55:08.000Z</time>
      </trkpt>
      <trkpt lat="47.29615" lon="-2.39566">
        <ele>-19.60000038147</ele>
        <time>2021-05-02T07:55:09.000Z</time>
      </trkpt>
      <trkpt lat="47.29612" lon="-2.39568">
        <ele>-20.200000762939</ele>
        <time>2021-05-02T07:55:10.000Z</time>
      </trkpt>
      <trkpt lat="47.2961" lon="-2.39571">
        <ele>-20.60000038147</ele>
        <time>2021-05-02T07:55:11.000Z</time>
      </trkpt>
      <trkpt lat="47.29609" lon="-2.39575">
        <ele>-21</ele>
        <time>2021-05-02T07:55:12.000Z</time>
      </trkpt>
      <trkpt lat="47.29618" lon="-2.39577">
        <ele>-21.60000038147</ele>
        <time>2021-05-02T07:55:15.000Z</time>
      </trkpt>
      <trkpt lat="47.29622" lon="-2.39579">
        <ele>-22</ele>
        <time>2021-05-02T07:55:16.000Z</time>
      </trkpt>
      <trkpt lat="47.29626" lon="-2.39581">
        <ele>-22.39999961853</ele>
        <time>2021-05-02T07:55:17.000Z</time>
      </trkpt>
      <trkpt lat="47.29628" lon="-2.39585">
        <ele>-22.799999237061</ele>
        <time>2021-05-02T07:55:18.000Z</time>
      </trkpt>
      <trkpt lat="47.29629" lon="-2.39589">
        <ele>-23.39999961853</ele>
        <time>2021-05-02T07:55:19.000Z</time>
      </trkpt>
      <trkpt lat="47.2963" lon="-2.39608">
        <ele>-23.39999961853</ele>
        <time>2021-05-02T07:55:22.000Z</time>
      </trkpt>
      <trkpt lat="47.2963" lon="-2.39615">
        <ele>-23.39999961853</ele>
        <time>2021-05-02T07:55:23.000Z</time>
      </trkpt>
      <trkpt lat="47.29628" lon="-2.39644">
        <ele>-23.39999961853</ele>
        <time>2021-05-02T07:55:27.000Z</time>
      </trkpt>
      <trkpt lat="47.29624" lon="-2.39656">
        <ele>-23.39999961853</ele>
        <time>2021-05-02T07:55:29.000Z</time>
      </trkpt>
      <trkpt lat="47.29621" lon="-2.39662">
        <ele>-23.799999237061</ele>
        <time>2021-05-02T07:55:30.000Z</time>
      </trkpt>
      <trkpt lat="47.29618" lon="-2.39667">
        <ele>-24.200000762939</ele>
        <time>2021-05-02T07:55:31.000Z</time>
      </trkpt>
      <trkpt lat="47.29615" lon="-2.39673">
        <ele>-24.60000038147</ele>
        <time>2021-05-02T07:55:32.000Z</time>
      </trkpt>
      <trkpt lat="47.29611" lon="-2.39679">
        <ele>-25</ele>
        <time>2021-05-02T07:55:33.000Z</time>
      </trkpt>
      <trkpt lat="47.29608" lon="-2.39685">
        <ele>-25.39999961853</ele>
        <time>2021-05-02T07:55:34.000Z</time>
      </trkpt>
      <trkpt lat="47.29604" lon="-2.39692">
        <ele>-25.39999961853</ele>
        <time>2021-05-02T07:55:35.000Z</time>
      </trkpt>
      <trkpt lat="47.29574" lon="-2.39745">
        <ele>-25.39999961853</ele>
        <time>2021-05-02T07:55:43.000Z</time>
      </trkpt>
      <trkpt lat="47.2955" lon="-2.398">
        <ele>-25.39999961853</ele>
        <time>2021-05-02T07:55:50.000Z</time>
      </trkpt>
      <trkpt lat="47.29525" lon="-2.39848">
        <ele>-25.39999961853</ele>
        <time>2021-05-02T07:55:57.000Z</time>
      </trkpt>
      <trkpt lat="47.29503" lon="-2.39892">
        <ele>-25.39999961853</ele>
        <time>2021-05-02T07:56:04.000Z</time>
      </trkpt>
      <trkpt lat="47.295" lon="-2.39896">
        <ele>-25.39999961853</ele>
        <time>2021-05-02T07:56:05.000Z</time>
      </trkpt>
      <trkpt lat="47.29493" lon="-2.39902">
        <ele>-25.39999961853</ele>
        <time>2021-05-02T07:56:08.000Z</time>
      </trkpt>
      <trkpt lat="47.29491" lon="-2.39904">
        <ele>-25.39999961853</ele>
        <time>2021-05-02T07:56:11.000Z</time>
      </trkpt>
      <trkpt lat="47.29491" lon="-2.39906">
        <ele>-25.39999961853</ele>
        <time>2021-05-02T07:56:12.000Z</time>
      </trkpt>
      <trkpt lat="47.29489" lon="-2.39912">
        <ele>-25.39999961853</ele>
        <time>2021-05-02T07:56:14.000Z</time>
      </trkpt>
      <trkpt lat="47.29486" lon="-2.39921">
        <ele>-25.39999961853</ele>
        <time>2021-05-02T07:56:16.000Z</time>
      </trkpt>
      <trkpt lat="47.29475" lon="-2.39953">
        <ele>-25.39999961853</ele>
        <time>2021-05-02T07:56:21.000Z</time>
      </trkpt>
      <trkpt lat="47.29461" lon="-2.40005">
        <ele>-25.39999961853</ele>
        <time>2021-05-02T07:56:27.000Z</time>
      </trkpt>
      <trkpt lat="47.29463" lon="-2.40044">
        <ele>-25.39999961853</ele>
        <time>2021-05-02T07:56:31.000Z</time>
      </trkpt>
      <trkpt lat="47.29463" lon="-2.40064">
        <ele>-25.39999961853</ele>
        <time>2021-05-02T07:56:33.000Z</time>
      </trkpt>
      <trkpt lat="47.29462" lon="-2.40093">
        <ele>-25.39999961853</ele>
        <time>2021-05-02T07:56:36.000Z</time>
      </trkpt>
      <trkpt lat="47.29456" lon="-2.40148">
        <ele>-25.39999961853</ele>
        <time>2021-05-02T07:56:42.000Z</time>
      </trkpt>
      <trkpt lat="47.29455" lon="-2.40157">
        <ele>-25.39999961853</ele>
        <time>2021-05-02T07:56:43.000Z</time>
      </trkpt>
      <trkpt lat="47.29454" lon="-2.40166">
        <ele>-25.39999961853</ele>
        <time>2021-05-02T07:56:44.000Z</time>
      </trkpt>
      <trkpt lat="47.29449" lon="-2.40193">
        <ele>-25.39999961853</ele>
        <time>2021-05-02T07:56:47.000Z</time>
      </trkpt>
      <trkpt lat="47.29446" lon="-2.4021">
        <ele>-25.39999961853</ele>
        <time>2021-05-02T07:56:49.000Z</time>
      </trkpt>
      <trkpt lat="47.29437" lon="-2.4022">
        <ele>-25.39999961853</ele>
        <time>2021-05-02T07:56:51.000Z</time>
      </trkpt>
      <trkpt lat="47.29425" lon="-2.4022">
        <ele>-25.39999961853</ele>
        <time>2021-05-02T07:56:53.000Z</time>
      </trkpt>
      <trkpt lat="47.29419" lon="-2.40222">
        <ele>-25.39999961853</ele>
        <time>2021-05-02T07:56:54.000Z</time>
      </trkpt>
      <trkpt lat="47.2939" lon="-2.40238">
        <ele>-25.39999961853</ele>
        <time>2021-05-02T07:56:59.000Z</time>
      </trkpt>
      <trkpt lat="47.29368" lon="-2.40254">
        <ele>-25.39999961853</ele>
        <time>2021-05-02T07:57:03.000Z</time>
      </trkpt>
      <trkpt lat="47.29357" lon="-2.40267">
        <ele>-25.39999961853</ele>
        <time>2021-05-02T07:57:05.000Z</time>
      </trkpt>
      <trkpt lat="47.29345" lon="-2.40277">
        <ele>-25.39999961853</ele>
        <time>2021-05-02T07:57:07.000Z</time>
      </trkpt>
      <trkpt lat="47.29328" lon="-2.40293">
        <ele>-25.39999961853</ele>
        <time>2021-05-02T07:57:10.000Z</time>
      </trkpt>
      <trkpt lat="47.29298" lon="-2.40327">
        <ele>-25.39999961853</ele>
        <time>2021-05-02T07:57:16.000Z</time>
      </trkpt>
      <trkpt lat="47.29289" lon="-2.40337">
        <ele>-25.39999961853</ele>
        <time>2021-05-02T07:57:18.000Z</time>
      </trkpt>
      <trkpt lat="47.29284" lon="-2.40352">
        <ele>-25.39999961853</ele>
        <time>2021-05-02T07:57:20.000Z</time>
      </trkpt>
      <trkpt lat="47.29292" lon="-2.40378">
        <ele>-25.39999961853</ele>
        <time>2021-05-02T07:57:23.000Z</time>
      </trkpt>
      <trkpt lat="47.29305" lon="-2.404">
        <ele>-25.39999961853</ele>
        <time>2021-05-02T07:57:26.000Z</time>
      </trkpt>
      <trkpt lat="47.29307" lon="-2.40409">
        <ele>-25.39999961853</ele>
        <time>2021-05-02T07:57:27.000Z</time>
      </trkpt>
      <trkpt lat="47.29306" lon="-2.40417">
        <ele>-25.39999961853</ele>
        <time>2021-05-02T07:57:28.000Z</time>
      </trkpt>
      <trkpt lat="47.29297" lon="-2.40442">
        <ele>-25.39999961853</ele>
        <time>2021-05-02T07:57:31.000Z</time>
      </trkpt>
      <trkpt lat="47.29294" lon="-2.4045">
        <ele>-25.39999961853</ele>
        <time>2021-05-02T07:57:32.000Z</time>
      </trkpt>
      <trkpt lat="47.29286" lon="-2.40466">
        <ele>-25.39999961853</ele>
        <time>2021-05-02T07:57:34.000Z</time>
      </trkpt>
      <trkpt lat="47.2928" lon="-2.40471">
        <ele>-25.39999961853</ele>
        <time>2021-05-02T07:57:35.000Z</time>
      </trkpt>
      <trkpt lat="47.29259" lon="-2.40478">
        <ele>-25.39999961853</ele>
        <time>2021-05-02T07:57:38.000Z</time>
      </trkpt>
      <trkpt lat="47.29246" lon="-2.40485">
        <ele>-25.39999961853</ele>
        <time>2021-05-02T07:57:40.000Z</time>
      </trkpt>
      <trkpt lat="47.29226" lon="-2.40495">
        <ele>-25.39999961853</ele>
        <time>2021-05-02T07:57:43.000Z</time>
      </trkpt>
      <trkpt lat="47.2919" lon="-2.40516">
        <ele>-25.39999961853</ele>
        <time>2021-05-02T07:57:49.000Z</time>
      </trkpt>
      <trkpt lat="47.29179" lon="-2.4052">
        <ele>-25.39999961853</ele>
        <time>2021-05-02T07:57:51.000Z</time>
      </trkpt>
      <trkpt lat="47.29168" lon="-2.40515">
        <ele>-25.39999961853</ele>
        <time>2021-05-02T07:57:53.000Z</time>
      </trkpt>
      <trkpt lat="47.2916" lon="-2.40496">
        <ele>-25.39999961853</ele>
        <time>2021-05-02T07:57:56.000Z</time>
      </trkpt>
      <trkpt lat="47.29156" lon="-2.4049">
        <ele>-25.39999961853</ele>
        <time>2021-05-02T07:57:57.000Z</time>
      </trkpt>
      <trkpt lat="47.29146" lon="-2.40486">
        <ele>-25.39999961853</ele>
        <time>2021-05-02T07:57:59.000Z</time>
      </trkpt>
      <trkpt lat="47.29134" lon="-2.40491">
        <ele>-25.39999961853</ele>
        <time>2021-05-02T07:58:01.000Z</time>
      </trkpt>
      <trkpt lat="47.29127" lon="-2.40494">
        <ele>-25.39999961853</ele>
        <time>2021-05-02T07:58:02.000Z</time>
      </trkpt>
      <trkpt lat="47.29105" lon="-2.40512">
        <ele>-25.39999961853</ele>
        <time>2021-05-02T07:58:06.000Z</time>
      </trkpt>
      <trkpt lat="47.29101" lon="-2.4052">
        <ele>-25.39999961853</ele>
        <time>2021-05-02T07:58:07.000Z</time>
      </trkpt>
      <trkpt lat="47.29099" lon="-2.40546">
        <ele>-25.39999961853</ele>
        <time>2021-05-02T07:58:10.000Z</time>
      </trkpt>
      <trkpt lat="47.29112" lon="-2.40564">
        <ele>-25.39999961853</ele>
        <time>2021-05-02T07:58:13.000Z</time>
      </trkpt>
      <trkpt lat="47.29117" lon="-2.40569">
        <ele>-25.39999961853</ele>
        <time>2021-05-02T07:58:14.000Z</time>
      </trkpt>
      <trkpt lat="47.29127" lon="-2.4058">
        <ele>-25.39999961853</ele>
        <time>2021-05-02T07:58:16.000Z</time>
      </trkpt>
      <trkpt lat="47.29134" lon="-2.40595">
        <ele>-25.39999961853</ele>
        <time>2021-05-02T07:58:18.000Z</time>
      </trkpt>
      <trkpt lat="47.29142" lon="-2.40629">
        <ele>-25.39999961853</ele>
        <time>2021-05-02T07:58:22.000Z</time>
      </trkpt>
      <trkpt lat="47.29143" lon="-2.40636">
        <ele>-25.39999961853</ele>
        <time>2021-05-02T07:58:23.000Z</time>
      </trkpt>
      <trkpt lat="47.29143" lon="-2.40644">
        <ele>-25.39999961853</ele>
        <time>2021-05-02T07:58:25.000Z</time>
      </trkpt>
      <trkpt lat="47.29137" lon="-2.4066">
        <ele>-25.799999237061</ele>
        <time>2021-05-02T07:58:29.000Z</time>
      </trkpt>
      <trkpt lat="47.29133" lon="-2.40664">
        <ele>-26.200000762939</ele>
        <time>2021-05-02T07:58:30.000Z</time>
      </trkpt>
      <trkpt lat="47.2913" lon="-2.40669">
        <ele>-26.60000038147</ele>
        <time>2021-05-02T07:58:31.000Z</time>
      </trkpt>
      <trkpt lat="47.29126" lon="-2.40673">
        <ele>-27</ele>
        <time>2021-05-02T07:58:32.000Z</time>
      </trkpt>
      <trkpt lat="47.29122" lon="-2.40677">
        <ele>-27.39999961853</ele>
        <time>2021-05-02T07:58:33.000Z</time>
      </trkpt>
      <trkpt lat="47.29117" lon="-2.4068">
        <ele>-27.39999961853</ele>
        <time>2021-05-02T07:58:34.000Z</time>
      </trkpt>
      <trkpt lat="47.29101" lon="-2.40685">
        <ele>-27.39999961853</ele>
        <time>2021-05-02T07:58:37.000Z</time>
      </trkpt>
      <trkpt lat="47.29095" lon="-2.40685">
        <ele>-27.39999961853</ele>
        <time>2021-05-02T07:58:38.000Z</time>
      </trkpt>
      <trkpt lat="47.29066" lon="-2.40693">
        <ele>-27.39999961853</ele>
        <time>2021-05-02T07:58:43.000Z</time>
      </trkpt>
      <trkpt lat="47.2906" lon="-2.40696">
        <ele>-27.39999961853</ele>
        <time>2021-05-02T07:58:44.000Z</time>
      </trkpt>
      <trkpt lat="47.29049" lon="-2.40703">
        <ele>-27.39999961853</ele>
        <time>2021-05-02T07:58:46.000Z</time>
      </trkpt>
      <trkpt lat="47.29035" lon="-2.4072">
        <ele>-27.39999961853</ele>
        <time>2021-05-02T07:58:49.000Z</time>
      </trkpt>
      <trkpt lat="47.29018" lon="-2.40743">
        <ele>-27.39999961853</ele>
        <time>2021-05-02T07:58:53.000Z</time>
      </trkpt>
      <trkpt lat="47.29017" lon="-2.40751">
        <ele>-27.39999961853</ele>
        <time>2021-05-02T07:58:54.000Z</time>
      </trkpt>
      <trkpt lat="47.29024" lon="-2.40773">
        <ele>-27.39999961853</ele>
        <time>2021-05-02T07:58:57.000Z</time>
      </trkpt>
      <trkpt lat="47.29028" lon="-2.4078">
        <ele>-27.39999961853</ele>
        <time>2021-05-02T07:58:58.000Z</time>
      </trkpt>
      <trkpt lat="47.2904" lon="-2.40809">
        <ele>-27.39999961853</ele>
        <time>2021-05-02T07:59:02.000Z</time>
      </trkpt>
      <trkpt lat="47.29041" lon="-2.40818">
        <ele>-27.39999961853</ele>
        <time>2021-05-02T07:59:03.000Z</time>
      </trkpt>
      <trkpt lat="47.29032" lon="-2.40839">
        <ele>-27.39999961853</ele>
        <time>2021-05-02T07:59:06.000Z</time>
      </trkpt>
      <trkpt lat="47.29019" lon="-2.40858">
        <ele>-27.39999961853</ele>
        <time>2021-05-02T07:59:09.000Z</time>
      </trkpt>
      <trkpt lat="47.29011" lon="-2.40871">
        <ele>-27.39999961853</ele>
        <time>2021-05-02T07:59:11.000Z</time>
      </trkpt>
      <trkpt lat="47.28995" lon="-2.40899">
        <ele>-27.39999961853</ele>
        <time>2021-05-02T07:59:15.000Z</time>
      </trkpt>
      <trkpt lat="47.28984" lon="-2.40906">
        <ele>-27.39999961853</ele>
        <time>2021-05-02T07:59:17.000Z</time>
      </trkpt>
      <trkpt lat="47.28966" lon="-2.40911">
        <ele>-27.39999961853</ele>
        <time>2021-05-02T07:59:20.000Z</time>
      </trkpt>
      <trkpt lat="47.2896" lon="-2.4091">
        <ele>-27.39999961853</ele>
        <time>2021-05-02T07:59:21.000Z</time>
      </trkpt>
      <trkpt lat="47.28941" lon="-2.40922">
        <ele>-27.39999961853</ele>
        <time>2021-05-02T07:59:25.000Z</time>
      </trkpt>
      <trkpt lat="47.28936" lon="-2.40947">
        <ele>-27.39999961853</ele>
        <time>2021-05-02T07:59:28.000Z</time>
      </trkpt>
      <trkpt lat="47.28935" lon="-2.40955">
        <ele>-27.39999961853</ele>
        <time>2021-05-02T07:59:29.000Z</time>
      </trkpt>
      <trkpt lat="47.28934" lon="-2.40963">
        <ele>-27.39999961853</ele>
        <time>2021-05-02T07:59:30.000Z</time>
      </trkpt>
      <trkpt lat="47.28937" lon="-2.40979">
        <ele>-27.39999961853</ele>
        <time>2021-05-02T07:59:32.000Z</time>
      </trkpt>
      <trkpt lat="47.28949" lon="-2.4101">
        <ele>-27.39999961853</ele>
        <time>2021-05-02T07:59:36.000Z</time>
      </trkpt>
      <trkpt lat="47.28951" lon="-2.41034">
        <ele>-27.39999961853</ele>
        <time>2021-05-02T07:59:39.000Z</time>
      </trkpt>
      <trkpt lat="47.28951" lon="-2.41042">
        <ele>-27.39999961853</ele>
        <time>2021-05-02T07:59:40.000Z</time>
      </trkpt>
      <trkpt lat="47.28958" lon="-2.41111">
        <ele>-27.39999961853</ele>
        <time>2021-05-02T07:59:48.000Z</time>
      </trkpt>
      <trkpt lat="47.28965" lon="-2.41169">
        <ele>-27.39999961853</ele>
        <time>2021-05-02T07:59:55.000Z</time>
      </trkpt>
      <trkpt lat="47.28963" lon="-2.4119">
        <ele>-27.39999961853</ele>
        <time>2021-05-02T07:59:59.000Z</time>
      </trkpt>
      <trkpt lat="47.28963" lon="-2.41194">
        <ele>-27.39999961853</ele>
        <time>2021-05-02T08:00:02.000Z</time>
      </trkpt>
      <trkpt lat="47.28961" lon="-2.41196">
        <ele>-27.39999961853</ele>
        <time>2021-05-02T08:00:31.000Z</time>
      </trkpt>
      <trkpt lat="47.2895" lon="-2.41205">
        <ele>-27.39999961853</ele>
        <time>2021-05-02T08:00:36.000Z</time>
      </trkpt>
      <trkpt lat="47.28936" lon="-2.41217">
        <ele>-27.39999961853</ele>
        <time>2021-05-02T08:00:40.000Z</time>
      </trkpt>
      <trkpt lat="47.28927" lon="-2.41221">
        <ele>-27.39999961853</ele>
        <time>2021-05-02T08:00:42.000Z</time>
      </trkpt>
      <trkpt lat="47.28916" lon="-2.41209">
        <ele>-27.39999961853</ele>
        <time>2021-05-02T08:00:45.000Z</time>
      </trkpt>
      <trkpt lat="47.28907" lon="-2.41189">
        <ele>-27.39999961853</ele>
        <time>2021-05-02T08:00:49.000Z</time>
      </trkpt>
      <trkpt lat="47.28895" lon="-2.41186">
        <ele>-27.39999961853</ele>
        <time>2021-05-02T08:00:53.000Z</time>
      </trkpt>
      <trkpt lat="47.28886" lon="-2.41194">
        <ele>-27.39999961853</ele>
        <time>2021-05-02T08:00:57.000Z</time>
      </trkpt>
      <trkpt lat="47.2887" lon="-2.41205">
        <ele>-27.39999961853</ele>
        <time>2021-05-02T08:01:03.000Z</time>
      </trkpt>
      <trkpt lat="47.28862" lon="-2.41219">
        <ele>-27.39999961853</ele>
        <time>2021-05-02T08:01:07.000Z</time>
      </trkpt>
      <trkpt lat="47.28863" lon="-2.41243">
        <ele>-27.39999961853</ele>
        <time>2021-05-02T08:01:12.000Z</time>
      </trkpt>
      <trkpt lat="47.28862" lon="-2.41274">
        <ele>-27.39999961853</ele>
        <time>2021-05-02T08:01:18.000Z</time>
      </trkpt>
      <trkpt lat="47.28851" lon="-2.41275">
        <ele>-27.39999961853</ele>
        <time>2021-05-02T08:01:22.000Z</time>
      </trkpt>
      <trkpt lat="47.28834" lon="-2.41269">
        <ele>-27.39999961853</ele>
        <time>2021-05-02T08:01:27.000Z</time>
      </trkpt>
      <trkpt lat="47.28816" lon="-2.41258">
        <ele>-27.39999961853</ele>
        <time>2021-05-02T08:01:33.000Z</time>
      </trkpt>
      <trkpt lat="47.28807" lon="-2.41243">
        <ele>-27.39999961853</ele>
        <time>2021-05-02T08:01:38.000Z</time>
      </trkpt>
      <trkpt lat="47.28799" lon="-2.41228">
        <ele>-27.39999961853</ele>
        <time>2021-05-02T08:01:43.000Z</time>
      </trkpt>
      <trkpt lat="47.28788" lon="-2.41213">
        <ele>-27.39999961853</ele>
        <time>2021-05-02T08:01:49.000Z</time>
      </trkpt>
      <trkpt lat="47.28783" lon="-2.41203">
        <ele>-27.39999961853</ele>
        <time>2021-05-02T08:01:53.000Z</time>
      </trkpt>
      <trkpt lat="47.28783" lon="-2.41203">
        <ele>-27.39999961853</ele>
        <time>2021-05-02T08:01:55.000Z</time>
      </trkpt>
      <trkpt lat="47.28781" lon="-2.41197">
        <ele>-27.39999961853</ele>
        <time>2021-05-02T08:02:21.000Z</time>
      </trkpt>
      <trkpt lat="47.28783" lon="-2.41203">
        <ele>-27.39999961853</ele>
        <time>2021-05-02T08:02:24.000Z</time>
      </trkpt>
      <trkpt lat="47.28792" lon="-2.41218">
        <ele>-27.39999961853</ele>
        <time>2021-05-02T08:02:30.000Z</time>
      </trkpt>
      <trkpt lat="47.288" lon="-2.41231">
        <ele>-27.39999961853</ele>
        <time>2021-05-02T08:02:36.000Z</time>
      </trkpt>
      <trkpt lat="47.28807" lon="-2.4124">
        <ele>-27.39999961853</ele>
        <time>2021-05-02T08:02:43.000Z</time>
      </trkpt>
      <trkpt lat="47.28807" lon="-2.4124">
        <ele>-27.39999961853</ele>
        <time>2021-05-02T08:02:44.000Z</time>
      </trkpt>
      <trkpt lat="47.28808" lon="-2.41243">
        <ele>-27.39999961853</ele>
        <time>2021-05-02T08:03:30.000Z</time>
      </trkpt>
      <trkpt lat="47.28809" lon="-2.41247">
        <ele>-27.39999961853</ele>
        <time>2021-05-02T08:03:32.000Z</time>
      </trkpt>
      <trkpt lat="47.28812" lon="-2.41255">
        <ele>-27.39999961853</ele>
        <time>2021-05-02T08:03:35.000Z</time>
      </trkpt>
      <trkpt lat="47.28816" lon="-2.41256">
        <ele>-27.39999961853</ele>
        <time>2021-05-02T08:03:37.000Z</time>
      </trkpt>
      <trkpt lat="47.28831" lon="-2.41267">
        <ele>-27.39999961853</ele>
        <time>2021-05-02T08:03:43.000Z</time>
      </trkpt>
      <trkpt lat="47.28834" lon="-2.41269">
        <ele>-27.39999961853</ele>
        <time>2021-05-02T08:03:44.000Z</time>
      </trkpt>
      <trkpt lat="47.28848" lon="-2.41273">
        <ele>-27.39999961853</ele>
        <time>2021-05-02T08:03:49.000Z</time>
      </trkpt>
      <trkpt lat="47.28861" lon="-2.41276">
        <ele>-27.39999961853</ele>
        <time>2021-05-02T08:03:54.000Z</time>
      </trkpt>
      <trkpt lat="47.28863" lon="-2.41274">
        <ele>-27.39999961853</ele>
        <time>2021-05-02T08:03:55.000Z</time>
      </trkpt>
      <trkpt lat="47.28866" lon="-2.41255">
        <ele>-27.39999961853</ele>
        <time>2021-05-02T08:03:59.000Z</time>
      </trkpt>
      <trkpt lat="47.28865" lon="-2.41244">
        <ele>-27.39999961853</ele>
        <time>2021-05-02T08:04:01.000Z</time>
      </trkpt>
      <trkpt lat="47.28864" lon="-2.41229">
        <ele>-27.39999961853</ele>
        <time>2021-05-02T08:04:04.000Z</time>
      </trkpt>
      <trkpt lat="47.28871" lon="-2.41208">
        <ele>-27.39999961853</ele>
        <time>2021-05-02T08:04:09.000Z</time>
      </trkpt>
      <trkpt lat="47.28882" lon="-2.41198">
        <ele>-27.39999961853</ele>
        <time>2021-05-02T08:04:14.000Z</time>
      </trkpt>
      <trkpt lat="47.28896" lon="-2.4119">
        <ele>-27.39999961853</ele>
        <time>2021-05-02T08:04:19.000Z</time>
      </trkpt>
      <trkpt lat="47.28902" lon="-2.41189">
        <ele>-27.39999961853</ele>
        <time>2021-05-02T08:04:21.000Z</time>
      </trkpt>
      <trkpt lat="47.28908" lon="-2.41194">
        <ele>-27.39999961853</ele>
        <time>2021-05-02T08:04:23.000Z</time>
      </trkpt>
      <trkpt lat="47.28917" lon="-2.41215">
        <ele>-27.39999961853</ele>
        <time>2021-05-02T08:04:27.000Z</time>
      </trkpt>
      <trkpt lat="47.28929" lon="-2.41222">
        <ele>-27.39999961853</ele>
        <time>2021-05-02T08:04:30.000Z</time>
      </trkpt>
      <trkpt lat="47.28941" lon="-2.41215">
        <ele>-27.39999961853</ele>
        <time>2021-05-02T08:04:33.000Z</time>
      </trkpt>
      <trkpt lat="47.28947" lon="-2.41208">
        <ele>-27.39999961853</ele>
        <time>2021-05-02T08:04:35.000Z</time>
      </trkpt>
      <trkpt lat="47.2896" lon="-2.41196">
        <ele>-27.39999961853</ele>
        <time>2021-05-02T08:04:39.000Z</time>
      </trkpt>
      <trkpt lat="47.28963" lon="-2.41185">
        <ele>-27.39999961853</ele>
        <time>2021-05-02T08:04:41.000Z</time>
      </trkpt>
      <trkpt lat="47.28964" lon="-2.41179">
        <ele>-27.39999961853</ele>
        <time>2021-05-02T08:04:42.000Z</time>
      </trkpt>
      <trkpt lat="47.28963" lon="-2.41147">
        <ele>-27.39999961853</ele>
        <time>2021-05-02T08:04:47.000Z</time>
      </trkpt>
      <trkpt lat="47.28956" lon="-2.41099">
        <ele>-27.39999961853</ele>
        <time>2021-05-02T08:04:54.000Z</time>
      </trkpt>
      <trkpt lat="47.28956" lon="-2.41091">
        <ele>-27.39999961853</ele>
        <time>2021-05-02T08:04:55.000Z</time>
      </trkpt>
      <trkpt lat="47.28955" lon="-2.41077">
        <ele>-27.39999961853</ele>
        <time>2021-05-02T08:04:57.000Z</time>
      </trkpt>
      <trkpt lat="47.28953" lon="-2.41062">
        <ele>-27.39999961853</ele>
        <time>2021-05-02T08:04:59.000Z</time>
      </trkpt>
      <trkpt lat="47.2895" lon="-2.41032">
        <ele>-27.39999961853</ele>
        <time>2021-05-02T08:05:03.000Z</time>
      </trkpt>
      <trkpt lat="47.28949" lon="-2.41011">
        <ele>-27.39999961853</ele>
        <time>2021-05-02T08:05:06.000Z</time>
      </trkpt>
      <trkpt lat="47.28947" lon="-2.40995">
        <ele>-27.39999961853</ele>
        <time>2021-05-02T08:05:08.000Z</time>
      </trkpt>
      <trkpt lat="47.28942" lon="-2.4098">
        <ele>-27.39999961853</ele>
        <time>2021-05-02T08:05:10.000Z</time>
      </trkpt>
      <trkpt lat="47.28937" lon="-2.40952">
        <ele>-27.39999961853</ele>
        <time>2021-05-02T08:05:14.000Z</time>
      </trkpt>
      <trkpt lat="47.28943" lon="-2.40927">
        <ele>-27.39999961853</ele>
        <time>2021-05-02T08:05:18.000Z</time>
      </trkpt>
      <trkpt lat="47.28944" lon="-2.40921">
        <ele>-27.39999961853</ele>
        <time>2021-05-02T08:05:19.000Z</time>
      </trkpt>
      <trkpt lat="47.28948" lon="-2.4091">
        <ele>-27.39999961853</ele>
        <time>2021-05-02T08:05:21.000Z</time>
      </trkpt>
      <trkpt lat="47.28956" lon="-2.4091">
        <ele>-27.39999961853</ele>
        <time>2021-05-02T08:05:23.000Z</time>
      </trkpt>
      <trkpt lat="47.28975" lon="-2.40911">
        <ele>-27.39999961853</ele>
        <time>2021-05-02T08:05:27.000Z</time>
      </trkpt>
      <trkpt lat="47.28985" lon="-2.40906">
        <ele>-27.39999961853</ele>
        <time>2021-05-02T08:05:29.000Z</time>
      </trkpt>
      <trkpt lat="47.28989" lon="-2.40904">
        <ele>-27.39999961853</ele>
        <time>2021-05-02T08:05:30.000Z</time>
      </trkpt>
      <trkpt lat="47.28998" lon="-2.40895">
        <ele>-27.39999961853</ele>
        <time>2021-05-02T08:05:32.000Z</time>
      </trkpt>
      <trkpt lat="47.29008" lon="-2.40879">
        <ele>-27.39999961853</ele>
        <time>2021-05-02T08:05:35.000Z</time>
      </trkpt>
      <trkpt lat="47.29014" lon="-2.40868">
        <ele>-27.39999961853</ele>
        <time>2021-05-02T08:05:37.000Z</time>
      </trkpt>
      <trkpt lat="47.29037" lon="-2.40831">
        <ele>-27.39999961853</ele>
        <time>2021-05-02T08:05:44.000Z</time>
      </trkpt>
      <trkpt lat="47.2904" lon="-2.40824">
        <ele>-27.39999961853</ele>
        <time>2021-05-02T08:05:45.000Z</time>
      </trkpt>
      <trkpt lat="47.29042" lon="-2.4081">
        <ele>-27.39999961853</ele>
        <time>2021-05-02T08:05:47.000Z</time>
      </trkpt>
      <trkpt lat="47.29035" lon="-2.4079">
        <ele>-27.39999961853</ele>
        <time>2021-05-02T08:05:50.000Z</time>
      </trkpt>
      <trkpt lat="47.29027" lon="-2.40772">
        <ele>-27.39999961853</ele>
        <time>2021-05-02T08:05:53.000Z</time>
      </trkpt>
      <trkpt lat="47.29019" lon="-2.40754">
        <ele>-27.39999961853</ele>
        <time>2021-05-02T08:05:56.000Z</time>
      </trkpt>
      <trkpt lat="47.29018" lon="-2.40747">
        <ele>-27.39999961853</ele>
        <time>2021-05-02T08:05:57.000Z</time>
      </trkpt>
      <trkpt lat="47.29021" lon="-2.40736">
        <ele>-27.39999961853</ele>
        <time>2021-05-02T08:05:59.000Z</time>
      </trkpt>
      <trkpt lat="47.29034" lon="-2.40719">
        <ele>-27.39999961853</ele>
        <time>2021-05-02T08:06:03.000Z</time>
      </trkpt>
      <trkpt lat="47.29054" lon="-2.40698">
        <ele>-27.39999961853</ele>
        <time>2021-05-02T08:06:08.000Z</time>
      </trkpt>
      <trkpt lat="47.29063" lon="-2.40693">
        <ele>-27.39999961853</ele>
        <time>2021-05-02T08:06:10.000Z</time>
      </trkpt>
      <trkpt lat="47.29072" lon="-2.4069">
        <ele>-27.39999961853</ele>
        <time>2021-05-02T08:06:12.000Z</time>
      </trkpt>
      <trkpt lat="47.29093" lon="-2.40685">
        <ele>-27.39999961853</ele>
        <time>2021-05-02T08:06:16.000Z</time>
      </trkpt>
      <trkpt lat="47.2912" lon="-2.40677">
        <ele>-27.39999961853</ele>
        <time>2021-05-02T08:06:21.000Z</time>
      </trkpt>
      <trkpt lat="47.29125" lon="-2.40673">
        <ele>-27.39999961853</ele>
        <time>2021-05-02T08:06:22.000Z</time>
      </trkpt>
      <trkpt lat="47.29143" lon="-2.40653">
        <ele>-27.39999961853</ele>
        <time>2021-05-02T08:06:26.000Z</time>
      </trkpt>
      <trkpt lat="47.29147" lon="-2.40649">
        <ele>-27.39999961853</ele>
        <time>2021-05-02T08:06:27.000Z</time>
      </trkpt>
      <trkpt lat="47.29174" lon="-2.40629">
        <ele>-27.39999961853</ele>
        <time>2021-05-02T08:06:33.000Z</time>
      </trkpt>
      <trkpt lat="47.29195" lon="-2.40614">
        <ele>-27.39999961853</ele>
        <time>2021-05-02T08:06:38.000Z</time>
      </trkpt>
      <trkpt lat="47.292" lon="-2.40613">
        <ele>-27.39999961853</ele>
        <time>2021-05-02T08:06:39.000Z</time>
      </trkpt>
      <trkpt lat="47.29214" lon="-2.40624">
        <ele>-27.39999961853</ele>
        <time>2021-05-02T08:06:42.000Z</time>
      </trkpt>
      <trkpt lat="47.29228" lon="-2.4065">
        <ele>-27.39999961853</ele>
        <time>2021-05-02T08:06:46.000Z</time>
      </trkpt>
      <trkpt lat="47.2923" lon="-2.40657">
        <ele>-27.39999961853</ele>
        <time>2021-05-02T08:06:47.000Z</time>
      </trkpt>
      <trkpt lat="47.29232" lon="-2.40664">
        <ele>-27.39999961853</ele>
        <time>2021-05-02T08:06:48.000Z</time>
      </trkpt>
      <trkpt lat="47.29231" lon="-2.40687">
        <ele>-27.39999961853</ele>
        <time>2021-05-02T08:06:51.000Z</time>
      </trkpt>
      <trkpt lat="47.2922" lon="-2.40712">
        <ele>-27.39999961853</ele>
        <time>2021-05-02T08:06:55.000Z</time>
      </trkpt>
      <trkpt lat="47.29217" lon="-2.40718">
        <ele>-27.39999961853</ele>
        <time>2021-05-02T08:06:56.000Z</time>
      </trkpt>
      <trkpt lat="47.29194" lon="-2.40752">
        <ele>-27.39999961853</ele>
        <time>2021-05-02T08:07:02.000Z</time>
      </trkpt>
      <trkpt lat="47.29184" lon="-2.40782">
        <ele>-27.39999961853</ele>
        <time>2021-05-02T08:07:06.000Z</time>
      </trkpt>
      <trkpt lat="47.29172" lon="-2.40818">
        <ele>-27.39999961853</ele>
        <time>2021-05-02T08:07:11.000Z</time>
      </trkpt>
      <trkpt lat="47.2917" lon="-2.40835">
        <ele>-27.39999961853</ele>
        <time>2021-05-02T08:07:13.000Z</time>
      </trkpt>
      <trkpt lat="47.29171" lon="-2.40867">
        <ele>-27.39999961853</ele>
        <time>2021-05-02T08:07:17.000Z</time>
      </trkpt>
      <trkpt lat="47.29169" lon="-2.40875">
        <ele>-27.39999961853</ele>
        <time>2021-05-02T08:07:18.000Z</time>
      </trkpt>
      <trkpt lat="47.29167" lon="-2.40882">
        <ele>-27.39999961853</ele>
        <time>2021-05-02T08:07:19.000Z</time>
      </trkpt>
      <trkpt lat="47.29163" lon="-2.40905">
        <ele>-27.39999961853</ele>
        <time>2021-05-02T08:07:22.000Z</time>
      </trkpt>
      <trkpt lat="47.29161" lon="-2.4092">
        <ele>-27.39999961853</ele>
        <time>2021-05-02T08:07:24.000Z</time>
      </trkpt>
      <trkpt lat="47.29168" lon="-2.40941">
        <ele>-27.39999961853</ele>
        <time>2021-05-02T08:07:27.000Z</time>
      </trkpt>
      <trkpt lat="47.29185" lon="-2.40948">
        <ele>-27.39999961853</ele>
        <time>2021-05-02T08:07:30.000Z</time>
      </trkpt>
      <trkpt lat="47.2919" lon="-2.4095">
        <ele>-27.39999961853</ele>
        <time>2021-05-02T08:07:31.000Z</time>
      </trkpt>
      <trkpt lat="47.29206" lon="-2.40957">
        <ele>-27.39999961853</ele>
        <time>2021-05-02T08:07:34.000Z</time>
      </trkpt>
      <trkpt lat="47.2921" lon="-2.40961">
        <ele>-27.39999961853</ele>
        <time>2021-05-02T08:07:35.000Z</time>
      </trkpt>
      <trkpt lat="47.29219" lon="-2.40982">
        <ele>-27.39999961853</ele>
        <time>2021-05-02T08:07:38.000Z</time>
      </trkpt>
      <trkpt lat="47.29222" lon="-2.40989">
        <ele>-27.39999961853</ele>
        <time>2021-05-02T08:07:39.000Z</time>
      </trkpt>
      <trkpt lat="47.29238" lon="-2.41024">
        <ele>-27.39999961853</ele>
        <time>2021-05-02T08:07:44.000Z</time>
      </trkpt>
      <trkpt lat="47.29242" lon="-2.4103">
        <ele>-27.39999961853</ele>
        <time>2021-05-02T08:07:45.000Z</time>
      </trkpt>
      <trkpt lat="47.29247" lon="-2.41034">
        <ele>-27.39999961853</ele>
        <time>2021-05-02T08:07:46.000Z</time>
      </trkpt>
      <trkpt lat="47.29255" lon="-2.41046">
        <ele>-27.39999961853</ele>
        <time>2021-05-02T08:07:48.000Z</time>
      </trkpt>
      <trkpt lat="47.29257" lon="-2.41054">
        <ele>-27.39999961853</ele>
        <time>2021-05-02T08:07:49.000Z</time>
      </trkpt>
      <trkpt lat="47.29253" lon="-2.41067">
        <ele>-27.39999961853</ele>
        <time>2021-05-02T08:07:51.000Z</time>
      </trkpt>
      <trkpt lat="47.29247" lon="-2.41087">
        <ele>-27.39999961853</ele>
        <time>2021-05-02T08:07:54.000Z</time>
      </trkpt>
      <trkpt lat="47.29257" lon="-2.41105">
        <ele>-27.39999961853</ele>
        <time>2021-05-02T08:07:57.000Z</time>
      </trkpt>
      <trkpt lat="47.29265" lon="-2.41116">
        <ele>-27.39999961853</ele>
        <time>2021-05-02T08:07:59.000Z</time>
      </trkpt>
      <trkpt lat="47.29277" lon="-2.41129">
        <ele>-27.39999961853</ele>
        <time>2021-05-02T08:08:02.000Z</time>
      </trkpt>
      <trkpt lat="47.29285" lon="-2.4114">
        <ele>-27.39999961853</ele>
        <time>2021-05-02T08:08:04.000Z</time>
      </trkpt>
      <trkpt lat="47.29294" lon="-2.41158">
        <ele>-27.39999961853</ele>
        <time>2021-05-02T08:08:07.000Z</time>
      </trkpt>
      <trkpt lat="47.29297" lon="-2.41165">
        <ele>-27.39999961853</ele>
        <time>2021-05-02T08:08:08.000Z</time>
      </trkpt>
      <trkpt lat="47.29307" lon="-2.4119">
        <ele>-27.39999961853</ele>
        <time>2021-05-02T08:08:12.000Z</time>
      </trkpt>
      <trkpt lat="47.29325" lon="-2.41212">
        <ele>-27.799999237061</ele>
        <time>2021-05-02T08:08:16.000Z</time>
      </trkpt>
      <trkpt lat="47.2933" lon="-2.41218">
        <ele>-28.200000762939</ele>
        <time>2021-05-02T08:08:17.000Z</time>
      </trkpt>
      <trkpt lat="47.29334" lon="-2.41223">
        <ele>-28.60000038147</ele>
        <time>2021-05-02T08:08:18.000Z</time>
      </trkpt>
      <trkpt lat="47.29339" lon="-2.41228">
        <ele>-29</ele>
        <time>2021-05-02T08:08:19.000Z</time>
      </trkpt>
      <trkpt lat="47.29343" lon="-2.41234">
        <ele>-29.39999961853</ele>
        <time>2021-05-02T08:08:20.000Z</time>
      </trkpt>
      <trkpt lat="47.29353" lon="-2.4125">
        <ele>-29.39999961853</ele>
        <time>2021-05-02T08:08:23.000Z</time>
      </trkpt>
      <trkpt lat="47.29355" lon="-2.41257">
        <ele>-29.39999961853</ele>
        <time>2021-05-02T08:08:24.000Z</time>
      </trkpt>
      <trkpt lat="47.29357" lon="-2.41273">
        <ele>-29.39999961853</ele>
        <time>2021-05-02T08:08:26.000Z</time>
      </trkpt>
      <trkpt lat="47.29359" lon="-2.41287">
        <ele>-29.39999961853</ele>
        <time>2021-05-02T08:08:28.000Z</time>
      </trkpt>
      <trkpt lat="47.2936" lon="-2.41299">
        <ele>-29.39999961853</ele>
        <time>2021-05-02T08:08:30.000Z</time>
      </trkpt>
      <trkpt lat="47.29359" lon="-2.41306">
        <ele>-29.39999961853</ele>
        <time>2021-05-02T08:08:31.000Z</time>
      </trkpt>
      <trkpt lat="47.29352" lon="-2.41324">
        <ele>-29.39999961853</ele>
        <time>2021-05-02T08:08:34.000Z</time>
      </trkpt>
      <trkpt lat="47.2935" lon="-2.4133">
        <ele>-29.39999961853</ele>
        <time>2021-05-02T08:08:35.000Z</time>
      </trkpt>
      <trkpt lat="47.29349" lon="-2.41337">
        <ele>-29.39999961853</ele>
        <time>2021-05-02T08:08:36.000Z</time>
      </trkpt>
      <trkpt lat="47.2935" lon="-2.41356">
        <ele>-29.39999961853</ele>
        <time>2021-05-02T08:08:39.000Z</time>
      </trkpt>
      <trkpt lat="47.29364" lon="-2.41377">
        <ele>-29.39999961853</ele>
        <time>2021-05-02T08:08:43.000Z</time>
      </trkpt>
      <trkpt lat="47.29375" lon="-2.41392">
        <ele>-29.39999961853</ele>
        <time>2021-05-02T08:08:46.000Z</time>
      </trkpt>
      <trkpt lat="47.29381" lon="-2.41403">
        <ele>-29.39999961853</ele>
        <time>2021-05-02T08:08:48.000Z</time>
      </trkpt>
      <trkpt lat="47.29387" lon="-2.41416">
        <ele>-29.39999961853</ele>
        <time>2021-05-02T08:08:50.000Z</time>
      </trkpt>
      <trkpt lat="47.29398" lon="-2.41442">
        <ele>-29.39999961853</ele>
        <time>2021-05-02T08:08:54.000Z</time>
      </trkpt>
      <trkpt lat="47.29409" lon="-2.41459">
        <ele>-29.39999961853</ele>
        <time>2021-05-02T08:08:57.000Z</time>
      </trkpt>
      <trkpt lat="47.29416" lon="-2.41468">
        <ele>-29.39999961853</ele>
        <time>2021-05-02T08:08:59.000Z</time>
      </trkpt>
      <trkpt lat="47.29436" lon="-2.41489">
        <ele>-29.39999961853</ele>
        <time>2021-05-02T08:09:04.000Z</time>
      </trkpt>
      <trkpt lat="47.29441" lon="-2.4149">
        <ele>-29.39999961853</ele>
        <time>2021-05-02T08:09:05.000Z</time>
      </trkpt>
      <trkpt lat="47.29459" lon="-2.41488">
        <ele>-29.39999961853</ele>
        <time>2021-05-02T08:09:09.000Z</time>
      </trkpt>
      <trkpt lat="47.29463" lon="-2.41486">
        <ele>-29.39999961853</ele>
        <time>2021-05-02T08:09:10.000Z</time>
      </trkpt>
      <trkpt lat="47.29468" lon="-2.41485">
        <ele>-29.39999961853</ele>
        <time>2021-05-02T08:09:11.000Z</time>
      </trkpt>
      <trkpt lat="47.29482" lon="-2.41489">
        <ele>-29.39999961853</ele>
        <time>2021-05-02T08:09:14.000Z</time>
      </trkpt>
      <trkpt lat="47.29486" lon="-2.41489">
        <ele>-29.39999961853</ele>
        <time>2021-05-02T08:09:15.000Z</time>
      </trkpt>
      <trkpt lat="47.295" lon="-2.41484">
        <ele>-29.39999961853</ele>
        <time>2021-05-02T08:09:18.000Z</time>
      </trkpt>
      <trkpt lat="47.29519" lon="-2.41482">
        <ele>-29.39999961853</ele>
        <time>2021-05-02T08:09:22.000Z</time>
      </trkpt>
      <trkpt lat="47.29529" lon="-2.41498">
        <ele>-29.39999961853</ele>
        <time>2021-05-02T08:09:25.000Z</time>
      </trkpt>
      <trkpt lat="47.29532" lon="-2.41505">
        <ele>-29.39999961853</ele>
        <time>2021-05-02T08:09:26.000Z</time>
      </trkpt>
      <trkpt lat="47.29541" lon="-2.41531">
        <ele>-29.39999961853</ele>
        <time>2021-05-02T08:09:30.000Z</time>
      </trkpt>
      <trkpt lat="47.29542" lon="-2.41538">
        <ele>-29.39999961853</ele>
        <time>2021-05-02T08:09:31.000Z</time>
      </trkpt>
      <trkpt lat="47.29537" lon="-2.4156">
        <ele>-29.39999961853</ele>
        <time>2021-05-02T08:09:34.000Z</time>
      </trkpt>
      <trkpt lat="47.29532" lon="-2.41573">
        <ele>-29.39999961853</ele>
        <time>2021-05-02T08:09:36.000Z</time>
      </trkpt>
      <trkpt lat="47.29528" lon="-2.41587">
        <ele>-29.39999961853</ele>
        <time>2021-05-02T08:09:38.000Z</time>
      </trkpt>
      <trkpt lat="47.29526" lon="-2.41602">
        <ele>-29.39999961853</ele>
        <time>2021-05-02T08:09:40.000Z</time>
      </trkpt>
      <trkpt lat="47.2953" lon="-2.41643">
        <ele>-29.39999961853</ele>
        <time>2021-05-02T08:09:45.000Z</time>
      </trkpt>
      <trkpt lat="47.29532" lon="-2.4165">
        <ele>-29.39999961853</ele>
        <time>2021-05-02T08:09:46.000Z</time>
      </trkpt>
      <trkpt lat="47.29536" lon="-2.41664">
        <ele>-29.39999961853</ele>
        <time>2021-05-02T08:09:48.000Z</time>
      </trkpt>
      <trkpt lat="47.29541" lon="-2.41676">
        <ele>-29.39999961853</ele>
        <time>2021-05-02T08:09:50.000Z</time>
      </trkpt>
      <trkpt lat="47.29562" lon="-2.4171">
        <ele>-29.39999961853</ele>
        <time>2021-05-02T08:09:56.000Z</time>
      </trkpt>
      <trkpt lat="47.29584" lon="-2.4172">
        <ele>-29.39999961853</ele>
        <time>2021-05-02T08:10:00.000Z</time>
      </trkpt>
      <trkpt lat="47.29594" lon="-2.41728">
        <ele>-29.39999961853</ele>
        <time>2021-05-02T08:10:02.000Z</time>
      </trkpt>
      <trkpt lat="47.29608" lon="-2.41742">
        <ele>-29.39999961853</ele>
        <time>2021-05-02T08:10:05.000Z</time>
      </trkpt>
      <trkpt lat="47.29632" lon="-2.41775">
        <ele>-29.39999961853</ele>
        <time>2021-05-02T08:10:11.000Z</time>
      </trkpt>
      <trkpt lat="47.29638" lon="-2.41801">
        <ele>-29.39999961853</ele>
        <time>2021-05-02T08:10:15.000Z</time>
      </trkpt>
      <trkpt lat="47.29639" lon="-2.41808">
        <ele>-29.39999961853</ele>
        <time>2021-05-02T08:10:16.000Z</time>
      </trkpt>
      <trkpt lat="47.29643" lon="-2.4182">
        <ele>-29.39999961853</ele>
        <time>2021-05-02T08:10:18.000Z</time>
      </trkpt>
      <trkpt lat="47.29652" lon="-2.41829">
        <ele>-29.39999961853</ele>
        <time>2021-05-02T08:10:20.000Z</time>
      </trkpt>
      <trkpt lat="47.29667" lon="-2.41827">
        <ele>-29.39999961853</ele>
        <time>2021-05-02T08:10:23.000Z</time>
      </trkpt>
      <trkpt lat="47.29671" lon="-2.41826">
        <ele>-29.39999961853</ele>
        <time>2021-05-02T08:10:24.000Z</time>
      </trkpt>
      <trkpt lat="47.29695" lon="-2.41819">
        <ele>-29.39999961853</ele>
        <time>2021-05-02T08:10:29.000Z</time>
      </trkpt>
      <trkpt lat="47.29699" lon="-2.41816">
        <ele>-29.39999961853</ele>
        <time>2021-05-02T08:10:30.000Z</time>
      </trkpt>
      <trkpt lat="47.2971" lon="-2.41802">
        <ele>-29.39999961853</ele>
        <time>2021-05-02T08:10:33.000Z</time>
      </trkpt>
      <trkpt lat="47.29723" lon="-2.41782">
        <ele>-29.39999961853</ele>
        <time>2021-05-02T08:10:38.000Z</time>
      </trkpt>
      <trkpt lat="47.29737" lon="-2.41762">
        <ele>-29.39999961853</ele>
        <time>2021-05-02T08:10:43.000Z</time>
      </trkpt>
      <trkpt lat="47.29744" lon="-2.41757">
        <ele>-29.39999961853</ele>
        <time>2021-05-02T08:10:45.000Z</time>
      </trkpt>
      <trkpt lat="47.2976" lon="-2.41747">
        <ele>-29.39999961853</ele>
        <time>2021-05-02T08:10:51.000Z</time>
      </trkpt>
      <trkpt lat="47.2976" lon="-2.41746">
        <ele>-29.39999961853</ele>
        <time>2021-05-02T08:10:52.000Z</time>
      </trkpt>
      <trkpt lat="47.29765" lon="-2.41747">
        <ele>-29.39999961853</ele>
        <time>2021-05-02T08:10:56.000Z</time>
      </trkpt>
      <trkpt lat="47.29767" lon="-2.41753">
        <ele>-29.39999961853</ele>
        <time>2021-05-02T08:10:58.000Z</time>
      </trkpt>
      <trkpt lat="47.2977" lon="-2.41758">
        <ele>-29.39999961853</ele>
        <time>2021-05-02T08:11:00.000Z</time>
      </trkpt>
      <trkpt lat="47.29773" lon="-2.41776">
        <ele>-29.39999961853</ele>
        <time>2021-05-02T08:11:06.000Z</time>
      </trkpt>
      <trkpt lat="47.29775" lon="-2.41792">
        <ele>-29.39999961853</ele>
        <time>2021-05-02T08:11:13.000Z</time>
      </trkpt>
      <trkpt lat="47.29776" lon="-2.41798">
        <ele>-29.39999961853</ele>
        <time>2021-05-02T08:11:17.000Z</time>
      </trkpt>
      <trkpt lat="47.29776" lon="-2.41804">
        <ele>-29.39999961853</ele>
        <time>2021-05-02T08:13:40.000Z</time>
      </trkpt>
      <trkpt lat="47.29775" lon="-2.41807">
        <ele>-29.39999961853</ele>
        <time>2021-05-02T08:13:41.000Z</time>
      </trkpt>
      <trkpt lat="47.29773" lon="-2.41829">
        <ele>-29.39999961853</ele>
        <time>2021-05-02T08:13:46.000Z</time>
      </trkpt>
      <trkpt lat="47.2977" lon="-2.41876">
        <ele>-29.39999961853</ele>
        <time>2021-05-02T08:13:54.000Z</time>
      </trkpt>
      <trkpt lat="47.29775" lon="-2.41918">
        <ele>-29.39999961853</ele>
        <time>2021-05-02T08:14:00.000Z</time>
      </trkpt>
      <trkpt lat="47.29789" lon="-2.41992">
        <ele>-29.39999961853</ele>
        <time>2021-05-02T08:14:09.000Z</time>
      </trkpt>
      <trkpt lat="47.29787" lon="-2.42028">
        <ele>-29.39999961853</ele>
        <time>2021-05-02T08:14:13.000Z</time>
      </trkpt>
      <trkpt lat="47.29775" lon="-2.42051">
        <ele>-29.39999961853</ele>
        <time>2021-05-02T08:14:16.000Z</time>
      </trkpt>
      <trkpt lat="47.2977" lon="-2.4206">
        <ele>-29.39999961853</ele>
        <time>2021-05-02T08:14:17.000Z</time>
      </trkpt>
      <trkpt lat="47.29735" lon="-2.42122">
        <ele>-29.39999961853</ele>
        <time>2021-05-02T08:14:25.000Z</time>
      </trkpt>
      <trkpt lat="47.29731" lon="-2.4213">
        <ele>-29.39999961853</ele>
        <time>2021-05-02T08:14:26.000Z</time>
      </trkpt>
      <trkpt lat="47.29695" lon="-2.42191">
        <ele>-29.39999961853</ele>
        <time>2021-05-02T08:14:34.000Z</time>
      </trkpt>
      <trkpt lat="47.29668" lon="-2.42248">
        <ele>-29.39999961853</ele>
        <time>2021-05-02T08:14:41.000Z</time>
      </trkpt>
      <trkpt lat="47.29665" lon="-2.42257">
        <ele>-29.39999961853</ele>
        <time>2021-05-02T08:14:42.000Z</time>
      </trkpt>
      <trkpt lat="47.29658" lon="-2.42296">
        <ele>-29.39999961853</ele>
        <time>2021-05-02T08:14:46.000Z</time>
      </trkpt>
      <trkpt lat="47.29642" lon="-2.42367">
        <ele>-29.39999961853</ele>
        <time>2021-05-02T08:14:54.000Z</time>
      </trkpt>
      <trkpt lat="47.29637" lon="-2.4239">
        <ele>-29.39999961853</ele>
        <time>2021-05-02T08:14:57.000Z</time>
      </trkpt>
      <trkpt lat="47.29634" lon="-2.4241">
        <ele>-29.39999961853</ele>
        <time>2021-05-02T08:15:00.000Z</time>
      </trkpt>
      <trkpt lat="47.2963" lon="-2.42429">
        <ele>-29.39999961853</ele>
        <time>2021-05-02T08:15:03.000Z</time>
      </trkpt>
      <trkpt lat="47.29622" lon="-2.42439">
        <ele>-29.39999961853</ele>
        <time>2021-05-02T08:15:06.000Z</time>
      </trkpt>
      <trkpt lat="47.29614" lon="-2.42437">
        <ele>-29.39999961853</ele>
        <time>2021-05-02T08:15:08.000Z</time>
      </trkpt>
      <trkpt lat="47.29604" lon="-2.42434">
        <ele>-29.39999961853</ele>
        <time>2021-05-02T08:15:10.000Z</time>
      </trkpt>
      <trkpt lat="47.29571" lon="-2.42426">
        <ele>-29.39999961853</ele>
        <time>2021-05-02T08:15:16.000Z</time>
      </trkpt>
      <trkpt lat="47.2955" lon="-2.42441">
        <ele>-29.39999961853</ele>
        <time>2021-05-02T08:15:20.000Z</time>
      </trkpt>
      <trkpt lat="47.29543" lon="-2.42454">
        <ele>-29.39999961853</ele>
        <time>2021-05-02T08:15:22.000Z</time>
      </trkpt>
      <trkpt lat="47.29539" lon="-2.42461">
        <ele>-29.39999961853</ele>
        <time>2021-05-02T08:15:23.000Z</time>
      </trkpt>
      <trkpt lat="47.29534" lon="-2.42468">
        <ele>-29.39999961853</ele>
        <time>2021-05-02T08:15:24.000Z</time>
      </trkpt>
      <trkpt lat="47.29517" lon="-2.42483">
        <ele>-29.39999961853</ele>
        <time>2021-05-02T08:15:27.000Z</time>
      </trkpt>
      <trkpt lat="47.29506" lon="-2.42493">
        <ele>-29.39999961853</ele>
        <time>2021-05-02T08:15:29.000Z</time>
      </trkpt>
      <trkpt lat="47.2949" lon="-2.42512">
        <ele>-29.39999961853</ele>
        <time>2021-05-02T08:15:32.000Z</time>
      </trkpt>
      <trkpt lat="47.2948" lon="-2.42522">
        <ele>-29.39999961853</ele>
        <time>2021-05-02T08:15:34.000Z</time>
      </trkpt>
      <trkpt lat="47.29459" lon="-2.42546">
        <ele>-29.39999961853</ele>
        <time>2021-05-02T08:15:38.000Z</time>
      </trkpt>
      <trkpt lat="47.29448" lon="-2.42555">
        <ele>-29.39999961853</ele>
        <time>2021-05-02T08:15:40.000Z</time>
      </trkpt>
      <trkpt lat="47.29425" lon="-2.42584">
        <ele>-29.39999961853</ele>
        <time>2021-05-02T08:15:45.000Z</time>
      </trkpt>
      <trkpt lat="47.2942" lon="-2.42609">
        <ele>-29.39999961853</ele>
        <time>2021-05-02T08:15:48.000Z</time>
      </trkpt>
      <trkpt lat="47.29418" lon="-2.42653">
        <ele>-29.39999961853</ele>
        <time>2021-05-02T08:15:53.000Z</time>
      </trkpt>
      <trkpt lat="47.29415" lon="-2.42679">
        <ele>-29.39999961853</ele>
        <time>2021-05-02T08:15:56.000Z</time>
      </trkpt>
      <trkpt lat="47.29409" lon="-2.42694">
        <ele>-29.39999961853</ele>
        <time>2021-05-02T08:15:58.000Z</time>
      </trkpt>
      <trkpt lat="47.29391" lon="-2.42739">
        <ele>-29.39999961853</ele>
        <time>2021-05-02T08:16:04.000Z</time>
      </trkpt>
      <trkpt lat="47.29378" lon="-2.42784">
        <ele>-29.39999961853</ele>
        <time>2021-05-02T08:16:10.000Z</time>
      </trkpt>
      <trkpt lat="47.29375" lon="-2.42791">
        <ele>-29.39999961853</ele>
        <time>2021-05-02T08:16:11.000Z</time>
      </trkpt>
      <trkpt lat="47.29364" lon="-2.42811">
        <ele>-29.39999961853</ele>
        <time>2021-05-02T08:16:14.000Z</time>
      </trkpt>
      <trkpt lat="47.29355" lon="-2.42821">
        <ele>-29.39999961853</ele>
        <time>2021-05-02T08:16:16.000Z</time>
      </trkpt>
      <trkpt lat="47.29349" lon="-2.42828">
        <ele>-29.39999961853</ele>
        <time>2021-05-02T08:16:17.000Z</time>
      </trkpt>
      <trkpt lat="47.29337" lon="-2.42849">
        <ele>-29.39999961853</ele>
        <time>2021-05-02T08:16:20.000Z</time>
      </trkpt>
      <trkpt lat="47.2932" lon="-2.42897">
        <ele>-29.39999961853</ele>
        <time>2021-05-02T08:16:26.000Z</time>
      </trkpt>
      <trkpt lat="47.29312" lon="-2.42938">
        <ele>-29.39999961853</ele>
        <time>2021-05-02T08:16:31.000Z</time>
      </trkpt>
      <trkpt lat="47.29312" lon="-2.42947">
        <ele>-29.39999961853</ele>
        <time>2021-05-02T08:16:32.000Z</time>
      </trkpt>
      <trkpt lat="47.29313" lon="-2.42976">
        <ele>-29.39999961853</ele>
        <time>2021-05-02T08:16:35.000Z</time>
      </trkpt>
      <trkpt lat="47.29313" lon="-2.42995">
        <ele>-29.39999961853</ele>
        <time>2021-05-02T08:16:37.000Z</time>
      </trkpt>
      <trkpt lat="47.29311" lon="-2.43012">
        <ele>-29.39999961853</ele>
        <time>2021-05-02T08:16:39.000Z</time>
      </trkpt>
      <trkpt lat="47.29307" lon="-2.43037">
        <ele>-29.39999961853</ele>
        <time>2021-05-02T08:16:42.000Z</time>
      </trkpt>
      <trkpt lat="47.29305" lon="-2.43055">
        <ele>-29.39999961853</ele>
        <time>2021-05-02T08:16:44.000Z</time>
      </trkpt>
      <trkpt lat="47.29309" lon="-2.4307">
        <ele>-29.39999961853</ele>
        <time>2021-05-02T08:16:46.000Z</time>
      </trkpt>
      <trkpt lat="47.29324" lon="-2.43081">
        <ele>-29.39999961853</ele>
        <time>2021-05-02T08:16:49.000Z</time>
      </trkpt>
      <trkpt lat="47.2934" lon="-2.43093">
        <ele>-29.39999961853</ele>
        <time>2021-05-02T08:16:52.000Z</time>
      </trkpt>
      <trkpt lat="47.29345" lon="-2.43099">
        <ele>-29.39999961853</ele>
        <time>2021-05-02T08:16:53.000Z</time>
      </trkpt>
      <trkpt lat="47.29353" lon="-2.43114">
        <ele>-29.39999961853</ele>
        <time>2021-05-02T08:16:55.000Z</time>
      </trkpt>
      <trkpt lat="47.29371" lon="-2.43162">
        <ele>-29.39999961853</ele>
        <time>2021-05-02T08:17:01.000Z</time>
      </trkpt>
      <trkpt lat="47.29373" lon="-2.43172">
        <ele>-29.39999961853</ele>
        <time>2021-05-02T08:17:02.000Z</time>
      </trkpt>
      <trkpt lat="47.29376" lon="-2.43199">
        <ele>-29.39999961853</ele>
        <time>2021-05-02T08:17:05.000Z</time>
      </trkpt>
      <trkpt lat="47.29376" lon="-2.43208">
        <ele>-29.39999961853</ele>
        <time>2021-05-02T08:17:06.000Z</time>
      </trkpt>
      <trkpt lat="47.29372" lon="-2.43223">
        <ele>-29.39999961853</ele>
        <time>2021-05-02T08:17:08.000Z</time>
      </trkpt>
      <trkpt lat="47.29361" lon="-2.4325">
        <ele>-29.39999961853</ele>
        <time>2021-05-02T08:17:12.000Z</time>
      </trkpt>
      <trkpt lat="47.29362" lon="-2.43287">
        <ele>-29.39999961853</ele>
        <time>2021-05-02T08:17:17.000Z</time>
      </trkpt>
      <trkpt lat="47.2937" lon="-2.43306">
        <ele>-29.39999961853</ele>
        <time>2021-05-02T08:17:20.000Z</time>
      </trkpt>
      <trkpt lat="47.29374" lon="-2.4331">
        <ele>-29.39999961853</ele>
        <time>2021-05-02T08:17:21.000Z</time>
      </trkpt>
      <trkpt lat="47.29383" lon="-2.43322">
        <ele>-29.39999961853</ele>
        <time>2021-05-02T08:17:25.000Z</time>
      </trkpt>
      <trkpt lat="47.29391" lon="-2.43336">
        <ele>-29.39999961853</ele>
        <time>2021-05-02T08:17:32.000Z</time>
      </trkpt>
      <trkpt lat="47.29401" lon="-2.43346">
        <ele>-29.39999961853</ele>
        <time>2021-05-02T08:17:37.000Z</time>
      </trkpt>
      <trkpt lat="47.2941" lon="-2.43369">
        <ele>-29.39999961853</ele>
        <time>2021-05-02T08:17:42.000Z</time>
      </trkpt>
      <trkpt lat="47.29412" lon="-2.43384">
        <ele>-29.39999961853</ele>
        <time>2021-05-02T08:17:45.000Z</time>
      </trkpt>
      <trkpt lat="47.29414" lon="-2.43386">
        <ele>-29.39999961853</ele>
        <time>2021-05-02T08:17:46.000Z</time>
      </trkpt>
      <trkpt lat="47.2943" lon="-2.43395">
        <ele>-29.39999961853</ele>
        <time>2021-05-02T08:17:50.000Z</time>
      </trkpt>
      <trkpt lat="47.29436" lon="-2.4342">
        <ele>-29.39999961853</ele>
        <time>2021-05-02T08:17:54.000Z</time>
      </trkpt>
      <trkpt lat="47.29443" lon="-2.43454">
        <ele>-29.39999961853</ele>
        <time>2021-05-02T08:17:59.000Z</time>
      </trkpt>
      <trkpt lat="47.29445" lon="-2.4346">
        <ele>-29.39999961853</ele>
        <time>2021-05-02T08:18:00.000Z</time>
      </trkpt>
      <trkpt lat="47.29452" lon="-2.43466">
        <ele>-29.39999961853</ele>
        <time>2021-05-02T08:18:02.000Z</time>
      </trkpt>
      <trkpt lat="47.2946" lon="-2.43459">
        <ele>-29.39999961853</ele>
        <time>2021-05-02T08:18:05.000Z</time>
      </trkpt>
      <trkpt lat="47.29468" lon="-2.43441">
        <ele>-29.39999961853</ele>
        <time>2021-05-02T08:18:09.000Z</time>
      </trkpt>
      <trkpt lat="47.2947" lon="-2.43437">
        <ele>-29.39999961853</ele>
        <time>2021-05-02T08:18:10.000Z</time>
      </trkpt>
      <trkpt lat="47.29481" lon="-2.43414">
        <ele>-29.39999961853</ele>
        <time>2021-05-02T08:18:16.000Z</time>
      </trkpt>
      <trkpt lat="47.29494" lon="-2.43389">
        <ele>-29.39999961853</ele>
        <time>2021-05-02T08:18:23.000Z</time>
      </trkpt>
      <trkpt lat="47.29511" lon="-2.43359">
        <ele>-29.39999961853</ele>
        <time>2021-05-02T08:18:30.000Z</time>
      </trkpt>
      <trkpt lat="47.29528" lon="-2.4333">
        <ele>-29.39999961853</ele>
        <time>2021-05-02T08:18:37.000Z</time>
      </trkpt>
      <trkpt lat="47.29535" lon="-2.43317">
        <ele>-29</ele>
        <time>2021-05-02T08:18:40.000Z</time>
      </trkpt>
      <trkpt lat="47.29539" lon="-2.43312">
        <ele>-28.60000038147</ele>
        <time>2021-05-02T08:18:41.000Z</time>
      </trkpt>
      <trkpt lat="47.29542" lon="-2.43307">
        <ele>-28.200000762939</ele>
        <time>2021-05-02T08:18:42.000Z</time>
      </trkpt>
      <trkpt lat="47.29545" lon="-2.43303">
        <ele>-27.799999237061</ele>
        <time>2021-05-02T08:18:43.000Z</time>
      </trkpt>
      <trkpt lat="47.29547" lon="-2.43299">
        <ele>-27.39999961853</ele>
        <time>2021-05-02T08:18:44.000Z</time>
      </trkpt>
      <trkpt lat="47.29564" lon="-2.43271">
        <ele>-27.39999961853</ele>
        <time>2021-05-02T08:18:51.000Z</time>
      </trkpt>
      <trkpt lat="47.29576" lon="-2.43259">
        <ele>-27.39999961853</ele>
        <time>2021-05-02T08:18:55.000Z</time>
      </trkpt>
      <trkpt lat="47.2958" lon="-2.43257">
        <ele>-27.39999961853</ele>
        <time>2021-05-02T08:18:56.000Z</time>
      </trkpt>
      <trkpt lat="47.29599" lon="-2.43247">
        <ele>-27.39999961853</ele>
        <time>2021-05-02T08:19:00.000Z</time>
      </trkpt>
      <trkpt lat="47.29619" lon="-2.43236">
        <ele>-27.39999961853</ele>
        <time>2021-05-02T08:19:04.000Z</time>
      </trkpt>
      <trkpt lat="47.29636" lon="-2.43229">
        <ele>-27.39999961853</ele>
        <time>2021-05-02T08:19:07.000Z</time>
      </trkpt>
      <trkpt lat="47.29647" lon="-2.43226">
        <ele>-28</ele>
        <time>2021-05-02T08:19:09.000Z</time>
      </trkpt>
      <trkpt lat="47.29653" lon="-2.43224">
        <ele>-28.39999961853</ele>
        <time>2021-05-02T08:19:10.000Z</time>
      </trkpt>
      <trkpt lat="47.29658" lon="-2.43223">
        <ele>-29.200000762939</ele>
        <time>2021-05-02T08:19:11.000Z</time>
      </trkpt>
      <trkpt lat="47.29664" lon="-2.43222">
        <ele>-29.60000038147</ele>
        <time>2021-05-02T08:19:12.000Z</time>
      </trkpt>
      <trkpt lat="47.2967" lon="-2.4322">
        <ele>-29.60000038147</ele>
        <time>2021-05-02T08:19:13.000Z</time>
      </trkpt>
      <trkpt lat="47.29715" lon="-2.43206">
        <ele>-29.60000038147</ele>
        <time>2021-05-02T08:19:21.000Z</time>
      </trkpt>
      <trkpt lat="47.29758" lon="-2.43193">
        <ele>-29.60000038147</ele>
        <time>2021-05-02T08:19:29.000Z</time>
      </trkpt>
      <trkpt lat="47.29802" lon="-2.43183">
        <ele>-29.60000038147</ele>
        <time>2021-05-02T08:19:37.000Z</time>
      </trkpt>
      <trkpt lat="47.29815" lon="-2.43194">
        <ele>-29.60000038147</ele>
        <time>2021-05-02T08:19:40.000Z</time>
      </trkpt>
      <trkpt lat="47.29823" lon="-2.43204">
        <ele>-29.60000038147</ele>
        <time>2021-05-02T08:19:42.000Z</time>
      </trkpt>
      <trkpt lat="47.29839" lon="-2.43228">
        <ele>-29.60000038147</ele>
        <time>2021-05-02T08:19:46.000Z</time>
      </trkpt>
      <trkpt lat="47.29851" lon="-2.43252">
        <ele>-29.60000038147</ele>
        <time>2021-05-02T08:19:50.000Z</time>
      </trkpt>
      <trkpt lat="47.29856" lon="-2.43264">
        <ele>-29.60000038147</ele>
        <time>2021-05-02T08:19:52.000Z</time>
      </trkpt>
      <trkpt lat="47.29869" lon="-2.4329">
        <ele>-29.60000038147</ele>
        <time>2021-05-02T08:19:58.000Z</time>
      </trkpt>
      <trkpt lat="47.29873" lon="-2.43297">
        <ele>-29.60000038147</ele>
        <time>2021-05-02T08:20:03.000Z</time>
      </trkpt>
      <trkpt lat="47.29874" lon="-2.43301">
        <ele>-29.60000038147</ele>
        <time>2021-05-02T08:20:13.000Z</time>
      </trkpt>
      <trkpt lat="47.29877" lon="-2.43307">
        <ele>-29.60000038147</ele>
        <time>2021-05-02T08:20:15.000Z</time>
      </trkpt>
      <trkpt lat="47.29887" lon="-2.43318">
        <ele>-29.60000038147</ele>
        <time>2021-05-02T08:20:19.000Z</time>
      </trkpt>
      <trkpt lat="47.29907" lon="-2.43315">
        <ele>-29.60000038147</ele>
        <time>2021-05-02T08:20:23.000Z</time>
      </trkpt>
      <trkpt lat="47.29931" lon="-2.43309">
        <ele>-29.60000038147</ele>
        <time>2021-05-02T08:20:27.000Z</time>
      </trkpt>
      <trkpt lat="47.29937" lon="-2.43306">
        <ele>-29.60000038147</ele>
        <time>2021-05-02T08:20:28.000Z</time>
      </trkpt>
      <trkpt lat="47.29968" lon="-2.43299">
        <ele>-29.60000038147</ele>
        <time>2021-05-02T08:20:33.000Z</time>
      </trkpt>
      <trkpt lat="47.29974" lon="-2.433">
        <ele>-29.60000038147</ele>
        <time>2021-05-02T08:20:34.000Z</time>
      </trkpt>
      <trkpt lat="47.2999" lon="-2.43312">
        <ele>-29.60000038147</ele>
        <time>2021-05-02T08:20:37.000Z</time>
      </trkpt>
      <trkpt lat="47.29996" lon="-2.43317">
        <ele>-29.60000038147</ele>
        <time>2021-05-02T08:20:38.000Z</time>
      </trkpt>
      <trkpt lat="47.30007" lon="-2.43327">
        <ele>-29.60000038147</ele>
        <time>2021-05-02T08:20:40.000Z</time>
      </trkpt>
      <trkpt lat="47.30025" lon="-2.43336">
        <ele>-29.60000038147</ele>
        <time>2021-05-02T08:20:43.000Z</time>
      </trkpt>
      <trkpt lat="47.30056" lon="-2.43337">
        <ele>-29.60000038147</ele>
        <time>2021-05-02T08:20:48.000Z</time>
      </trkpt>
      <trkpt lat="47.30089" lon="-2.43329">
        <ele>-29.60000038147</ele>
        <time>2021-05-02T08:20:54.000Z</time>
      </trkpt>
      <trkpt lat="47.30116" lon="-2.43323">
        <ele>-29.60000038147</ele>
        <time>2021-05-02T08:21:00.000Z</time>
      </trkpt>
      <trkpt lat="47.30154" lon="-2.43313">
        <ele>-29.60000038147</ele>
        <time>2021-05-02T08:21:08.000Z</time>
      </trkpt>
      <trkpt lat="47.30196" lon="-2.43294">
        <ele>-29.60000038147</ele>
        <time>2021-05-02T08:21:17.000Z</time>
      </trkpt>
      <trkpt lat="47.30232" lon="-2.43279">
        <ele>-29.60000038147</ele>
        <time>2021-05-02T08:21:24.000Z</time>
      </trkpt>
      <trkpt lat="47.30268" lon="-2.43264">
        <ele>-29.60000038147</ele>
        <time>2021-05-02T08:21:31.000Z</time>
      </trkpt>
      <trkpt lat="47.30307" lon="-2.43254">
        <ele>-29.60000038147</ele>
        <time>2021-05-02T08:21:39.000Z</time>
      </trkpt>
      <trkpt lat="47.30339" lon="-2.43245">
        <ele>-29.60000038147</ele>
        <time>2021-05-02T08:21:46.000Z</time>
      </trkpt>
      <trkpt lat="47.30356" lon="-2.4324">
        <ele>-29.60000038147</ele>
        <time>2021-05-02T08:21:50.000Z</time>
      </trkpt>
      <trkpt lat="47.30368" lon="-2.43236">
        <ele>-29.60000038147</ele>
        <time>2021-05-02T08:21:53.000Z</time>
      </trkpt>
      <trkpt lat="47.30385" lon="-2.43238">
        <ele>-29.60000038147</ele>
        <time>2021-05-02T08:21:58.000Z</time>
      </trkpt>
      <trkpt lat="47.30396" lon="-2.43257">
        <ele>-29.60000038147</ele>
        <time>2021-05-02T08:22:03.000Z</time>
      </trkpt>
      <trkpt lat="47.30408" lon="-2.43296">
        <ele>-29.60000038147</ele>
        <time>2021-05-02T08:22:10.000Z</time>
      </trkpt>
      <trkpt lat="47.30419" lon="-2.43352">
        <ele>-29.60000038147</ele>
        <time>2021-05-02T08:22:19.000Z</time>
      </trkpt>
      <trkpt lat="47.30426" lon="-2.43397">
        <ele>-29.60000038147</ele>
        <time>2021-05-02T08:22:26.000Z</time>
      </trkpt>
      <trkpt lat="47.30433" lon="-2.43415">
        <ele>-29.60000038147</ele>
        <time>2021-05-02T08:22:29.000Z</time>
      </trkpt>
      <trkpt lat="47.30441" lon="-2.43421">
        <ele>-29.60000038147</ele>
        <time>2021-05-02T08:22:31.000Z</time>
      </trkpt>
      <trkpt lat="47.30454" lon="-2.43418">
        <ele>-29.60000038147</ele>
        <time>2021-05-02T08:22:34.000Z</time>
      </trkpt>
      <trkpt lat="47.30458" lon="-2.43416">
        <ele>-29.60000038147</ele>
        <time>2021-05-02T08:22:35.000Z</time>
      </trkpt>
      <trkpt lat="47.30467" lon="-2.43411">
        <ele>-29.60000038147</ele>
        <time>2021-05-02T08:22:37.000Z</time>
      </trkpt>
      <trkpt lat="47.30481" lon="-2.43409">
        <ele>-29.60000038147</ele>
        <time>2021-05-02T08:22:40.000Z</time>
      </trkpt>
      <trkpt lat="47.30486" lon="-2.4341">
        <ele>-29.60000038147</ele>
        <time>2021-05-02T08:22:41.000Z</time>
      </trkpt>
      <trkpt lat="47.30509" lon="-2.43414">
        <ele>-29.60000038147</ele>
        <time>2021-05-02T08:22:46.000Z</time>
      </trkpt>
      <trkpt lat="47.30546" lon="-2.43419">
        <ele>-29.60000038147</ele>
        <time>2021-05-02T08:22:54.000Z</time>
      </trkpt>
      <trkpt lat="47.30565" lon="-2.4342">
        <ele>-29.60000038147</ele>
        <time>2021-05-02T08:22:58.000Z</time>
      </trkpt>
      <trkpt lat="47.30574" lon="-2.43419">
        <ele>-29.60000038147</ele>
        <time>2021-05-02T08:23:00.000Z</time>
      </trkpt>
      <trkpt lat="47.30605" lon="-2.43412">
        <ele>-29.60000038147</ele>
        <time>2021-05-02T08:23:07.000Z</time>
      </trkpt>
      <trkpt lat="47.30634" lon="-2.43405">
        <ele>-29.60000038147</ele>
        <time>2021-05-02T08:23:13.000Z</time>
      </trkpt>
      <trkpt lat="47.30684" lon="-2.43394">
        <ele>-29.60000038147</ele>
        <time>2021-05-02T08:23:22.000Z</time>
      </trkpt>
      <trkpt lat="47.3073" lon="-2.4339">
        <ele>-29.60000038147</ele>
        <time>2021-05-02T08:23:30.000Z</time>
      </trkpt>
      <trkpt lat="47.30775" lon="-2.43389">
        <ele>-29.60000038147</ele>
        <time>2021-05-02T08:23:38.000Z</time>
      </trkpt>
      <trkpt lat="47.30813" lon="-2.43386">
        <ele>-29.60000038147</ele>
        <time>2021-05-02T08:23:45.000Z</time>
      </trkpt>
      <trkpt lat="47.30846" lon="-2.43373">
        <ele>-29.60000038147</ele>
        <time>2021-05-02T08:23:51.000Z</time>
      </trkpt>
      <trkpt lat="47.30857" lon="-2.43368">
        <ele>-29.60000038147</ele>
        <time>2021-05-02T08:23:53.000Z</time>
      </trkpt>
      <trkpt lat="47.30872" lon="-2.4336">
        <ele>-29.60000038147</ele>
        <time>2021-05-02T08:23:56.000Z</time>
      </trkpt>
      <trkpt lat="47.30877" lon="-2.43358">
        <ele>-29.60000038147</ele>
        <time>2021-05-02T08:23:57.000Z</time>
      </trkpt>
      <trkpt lat="47.30899" lon="-2.4335">
        <ele>-29.60000038147</ele>
        <time>2021-05-02T08:24:01.000Z</time>
      </trkpt>
      <trkpt lat="47.30938" lon="-2.43333">
        <ele>-29.60000038147</ele>
        <time>2021-05-02T08:24:08.000Z</time>
      </trkpt>
      <trkpt lat="47.30978" lon="-2.43317">
        <ele>-29.60000038147</ele>
        <time>2021-05-02T08:24:15.000Z</time>
      </trkpt>
      <trkpt lat="47.31005" lon="-2.43301">
        <ele>-29.60000038147</ele>
        <time>2021-05-02T08:24:20.000Z</time>
      </trkpt>
      <trkpt lat="47.3101" lon="-2.43296">
        <ele>-29.60000038147</ele>
        <time>2021-05-02T08:24:21.000Z</time>
      </trkpt>
      <trkpt lat="47.31028" lon="-2.43274">
        <ele>-29.60000038147</ele>
        <time>2021-05-02T08:24:25.000Z</time>
      </trkpt>
      <trkpt lat="47.31056" lon="-2.43233">
        <ele>-29.60000038147</ele>
        <time>2021-05-02T08:24:32.000Z</time>
      </trkpt>
      <trkpt lat="47.31082" lon="-2.4321">
        <ele>-29.60000038147</ele>
        <time>2021-05-02T08:24:38.000Z</time>
      </trkpt>
      <trkpt lat="47.311" lon="-2.43195">
        <ele>-29.60000038147</ele>
        <time>2021-05-02T08:24:44.000Z</time>
      </trkpt>
      <trkpt lat="47.31104" lon="-2.43193">
        <ele>-29.60000038147</ele>
        <time>2021-05-02T08:24:48.000Z</time>
      </trkpt>
      <trkpt lat="47.31106" lon="-2.43191">
        <ele>-29.60000038147</ele>
        <time>2021-05-02T08:25:47.000Z</time>
      </trkpt>
      <trkpt lat="47.3111" lon="-2.43191">
        <ele>-29.60000038147</ele>
        <time>2021-05-02T08:25:49.000Z</time>
      </trkpt>
      <trkpt lat="47.31122" lon="-2.43203">
        <ele>-29.60000038147</ele>
        <time>2021-05-02T08:25:53.000Z</time>
      </trkpt>
      <trkpt lat="47.31138" lon="-2.43227">
        <ele>-29.60000038147</ele>
        <time>2021-05-02T08:25:58.000Z</time>
      </trkpt>
      <trkpt lat="47.31141" lon="-2.43232">
        <ele>-29.60000038147</ele>
        <time>2021-05-02T08:25:59.000Z</time>
      </trkpt>
      <trkpt lat="47.3117" lon="-2.43278">
        <ele>-29.60000038147</ele>
        <time>2021-05-02T08:26:08.000Z</time>
      </trkpt>
      <trkpt lat="47.3119" lon="-2.43317">
        <ele>-29.60000038147</ele>
        <time>2021-05-02T08:26:14.000Z</time>
      </trkpt>
      <trkpt lat="47.31202" lon="-2.43365">
        <ele>-29.60000038147</ele>
        <time>2021-05-02T08:26:20.000Z</time>
      </trkpt>
      <trkpt lat="47.31211" lon="-2.43424">
        <ele>-29.60000038147</ele>
        <time>2021-05-02T08:26:27.000Z</time>
      </trkpt>
      <trkpt lat="47.31222" lon="-2.43499">
        <ele>-29.60000038147</ele>
        <time>2021-05-02T08:26:36.000Z</time>
      </trkpt>
      <trkpt lat="47.31232" lon="-2.43569">
        <ele>-29.60000038147</ele>
        <time>2021-05-02T08:26:44.000Z</time>
      </trkpt>
      <trkpt lat="47.31242" lon="-2.43628">
        <ele>-29.60000038147</ele>
        <time>2021-05-02T08:26:51.000Z</time>
      </trkpt>
      <trkpt lat="47.31253" lon="-2.43683">
        <ele>-29.60000038147</ele>
        <time>2021-05-02T08:26:57.000Z</time>
      </trkpt>
      <trkpt lat="47.31271" lon="-2.43733">
        <ele>-29.60000038147</ele>
        <time>2021-05-02T08:27:03.000Z</time>
      </trkpt>
      <trkpt lat="47.31301" lon="-2.43804">
        <ele>-29.60000038147</ele>
        <time>2021-05-02T08:27:12.000Z</time>
      </trkpt>
      <trkpt lat="47.31305" lon="-2.4381">
        <ele>-29.60000038147</ele>
        <time>2021-05-02T08:27:13.000Z</time>
      </trkpt>
      <trkpt lat="47.31327" lon="-2.43842">
        <ele>-29.60000038147</ele>
        <time>2021-05-02T08:27:18.000Z</time>
      </trkpt>
      <trkpt lat="47.31335" lon="-2.43857">
        <ele>-29.60000038147</ele>
        <time>2021-05-02T08:27:20.000Z</time>
      </trkpt>
      <trkpt lat="47.31345" lon="-2.43881">
        <ele>-29.60000038147</ele>
        <time>2021-05-02T08:27:23.000Z</time>
      </trkpt>
      <trkpt lat="47.31371" lon="-2.43947">
        <ele>-29.60000038147</ele>
        <time>2021-05-02T08:27:31.000Z</time>
      </trkpt>
      <trkpt lat="47.31393" lon="-2.43983">
        <ele>-29.60000038147</ele>
        <time>2021-05-02T08:27:36.000Z</time>
      </trkpt>
      <trkpt lat="47.31438" lon="-2.44043">
        <ele>-29.60000038147</ele>
        <time>2021-05-02T08:27:45.000Z</time>
      </trkpt>
      <trkpt lat="47.31469" lon="-2.44082">
        <ele>-29.60000038147</ele>
        <time>2021-05-02T08:27:51.000Z</time>
      </trkpt>
      <trkpt lat="47.31501" lon="-2.44122">
        <ele>-29.60000038147</ele>
        <time>2021-05-02T08:27:58.000Z</time>
      </trkpt>
      <trkpt lat="47.31518" lon="-2.44142">
        <ele>-29.60000038147</ele>
        <time>2021-05-02T08:28:02.000Z</time>
      </trkpt>
      <trkpt lat="47.31523" lon="-2.44142">
        <ele>-29.60000038147</ele>
        <time>2021-05-02T08:28:03.000Z</time>
      </trkpt>
      <trkpt lat="47.31529" lon="-2.44141">
        <ele>-29.60000038147</ele>
        <time>2021-05-02T08:28:06.000Z</time>
      </trkpt>
      <trkpt lat="47.31529" lon="-2.44141">
        <ele>-29.60000038147</ele>
        <time>2021-05-02T08:28:07.000Z</time>
      </trkpt>
      <trkpt lat="47.31527" lon="-2.44146">
        <ele>-29.60000038147</ele>
        <time>2021-05-02T08:28:12.000Z</time>
      </trkpt>
      <trkpt lat="47.31526" lon="-2.44153">
        <ele>-29.60000038147</ele>
        <time>2021-05-02T08:28:14.000Z</time>
      </trkpt>
      <trkpt lat="47.31532" lon="-2.44171">
        <ele>-29.60000038147</ele>
        <time>2021-05-02T08:28:18.000Z</time>
      </trkpt>
      <trkpt lat="47.31534" lon="-2.44177">
        <ele>-29.60000038147</ele>
        <time>2021-05-02T08:28:19.000Z</time>
      </trkpt>
      <trkpt lat="47.31541" lon="-2.44195">
        <ele>-29.60000038147</ele>
        <time>2021-05-02T08:28:22.000Z</time>
      </trkpt>
      <trkpt lat="47.31545" lon="-2.44209">
        <ele>-29.60000038147</ele>
        <time>2021-05-02T08:28:24.000Z</time>
      </trkpt>
      <trkpt lat="47.31554" lon="-2.4426">
        <ele>-29.60000038147</ele>
        <time>2021-05-02T08:28:30.000Z</time>
      </trkpt>
      <trkpt lat="47.31565" lon="-2.44332">
        <ele>-29.60000038147</ele>
        <time>2021-05-02T08:28:38.000Z</time>
      </trkpt>
      <trkpt lat="47.31576" lon="-2.44405">
        <ele>-29.60000038147</ele>
        <time>2021-05-02T08:28:46.000Z</time>
      </trkpt>
      <trkpt lat="47.31585" lon="-2.44466">
        <ele>-29.60000038147</ele>
        <time>2021-05-02T08:28:54.000Z</time>
      </trkpt>
      <trkpt lat="47.316" lon="-2.44516">
        <ele>-29.60000038147</ele>
        <time>2021-05-02T08:29:00.000Z</time>
      </trkpt>
      <trkpt lat="47.31623" lon="-2.44558">
        <ele>-29.60000038147</ele>
        <time>2021-05-02T08:29:06.000Z</time>
      </trkpt>
      <trkpt lat="47.31651" lon="-2.44607">
        <ele>-29.60000038147</ele>
        <time>2021-05-02T08:29:13.000Z</time>
      </trkpt>
      <trkpt lat="47.31678" lon="-2.44668">
        <ele>-29.60000038147</ele>
        <time>2021-05-02T08:29:21.000Z</time>
      </trkpt>
      <trkpt lat="47.31697" lon="-2.44713">
        <ele>-29.60000038147</ele>
        <time>2021-05-02T08:29:27.000Z</time>
      </trkpt>
      <trkpt lat="47.31721" lon="-2.44772">
        <ele>-29.60000038147</ele>
        <time>2021-05-02T08:29:35.000Z</time>
      </trkpt>
      <trkpt lat="47.31727" lon="-2.44783">
        <ele>-29.60000038147</ele>
        <time>2021-05-02T08:29:37.000Z</time>
      </trkpt>
      <trkpt lat="47.31735" lon="-2.44786">
        <ele>-29.60000038147</ele>
        <time>2021-05-02T08:29:39.000Z</time>
      </trkpt>
      <trkpt lat="47.31744" lon="-2.44777">
        <ele>-29.60000038147</ele>
        <time>2021-05-02T08:29:42.000Z</time>
      </trkpt>
      <trkpt lat="47.31748" lon="-2.44774">
        <ele>-29.60000038147</ele>
        <time>2021-05-02T08:29:43.000Z</time>
      </trkpt>
      <trkpt lat="47.31755" lon="-2.44766">
        <ele>-29.60000038147</ele>
        <time>2021-05-02T08:29:45.000Z</time>
      </trkpt>
      <trkpt lat="47.31772" lon="-2.44751">
        <ele>-29.60000038147</ele>
        <time>2021-05-02T08:29:49.000Z</time>
      </trkpt>
      <trkpt lat="47.31781" lon="-2.44745">
        <ele>-29.60000038147</ele>
        <time>2021-05-02T08:29:51.000Z</time>
      </trkpt>
      <trkpt lat="47.31799" lon="-2.44735">
        <ele>-29.60000038147</ele>
        <time>2021-05-02T08:29:55.000Z</time>
      </trkpt>
      <trkpt lat="47.31824" lon="-2.44718">
        <ele>-29.60000038147</ele>
        <time>2021-05-02T08:30:00.000Z</time>
      </trkpt>
      <trkpt lat="47.31829" lon="-2.44713">
        <ele>-29.60000038147</ele>
        <time>2021-05-02T08:30:01.000Z</time>
      </trkpt>
      <trkpt lat="47.3185" lon="-2.44683">
        <ele>-29.60000038147</ele>
        <time>2021-05-02T08:30:06.000Z</time>
      </trkpt>
      <trkpt lat="47.31853" lon="-2.44677">
        <ele>-29.60000038147</ele>
        <time>2021-05-02T08:30:07.000Z</time>
      </trkpt>
      <trkpt lat="47.31866" lon="-2.44648">
        <ele>-29.60000038147</ele>
        <time>2021-05-02T08:30:11.000Z</time>
      </trkpt>
      <trkpt lat="47.31877" lon="-2.44619">
        <ele>-29.200000762939</ele>
        <time>2021-05-02T08:30:15.000Z</time>
      </trkpt>
      <trkpt lat="47.31879" lon="-2.44612">
        <ele>-28.39999961853</ele>
        <time>2021-05-02T08:30:16.000Z</time>
      </trkpt>
      <trkpt lat="47.31882" lon="-2.44604">
        <ele>-28</ele>
        <time>2021-05-02T08:30:17.000Z</time>
      </trkpt>
      <trkpt lat="47.31885" lon="-2.44598">
        <ele>-27.60000038147</ele>
        <time>2021-05-02T08:30:18.000Z</time>
      </trkpt>
      <trkpt lat="47.31896" lon="-2.44573">
        <ele>-27.60000038147</ele>
        <time>2021-05-02T08:30:22.000Z</time>
      </trkpt>
      <trkpt lat="47.31904" lon="-2.44569">
        <ele>-27.60000038147</ele>
        <time>2021-05-02T08:30:24.000Z</time>
      </trkpt>
      <trkpt lat="47.31915" lon="-2.44578">
        <ele>-27.60000038147</ele>
        <time>2021-05-02T08:30:27.000Z</time>
      </trkpt>
      <trkpt lat="47.31936" lon="-2.44603">
        <ele>-27.60000038147</ele>
        <time>2021-05-02T08:30:32.000Z</time>
      </trkpt>
      <trkpt lat="47.3194" lon="-2.44608">
        <ele>-27.60000038147</ele>
        <time>2021-05-02T08:30:33.000Z</time>
      </trkpt>
      <trkpt lat="47.31973" lon="-2.44644">
        <ele>-27.60000038147</ele>
        <time>2021-05-02T08:30:40.000Z</time>
      </trkpt>
      <trkpt lat="47.32007" lon="-2.44689">
        <ele>-27.60000038147</ele>
        <time>2021-05-02T08:30:48.000Z</time>
      </trkpt>
      <trkpt lat="47.32027" lon="-2.44718">
        <ele>-27.60000038147</ele>
        <time>2021-05-02T08:30:53.000Z</time>
      </trkpt>
      <trkpt lat="47.32045" lon="-2.44745">
        <ele>-27.60000038147</ele>
        <time>2021-05-02T08:30:58.000Z</time>
      </trkpt>
      <trkpt lat="47.32048" lon="-2.44751">
        <ele>-27.60000038147</ele>
        <time>2021-05-02T08:30:59.000Z</time>
      </trkpt>
      <trkpt lat="47.32051" lon="-2.44757">
        <ele>-27.60000038147</ele>
        <time>2021-05-02T08:31:00.000Z</time>
      </trkpt>
      <trkpt lat="47.32064" lon="-2.44779">
        <ele>-27.60000038147</ele>
        <time>2021-05-02T08:31:04.000Z</time>
      </trkpt>
      <trkpt lat="47.3207" lon="-2.44789">
        <ele>-27.60000038147</ele>
        <time>2021-05-02T08:31:06.000Z</time>
      </trkpt>
      <trkpt lat="47.32076" lon="-2.448">
        <ele>-27.200000762939</ele>
        <time>2021-05-02T08:31:08.000Z</time>
      </trkpt>
      <trkpt lat="47.32079" lon="-2.44807">
        <ele>-26.799999237061</ele>
        <time>2021-05-02T08:31:09.000Z</time>
      </trkpt>
      <trkpt lat="47.32081" lon="-2.44813">
        <ele>-26.200000762939</ele>
        <time>2021-05-02T08:31:10.000Z</time>
      </trkpt>
      <trkpt lat="47.32084" lon="-2.44819">
        <ele>-25.799999237061</ele>
        <time>2021-05-02T08:31:11.000Z</time>
      </trkpt>
      <trkpt lat="47.32086" lon="-2.44825">
        <ele>-25.39999961853</ele>
        <time>2021-05-02T08:31:12.000Z</time>
      </trkpt>
      <trkpt lat="47.321" lon="-2.44859">
        <ele>-25.39999961853</ele>
        <time>2021-05-02T08:31:17.000Z</time>
      </trkpt>
      <trkpt lat="47.32118" lon="-2.44899">
        <ele>-25.39999961853</ele>
        <time>2021-05-02T08:31:23.000Z</time>
      </trkpt>
      <trkpt lat="47.32137" lon="-2.44934">
        <ele>-25.39999961853</ele>
        <time>2021-05-02T08:31:29.000Z</time>
      </trkpt>
      <trkpt lat="47.32141" lon="-2.44938">
        <ele>-25.39999961853</ele>
        <time>2021-05-02T08:31:30.000Z</time>
      </trkpt>
      <trkpt lat="47.32145" lon="-2.44942">
        <ele>-25</ele>
        <time>2021-05-02T08:31:31.000Z</time>
      </trkpt>
      <trkpt lat="47.32148" lon="-2.44946">
        <ele>-24.60000038147</ele>
        <time>2021-05-02T08:31:32.000Z</time>
      </trkpt>
      <trkpt lat="47.32153" lon="-2.4495">
        <ele>-24.200000762939</ele>
        <time>2021-05-02T08:31:33.000Z</time>
      </trkpt>
      <trkpt lat="47.32157" lon="-2.44953">
        <ele>-23.799999237061</ele>
        <time>2021-05-02T08:31:34.000Z</time>
      </trkpt>
      <trkpt lat="47.32161" lon="-2.44955">
        <ele>-23.39999961853</ele>
        <time>2021-05-02T08:31:35.000Z</time>
      </trkpt>
      <trkpt lat="47.32169" lon="-2.44962">
        <ele>-23.39999961853</ele>
        <time>2021-05-02T08:31:37.000Z</time>
      </trkpt>
      <trkpt lat="47.3218" lon="-2.44973">
        <ele>-23.39999961853</ele>
        <time>2021-05-02T08:31:40.000Z</time>
      </trkpt>
      <trkpt lat="47.32183" lon="-2.44977">
        <ele>-23.39999961853</ele>
        <time>2021-05-02T08:31:41.000Z</time>
      </trkpt>
      <trkpt lat="47.32192" lon="-2.4499">
        <ele>-23</ele>
        <time>2021-05-02T08:31:44.000Z</time>
      </trkpt>
      <trkpt lat="47.32195" lon="-2.44996">
        <ele>-22.60000038147</ele>
        <time>2021-05-02T08:31:45.000Z</time>
      </trkpt>
      <trkpt lat="47.32197" lon="-2.45">
        <ele>-22.200000762939</ele>
        <time>2021-05-02T08:31:46.000Z</time>
      </trkpt>
      <trkpt lat="47.32199" lon="-2.45004">
        <ele>-21.799999237061</ele>
        <time>2021-05-02T08:31:47.000Z</time>
      </trkpt>
      <trkpt lat="47.32201" lon="-2.4501">
        <ele>-21.39999961853</ele>
        <time>2021-05-02T08:31:48.000Z</time>
      </trkpt>
      <trkpt lat="47.32208" lon="-2.45024">
        <ele>-21.39999961853</ele>
        <time>2021-05-02T08:31:51.000Z</time>
      </trkpt>
      <trkpt lat="47.32215" lon="-2.45029">
        <ele>-21.39999961853</ele>
        <time>2021-05-02T08:31:53.000Z</time>
      </trkpt>
      <trkpt lat="47.32219" lon="-2.45027">
        <ele>-21.39999961853</ele>
        <time>2021-05-02T08:31:54.000Z</time>
      </trkpt>
      <trkpt lat="47.32226" lon="-2.45016">
        <ele>-21.39999961853</ele>
        <time>2021-05-02T08:31:57.000Z</time>
      </trkpt>
      <trkpt lat="47.32229" lon="-2.45013">
        <ele>-21.39999961853</ele>
        <time>2021-05-02T08:31:58.000Z</time>
      </trkpt>
      <trkpt lat="47.32236" lon="-2.45006">
        <ele>-20.799999237061</ele>
        <time>2021-05-02T08:32:01.000Z</time>
      </trkpt>
      <trkpt lat="47.32238" lon="-2.45003">
        <ele>-20.39999961853</ele>
        <time>2021-05-02T08:32:02.000Z</time>
      </trkpt>
      <trkpt lat="47.3224" lon="-2.45001">
        <ele>-20</ele>
        <time>2021-05-02T08:32:03.000Z</time>
      </trkpt>
      <trkpt lat="47.32242" lon="-2.44998">
        <ele>-19.60000038147</ele>
        <time>2021-05-02T08:32:04.000Z</time>
      </trkpt>
      <trkpt lat="47.32245" lon="-2.44996">
        <ele>-19.200000762939</ele>
        <time>2021-05-02T08:32:05.000Z</time>
      </trkpt>
      <trkpt lat="47.32249" lon="-2.4499">
        <ele>-18.799999237061</ele>
        <time>2021-05-02T08:32:07.000Z</time>
      </trkpt>
      <trkpt lat="47.32251" lon="-2.44988">
        <ele>-18.200000762939</ele>
        <time>2021-05-02T08:32:08.000Z</time>
      </trkpt>
      <trkpt lat="47.32253" lon="-2.44985">
        <ele>-17.799999237061</ele>
        <time>2021-05-02T08:32:09.000Z</time>
      </trkpt>
      <trkpt lat="47.32255" lon="-2.44982">
        <ele>-17.39999961853</ele>
        <time>2021-05-02T08:32:10.000Z</time>
      </trkpt>
      <trkpt lat="47.32256" lon="-2.44979">
        <ele>-17</ele>
        <time>2021-05-02T08:32:11.000Z</time>
      </trkpt>
      <trkpt lat="47.32261" lon="-2.44975">
        <ele>-16.60000038147</ele>
        <time>2021-05-02T08:32:13.000Z</time>
      </trkpt>
      <trkpt lat="47.32264" lon="-2.44972">
        <ele>-16.200000762939</ele>
        <time>2021-05-02T08:32:14.000Z</time>
      </trkpt>
      <trkpt lat="47.32266" lon="-2.44969">
        <ele>-15.60000038147</ele>
        <time>2021-05-02T08:32:15.000Z</time>
      </trkpt>
      <trkpt lat="47.32269" lon="-2.44967">
        <ele>-15.199999809265</ele>
        <time>2021-05-02T08:32:16.000Z</time>
      </trkpt>
      <trkpt lat="47.32271" lon="-2.44964">
        <ele>-14.800000190735</ele>
        <time>2021-05-02T08:32:17.000Z</time>
      </trkpt>
      <trkpt lat="47.32274" lon="-2.44961">
        <ele>-14.800000190735</ele>
        <time>2021-05-02T08:32:18.000Z</time>
      </trkpt>
      <trkpt lat="47.32286" lon="-2.44945">
        <ele>-14.39999961853</ele>
        <time>2021-05-02T08:32:23.000Z</time>
      </trkpt>
      <trkpt lat="47.32288" lon="-2.44942">
        <ele>-14</ele>
        <time>2021-05-02T08:32:24.000Z</time>
      </trkpt>
      <trkpt lat="47.32291" lon="-2.44938">
        <ele>-13.60000038147</ele>
        <time>2021-05-02T08:32:25.000Z</time>
      </trkpt>
      <trkpt lat="47.32294" lon="-2.44935">
        <ele>-13.199999809265</ele>
        <time>2021-05-02T08:32:26.000Z</time>
      </trkpt>
      <trkpt lat="47.32297" lon="-2.44931">
        <ele>-12.800000190735</ele>
        <time>2021-05-02T08:32:27.000Z</time>
      </trkpt>
      <trkpt lat="47.32307" lon="-2.4492">
        <ele>-12.800000190735</ele>
        <time>2021-05-02T08:32:30.000Z</time>
      </trkpt>
      <trkpt lat="47.32322" lon="-2.44897">
        <ele>-12.800000190735</ele>
        <time>2021-05-02T08:32:35.000Z</time>
      </trkpt>
      <trkpt lat="47.32343" lon="-2.44868">
        <ele>-12.800000190735</ele>
        <time>2021-05-02T08:32:42.000Z</time>
      </trkpt>
      <trkpt lat="47.32364" lon="-2.44849">
        <ele>-12.800000190735</ele>
        <time>2021-05-02T08:32:48.000Z</time>
      </trkpt>
      <trkpt lat="47.32368" lon="-2.44846">
        <ele>-12.39999961853</ele>
        <time>2021-05-02T08:32:49.000Z</time>
      </trkpt>
      <trkpt lat="47.32372" lon="-2.44843">
        <ele>-12</ele>
        <time>2021-05-02T08:32:50.000Z</time>
      </trkpt>
      <trkpt lat="47.32376" lon="-2.4484">
        <ele>-11.60000038147</ele>
        <time>2021-05-02T08:32:51.000Z</time>
      </trkpt>
      <trkpt lat="47.3238" lon="-2.44837">
        <ele>-11.199999809265</ele>
        <time>2021-05-02T08:32:52.000Z</time>
      </trkpt>
      <trkpt lat="47.32384" lon="-2.44834">
        <ele>-10.800000190735</ele>
        <time>2021-05-02T08:32:53.000Z</time>
      </trkpt>
      <trkpt lat="47.32393" lon="-2.44829">
        <ele>-10.800000190735</ele>
        <time>2021-05-02T08:32:55.000Z</time>
      </trkpt>
      <trkpt lat="47.32402" lon="-2.44824">
        <ele>-10.800000190735</ele>
        <time>2021-05-02T08:32:57.000Z</time>
      </trkpt>
      <trkpt lat="47.3241" lon="-2.44818">
        <ele>-10.800000190735</ele>
        <time>2021-05-02T08:32:59.000Z</time>
      </trkpt>
      <trkpt lat="47.32432" lon="-2.44805">
        <ele>-10.800000190735</ele>
        <time>2021-05-02T08:33:04.000Z</time>
      </trkpt>
      <trkpt lat="47.32436" lon="-2.44802">
        <ele>-10.39999961853</ele>
        <time>2021-05-02T08:33:05.000Z</time>
      </trkpt>
      <trkpt lat="47.32439" lon="-2.44799">
        <ele>-10</ele>
        <time>2021-05-02T08:33:06.000Z</time>
      </trkpt>
      <trkpt lat="47.32443" lon="-2.44797">
        <ele>-9.6000003814697</ele>
        <time>2021-05-02T08:33:07.000Z</time>
      </trkpt>
      <trkpt lat="47.32446" lon="-2.44795">
        <ele>-9.1999998092651</ele>
        <time>2021-05-02T08:33:08.000Z</time>
      </trkpt>
      <trkpt lat="47.3245" lon="-2.44792">
        <ele>-8.8000001907349</ele>
        <time>2021-05-02T08:33:09.000Z</time>
      </trkpt>
      <trkpt lat="47.32457" lon="-2.44786">
        <ele>-8.8000001907349</ele>
        <time>2021-05-02T08:33:11.000Z</time>
      </trkpt>
      <trkpt lat="47.32474" lon="-2.44773">
        <ele>-8.1999998092651</ele>
        <time>2021-05-02T08:33:16.000Z</time>
      </trkpt>
      <trkpt lat="47.32478" lon="-2.44771">
        <ele>-7.8000001907349</ele>
        <time>2021-05-02T08:33:17.000Z</time>
      </trkpt>
      <trkpt lat="47.32481" lon="-2.44768">
        <ele>-7.4000000953674</ele>
        <time>2021-05-02T08:33:18.000Z</time>
      </trkpt>
      <trkpt lat="47.32484" lon="-2.44766">
        <ele>-7</ele>
        <time>2021-05-02T08:33:19.000Z</time>
      </trkpt>
      <trkpt lat="47.32488" lon="-2.44764">
        <ele>-6.5999999046326</ele>
        <time>2021-05-02T08:33:20.000Z</time>
      </trkpt>
      <trkpt lat="47.32496" lon="-2.44755">
        <ele>-6.5999999046326</ele>
        <time>2021-05-02T08:33:23.000Z</time>
      </trkpt>
      <trkpt lat="47.325" lon="-2.44753">
        <ele>-6.1999998092651</ele>
        <time>2021-05-02T08:33:24.000Z</time>
      </trkpt>
      <trkpt lat="47.32503" lon="-2.44751">
        <ele>-5.8000001907349</ele>
        <time>2021-05-02T08:33:25.000Z</time>
      </trkpt>
      <trkpt lat="47.32506" lon="-2.44749">
        <ele>-5.1999998092651</ele>
        <time>2021-05-02T08:33:26.000Z</time>
      </trkpt>
      <trkpt lat="47.3251" lon="-2.44748">
        <ele>-4.8000001907349</ele>
        <time>2021-05-02T08:33:27.000Z</time>
      </trkpt>
      <trkpt lat="47.32513" lon="-2.44747">
        <ele>-4.4000000953674</ele>
        <time>2021-05-02T08:33:28.000Z</time>
      </trkpt>
      <trkpt lat="47.32529" lon="-2.44742">
        <ele>-4.4000000953674</ele>
        <time>2021-05-02T08:33:34.000Z</time>
      </trkpt>
      <trkpt lat="47.32529" lon="-2.44741">
        <ele>-4.4000000953674</ele>
        <time>2021-05-02T08:33:35.000Z</time>
      </trkpt>
      <trkpt lat="47.3253" lon="-2.44738">
        <ele>-4.4000000953674</ele>
        <time>2021-05-02T08:33:38.000Z</time>
      </trkpt>
      <trkpt lat="47.32526" lon="-2.44728">
        <ele>1.7999999523163</ele>
        <time>2021-05-02T08:41:17.000Z</time>
      </trkpt>
      <trkpt lat="47.32529" lon="-2.4472">
        <ele>1.7999999523163</ele>
        <time>2021-05-02T08:41:20.000Z</time>
      </trkpt>
      <trkpt lat="47.32541" lon="-2.44698">
        <ele>2.2000000476837</ele>
        <time>2021-05-02T08:41:25.000Z</time>
      </trkpt>
      <trkpt lat="47.32544" lon="-2.44693">
        <ele>2.5999999046326</ele>
        <time>2021-05-02T08:41:26.000Z</time>
      </trkpt>
      <trkpt lat="47.32547" lon="-2.44689">
        <ele>3</ele>
        <time>2021-05-02T08:41:27.000Z</time>
      </trkpt>
      <trkpt lat="47.32549" lon="-2.44685">
        <ele>3.5999999046326</ele>
        <time>2021-05-02T08:41:28.000Z</time>
      </trkpt>
      <trkpt lat="47.32551" lon="-2.44681">
        <ele>4</ele>
        <time>2021-05-02T08:41:29.000Z</time>
      </trkpt>
      <trkpt lat="47.32559" lon="-2.44666">
        <ele>4</ele>
        <time>2021-05-02T08:41:32.000Z</time>
      </trkpt>
      <trkpt lat="47.32563" lon="-2.44661">
        <ele>4.4000000953674</ele>
        <time>2021-05-02T08:41:33.000Z</time>
      </trkpt>
      <trkpt lat="47.32566" lon="-2.44657">
        <ele>4.8000001907349</ele>
        <time>2021-05-02T08:41:34.000Z</time>
      </trkpt>
      <trkpt lat="47.3257" lon="-2.44652">
        <ele>5.1999998092651</ele>
        <time>2021-05-02T08:41:35.000Z</time>
      </trkpt>
      <trkpt lat="47.32573" lon="-2.44649">
        <ele>5.5999999046326</ele>
        <time>2021-05-02T08:41:36.000Z</time>
      </trkpt>
      <trkpt lat="47.32576" lon="-2.44645">
        <ele>6</ele>
        <time>2021-05-02T08:41:37.000Z</time>
      </trkpt>
      <trkpt lat="47.32583" lon="-2.44637">
        <ele>6</ele>
        <time>2021-05-02T08:41:39.000Z</time>
      </trkpt>
      <trkpt lat="47.32586" lon="-2.44633">
        <ele>6.5999999046326</ele>
        <time>2021-05-02T08:41:40.000Z</time>
      </trkpt>
      <trkpt lat="47.32589" lon="-2.4463">
        <ele>7</ele>
        <time>2021-05-02T08:41:41.000Z</time>
      </trkpt>
      <trkpt lat="47.32593" lon="-2.44625">
        <ele>7.4000000953674</ele>
        <time>2021-05-02T08:41:42.000Z</time>
      </trkpt>
      <trkpt lat="47.32597" lon="-2.44621">
        <ele>7.8000001907349</ele>
        <time>2021-05-02T08:41:43.000Z</time>
      </trkpt>
      <trkpt lat="47.326" lon="-2.44616">
        <ele>8.1999998092651</ele>
        <time>2021-05-02T08:41:44.000Z</time>
      </trkpt>
      <trkpt lat="47.32604" lon="-2.44611">
        <ele>8.1999998092651</ele>
        <time>2021-05-02T08:41:45.000Z</time>
      </trkpt>
      <trkpt lat="47.3262" lon="-2.44583">
        <ele>8.6000003814697</ele>
        <time>2021-05-02T08:41:50.000Z</time>
      </trkpt>
      <trkpt lat="47.32623" lon="-2.44578">
        <ele>9</ele>
        <time>2021-05-02T08:41:51.000Z</time>
      </trkpt>
      <trkpt lat="47.32626" lon="-2.44573">
        <ele>9.6000003814697</ele>
        <time>2021-05-02T08:41:52.000Z</time>
      </trkpt>
      <trkpt lat="47.3263" lon="-2.44569">
        <ele>10</ele>
        <time>2021-05-02T08:41:53.000Z</time>
      </trkpt>
      <trkpt lat="47.32633" lon="-2.44564">
        <ele>10.39999961853</ele>
        <time>2021-05-02T08:41:54.000Z</time>
      </trkpt>
      <trkpt lat="47.32647" lon="-2.44541">
        <ele>10.39999961853</ele>
        <time>2021-05-02T08:41:59.000Z</time>
      </trkpt>
      <trkpt lat="47.32668" lon="-2.44505">
        <ele>10.800000190735</ele>
        <time>2021-05-02T08:42:06.000Z</time>
      </trkpt>
      <trkpt lat="47.3267" lon="-2.445">
        <ele>11.199999809265</ele>
        <time>2021-05-02T08:42:07.000Z</time>
      </trkpt>
      <trkpt lat="47.32669" lon="-2.44495">
        <ele>11.60000038147</ele>
        <time>2021-05-02T08:42:08.000Z</time>
      </trkpt>
      <trkpt lat="47.32666" lon="-2.44494">
        <ele>12</ele>
        <time>2021-05-02T08:42:09.000Z</time>
      </trkpt>
      <trkpt lat="47.32662" lon="-2.44491">
        <ele>12.39999961853</ele>
        <time>2021-05-02T08:42:10.000Z</time>
      </trkpt>
      <trkpt lat="47.3265" lon="-2.44478">
        <ele>12.39999961853</ele>
        <time>2021-05-02T08:42:13.000Z</time>
      </trkpt>
      <trkpt lat="47.32645" lon="-2.44466">
        <ele>12.39999961853</ele>
        <time>2021-05-02T08:42:15.000Z</time>
      </trkpt>
      <trkpt lat="47.32644" lon="-2.44458">
        <ele>12.39999961853</ele>
        <time>2021-05-02T08:42:16.000Z</time>
      </trkpt>
      <trkpt lat="47.32642" lon="-2.44451">
        <ele>12.39999961853</ele>
        <time>2021-05-02T08:42:17.000Z</time>
      </trkpt>
      <trkpt lat="47.32627" lon="-2.4441">
        <ele>12.39999961853</ele>
        <time>2021-05-02T08:42:23.000Z</time>
      </trkpt>
      <trkpt lat="47.32611" lon="-2.44386">
        <ele>12.39999961853</ele>
        <time>2021-05-02T08:42:28.000Z</time>
      </trkpt>
      <trkpt lat="47.32602" lon="-2.44381">
        <ele>12.39999961853</ele>
        <time>2021-05-02T08:42:30.000Z</time>
      </trkpt>
      <trkpt lat="47.32591" lon="-2.44372">
        <ele>12</ele>
        <time>2021-05-02T08:42:32.000Z</time>
      </trkpt>
      <trkpt lat="47.32586" lon="-2.44365">
        <ele>11.60000038147</ele>
        <time>2021-05-02T08:42:33.000Z</time>
      </trkpt>
      <trkpt lat="47.32584" lon="-2.44358">
        <ele>11</ele>
        <time>2021-05-02T08:42:34.000Z</time>
      </trkpt>
      <trkpt lat="47.32581" lon="-2.44352">
        <ele>10.60000038147</ele>
        <time>2021-05-02T08:42:35.000Z</time>
      </trkpt>
      <trkpt lat="47.32579" lon="-2.44345">
        <ele>10.199999809265</ele>
        <time>2021-05-02T08:42:36.000Z</time>
      </trkpt>
      <trkpt lat="47.32569" lon="-2.44321">
        <ele>10.199999809265</ele>
        <time>2021-05-02T08:42:40.000Z</time>
      </trkpt>
      <trkpt lat="47.32566" lon="-2.44316">
        <ele>10.199999809265</ele>
        <time>2021-05-02T08:42:41.000Z</time>
      </trkpt>
      <trkpt lat="47.32561" lon="-2.44303">
        <ele>10.199999809265</ele>
        <time>2021-05-02T08:42:43.000Z</time>
      </trkpt>
      <trkpt lat="47.32559" lon="-2.44285">
        <ele>10.199999809265</ele>
        <time>2021-05-02T08:42:45.000Z</time>
      </trkpt>
      <trkpt lat="47.32556" lon="-2.44273">
        <ele>10.199999809265</ele>
        <time>2021-05-02T08:42:46.000Z</time>
      </trkpt>
      <trkpt lat="47.32546" lon="-2.4424">
        <ele>10.199999809265</ele>
        <time>2021-05-02T08:42:50.000Z</time>
      </trkpt>
      <trkpt lat="47.32526" lon="-2.44202">
        <ele>10.199999809265</ele>
        <time>2021-05-02T08:42:56.000Z</time>
      </trkpt>
      <trkpt lat="47.32523" lon="-2.44195">
        <ele>10.199999809265</ele>
        <time>2021-05-02T08:42:57.000Z</time>
      </trkpt>
      <trkpt lat="47.32523" lon="-2.44173">
        <ele>10.199999809265</ele>
        <time>2021-05-02T08:43:00.000Z</time>
      </trkpt>
      <trkpt lat="47.32525" lon="-2.44165">
        <ele>10.199999809265</ele>
        <time>2021-05-02T08:43:01.000Z</time>
      </trkpt>
      <trkpt lat="47.32528" lon="-2.44156">
        <ele>10.199999809265</ele>
        <time>2021-05-02T08:43:02.000Z</time>
      </trkpt>
      <trkpt lat="47.32534" lon="-2.4414">
        <ele>10.60000038147</ele>
        <time>2021-05-02T08:43:04.000Z</time>
      </trkpt>
      <trkpt lat="47.32537" lon="-2.44131">
        <ele>11</ele>
        <time>2021-05-02T08:43:05.000Z</time>
      </trkpt>
      <trkpt lat="47.3254" lon="-2.44123">
        <ele>11.60000038147</ele>
        <time>2021-05-02T08:43:06.000Z</time>
      </trkpt>
      <trkpt lat="47.32543" lon="-2.44115">
        <ele>12</ele>
        <time>2021-05-02T08:43:07.000Z</time>
      </trkpt>
      <trkpt lat="47.32546" lon="-2.44107">
        <ele>12.39999961853</ele>
        <time>2021-05-02T08:43:08.000Z</time>
      </trkpt>
      <trkpt lat="47.32556" lon="-2.44074">
        <ele>12.39999961853</ele>
        <time>2021-05-02T08:43:12.000Z</time>
      </trkpt>
      <trkpt lat="47.32566" lon="-2.44048">
        <ele>12.39999961853</ele>
        <time>2021-05-02T08:43:16.000Z</time>
      </trkpt>
      <trkpt lat="47.3257" lon="-2.44039">
        <ele>12.39999961853</ele>
        <time>2021-05-02T08:43:18.000Z</time>
      </trkpt>
      <trkpt lat="47.32569" lon="-2.44035">
        <ele>12.39999961853</ele>
        <time>2021-05-02T08:43:19.000Z</time>
      </trkpt>
      <trkpt lat="47.32563" lon="-2.4403">
        <ele>12.39999961853</ele>
        <time>2021-05-02T08:43:21.000Z</time>
      </trkpt>
      <trkpt lat="47.32553" lon="-2.44027">
        <ele>12.39999961853</ele>
        <time>2021-05-02T08:43:24.000Z</time>
      </trkpt>
      <trkpt lat="47.32547" lon="-2.44026">
        <ele>12.39999961853</ele>
        <time>2021-05-02T08:43:26.000Z</time>
      </trkpt>
      <trkpt lat="47.32543" lon="-2.44024">
        <ele>11.60000038147</ele>
        <time>2021-05-02T08:43:27.000Z</time>
      </trkpt>
      <trkpt lat="47.32539" lon="-2.44024">
        <ele>11</ele>
        <time>2021-05-02T08:43:28.000Z</time>
      </trkpt>
      <trkpt lat="47.32536" lon="-2.44022">
        <ele>10.60000038147</ele>
        <time>2021-05-02T08:43:29.000Z</time>
      </trkpt>
      <trkpt lat="47.32532" lon="-2.4402">
        <ele>10.199999809265</ele>
        <time>2021-05-02T08:43:30.000Z</time>
      </trkpt>
      <trkpt lat="47.32529" lon="-2.44018">
        <ele>10.199999809265</ele>
        <time>2021-05-02T08:43:31.000Z</time>
      </trkpt>
      <trkpt lat="47.32515" lon="-2.44003">
        <ele>10.199999809265</ele>
        <time>2021-05-02T08:43:37.000Z</time>
      </trkpt>
      <trkpt lat="47.3251" lon="-2.43996">
        <ele>10.199999809265</ele>
        <time>2021-05-02T08:43:41.000Z</time>
      </trkpt>
      <trkpt lat="47.3251" lon="-2.43995">
        <ele>10.199999809265</ele>
        <time>2021-05-02T08:43:42.000Z</time>
      </trkpt>
      <trkpt lat="47.32506" lon="-2.43981">
        <ele>10.199999809265</ele>
        <time>2021-05-02T08:43:49.000Z</time>
      </trkpt>
      <trkpt lat="47.32512" lon="-2.43981">
        <ele>10.199999809265</ele>
        <time>2021-05-02T08:43:53.000Z</time>
      </trkpt>
      <trkpt lat="47.32511" lon="-2.4398">
        <ele>10.199999809265</ele>
        <time>2021-05-02T08:43:54.000Z</time>
      </trkpt>
      <trkpt lat="47.32509" lon="-2.4398">
        <ele>10.199999809265</ele>
        <time>2021-05-02T08:44:56.000Z</time>
      </trkpt>
      <trkpt lat="47.32508" lon="-2.43981">
        <ele>10.199999809265</ele>
        <time>2021-05-02T08:44:57.000Z</time>
      </trkpt>
      <trkpt lat="47.32494" lon="-2.43988">
        <ele>10.199999809265</ele>
        <time>2021-05-02T08:45:02.000Z</time>
      </trkpt>
      <trkpt lat="47.32465" lon="-2.44009">
        <ele>10.199999809265</ele>
        <time>2021-05-02T08:45:10.000Z</time>
      </trkpt>
      <trkpt lat="47.32424" lon="-2.44036">
        <ele>10.199999809265</ele>
        <time>2021-05-02T08:45:19.000Z</time>
      </trkpt>
      <trkpt lat="47.3241" lon="-2.44046">
        <ele>9.8000001907349</ele>
        <time>2021-05-02T08:45:22.000Z</time>
      </trkpt>
      <trkpt lat="47.32405" lon="-2.44049">
        <ele>9.3999996185303</ele>
        <time>2021-05-02T08:45:23.000Z</time>
      </trkpt>
      <trkpt lat="47.32401" lon="-2.44052">
        <ele>9</ele>
        <time>2021-05-02T08:45:24.000Z</time>
      </trkpt>
      <trkpt lat="47.32395" lon="-2.44056">
        <ele>8.6000003814697</ele>
        <time>2021-05-02T08:45:25.000Z</time>
      </trkpt>
      <trkpt lat="47.3239" lon="-2.44059">
        <ele>8.1999998092651</ele>
        <time>2021-05-02T08:45:26.000Z</time>
      </trkpt>
      <trkpt lat="47.32373" lon="-2.44067">
        <ele>8.1999998092651</ele>
        <time>2021-05-02T08:45:29.000Z</time>
      </trkpt>
      <trkpt lat="47.32368" lon="-2.44069">
        <ele>7.8000001907349</ele>
        <time>2021-05-02T08:45:30.000Z</time>
      </trkpt>
      <trkpt lat="47.32362" lon="-2.44071">
        <ele>7</ele>
        <time>2021-05-02T08:45:31.000Z</time>
      </trkpt>
      <trkpt lat="47.32355" lon="-2.44072">
        <ele>6.5999999046326</ele>
        <time>2021-05-02T08:45:32.000Z</time>
      </trkpt>
      <trkpt lat="47.32348" lon="-2.44072">
        <ele>6.1999998092651</ele>
        <time>2021-05-02T08:45:33.000Z</time>
      </trkpt>
      <trkpt lat="47.32341" lon="-2.4407">
        <ele>6.1999998092651</ele>
        <time>2021-05-02T08:45:34.000Z</time>
      </trkpt>
      <trkpt lat="47.32294" lon="-2.44055">
        <ele>5.5999999046326</ele>
        <time>2021-05-02T08:45:41.000Z</time>
      </trkpt>
      <trkpt lat="47.32288" lon="-2.44052">
        <ele>5.1999998092651</ele>
        <time>2021-05-02T08:45:42.000Z</time>
      </trkpt>
      <trkpt lat="47.32281" lon="-2.4405">
        <ele>4.8000001907349</ele>
        <time>2021-05-02T08:45:43.000Z</time>
      </trkpt>
      <trkpt lat="47.32275" lon="-2.44048">
        <ele>4.4000000953674</ele>
        <time>2021-05-02T08:45:44.000Z</time>
      </trkpt>
      <trkpt lat="47.32269" lon="-2.44047">
        <ele>3.7999999523163</ele>
        <time>2021-05-02T08:45:45.000Z</time>
      </trkpt>
      <trkpt lat="47.32256" lon="-2.44044">
        <ele>3.7999999523163</ele>
        <time>2021-05-02T08:45:47.000Z</time>
      </trkpt>
      <trkpt lat="47.32249" lon="-2.44043">
        <ele>3.7999999523163</ele>
        <time>2021-05-02T08:45:48.000Z</time>
      </trkpt>
      <trkpt lat="47.3223" lon="-2.44043">
        <ele>3.7999999523163</ele>
        <time>2021-05-02T08:45:51.000Z</time>
      </trkpt>
      <trkpt lat="47.32208" lon="-2.44027">
        <ele>3.4000000953674</ele>
        <time>2021-05-02T08:45:55.000Z</time>
      </trkpt>
      <trkpt lat="47.32202" lon="-2.4402">
        <ele>3</ele>
        <time>2021-05-02T08:45:56.000Z</time>
      </trkpt>
      <trkpt lat="47.32197" lon="-2.44014">
        <ele>2.5999999046326</ele>
        <time>2021-05-02T08:45:57.000Z</time>
      </trkpt>
      <trkpt lat="47.32191" lon="-2.44007">
        <ele>2.2000000476837</ele>
        <time>2021-05-02T08:45:58.000Z</time>
      </trkpt>
      <trkpt lat="47.32186" lon="-2.44">
        <ele>1.7999999523163</ele>
        <time>2021-05-02T08:45:59.000Z</time>
      </trkpt>
      <trkpt lat="47.32181" lon="-2.43993">
        <ele>1.7999999523163</ele>
        <time>2021-05-02T08:46:00.000Z</time>
      </trkpt>
      <trkpt lat="47.3215" lon="-2.4395">
        <ele>1.3999999761581</ele>
        <time>2021-05-02T08:46:06.000Z</time>
      </trkpt>
      <trkpt lat="47.32145" lon="-2.43942">
        <ele>1</ele>
        <time>2021-05-02T08:46:07.000Z</time>
      </trkpt>
      <trkpt lat="47.3214" lon="-2.43934">
        <ele>0.60000002384186</ele>
        <time>2021-05-02T08:46:08.000Z</time>
      </trkpt>
      <trkpt lat="47.32133" lon="-2.43925">
        <ele>0.20000000298023</ele>
        <time>2021-05-02T08:46:09.000Z</time>
      </trkpt>
      <trkpt lat="47.32127" lon="-2.43918">
        <ele>-0.20000000298023</ele>
        <time>2021-05-02T08:46:10.000Z</time>
      </trkpt>
      <trkpt lat="47.3212" lon="-2.4391">
        <ele>-0.20000000298023</ele>
        <time>2021-05-02T08:46:11.000Z</time>
      </trkpt>
      <trkpt lat="47.32112" lon="-2.43905">
        <ele>-0.80000001192093</ele>
        <time>2021-05-02T08:46:12.000Z</time>
      </trkpt>
      <trkpt lat="47.32105" lon="-2.439">
        <ele>-1.2000000476837</ele>
        <time>2021-05-02T08:46:13.000Z</time>
      </trkpt>
      <trkpt lat="47.32096" lon="-2.43896">
        <ele>-1.7999999523163</ele>
        <time>2021-05-02T08:46:14.000Z</time>
      </trkpt>
      <trkpt lat="47.32088" lon="-2.43891">
        <ele>-2.2000000476837</ele>
        <time>2021-05-02T08:46:15.000Z</time>
      </trkpt>
      <trkpt lat="47.32081" lon="-2.43885">
        <ele>-2.7999999523163</ele>
        <time>2021-05-02T08:46:16.000Z</time>
      </trkpt>
      <trkpt lat="47.32074" lon="-2.43878">
        <ele>-3.2000000476837</ele>
        <time>2021-05-02T08:46:17.000Z</time>
      </trkpt>
      <trkpt lat="47.32068" lon="-2.43869">
        <ele>-3.7999999523163</ele>
        <time>2021-05-02T08:46:18.000Z</time>
      </trkpt>
      <trkpt lat="47.32062" lon="-2.4386">
        <ele>-4.8000001907349</ele>
        <time>2021-05-02T08:46:19.000Z</time>
      </trkpt>
      <trkpt lat="47.32057" lon="-2.43851">
        <ele>-5.1999998092651</ele>
        <time>2021-05-02T08:46:20.000Z</time>
      </trkpt>
      <trkpt lat="47.3204" lon="-2.43815">
        <ele>-5.1999998092651</ele>
        <time>2021-05-02T08:46:24.000Z</time>
      </trkpt>
      <trkpt lat="47.32036" lon="-2.43807">
        <ele>-5.5999999046326</ele>
        <time>2021-05-02T08:46:25.000Z</time>
      </trkpt>
      <trkpt lat="47.32032" lon="-2.43801">
        <ele>-6.1999998092651</ele>
        <time>2021-05-02T08:46:26.000Z</time>
      </trkpt>
      <trkpt lat="47.32028" lon="-2.43797">
        <ele>-6.5999999046326</ele>
        <time>2021-05-02T08:46:27.000Z</time>
      </trkpt>
      <trkpt lat="47.32023" lon="-2.43797">
        <ele>-7</ele>
        <time>2021-05-02T08:46:28.000Z</time>
      </trkpt>
      <trkpt lat="47.32017" lon="-2.43801">
        <ele>-7.4000000953674</ele>
        <time>2021-05-02T08:46:29.000Z</time>
      </trkpt>
      <trkpt lat="47.32011" lon="-2.43807">
        <ele>-8</ele>
        <time>2021-05-02T08:46:30.000Z</time>
      </trkpt>
      <trkpt lat="47.32006" lon="-2.43814">
        <ele>-8.3999996185303</ele>
        <time>2021-05-02T08:46:31.000Z</time>
      </trkpt>
      <trkpt lat="47.32" lon="-2.43821">
        <ele>-9</ele>
        <time>2021-05-02T08:46:32.000Z</time>
      </trkpt>
      <trkpt lat="47.31994" lon="-2.43829">
        <ele>-9.3999996185303</ele>
        <time>2021-05-02T08:46:33.000Z</time>
      </trkpt>
      <trkpt lat="47.31988" lon="-2.43833">
        <ele>-10</ele>
        <time>2021-05-02T08:46:34.000Z</time>
      </trkpt>
      <trkpt lat="47.31982" lon="-2.43835">
        <ele>-10.60000038147</ele>
        <time>2021-05-02T08:46:35.000Z</time>
      </trkpt>
      <trkpt lat="47.31976" lon="-2.43835">
        <ele>-11</ele>
        <time>2021-05-02T08:46:36.000Z</time>
      </trkpt>
      <trkpt lat="47.3197" lon="-2.43831">
        <ele>-11.60000038147</ele>
        <time>2021-05-02T08:46:37.000Z</time>
      </trkpt>
      <trkpt lat="47.31965" lon="-2.43825">
        <ele>-12.199999809265</ele>
        <time>2021-05-02T08:46:38.000Z</time>
      </trkpt>
      <trkpt lat="47.31961" lon="-2.43818">
        <ele>-12.60000038147</ele>
        <time>2021-05-02T08:46:39.000Z</time>
      </trkpt>
      <trkpt lat="47.31956" lon="-2.4381">
        <ele>-13.199999809265</ele>
        <time>2021-05-02T08:46:40.000Z</time>
      </trkpt>
      <trkpt lat="47.31952" lon="-2.43802">
        <ele>-13.800000190735</ele>
        <time>2021-05-02T08:46:41.000Z</time>
      </trkpt>
      <trkpt lat="47.31947" lon="-2.43792">
        <ele>-14.199999809265</ele>
        <time>2021-05-02T08:46:42.000Z</time>
      </trkpt>
      <trkpt lat="47.3194" lon="-2.43772">
        <ele>-14.199999809265</ele>
        <time>2021-05-02T08:46:44.000Z</time>
      </trkpt>
      <trkpt lat="47.31912" lon="-2.43697">
        <ele>-14.199999809265</ele>
        <time>2021-05-02T08:46:51.000Z</time>
      </trkpt>
      <trkpt lat="47.31908" lon="-2.43687">
        <ele>-14.60000038147</ele>
        <time>2021-05-02T08:46:52.000Z</time>
      </trkpt>
      <trkpt lat="47.31903" lon="-2.43678">
        <ele>-15.199999809265</ele>
        <time>2021-05-02T08:46:53.000Z</time>
      </trkpt>
      <trkpt lat="47.31899" lon="-2.43669">
        <ele>-15.60000038147</ele>
        <time>2021-05-02T08:46:54.000Z</time>
      </trkpt>
      <trkpt lat="47.31895" lon="-2.4366">
        <ele>-16</ele>
        <time>2021-05-02T08:46:55.000Z</time>
      </trkpt>
      <trkpt lat="47.31892" lon="-2.43652">
        <ele>-16.39999961853</ele>
        <time>2021-05-02T08:46:56.000Z</time>
      </trkpt>
      <trkpt lat="47.3189" lon="-2.43628">
        <ele>-16.39999961853</ele>
        <time>2021-05-02T08:46:59.000Z</time>
      </trkpt>
      <trkpt lat="47.31904" lon="-2.4361">
        <ele>-16.39999961853</ele>
        <time>2021-05-02T08:47:03.000Z</time>
      </trkpt>
      <trkpt lat="47.31908" lon="-2.43607">
        <ele>-16.39999961853</ele>
        <time>2021-05-02T08:47:04.000Z</time>
      </trkpt>
      <trkpt lat="47.31912" lon="-2.43602">
        <ele>-16.39999961853</ele>
        <time>2021-05-02T08:47:05.000Z</time>
      </trkpt>
      <trkpt lat="47.31922" lon="-2.43586">
        <ele>-16.39999961853</ele>
        <time>2021-05-02T08:47:08.000Z</time>
      </trkpt>
      <trkpt lat="47.31925" lon="-2.4358">
        <ele>-16.39999961853</ele>
        <time>2021-05-02T08:47:09.000Z</time>
      </trkpt>
      <trkpt lat="47.31928" lon="-2.43566">
        <ele>-16</ele>
        <time>2021-05-02T08:47:11.000Z</time>
      </trkpt>
      <trkpt lat="47.31928" lon="-2.43559">
        <ele>-15.60000038147</ele>
        <time>2021-05-02T08:47:12.000Z</time>
      </trkpt>
      <trkpt lat="47.31929" lon="-2.43552">
        <ele>-15.199999809265</ele>
        <time>2021-05-02T08:47:13.000Z</time>
      </trkpt>
      <trkpt lat="47.31929" lon="-2.43544">
        <ele>-14.60000038147</ele>
        <time>2021-05-02T08:47:14.000Z</time>
      </trkpt>
      <trkpt lat="47.31929" lon="-2.43537">
        <ele>-14.199999809265</ele>
        <time>2021-05-02T08:47:15.000Z</time>
      </trkpt>
      <trkpt lat="47.31928" lon="-2.43514">
        <ele>-14.199999809265</ele>
        <time>2021-05-02T08:47:18.000Z</time>
      </trkpt>
      <trkpt lat="47.31928" lon="-2.43506">
        <ele>-14.199999809265</ele>
        <time>2021-05-02T08:47:19.000Z</time>
      </trkpt>
      <trkpt lat="47.3193" lon="-2.43482">
        <ele>-13.800000190735</ele>
        <time>2021-05-02T08:47:22.000Z</time>
      </trkpt>
      <trkpt lat="47.31931" lon="-2.43475">
        <ele>-13.39999961853</ele>
        <time>2021-05-02T08:47:23.000Z</time>
      </trkpt>
      <trkpt lat="47.31933" lon="-2.43468">
        <ele>-13</ele>
        <time>2021-05-02T08:47:24.000Z</time>
      </trkpt>
      <trkpt lat="47.31935" lon="-2.43461">
        <ele>-12.60000038147</ele>
        <time>2021-05-02T08:47:25.000Z</time>
      </trkpt>
      <trkpt lat="47.31937" lon="-2.43454">
        <ele>-12.199999809265</ele>
        <time>2021-05-02T08:47:26.000Z</time>
      </trkpt>
      <trkpt lat="47.31944" lon="-2.43434">
        <ele>-12.199999809265</ele>
        <time>2021-05-02T08:47:29.000Z</time>
      </trkpt>
      <trkpt lat="47.3195" lon="-2.43415">
        <ele>-11.800000190735</ele>
        <time>2021-05-02T08:47:32.000Z</time>
      </trkpt>
      <trkpt lat="47.31952" lon="-2.43409">
        <ele>-11.39999961853</ele>
        <time>2021-05-02T08:47:33.000Z</time>
      </trkpt>
      <trkpt lat="47.31955" lon="-2.43402">
        <ele>-10.39999961853</ele>
        <time>2021-05-02T08:47:34.000Z</time>
      </trkpt>
      <trkpt lat="47.31957" lon="-2.43396">
        <ele>-10</ele>
        <time>2021-05-02T08:47:35.000Z</time>
      </trkpt>
      <trkpt lat="47.31959" lon="-2.4339">
        <ele>-10</ele>
        <time>2021-05-02T08:47:36.000Z</time>
      </trkpt>
      <trkpt lat="47.31967" lon="-2.43364">
        <ele>-10</ele>
        <time>2021-05-02T08:47:40.000Z</time>
      </trkpt>
      <trkpt lat="47.31968" lon="-2.43358">
        <ele>-9.6000003814697</ele>
        <time>2021-05-02T08:47:41.000Z</time>
      </trkpt>
      <trkpt lat="47.3197" lon="-2.43352">
        <ele>-9.1999998092651</ele>
        <time>2021-05-02T08:47:42.000Z</time>
      </trkpt>
      <trkpt lat="47.31971" lon="-2.43345">
        <ele>-8.8000001907349</ele>
        <time>2021-05-02T08:47:43.000Z</time>
      </trkpt>
      <trkpt lat="47.31972" lon="-2.43338">
        <ele>-8.3999996185303</ele>
        <time>2021-05-02T08:47:44.000Z</time>
      </trkpt>
      <trkpt lat="47.31973" lon="-2.43332">
        <ele>-8</ele>
        <time>2021-05-02T08:47:45.000Z</time>
      </trkpt>
      <trkpt lat="47.31977" lon="-2.43312">
        <ele>-8</ele>
        <time>2021-05-02T08:47:48.000Z</time>
      </trkpt>
      <trkpt lat="47.31977" lon="-2.43306">
        <ele>-7.5999999046326</ele>
        <time>2021-05-02T08:47:49.000Z</time>
      </trkpt>
      <trkpt lat="47.31977" lon="-2.43299">
        <ele>-7.1999998092651</ele>
        <time>2021-05-02T08:47:50.000Z</time>
      </trkpt>
      <trkpt lat="47.31977" lon="-2.43293">
        <ele>-6.5999999046326</ele>
        <time>2021-05-02T08:47:51.000Z</time>
      </trkpt>
      <trkpt lat="47.31978" lon="-2.43287">
        <ele>-6.1999998092651</ele>
        <time>2021-05-02T08:47:52.000Z</time>
      </trkpt>
      <trkpt lat="47.31979" lon="-2.43282">
        <ele>-5.8000001907349</ele>
        <time>2021-05-02T08:47:53.000Z</time>
      </trkpt>
      <trkpt lat="47.31982" lon="-2.43274">
        <ele>-5.8000001907349</ele>
        <time>2021-05-02T08:47:55.000Z</time>
      </trkpt>
      <trkpt lat="47.31996" lon="-2.4326">
        <ele>-5.8000001907349</ele>
        <time>2021-05-02T08:48:00.000Z</time>
      </trkpt>
      <trkpt lat="47.3201" lon="-2.4325">
        <ele>-5.4000000953674</ele>
        <time>2021-05-02T08:48:04.000Z</time>
      </trkpt>
      <trkpt lat="47.32014" lon="-2.43247">
        <ele>-5</ele>
        <time>2021-05-02T08:48:05.000Z</time>
      </trkpt>
      <trkpt lat="47.32018" lon="-2.43245">
        <ele>-4.5999999046326</ele>
        <time>2021-05-02T08:48:06.000Z</time>
      </trkpt>
      <trkpt lat="47.32021" lon="-2.43243">
        <ele>-4.1999998092651</ele>
        <time>2021-05-02T08:48:07.000Z</time>
      </trkpt>
      <trkpt lat="47.32025" lon="-2.43241">
        <ele>-3.5999999046326</ele>
        <time>2021-05-02T08:48:08.000Z</time>
      </trkpt>
      <trkpt lat="47.32044" lon="-2.43225">
        <ele>-3.5999999046326</ele>
        <time>2021-05-02T08:48:14.000Z</time>
      </trkpt>
      <trkpt lat="47.32049" lon="-2.43219">
        <ele>-3.2000000476837</ele>
        <time>2021-05-02T08:48:16.000Z</time>
      </trkpt>
      <trkpt lat="47.32053" lon="-2.43217">
        <ele>-2.7999999523163</ele>
        <time>2021-05-02T08:48:17.000Z</time>
      </trkpt>
      <trkpt lat="47.32056" lon="-2.43215">
        <ele>-2.4000000953674</ele>
        <time>2021-05-02T08:48:18.000Z</time>
      </trkpt>
      <trkpt lat="47.3206" lon="-2.43213">
        <ele>-2</ele>
        <time>2021-05-02T08:48:19.000Z</time>
      </trkpt>
      <trkpt lat="47.32064" lon="-2.43211">
        <ele>-1.6000000238419</ele>
        <time>2021-05-02T08:48:20.000Z</time>
      </trkpt>
      <trkpt lat="47.32083" lon="-2.43202">
        <ele>-1.6000000238419</ele>
        <time>2021-05-02T08:48:25.000Z</time>
      </trkpt>
      <trkpt lat="47.32102" lon="-2.43196">
        <ele>-1.6000000238419</ele>
        <time>2021-05-02T08:48:29.000Z</time>
      </trkpt>
      <trkpt lat="47.32111" lon="-2.43191">
        <ele>-1.6000000238419</ele>
        <time>2021-05-02T08:48:31.000Z</time>
      </trkpt>
      <trkpt lat="47.32115" lon="-2.4319">
        <ele>-1.2000000476837</ele>
        <time>2021-05-02T08:48:32.000Z</time>
      </trkpt>
      <trkpt lat="47.3212" lon="-2.43188">
        <ele>-0.80000001192093</ele>
        <time>2021-05-02T08:48:33.000Z</time>
      </trkpt>
      <trkpt lat="47.32124" lon="-2.43185">
        <ele>-0.40000000596046</ele>
        <time>2021-05-02T08:48:34.000Z</time>
      </trkpt>
      <trkpt lat="47.32129" lon="-2.43183">
        <ele>31.6</ele>
        <time>2021-05-02T08:48:35.000Z</time>
      </trkpt>
      <trkpt lat="47.32133" lon="-2.43181">
        <ele>0.60000002384186</ele>
        <time>2021-05-02T08:48:36.000Z</time>
      </trkpt>
      <trkpt lat="47.32142" lon="-2.43176">
        <ele>0.60000002384186</ele>
        <time>2021-05-02T08:48:38.000Z</time>
      </trkpt>
      <trkpt lat="47.32174" lon="-2.43161">
        <ele>0.60000002384186</ele>
        <time>2021-05-02T08:48:45.000Z</time>
      </trkpt>
      <trkpt lat="47.32183" lon="-2.43158">
        <ele>1</ele>
        <time>2021-05-02T08:48:47.000Z</time>
      </trkpt>
      <trkpt lat="47.32188" lon="-2.43156">
        <ele>1.7999999523163</ele>
        <time>2021-05-02T08:48:48.000Z</time>
      </trkpt>
      <trkpt lat="47.32193" lon="-2.43154">
        <ele>2.2000000476837</ele>
        <time>2021-05-02T08:48:49.000Z</time>
      </trkpt>
      <trkpt lat="47.32197" lon="-2.43153">
        <ele>2.5999999046326</ele>
        <time>2021-05-02T08:48:50.000Z</time>
      </trkpt>
      <trkpt lat="47.32211" lon="-2.43147">
        <ele>2.5999999046326</ele>
        <time>2021-05-02T08:48:53.000Z</time>
      </trkpt>
      <trkpt lat="47.32242" lon="-2.43133">
        <ele>2.5999999046326</ele>
        <time>2021-05-02T08:49:00.000Z</time>
      </trkpt>
      <trkpt lat="47.32265" lon="-2.43124">
        <ele>3</ele>
        <time>2021-05-02T08:49:05.000Z</time>
      </trkpt>
      <trkpt lat="47.3227" lon="-2.43122">
        <ele>3.4000000953674</ele>
        <time>2021-05-02T08:49:06.000Z</time>
      </trkpt>
      <trkpt lat="47.32274" lon="-2.4312">
        <ele>3.7999999523163</ele>
        <time>2021-05-02T08:49:07.000Z</time>
      </trkpt>
      <trkpt lat="47.32278" lon="-2.43118">
        <ele>4.1999998092651</ele>
        <time>2021-05-02T08:49:08.000Z</time>
      </trkpt>
      <trkpt lat="47.32283" lon="-2.43116">
        <ele>4.5999999046326</ele>
        <time>2021-05-02T08:49:09.000Z</time>
      </trkpt>
      <trkpt lat="47.32308" lon="-2.43101">
        <ele>4.5999999046326</ele>
        <time>2021-05-02T08:49:14.000Z</time>
      </trkpt>
      <trkpt lat="47.32339" lon="-2.43083">
        <ele>4.5999999046326</ele>
        <time>2021-05-02T08:49:20.000Z</time>
      </trkpt>
      <trkpt lat="47.32344" lon="-2.43082">
        <ele>4.5999999046326</ele>
        <time>2021-05-02T08:49:21.000Z</time>
      </trkpt>
      <trkpt lat="47.32382" lon="-2.4307">
        <ele>5</ele>
        <time>2021-05-02T08:49:29.000Z</time>
      </trkpt>
      <trkpt lat="47.32387" lon="-2.43069">
        <ele>5.4000000953674</ele>
        <time>2021-05-02T08:49:30.000Z</time>
      </trkpt>
      <trkpt lat="47.32392" lon="-2.43069">
        <ele>5.8000001907349</ele>
        <time>2021-05-02T08:49:31.000Z</time>
      </trkpt>
      <trkpt lat="47.32396" lon="-2.4307">
        <ele>6.1999998092651</ele>
        <time>2021-05-02T08:49:32.000Z</time>
      </trkpt>
      <trkpt lat="47.32401" lon="-2.4307">
        <ele>6.8000001907349</ele>
        <time>2021-05-02T08:49:33.000Z</time>
      </trkpt>
      <trkpt lat="47.3241" lon="-2.43071">
        <ele>6.8000001907349</ele>
        <time>2021-05-02T08:49:35.000Z</time>
      </trkpt>
      <trkpt lat="47.32415" lon="-2.43071">
        <ele>7.1999998092651</ele>
        <time>2021-05-02T08:49:36.000Z</time>
      </trkpt>
      <trkpt lat="47.32419" lon="-2.43071">
        <ele>7.5999999046326</ele>
        <time>2021-05-02T08:49:37.000Z</time>
      </trkpt>
      <trkpt lat="47.32423" lon="-2.43071">
        <ele>8.3999996185303</ele>
        <time>2021-05-02T08:49:38.000Z</time>
      </trkpt>
      <trkpt lat="47.32428" lon="-2.43072">
        <ele>8.8000001907349</ele>
        <time>2021-05-02T08:49:39.000Z</time>
      </trkpt>
      <trkpt lat="47.32436" lon="-2.43075">
        <ele>8.8000001907349</ele>
        <time>2021-05-02T08:49:41.000Z</time>
      </trkpt>
      <trkpt lat="47.32445" lon="-2.43076">
        <ele>9.1999998092651</ele>
        <time>2021-05-02T08:49:43.000Z</time>
      </trkpt>
      <trkpt lat="47.32449" lon="-2.43077">
        <ele>9.6000003814697</ele>
        <time>2021-05-02T08:49:44.000Z</time>
      </trkpt>
      <trkpt lat="47.32453" lon="-2.43078">
        <ele>10</ele>
        <time>2021-05-02T08:49:45.000Z</time>
      </trkpt>
      <trkpt lat="47.32457" lon="-2.43078">
        <ele>10.39999961853</ele>
        <time>2021-05-02T08:49:46.000Z</time>
      </trkpt>
      <trkpt lat="47.32461" lon="-2.43078">
        <ele>10.800000190735</ele>
        <time>2021-05-02T08:49:47.000Z</time>
      </trkpt>
      <trkpt lat="47.32465" lon="-2.43078">
        <ele>10.800000190735</ele>
        <time>2021-05-02T08:49:48.000Z</time>
      </trkpt>
      <trkpt lat="47.32478" lon="-2.4308">
        <ele>11.39999961853</ele>
        <time>2021-05-02T08:49:51.000Z</time>
      </trkpt>
      <trkpt lat="47.32483" lon="-2.43081">
        <ele>11.800000190735</ele>
        <time>2021-05-02T08:49:52.000Z</time>
      </trkpt>
      <trkpt lat="47.32487" lon="-2.43081">
        <ele>12.199999809265</ele>
        <time>2021-05-02T08:49:53.000Z</time>
      </trkpt>
      <trkpt lat="47.32491" lon="-2.43081">
        <ele>12.60000038147</ele>
        <time>2021-05-02T08:49:54.000Z</time>
      </trkpt>
      <trkpt lat="47.32495" lon="-2.43082">
        <ele>13</ele>
        <time>2021-05-02T08:49:55.000Z</time>
      </trkpt>
      <trkpt lat="47.32516" lon="-2.43083">
        <ele>13.39999961853</ele>
        <time>2021-05-02T08:50:00.000Z</time>
      </trkpt>
      <trkpt lat="47.3252" lon="-2.43082">
        <ele>13.800000190735</ele>
        <time>2021-05-02T08:50:01.000Z</time>
      </trkpt>
      <trkpt lat="47.32524" lon="-2.43082">
        <ele>14.60000038147</ele>
        <time>2021-05-02T08:50:02.000Z</time>
      </trkpt>
      <trkpt lat="47.32528" lon="-2.43083">
        <ele>15.199999809265</ele>
        <time>2021-05-02T08:50:03.000Z</time>
      </trkpt>
      <trkpt lat="47.32554" lon="-2.43085">
        <ele>15.199999809265</ele>
        <time>2021-05-02T08:50:09.000Z</time>
      </trkpt>
      <trkpt lat="47.32558" lon="-2.43085">
        <ele>15.60000038147</ele>
        <time>2021-05-02T08:50:10.000Z</time>
      </trkpt>
      <trkpt lat="47.32562" lon="-2.43084">
        <ele>16</ele>
        <time>2021-05-02T08:50:11.000Z</time>
      </trkpt>
      <trkpt lat="47.32567" lon="-2.43083">
        <ele>16.39999961853</ele>
        <time>2021-05-02T08:50:12.000Z</time>
      </trkpt>
      <trkpt lat="47.32572" lon="-2.43082">
        <ele>16.799999237061</ele>
        <time>2021-05-02T08:50:13.000Z</time>
      </trkpt>
      <trkpt lat="47.32576" lon="-2.43081">
        <ele>17.200000762939</ele>
        <time>2021-05-02T08:50:14.000Z</time>
      </trkpt>
      <trkpt lat="47.32599" lon="-2.43077">
        <ele>17.200000762939</ele>
        <time>2021-05-02T08:50:19.000Z</time>
      </trkpt>
      <trkpt lat="47.32611" lon="-2.43078">
        <ele>17.200000762939</ele>
        <time>2021-05-02T08:50:22.000Z</time>
      </trkpt>
      <trkpt lat="47.32621" lon="-2.43078">
        <ele>17.200000762939</ele>
        <time>2021-05-02T08:50:27.000Z</time>
      </trkpt>
      <trkpt lat="47.32624" lon="-2.43065">
        <ele>17.200000762939</ele>
        <time>2021-05-02T08:50:31.000Z</time>
      </trkpt>
      <trkpt lat="47.32624" lon="-2.43062">
        <ele>17.200000762939</ele>
        <time>2021-05-02T08:50:32.000Z</time>
      </trkpt>
      <trkpt lat="47.32623" lon="-2.43037">
        <ele>17.200000762939</ele>
        <time>2021-05-02T08:50:39.000Z</time>
      </trkpt>
      <trkpt lat="47.32623" lon="-2.43018">
        <ele>17.200000762939</ele>
        <time>2021-05-02T08:50:44.000Z</time>
      </trkpt>
      <trkpt lat="47.32622" lon="-2.42997">
        <ele>17.200000762939</ele>
        <time>2021-05-02T08:50:50.000Z</time>
      </trkpt>
      <trkpt lat="47.3262" lon="-2.42971">
        <ele>17.200000762939</ele>
        <time>2021-05-02T08:50:57.000Z</time>
      </trkpt>
      <trkpt lat="47.32622" lon="-2.42956">
        <ele>17.200000762939</ele>
        <time>2021-05-02T08:51:02.000Z</time>
      </trkpt>
      <trkpt lat="47.32623" lon="-2.42951">
        <ele>17.200000762939</ele>
        <time>2021-05-02T08:51:05.000Z</time>
      </trkpt>
      <trkpt lat="47.32626" lon="-2.42936">
        <ele>19.39999961853</ele>
        <time>2021-05-02T09:00:48.000Z</time>
      </trkpt>
      <trkpt lat="47.32626" lon="-2.42933">
        <ele>19.39999961853</ele>
        <time>2021-05-02T09:00:49.000Z</time>
      </trkpt>
      <trkpt lat="47.32627" lon="-2.42913">
        <ele>19.39999961853</ele>
        <time>2021-05-02T09:00:55.000Z</time>
      </trkpt>
      <trkpt lat="47.32628" lon="-2.42884">
        <ele>19.39999961853</ele>
        <time>2021-05-02T09:01:01.000Z</time>
      </trkpt>
      <trkpt lat="47.32635" lon="-2.42847">
        <ele>19.39999961853</ele>
        <time>2021-05-02T09:01:07.000Z</time>
      </trkpt>
      <trkpt lat="47.3265" lon="-2.42807">
        <ele>19.39999961853</ele>
        <time>2021-05-02T09:01:14.000Z</time>
      </trkpt>
      <trkpt lat="47.32673" lon="-2.42761">
        <ele>19.39999961853</ele>
        <time>2021-05-02T09:01:23.000Z</time>
      </trkpt>
      <trkpt lat="47.32692" lon="-2.4273">
        <ele>19.39999961853</ele>
        <time>2021-05-02T09:01:30.000Z</time>
      </trkpt>
      <trkpt lat="47.32708" lon="-2.42695">
        <ele>19.39999961853</ele>
        <time>2021-05-02T09:01:38.000Z</time>
      </trkpt>
      <trkpt lat="47.32712" lon="-2.42671">
        <ele>19.39999961853</ele>
        <time>2021-05-02T09:01:43.000Z</time>
      </trkpt>
      <trkpt lat="47.3271" lon="-2.42668">
        <ele>19.39999961853</ele>
        <time>2021-05-02T09:01:44.000Z</time>
      </trkpt>
      <trkpt lat="47.32705" lon="-2.42658">
        <ele>19.39999961853</ele>
        <time>2021-05-02T09:01:47.000Z</time>
      </trkpt>
      <trkpt lat="47.32695" lon="-2.42631">
        <ele>19.39999961853</ele>
        <time>2021-05-02T09:01:53.000Z</time>
      </trkpt>
      <trkpt lat="47.32689" lon="-2.42599">
        <ele>19.39999961853</ele>
        <time>2021-05-02T09:01:58.000Z</time>
      </trkpt>
      <trkpt lat="47.32674" lon="-2.42553">
        <ele>19.39999961853</ele>
        <time>2021-05-02T09:02:05.000Z</time>
      </trkpt>
      <trkpt lat="47.32665" lon="-2.42529">
        <ele>19.39999961853</ele>
        <time>2021-05-02T09:02:09.000Z</time>
      </trkpt>
      <trkpt lat="47.32662" lon="-2.42515">
        <ele>19.39999961853</ele>
        <time>2021-05-02T09:02:11.000Z</time>
      </trkpt>
      <trkpt lat="47.32649" lon="-2.42476">
        <ele>19.39999961853</ele>
        <time>2021-05-02T09:02:17.000Z</time>
      </trkpt>
      <trkpt lat="47.32646" lon="-2.4247">
        <ele>19.39999961853</ele>
        <time>2021-05-02T09:02:18.000Z</time>
      </trkpt>
      <trkpt lat="47.32639" lon="-2.42453">
        <ele>19.39999961853</ele>
        <time>2021-05-02T09:02:21.000Z</time>
      </trkpt>
      <trkpt lat="47.32633" lon="-2.42435">
        <ele>19.39999961853</ele>
        <time>2021-05-02T09:02:24.000Z</time>
      </trkpt>
      <trkpt lat="47.32615" lon="-2.42394">
        <ele>19.39999961853</ele>
        <time>2021-05-02T09:02:32.000Z</time>
      </trkpt>
      <trkpt lat="47.32596" lon="-2.42356">
        <ele>19.39999961853</ele>
        <time>2021-05-02T09:02:41.000Z</time>
      </trkpt>
      <trkpt lat="47.32593" lon="-2.42351">
        <ele>19.39999961853</ele>
        <time>2021-05-02T09:02:42.000Z</time>
      </trkpt>
      <trkpt lat="47.32585" lon="-2.42337">
        <ele>19.39999961853</ele>
        <time>2021-05-02T09:02:45.000Z</time>
      </trkpt>
      <trkpt lat="47.32581" lon="-2.42327">
        <ele>19.39999961853</ele>
        <time>2021-05-02T09:02:47.000Z</time>
      </trkpt>
      <trkpt lat="47.32562" lon="-2.42291">
        <ele>19.39999961853</ele>
        <time>2021-05-02T09:02:54.000Z</time>
      </trkpt>
      <trkpt lat="47.32556" lon="-2.4228">
        <ele>19.39999961853</ele>
        <time>2021-05-02T09:02:56.000Z</time>
      </trkpt>
      <trkpt lat="47.32549" lon="-2.42269">
        <ele>19.39999961853</ele>
        <time>2021-05-02T09:02:58.000Z</time>
      </trkpt>
      <trkpt lat="47.32546" lon="-2.42263">
        <ele>19.39999961853</ele>
        <time>2021-05-02T09:02:59.000Z</time>
      </trkpt>
      <trkpt lat="47.32538" lon="-2.42246">
        <ele>19.799999237061</ele>
        <time>2021-05-02T09:03:02.000Z</time>
      </trkpt>
      <trkpt lat="47.32535" lon="-2.42241">
        <ele>20.200000762939</ele>
        <time>2021-05-02T09:03:03.000Z</time>
      </trkpt>
      <trkpt lat="47.32533" lon="-2.42236">
        <ele>20.60000038147</ele>
        <time>2021-05-02T09:03:04.000Z</time>
      </trkpt>
      <trkpt lat="47.3253" lon="-2.42231">
        <ele>21</ele>
        <time>2021-05-02T09:03:05.000Z</time>
      </trkpt>
      <trkpt lat="47.32527" lon="-2.42226">
        <ele>21.39999961853</ele>
        <time>2021-05-02T09:03:06.000Z</time>
      </trkpt>
      <trkpt lat="47.32525" lon="-2.42221">
        <ele>21.39999961853</ele>
        <time>2021-05-02T09:03:07.000Z</time>
      </trkpt>
      <trkpt lat="47.32506" lon="-2.42188">
        <ele>21.39999961853</ele>
        <time>2021-05-02T09:03:14.000Z</time>
      </trkpt>
      <trkpt lat="47.32498" lon="-2.4218">
        <ele>21.39999961853</ele>
        <time>2021-05-02T09:03:16.000Z</time>
      </trkpt>
      <trkpt lat="47.32495" lon="-2.42174">
        <ele>21.799999237061</ele>
        <time>2021-05-02T09:03:17.000Z</time>
      </trkpt>
      <trkpt lat="47.32492" lon="-2.42167">
        <ele>22.200000762939</ele>
        <time>2021-05-02T09:03:18.000Z</time>
      </trkpt>
      <trkpt lat="47.3249" lon="-2.42161">
        <ele>22.60000038147</ele>
        <time>2021-05-02T09:03:19.000Z</time>
      </trkpt>
      <trkpt lat="47.32487" lon="-2.42156">
        <ele>23</ele>
        <time>2021-05-02T09:03:20.000Z</time>
      </trkpt>
      <trkpt lat="47.32484" lon="-2.42151">
        <ele>23.39999961853</ele>
        <time>2021-05-02T09:03:21.000Z</time>
      </trkpt>
      <trkpt lat="47.32478" lon="-2.42142">
        <ele>23.39999961853</ele>
        <time>2021-05-02T09:03:23.000Z</time>
      </trkpt>
      <trkpt lat="47.32467" lon="-2.42131">
        <ele>24</ele>
        <time>2021-05-02T09:03:26.000Z</time>
      </trkpt>
      <trkpt lat="47.32462" lon="-2.42128">
        <ele>24.39999961853</ele>
        <time>2021-05-02T09:03:27.000Z</time>
      </trkpt>
      <trkpt lat="47.32458" lon="-2.42126">
        <ele>24.799999237061</ele>
        <time>2021-05-02T09:03:28.000Z</time>
      </trkpt>
      <trkpt lat="47.32453" lon="-2.42122">
        <ele>25.200000762939</ele>
        <time>2021-05-02T09:03:29.000Z</time>
      </trkpt>
      <trkpt lat="47.32449" lon="-2.42118">
        <ele>25.60000038147</ele>
        <time>2021-05-02T09:03:30.000Z</time>
      </trkpt>
      <trkpt lat="47.32425" lon="-2.42093">
        <ele>25.60000038147</ele>
        <time>2021-05-02T09:03:35.000Z</time>
      </trkpt>
      <trkpt lat="47.32391" lon="-2.42056">
        <ele>25.60000038147</ele>
        <time>2021-05-02T09:03:41.000Z</time>
      </trkpt>
      <trkpt lat="47.32348" lon="-2.4201">
        <ele>25.60000038147</ele>
        <time>2021-05-02T09:03:48.000Z</time>
      </trkpt>
      <trkpt lat="47.32342" lon="-2.42005">
        <ele>25.200000762939</ele>
        <time>2021-05-02T09:03:49.000Z</time>
      </trkpt>
      <trkpt lat="47.32335" lon="-2.41999">
        <ele>24.799999237061</ele>
        <time>2021-05-02T09:03:50.000Z</time>
      </trkpt>
      <trkpt lat="47.32329" lon="-2.41994">
        <ele>24.39999961853</ele>
        <time>2021-05-02T09:03:51.000Z</time>
      </trkpt>
      <trkpt lat="47.32323" lon="-2.41988">
        <ele>23.799999237061</ele>
        <time>2021-05-02T09:03:52.000Z</time>
      </trkpt>
      <trkpt lat="47.32317" lon="-2.41983">
        <ele>23.39999961853</ele>
        <time>2021-05-02T09:03:53.000Z</time>
      </trkpt>
      <trkpt lat="47.32296" lon="-2.41962">
        <ele>23</ele>
        <time>2021-05-02T09:03:57.000Z</time>
      </trkpt>
      <trkpt lat="47.32293" lon="-2.41955">
        <ele>22.60000038147</ele>
        <time>2021-05-02T09:03:58.000Z</time>
      </trkpt>
      <trkpt lat="47.32292" lon="-2.41947">
        <ele>22.200000762939</ele>
        <time>2021-05-02T09:03:59.000Z</time>
      </trkpt>
      <trkpt lat="47.3229" lon="-2.4194">
        <ele>21.799999237061</ele>
        <time>2021-05-02T09:04:00.000Z</time>
      </trkpt>
      <trkpt lat="47.32287" lon="-2.41933">
        <ele>21.39999961853</ele>
        <time>2021-05-02T09:04:01.000Z</time>
      </trkpt>
      <trkpt lat="47.32283" lon="-2.41927">
        <ele>21.39999961853</ele>
        <time>2021-05-02T09:04:02.000Z</time>
      </trkpt>
      <trkpt lat="47.32272" lon="-2.41911">
        <ele>21.39999961853</ele>
        <time>2021-05-02T09:04:05.000Z</time>
      </trkpt>
      <trkpt lat="47.32265" lon="-2.41899">
        <ele>21.39999961853</ele>
        <time>2021-05-02T09:04:07.000Z</time>
      </trkpt>
      <trkpt lat="47.32252" lon="-2.41876">
        <ele>21.39999961853</ele>
        <time>2021-05-02T09:04:12.000Z</time>
      </trkpt>
      <trkpt lat="47.32251" lon="-2.41874">
        <ele>21</ele>
        <time>2021-05-02T09:04:13.000Z</time>
      </trkpt>
      <trkpt lat="47.32252" lon="-2.41871">
        <ele>20.60000038147</ele>
        <time>2021-05-02T09:04:14.000Z</time>
      </trkpt>
      <trkpt lat="47.32253" lon="-2.41869">
        <ele>20.200000762939</ele>
        <time>2021-05-02T09:04:15.000Z</time>
      </trkpt>
      <trkpt lat="47.32255" lon="-2.41867">
        <ele>19.60000038147</ele>
        <time>2021-05-02T09:04:16.000Z</time>
      </trkpt>
      <trkpt lat="47.32258" lon="-2.41863">
        <ele>19.200000762939</ele>
        <time>2021-05-02T09:04:17.000Z</time>
      </trkpt>
      <trkpt lat="47.32273" lon="-2.41844">
        <ele>19.200000762939</ele>
        <time>2021-05-02T09:04:21.000Z</time>
      </trkpt>
      <trkpt lat="47.32297" lon="-2.41813">
        <ele>19.200000762939</ele>
        <time>2021-05-02T09:04:27.000Z</time>
      </trkpt>
      <trkpt lat="47.32298" lon="-2.41808">
        <ele>19.200000762939</ele>
        <time>2021-05-02T09:04:28.000Z</time>
      </trkpt>
      <trkpt lat="47.32293" lon="-2.41794">
        <ele>19.200000762939</ele>
        <time>2021-05-02T09:04:31.000Z</time>
      </trkpt>
      <trkpt lat="47.32288" lon="-2.41782">
        <ele>19.200000762939</ele>
        <time>2021-05-02T09:04:33.000Z</time>
      </trkpt>
      <trkpt lat="47.32281" lon="-2.41765">
        <ele>19.200000762939</ele>
        <time>2021-05-02T09:04:36.000Z</time>
      </trkpt>
      <trkpt lat="47.32282" lon="-2.41745">
        <ele>19.200000762939</ele>
        <time>2021-05-02T09:04:39.000Z</time>
      </trkpt>
      <trkpt lat="47.32288" lon="-2.41733">
        <ele>19.799999237061</ele>
        <time>2021-05-02T09:04:41.000Z</time>
      </trkpt>
      <trkpt lat="47.32292" lon="-2.41726">
        <ele>20.200000762939</ele>
        <time>2021-05-02T09:04:42.000Z</time>
      </trkpt>
      <trkpt lat="47.32295" lon="-2.41719">
        <ele>20.60000038147</ele>
        <time>2021-05-02T09:04:43.000Z</time>
      </trkpt>
      <trkpt lat="47.32296" lon="-2.41711">
        <ele>21</ele>
        <time>2021-05-02T09:04:44.000Z</time>
      </trkpt>
      <trkpt lat="47.32297" lon="-2.41703">
        <ele>21.39999961853</ele>
        <time>2021-05-02T09:04:45.000Z</time>
      </trkpt>
      <trkpt lat="47.32298" lon="-2.41688">
        <ele>21.39999961853</ele>
        <time>2021-05-02T09:04:47.000Z</time>
      </trkpt>
      <trkpt lat="47.32298" lon="-2.41681">
        <ele>21.39999961853</ele>
        <time>2021-05-02T09:04:48.000Z</time>
      </trkpt>
      <trkpt lat="47.32299" lon="-2.41648">
        <ele>21.39999961853</ele>
        <time>2021-05-02T09:04:53.000Z</time>
      </trkpt>
      <trkpt lat="47.3231" lon="-2.41618">
        <ele>21.39999961853</ele>
        <time>2021-05-02T09:04:57.000Z</time>
      </trkpt>
      <trkpt lat="47.32312" lon="-2.4161">
        <ele>21.39999961853</ele>
        <time>2021-05-02T09:04:58.000Z</time>
      </trkpt>
      <trkpt lat="47.32321" lon="-2.41575">
        <ele>21.39999961853</ele>
        <time>2021-05-02T09:05:02.000Z</time>
      </trkpt>
      <trkpt lat="47.32324" lon="-2.41568">
        <ele>21.39999961853</ele>
        <time>2021-05-02T09:05:03.000Z</time>
      </trkpt>
      <trkpt lat="47.32337" lon="-2.41551">
        <ele>21.39999961853</ele>
        <time>2021-05-02T09:05:06.000Z</time>
      </trkpt>
      <trkpt lat="47.32361" lon="-2.41545">
        <ele>21.39999961853</ele>
        <time>2021-05-02T09:05:10.000Z</time>
      </trkpt>
      <trkpt lat="47.32385" lon="-2.41554">
        <ele>21.39999961853</ele>
        <time>2021-05-02T09:05:14.000Z</time>
      </trkpt>
      <trkpt lat="47.3239" lon="-2.41557">
        <ele>21.39999961853</ele>
        <time>2021-05-02T09:05:15.000Z</time>
      </trkpt>
      <trkpt lat="47.32407" lon="-2.41565">
        <ele>21.39999961853</ele>
        <time>2021-05-02T09:05:18.000Z</time>
      </trkpt>
      <trkpt lat="47.32419" lon="-2.41566">
        <ele>21.799999237061</ele>
        <time>2021-05-02T09:05:20.000Z</time>
      </trkpt>
      <trkpt lat="47.32425" lon="-2.41565">
        <ele>22.200000762939</ele>
        <time>2021-05-02T09:05:21.000Z</time>
      </trkpt>
      <trkpt lat="47.32431" lon="-2.41565">
        <ele>22.60000038147</ele>
        <time>2021-05-02T09:05:22.000Z</time>
      </trkpt>
      <trkpt lat="47.32437" lon="-2.41566">
        <ele>23</ele>
        <time>2021-05-02T09:05:23.000Z</time>
      </trkpt>
      <trkpt lat="47.32443" lon="-2.41566">
        <ele>23.39999961853</ele>
        <time>2021-05-02T09:05:24.000Z</time>
      </trkpt>
      <trkpt lat="47.32461" lon="-2.41572">
        <ele>23.39999961853</ele>
        <time>2021-05-02T09:05:27.000Z</time>
      </trkpt>
      <trkpt lat="47.325" lon="-2.41587">
        <ele>23.39999961853</ele>
        <time>2021-05-02T09:05:34.000Z</time>
      </trkpt>
      <trkpt lat="47.32512" lon="-2.41588">
        <ele>23.39999961853</ele>
        <time>2021-05-02T09:05:36.000Z</time>
      </trkpt>
      <trkpt lat="47.32524" lon="-2.41584">
        <ele>23.39999961853</ele>
        <time>2021-05-02T09:05:38.000Z</time>
      </trkpt>
      <trkpt lat="47.32551" lon="-2.41578">
        <ele>23.39999961853</ele>
        <time>2021-05-02T09:05:43.000Z</time>
      </trkpt>
      <trkpt lat="47.32556" lon="-2.41579">
        <ele>23.39999961853</ele>
        <time>2021-05-02T09:05:44.000Z</time>
      </trkpt>
      <trkpt lat="47.32571" lon="-2.41592">
        <ele>23.39999961853</ele>
        <time>2021-05-02T09:05:47.000Z</time>
      </trkpt>
      <trkpt lat="47.32591" lon="-2.41607">
        <ele>23.39999961853</ele>
        <time>2021-05-02T09:05:51.000Z</time>
      </trkpt>
      <trkpt lat="47.32597" lon="-2.41607">
        <ele>23.39999961853</ele>
        <time>2021-05-02T09:05:52.000Z</time>
      </trkpt>
      <trkpt lat="47.32619" lon="-2.41603">
        <ele>23.39999961853</ele>
        <time>2021-05-02T09:05:56.000Z</time>
      </trkpt>
      <trkpt lat="47.32642" lon="-2.41613">
        <ele>23.39999961853</ele>
        <time>2021-05-02T09:06:00.000Z</time>
      </trkpt>
      <trkpt lat="47.32648" lon="-2.41615">
        <ele>23.39999961853</ele>
        <time>2021-05-02T09:06:01.000Z</time>
      </trkpt>
      <trkpt lat="47.32674" lon="-2.41623">
        <ele>23.39999961853</ele>
        <time>2021-05-02T09:06:05.000Z</time>
      </trkpt>
      <trkpt lat="47.32686" lon="-2.41626">
        <ele>23</ele>
        <time>2021-05-02T09:06:07.000Z</time>
      </trkpt>
      <trkpt lat="47.32692" lon="-2.41626">
        <ele>22</ele>
        <time>2021-05-02T09:06:08.000Z</time>
      </trkpt>
      <trkpt lat="47.32698" lon="-2.41626">
        <ele>21.60000038147</ele>
        <time>2021-05-02T09:06:09.000Z</time>
      </trkpt>
      <trkpt lat="47.32703" lon="-2.41626">
        <ele>21.200000762939</ele>
        <time>2021-05-02T09:06:10.000Z</time>
      </trkpt>
      <trkpt lat="47.32708" lon="-2.41626">
        <ele>21.200000762939</ele>
        <time>2021-05-02T09:06:11.000Z</time>
      </trkpt>
      <trkpt lat="47.32713" lon="-2.41628">
        <ele>20.60000038147</ele>
        <time>2021-05-02T09:06:13.000Z</time>
      </trkpt>
      <trkpt lat="47.32715" lon="-2.41627">
        <ele>20.200000762939</ele>
        <time>2021-05-02T09:06:14.000Z</time>
      </trkpt>
      <trkpt lat="47.32717" lon="-2.41624">
        <ele>19.60000038147</ele>
        <time>2021-05-02T09:06:15.000Z</time>
      </trkpt>
      <trkpt lat="47.32717" lon="-2.4162">
        <ele>19.200000762939</ele>
        <time>2021-05-02T09:06:16.000Z</time>
      </trkpt>
      <trkpt lat="47.32716" lon="-2.41616">
        <ele>18.799999237061</ele>
        <time>2021-05-02T09:06:17.000Z</time>
      </trkpt>
      <trkpt lat="47.32711" lon="-2.41608">
        <ele>18.799999237061</ele>
        <time>2021-05-02T09:06:19.000Z</time>
      </trkpt>
      <trkpt lat="47.32704" lon="-2.41579">
        <ele>18.799999237061</ele>
        <time>2021-05-02T09:06:25.000Z</time>
      </trkpt>
      <trkpt lat="47.32703" lon="-2.41577">
        <ele>18.799999237061</ele>
        <time>2021-05-02T09:06:26.000Z</time>
      </trkpt>
      <trkpt lat="47.327" lon="-2.41573">
        <ele>18.799999237061</ele>
        <time>2021-05-02T09:06:28.000Z</time>
      </trkpt>
      <trkpt lat="47.32701" lon="-2.41558">
        <ele>18.799999237061</ele>
        <time>2021-05-02T09:06:31.000Z</time>
      </trkpt>
      <trkpt lat="47.327" lon="-2.41543">
        <ele>18.799999237061</ele>
        <time>2021-05-02T09:06:34.000Z</time>
      </trkpt>
      <trkpt lat="47.32697" lon="-2.4154">
        <ele>18.799999237061</ele>
        <time>2021-05-02T09:06:35.000Z</time>
      </trkpt>
      <trkpt lat="47.32687" lon="-2.41537">
        <ele>18.799999237061</ele>
        <time>2021-05-02T09:06:38.000Z</time>
      </trkpt>
      <trkpt lat="47.32681" lon="-2.41535">
        <ele>18.799999237061</ele>
        <time>2021-05-02T09:06:40.000Z</time>
      </trkpt>
      <trkpt lat="47.32664" lon="-2.41533">
        <ele>18.799999237061</ele>
        <time>2021-05-02T09:06:46.000Z</time>
      </trkpt>
      <trkpt lat="47.32648" lon="-2.41531">
        <ele>18.799999237061</ele>
        <time>2021-05-02T09:06:51.000Z</time>
      </trkpt>
      <trkpt lat="47.32644" lon="-2.41529">
        <ele>18.799999237061</ele>
        <time>2021-05-02T09:06:52.000Z</time>
      </trkpt>
      <trkpt lat="47.3263" lon="-2.41525">
        <ele>18.799999237061</ele>
        <time>2021-05-02T09:06:55.000Z</time>
      </trkpt>
      <trkpt lat="47.32625" lon="-2.41524">
        <ele>18.799999237061</ele>
        <time>2021-05-02T09:06:56.000Z</time>
      </trkpt>
      <trkpt lat="47.3262" lon="-2.41523">
        <ele>19.60000038147</ele>
        <time>2021-05-02T09:06:57.000Z</time>
      </trkpt>
      <trkpt lat="47.32615" lon="-2.41522">
        <ele>20</ele>
        <time>2021-05-02T09:06:58.000Z</time>
      </trkpt>
      <trkpt lat="47.3261" lon="-2.41522">
        <ele>20.39999961853</ele>
        <time>2021-05-02T09:06:59.000Z</time>
      </trkpt>
      <trkpt lat="47.32605" lon="-2.41521">
        <ele>20.799999237061</ele>
        <time>2021-05-02T09:07:00.000Z</time>
      </trkpt>
      <trkpt lat="47.32581" lon="-2.41516">
        <ele>20.799999237061</ele>
        <time>2021-05-02T09:07:05.000Z</time>
      </trkpt>
      <trkpt lat="47.32577" lon="-2.41514">
        <ele>20.799999237061</ele>
        <time>2021-05-02T09:07:06.000Z</time>
      </trkpt>
      <trkpt lat="47.32571" lon="-2.41502">
        <ele>20.799999237061</ele>
        <time>2021-05-02T09:07:08.000Z</time>
      </trkpt>
      <trkpt lat="47.32567" lon="-2.41476">
        <ele>20.799999237061</ele>
        <time>2021-05-02T09:07:12.000Z</time>
      </trkpt>
      <trkpt lat="47.32567" lon="-2.4147">
        <ele>20.799999237061</ele>
        <time>2021-05-02T09:07:13.000Z</time>
      </trkpt>
      <trkpt lat="47.32565" lon="-2.41457">
        <ele>20.799999237061</ele>
        <time>2021-05-02T09:07:15.000Z</time>
      </trkpt>
      <trkpt lat="47.32557" lon="-2.41444">
        <ele>20.799999237061</ele>
        <time>2021-05-02T09:07:18.000Z</time>
      </trkpt>
      <trkpt lat="47.32552" lon="-2.41434">
        <ele>20.799999237061</ele>
        <time>2021-05-02T09:07:20.000Z</time>
      </trkpt>
      <trkpt lat="47.3254" lon="-2.41408">
        <ele>20.799999237061</ele>
        <time>2021-05-02T09:07:25.000Z</time>
      </trkpt>
      <trkpt lat="47.32528" lon="-2.41387">
        <ele>21.200000762939</ele>
        <time>2021-05-02T09:07:29.000Z</time>
      </trkpt>
      <trkpt lat="47.32525" lon="-2.4138">
        <ele>21.799999237061</ele>
        <time>2021-05-02T09:07:30.000Z</time>
      </trkpt>
      <trkpt lat="47.32522" lon="-2.41375">
        <ele>22.200000762939</ele>
        <time>2021-05-02T09:07:31.000Z</time>
      </trkpt>
      <trkpt lat="47.3252" lon="-2.41369">
        <ele>22.60000038147</ele>
        <time>2021-05-02T09:07:32.000Z</time>
      </trkpt>
      <trkpt lat="47.32517" lon="-2.41363">
        <ele>23</ele>
        <time>2021-05-02T09:07:33.000Z</time>
      </trkpt>
      <trkpt lat="47.32489" lon="-2.4131">
        <ele>23</ele>
        <time>2021-05-02T09:07:42.000Z</time>
      </trkpt>
      <trkpt lat="47.32466" lon="-2.41269">
        <ele>23</ele>
        <time>2021-05-02T09:07:49.000Z</time>
      </trkpt>
      <trkpt lat="47.32464" lon="-2.41264">
        <ele>23</ele>
        <time>2021-05-02T09:07:50.000Z</time>
      </trkpt>
      <trkpt lat="47.32456" lon="-2.41248">
        <ele>23</ele>
        <time>2021-05-02T09:07:53.000Z</time>
      </trkpt>
      <trkpt lat="47.32453" lon="-2.41242">
        <ele>23</ele>
        <time>2021-05-02T09:07:54.000Z</time>
      </trkpt>
      <trkpt lat="47.32434" lon="-2.41205">
        <ele>23</ele>
        <time>2021-05-02T09:08:02.000Z</time>
      </trkpt>
      <trkpt lat="47.32421" lon="-2.41185">
        <ele>23</ele>
        <time>2021-05-02T09:08:07.000Z</time>
      </trkpt>
      <trkpt lat="47.32405" lon="-2.41152">
        <ele>23</ele>
        <time>2021-05-02T09:08:14.000Z</time>
      </trkpt>
      <trkpt lat="47.32389" lon="-2.4112">
        <ele>23</ele>
        <time>2021-05-02T09:08:20.000Z</time>
      </trkpt>
      <trkpt lat="47.32373" lon="-2.4109">
        <ele>23</ele>
        <time>2021-05-02T09:08:26.000Z</time>
      </trkpt>
      <trkpt lat="47.32366" lon="-2.41076">
        <ele>23</ele>
        <time>2021-05-02T09:08:30.000Z</time>
      </trkpt>
      <trkpt lat="47.32364" lon="-2.41074">
        <ele>23</ele>
        <time>2021-05-02T09:08:31.000Z</time>
      </trkpt>
      <trkpt lat="47.32357" lon="-2.41062">
        <ele>23</ele>
        <time>2021-05-02T09:08:34.000Z</time>
      </trkpt>
      <trkpt lat="47.32352" lon="-2.41053">
        <ele>23</ele>
        <time>2021-05-02T09:08:36.000Z</time>
      </trkpt>
      <trkpt lat="47.32334" lon="-2.41018">
        <ele>23</ele>
        <time>2021-05-02T09:08:44.000Z</time>
      </trkpt>
      <trkpt lat="47.32312" lon="-2.40977">
        <ele>23</ele>
        <time>2021-05-02T09:08:52.000Z</time>
      </trkpt>
      <trkpt lat="47.32287" lon="-2.4093">
        <ele>23</ele>
        <time>2021-05-02T09:09:00.000Z</time>
      </trkpt>
      <trkpt lat="47.32259" lon="-2.40881">
        <ele>23</ele>
        <time>2021-05-02T09:09:09.000Z</time>
      </trkpt>
      <trkpt lat="47.3223" lon="-2.40832">
        <ele>23</ele>
        <time>2021-05-02T09:09:19.000Z</time>
      </trkpt>
      <trkpt lat="47.32219" lon="-2.40815">
        <ele>23</ele>
        <time>2021-05-02T09:09:24.000Z</time>
      </trkpt>
      <trkpt lat="47.3221" lon="-2.408">
        <ele>23</ele>
        <time>2021-05-02T09:09:28.000Z</time>
      </trkpt>
      <trkpt lat="47.32205" lon="-2.40792">
        <ele>23</ele>
        <time>2021-05-02T09:09:30.000Z</time>
      </trkpt>
      <trkpt lat="47.32201" lon="-2.4079">
        <ele>22.60000038147</ele>
        <time>2021-05-02T09:09:31.000Z</time>
      </trkpt>
      <trkpt lat="47.32198" lon="-2.40786">
        <ele>22.200000762939</ele>
        <time>2021-05-02T09:09:32.000Z</time>
      </trkpt>
      <trkpt lat="47.32194" lon="-2.40781">
        <ele>21.799999237061</ele>
        <time>2021-05-02T09:09:33.000Z</time>
      </trkpt>
      <trkpt lat="47.32191" lon="-2.40777">
        <ele>21.39999961853</ele>
        <time>2021-05-02T09:09:34.000Z</time>
      </trkpt>
      <trkpt lat="47.32186" lon="-2.40772">
        <ele>21</ele>
        <time>2021-05-02T09:09:35.000Z</time>
      </trkpt>
      <trkpt lat="47.32175" lon="-2.40756">
        <ele>21</ele>
        <time>2021-05-02T09:09:38.000Z</time>
      </trkpt>
      <trkpt lat="47.3214" lon="-2.40712">
        <ele>21</ele>
        <time>2021-05-02T09:09:46.000Z</time>
      </trkpt>
      <trkpt lat="47.32111" lon="-2.40679">
        <ele>21</ele>
        <time>2021-05-02T09:09:52.000Z</time>
      </trkpt>
      <trkpt lat="47.3207" lon="-2.40637">
        <ele>21</ele>
        <time>2021-05-02T09:10:00.000Z</time>
      </trkpt>
      <trkpt lat="47.32027" lon="-2.40599">
        <ele>21</ele>
        <time>2021-05-02T09:10:08.000Z</time>
      </trkpt>
      <trkpt lat="47.31998" lon="-2.40574">
        <ele>21</ele>
        <time>2021-05-02T09:10:13.000Z</time>
      </trkpt>
      <trkpt lat="47.31957" lon="-2.40543">
        <ele>21</ele>
        <time>2021-05-02T09:10:20.000Z</time>
      </trkpt>
      <trkpt lat="47.31951" lon="-2.40539">
        <ele>20.60000038147</ele>
        <time>2021-05-02T09:10:21.000Z</time>
      </trkpt>
      <trkpt lat="47.31944" lon="-2.40535">
        <ele>20.200000762939</ele>
        <time>2021-05-02T09:10:22.000Z</time>
      </trkpt>
      <trkpt lat="47.31938" lon="-2.4053">
        <ele>19.799999237061</ele>
        <time>2021-05-02T09:10:23.000Z</time>
      </trkpt>
      <trkpt lat="47.31932" lon="-2.40524">
        <ele>19.200000762939</ele>
        <time>2021-05-02T09:10:24.000Z</time>
      </trkpt>
      <trkpt lat="47.31925" lon="-2.40519">
        <ele>18.799999237061</ele>
        <time>2021-05-02T09:10:25.000Z</time>
      </trkpt>
      <trkpt lat="47.31919" lon="-2.40514">
        <ele>18.799999237061</ele>
        <time>2021-05-02T09:10:26.000Z</time>
      </trkpt>
      <trkpt lat="47.31865" lon="-2.40473">
        <ele>18.799999237061</ele>
        <time>2021-05-02T09:10:34.000Z</time>
      </trkpt>
      <trkpt lat="47.3181" lon="-2.40431">
        <ele>18.799999237061</ele>
        <time>2021-05-02T09:10:42.000Z</time>
      </trkpt>
      <trkpt lat="47.31796" lon="-2.40419">
        <ele>18.39999961853</ele>
        <time>2021-05-02T09:10:44.000Z</time>
      </trkpt>
      <trkpt lat="47.31789" lon="-2.40414">
        <ele>18</ele>
        <time>2021-05-02T09:10:45.000Z</time>
      </trkpt>
      <trkpt lat="47.31781" lon="-2.40409">
        <ele>17.60000038147</ele>
        <time>2021-05-02T09:10:46.000Z</time>
      </trkpt>
      <trkpt lat="47.31775" lon="-2.40403">
        <ele>17.200000762939</ele>
        <time>2021-05-02T09:10:47.000Z</time>
      </trkpt>
      <trkpt lat="47.31768" lon="-2.40398">
        <ele>16.799999237061</ele>
        <time>2021-05-02T09:10:48.000Z</time>
      </trkpt>
      <trkpt lat="47.31762" lon="-2.40393">
        <ele>16.799999237061</ele>
        <time>2021-05-02T09:10:49.000Z</time>
      </trkpt>
      <trkpt lat="47.31719" lon="-2.40362">
        <ele>16.799999237061</ele>
        <time>2021-05-02T09:10:55.000Z</time>
      </trkpt>
      <trkpt lat="47.31684" lon="-2.40337">
        <ele>16.799999237061</ele>
        <time>2021-05-02T09:11:00.000Z</time>
      </trkpt>
      <trkpt lat="47.31678" lon="-2.40331">
        <ele>16.39999961853</ele>
        <time>2021-05-02T09:11:01.000Z</time>
      </trkpt>
      <trkpt lat="47.31672" lon="-2.40322">
        <ele>16</ele>
        <time>2021-05-02T09:11:02.000Z</time>
      </trkpt>
      <trkpt lat="47.31665" lon="-2.40316">
        <ele>15.60000038147</ele>
        <time>2021-05-02T09:11:03.000Z</time>
      </trkpt>
      <trkpt lat="47.31659" lon="-2.40311">
        <ele>15.199999809265</ele>
        <time>2021-05-02T09:11:04.000Z</time>
      </trkpt>
      <trkpt lat="47.31653" lon="-2.40306">
        <ele>14.60000038147</ele>
        <time>2021-05-02T09:11:05.000Z</time>
      </trkpt>
      <trkpt lat="47.31623" lon="-2.40282">
        <ele>14.199999809265</ele>
        <time>2021-05-02T09:11:10.000Z</time>
      </trkpt>
      <trkpt lat="47.31617" lon="-2.40277">
        <ele>13.800000190735</ele>
        <time>2021-05-02T09:11:11.000Z</time>
      </trkpt>
      <trkpt lat="47.3161" lon="-2.40272">
        <ele>13.39999961853</ele>
        <time>2021-05-02T09:11:12.000Z</time>
      </trkpt>
      <trkpt lat="47.31604" lon="-2.40267">
        <ele>13</ele>
        <time>2021-05-02T09:11:13.000Z</time>
      </trkpt>
      <trkpt lat="47.31597" lon="-2.40262">
        <ele>12.60000038147</ele>
        <time>2021-05-02T09:11:14.000Z</time>
      </trkpt>
      <trkpt lat="47.31569" lon="-2.4024">
        <ele>12.199999809265</ele>
        <time>2021-05-02T09:11:19.000Z</time>
      </trkpt>
      <trkpt lat="47.31564" lon="-2.40236">
        <ele>11.800000190735</ele>
        <time>2021-05-02T09:11:20.000Z</time>
      </trkpt>
      <trkpt lat="47.31558" lon="-2.40232">
        <ele>11.39999961853</ele>
        <time>2021-05-02T09:11:21.000Z</time>
      </trkpt>
      <trkpt lat="47.31553" lon="-2.40229">
        <ele>11</ele>
        <time>2021-05-02T09:11:22.000Z</time>
      </trkpt>
      <trkpt lat="47.31548" lon="-2.40226">
        <ele>10.60000038147</ele>
        <time>2021-05-02T09:11:23.000Z</time>
      </trkpt>
      <trkpt lat="47.31542" lon="-2.40223">
        <ele>10.60000038147</ele>
        <time>2021-05-02T09:11:24.000Z</time>
      </trkpt>
      <trkpt lat="47.31506" lon="-2.402">
        <ele>10.60000038147</ele>
        <time>2021-05-02T09:11:31.000Z</time>
      </trkpt>
      <trkpt lat="47.31483" lon="-2.40183">
        <ele>10</ele>
        <time>2021-05-02T09:11:35.000Z</time>
      </trkpt>
      <trkpt lat="47.31479" lon="-2.40178">
        <ele>9.6000003814697</ele>
        <time>2021-05-02T09:11:36.000Z</time>
      </trkpt>
      <trkpt lat="47.31473" lon="-2.40174">
        <ele>9.1999998092651</ele>
        <time>2021-05-02T09:11:37.000Z</time>
      </trkpt>
      <trkpt lat="47.31468" lon="-2.40169">
        <ele>8.8000001907349</ele>
        <time>2021-05-02T09:11:38.000Z</time>
      </trkpt>
      <trkpt lat="47.31462" lon="-2.40165">
        <ele>8.3999996185303</ele>
        <time>2021-05-02T09:11:39.000Z</time>
      </trkpt>
      <trkpt lat="47.31432" lon="-2.4014">
        <ele>8.3999996185303</ele>
        <time>2021-05-02T09:11:44.000Z</time>
      </trkpt>
      <trkpt lat="47.31416" lon="-2.40128">
        <ele>8</ele>
        <time>2021-05-02T09:11:47.000Z</time>
      </trkpt>
      <trkpt lat="47.31411" lon="-2.40125">
        <ele>7.5999999046326</ele>
        <time>2021-05-02T09:11:48.000Z</time>
      </trkpt>
      <trkpt lat="47.31406" lon="-2.40122">
        <ele>7.1999998092651</ele>
        <time>2021-05-02T09:11:49.000Z</time>
      </trkpt>
      <trkpt lat="47.314" lon="-2.40119">
        <ele>6.8000001907349</ele>
        <time>2021-05-02T09:11:50.000Z</time>
      </trkpt>
      <trkpt lat="47.31395" lon="-2.40115">
        <ele>6.4000000953674</ele>
        <time>2021-05-02T09:11:51.000Z</time>
      </trkpt>
      <trkpt lat="47.31356" lon="-2.40092">
        <ele>6.4000000953674</ele>
        <time>2021-05-02T09:11:58.000Z</time>
      </trkpt>
      <trkpt lat="47.31324" lon="-2.40077">
        <ele>6.4000000953674</ele>
        <time>2021-05-02T09:12:04.000Z</time>
      </trkpt>
      <trkpt lat="47.31313" lon="-2.40073">
        <ele>5.8000001907349</ele>
        <time>2021-05-02T09:12:06.000Z</time>
      </trkpt>
      <trkpt lat="47.31308" lon="-2.40071">
        <ele>5.4000000953674</ele>
        <time>2021-05-02T09:12:07.000Z</time>
      </trkpt>
      <trkpt lat="47.31303" lon="-2.4007">
        <ele>5</ele>
        <time>2021-05-02T09:12:08.000Z</time>
      </trkpt>
      <trkpt lat="47.313" lon="-2.40068">
        <ele>4.5999999046326</ele>
        <time>2021-05-02T09:12:09.000Z</time>
      </trkpt>
      <trkpt lat="47.31296" lon="-2.40067">
        <ele>4.1999998092651</ele>
        <time>2021-05-02T09:12:10.000Z</time>
      </trkpt>
      <trkpt lat="47.31285" lon="-2.40064">
        <ele>4.1999998092651</ele>
        <time>2021-05-02T09:12:14.000Z</time>
      </trkpt>
      <trkpt lat="47.31268" lon="-2.40062">
        <ele>4.1999998092651</ele>
        <time>2021-05-02T09:12:18.000Z</time>
      </trkpt>
      <trkpt lat="47.31263" lon="-2.4006">
        <ele>4.1999998092651</ele>
        <time>2021-05-02T09:12:19.000Z</time>
      </trkpt>
      <trkpt lat="47.31251" lon="-2.40051">
        <ele>4.1999998092651</ele>
        <time>2021-05-02T09:12:23.000Z</time>
      </trkpt>
      <trkpt lat="47.31245" lon="-2.40046">
        <ele>4.1999998092651</ele>
        <time>2021-05-02T09:12:26.000Z</time>
      </trkpt>
      <trkpt lat="47.31239" lon="-2.40043">
        <ele>4.1999998092651</ele>
        <time>2021-05-02T09:12:28.000Z</time>
      </trkpt>
      <trkpt lat="47.31235" lon="-2.40029">
        <ele>4.1999998092651</ele>
        <time>2021-05-02T09:12:31.000Z</time>
      </trkpt>
      <trkpt lat="47.31232" lon="-2.40019">
        <ele>4.1999998092651</ele>
        <time>2021-05-02T09:12:33.000Z</time>
      </trkpt>
      <trkpt lat="47.31229" lon="-2.40007">
        <ele>4.1999998092651</ele>
        <time>2021-05-02T09:12:36.000Z</time>
      </trkpt>
      <trkpt lat="47.3122" lon="-2.39984">
        <ele>4.1999998092651</ele>
        <time>2021-05-02T09:12:43.000Z</time>
      </trkpt>
      <trkpt lat="47.31215" lon="-2.39965">
        <ele>4.1999998092651</ele>
        <time>2021-05-02T09:12:49.000Z</time>
      </trkpt>
      <trkpt lat="47.31214" lon="-2.39962">
        <ele>4.5999999046326</ele>
        <time>2021-05-02T09:12:50.000Z</time>
      </trkpt>
      <trkpt lat="47.31212" lon="-2.39958">
        <ele>5</ele>
        <time>2021-05-02T09:12:51.000Z</time>
      </trkpt>
      <trkpt lat="47.31211" lon="-2.39954">
        <ele>5.5999999046326</ele>
        <time>2021-05-02T09:12:52.000Z</time>
      </trkpt>
      <trkpt lat="47.3121" lon="-2.3995">
        <ele>6</ele>
        <time>2021-05-02T09:12:53.000Z</time>
      </trkpt>
      <trkpt lat="47.31208" lon="-2.39947">
        <ele>6.4000000953674</ele>
        <time>2021-05-02T09:12:54.000Z</time>
      </trkpt>
      <trkpt lat="47.31205" lon="-2.39939">
        <ele>6.4000000953674</ele>
        <time>2021-05-02T09:12:56.000Z</time>
      </trkpt>
      <trkpt lat="47.31199" lon="-2.39921">
        <ele>6.4000000953674</ele>
        <time>2021-05-02T09:13:02.000Z</time>
      </trkpt>
      <trkpt lat="47.31195" lon="-2.39909">
        <ele>6.8000001907349</ele>
        <time>2021-05-02T09:13:06.000Z</time>
      </trkpt>
      <trkpt lat="47.31194" lon="-2.39906">
        <ele>7.1999998092651</ele>
        <time>2021-05-02T09:13:07.000Z</time>
      </trkpt>
      <trkpt lat="47.31193" lon="-2.39903">
        <ele>7.5999999046326</ele>
        <time>2021-05-02T09:13:08.000Z</time>
      </trkpt>
      <trkpt lat="47.31192" lon="-2.39899">
        <ele>8</ele>
        <time>2021-05-02T09:13:09.000Z</time>
      </trkpt>
      <trkpt lat="47.3119" lon="-2.39895">
        <ele>8.3999996185303</ele>
        <time>2021-05-02T09:13:10.000Z</time>
      </trkpt>
      <trkpt lat="47.31189" lon="-2.39891">
        <ele>8.3999996185303</ele>
        <time>2021-05-02T09:13:13.000Z</time>
      </trkpt>
      <trkpt lat="47.31186" lon="-2.3988">
        <ele>10.39999961853</ele>
        <time>2021-05-02T09:13:27.000Z</time>
      </trkpt>
      <trkpt lat="47.31182" lon="-2.39872">
        <ele>10.39999961853</ele>
        <time>2021-05-02T09:13:29.000Z</time>
      </trkpt>
      <trkpt lat="47.3118" lon="-2.39865">
        <ele>10.39999961853</ele>
        <time>2021-05-02T09:13:30.000Z</time>
      </trkpt>
      <trkpt lat="47.31177" lon="-2.39852">
        <ele>10.39999961853</ele>
        <time>2021-05-02T09:13:32.000Z</time>
      </trkpt>
      <trkpt lat="47.31168" lon="-2.39825">
        <ele>10.39999961853</ele>
        <time>2021-05-02T09:13:37.000Z</time>
      </trkpt>
      <trkpt lat="47.31162" lon="-2.39814">
        <ele>10.39999961853</ele>
        <time>2021-05-02T09:13:39.000Z</time>
      </trkpt>
      <trkpt lat="47.3116" lon="-2.39809">
        <ele>10.39999961853</ele>
        <time>2021-05-02T09:13:40.000Z</time>
      </trkpt>
      <trkpt lat="47.3115" lon="-2.39785">
        <ele>10.39999961853</ele>
        <time>2021-05-02T09:13:44.000Z</time>
      </trkpt>
      <trkpt lat="47.31131" lon="-2.39732">
        <ele>10.39999961853</ele>
        <time>2021-05-02T09:13:53.000Z</time>
      </trkpt>
      <trkpt lat="47.31119" lon="-2.39696">
        <ele>10.39999961853</ele>
        <time>2021-05-02T09:13:59.000Z</time>
      </trkpt>
      <trkpt lat="47.31107" lon="-2.39663">
        <ele>10.800000190735</ele>
        <time>2021-05-02T09:14:05.000Z</time>
      </trkpt>
      <trkpt lat="47.31105" lon="-2.39658">
        <ele>11.199999809265</ele>
        <time>2021-05-02T09:14:06.000Z</time>
      </trkpt>
      <trkpt lat="47.31104" lon="-2.39653">
        <ele>11.800000190735</ele>
        <time>2021-05-02T09:14:07.000Z</time>
      </trkpt>
      <trkpt lat="47.31102" lon="-2.39649">
        <ele>12.199999809265</ele>
        <time>2021-05-02T09:14:08.000Z</time>
      </trkpt>
      <trkpt lat="47.31101" lon="-2.39644">
        <ele>12.60000038147</ele>
        <time>2021-05-02T09:14:09.000Z</time>
      </trkpt>
      <trkpt lat="47.31095" lon="-2.39631">
        <ele>12.60000038147</ele>
        <time>2021-05-02T09:14:13.000Z</time>
      </trkpt>
      <trkpt lat="47.31089" lon="-2.39615">
        <ele>12.60000038147</ele>
        <time>2021-05-02T09:14:20.000Z</time>
      </trkpt>
      <trkpt lat="47.3109" lon="-2.39615">
        <ele>12.60000038147</ele>
        <time>2021-05-02T09:14:21.000Z</time>
      </trkpt>
      <trkpt lat="47.31089" lon="-2.39613">
        <ele>12.60000038147</ele>
        <time>2021-05-02T09:14:44.000Z</time>
      </trkpt>
      <trkpt lat="47.31087" lon="-2.39605">
        <ele>12.60000038147</ele>
        <time>2021-05-02T09:14:47.000Z</time>
      </trkpt>
      <trkpt lat="47.31082" lon="-2.39593">
        <ele>12.60000038147</ele>
        <time>2021-05-02T09:14:50.000Z</time>
      </trkpt>
      <trkpt lat="47.31079" lon="-2.39583">
        <ele>12.60000038147</ele>
        <time>2021-05-02T09:14:52.000Z</time>
      </trkpt>
      <trkpt lat="47.31064" lon="-2.39538">
        <ele>12.60000038147</ele>
        <time>2021-05-02T09:14:59.000Z</time>
      </trkpt>
      <trkpt lat="47.31044" lon="-2.39474">
        <ele>12.60000038147</ele>
        <time>2021-05-02T09:15:07.000Z</time>
      </trkpt>
      <trkpt lat="47.31049" lon="-2.39452">
        <ele>12.60000038147</ele>
        <time>2021-05-02T09:15:10.000Z</time>
      </trkpt>
      <trkpt lat="47.31068" lon="-2.39428">
        <ele>12.60000038147</ele>
        <time>2021-05-02T09:15:14.000Z</time>
      </trkpt>
      <trkpt lat="47.31106" lon="-2.39382">
        <ele>12.60000038147</ele>
        <time>2021-05-02T09:15:21.000Z</time>
      </trkpt>
      <trkpt lat="47.31143" lon="-2.39341">
        <ele>12.60000038147</ele>
        <time>2021-05-02T09:15:28.000Z</time>
      </trkpt>
      <trkpt lat="47.31178" lon="-2.39316">
        <ele>12.60000038147</ele>
        <time>2021-05-02T09:15:34.000Z</time>
      </trkpt>
      <trkpt lat="47.31212" lon="-2.39293">
        <ele>12.60000038147</ele>
        <time>2021-05-02T09:15:40.000Z</time>
      </trkpt>
      <trkpt lat="47.31228" lon="-2.39279">
        <ele>13</ele>
        <time>2021-05-02T09:15:43.000Z</time>
      </trkpt>
      <trkpt lat="47.31233" lon="-2.39274">
        <ele>13.39999961853</ele>
        <time>2021-05-02T09:15:44.000Z</time>
      </trkpt>
      <trkpt lat="47.31238" lon="-2.39269">
        <ele>13.800000190735</ele>
        <time>2021-05-02T09:15:45.000Z</time>
      </trkpt>
      <trkpt lat="47.31242" lon="-2.39263">
        <ele>14.199999809265</ele>
        <time>2021-05-02T09:15:46.000Z</time>
      </trkpt>
      <trkpt lat="47.31246" lon="-2.39257">
        <ele>14.60000038147</ele>
        <time>2021-05-02T09:15:47.000Z</time>
      </trkpt>
      <trkpt lat="47.31258" lon="-2.39238">
        <ele>15</ele>
        <time>2021-05-02T09:15:50.000Z</time>
      </trkpt>
      <trkpt lat="47.31261" lon="-2.39232">
        <ele>15.39999961853</ele>
        <time>2021-05-02T09:15:51.000Z</time>
      </trkpt>
      <trkpt lat="47.31265" lon="-2.39226">
        <ele>15.800000190735</ele>
        <time>2021-05-02T09:15:52.000Z</time>
      </trkpt>
      <trkpt lat="47.31269" lon="-2.3922">
        <ele>16.200000762939</ele>
        <time>2021-05-02T09:15:53.000Z</time>
      </trkpt>
      <trkpt lat="47.31273" lon="-2.39213">
        <ele>16.60000038147</ele>
        <time>2021-05-02T09:15:54.000Z</time>
      </trkpt>
      <trkpt lat="47.31293" lon="-2.3919">
        <ele>16.60000038147</ele>
        <time>2021-05-02T09:15:58.000Z</time>
      </trkpt>
      <trkpt lat="47.31333" lon="-2.39147">
        <ele>16.60000038147</ele>
        <time>2021-05-02T09:16:06.000Z</time>
      </trkpt>
      <trkpt lat="47.31367" lon="-2.39111">
        <ele>16.60000038147</ele>
        <time>2021-05-02T09:16:13.000Z</time>
      </trkpt>
      <trkpt lat="47.31398" lon="-2.39076">
        <ele>16.60000038147</ele>
        <time>2021-05-02T09:16:19.000Z</time>
      </trkpt>
      <trkpt lat="47.31429" lon="-2.39021">
        <ele>16.60000038147</ele>
        <time>2021-05-02T09:16:26.000Z</time>
      </trkpt>
      <trkpt lat="47.31449" lon="-2.38969">
        <ele>16.60000038147</ele>
        <time>2021-05-02T09:16:32.000Z</time>
      </trkpt>
      <trkpt lat="47.31478" lon="-2.38911">
        <ele>16.60000038147</ele>
        <time>2021-05-02T09:16:39.000Z</time>
      </trkpt>
      <trkpt lat="47.31483" lon="-2.38903">
        <ele>16.200000762939</ele>
        <time>2021-05-02T09:16:40.000Z</time>
      </trkpt>
      <trkpt lat="47.31487" lon="-2.38896">
        <ele>15.800000190735</ele>
        <time>2021-05-02T09:16:41.000Z</time>
      </trkpt>
      <trkpt lat="47.31492" lon="-2.38888">
        <ele>15.39999961853</ele>
        <time>2021-05-02T09:16:42.000Z</time>
      </trkpt>
      <trkpt lat="47.31496" lon="-2.3888">
        <ele>15</ele>
        <time>2021-05-02T09:16:43.000Z</time>
      </trkpt>
      <trkpt lat="47.315" lon="-2.38872">
        <ele>14.39999961853</ele>
        <time>2021-05-02T09:16:44.000Z</time>
      </trkpt>
      <trkpt lat="47.31509" lon="-2.38855">
        <ele>14.39999961853</ele>
        <time>2021-05-02T09:16:46.000Z</time>
      </trkpt>
      <trkpt lat="47.31528" lon="-2.38814">
        <ele>14.39999961853</ele>
        <time>2021-05-02T09:16:51.000Z</time>
      </trkpt>
      <trkpt lat="47.31537" lon="-2.38799">
        <ele>14.39999961853</ele>
        <time>2021-05-02T09:16:53.000Z</time>
      </trkpt>
      <trkpt lat="47.31575" lon="-2.3874">
        <ele>14.39999961853</ele>
        <time>2021-05-02T09:17:01.000Z</time>
      </trkpt>
      <trkpt lat="47.31593" lon="-2.38712">
        <ele>14</ele>
        <time>2021-05-02T09:17:05.000Z</time>
      </trkpt>
      <trkpt lat="47.31598" lon="-2.38705">
        <ele>13.60000038147</ele>
        <time>2021-05-02T09:17:06.000Z</time>
      </trkpt>
      <trkpt lat="47.31602" lon="-2.38698">
        <ele>13.199999809265</ele>
        <time>2021-05-02T09:17:07.000Z</time>
      </trkpt>
      <trkpt lat="47.31607" lon="-2.38692">
        <ele>12.800000190735</ele>
        <time>2021-05-02T09:17:08.000Z</time>
      </trkpt>
      <trkpt lat="47.31611" lon="-2.38685">
        <ele>12.39999961853</ele>
        <time>2021-05-02T09:17:09.000Z</time>
      </trkpt>
      <trkpt lat="47.31653" lon="-2.38627">
        <ele>12.39999961853</ele>
        <time>2021-05-02T09:17:18.000Z</time>
      </trkpt>
      <trkpt lat="47.31681" lon="-2.38605">
        <ele>12.39999961853</ele>
        <time>2021-05-02T09:17:23.000Z</time>
      </trkpt>
      <trkpt lat="47.31687" lon="-2.38602">
        <ele>12.39999961853</ele>
        <time>2021-05-02T09:17:24.000Z</time>
      </trkpt>
      <trkpt lat="47.31727" lon="-2.38579">
        <ele>12.39999961853</ele>
        <time>2021-05-02T09:17:31.000Z</time>
      </trkpt>
      <trkpt lat="47.31769" lon="-2.38556">
        <ele>12.39999961853</ele>
        <time>2021-05-02T09:17:39.000Z</time>
      </trkpt>
      <trkpt lat="47.31802" lon="-2.38539">
        <ele>12.39999961853</ele>
        <time>2021-05-02T09:17:46.000Z</time>
      </trkpt>
      <trkpt lat="47.31806" lon="-2.38538">
        <ele>12.39999961853</ele>
        <time>2021-05-02T09:17:47.000Z</time>
      </trkpt>
      <trkpt lat="47.31835" lon="-2.38532">
        <ele>12.39999961853</ele>
        <time>2021-05-02T09:17:53.000Z</time>
      </trkpt>
      <trkpt lat="47.31846" lon="-2.38529">
        <ele>12</ele>
        <time>2021-05-02T09:17:55.000Z</time>
      </trkpt>
      <trkpt lat="47.31852" lon="-2.38527">
        <ele>11.39999961853</ele>
        <time>2021-05-02T09:17:56.000Z</time>
      </trkpt>
      <trkpt lat="47.31858" lon="-2.38524">
        <ele>11</ele>
        <time>2021-05-02T09:17:57.000Z</time>
      </trkpt>
      <trkpt lat="47.31864" lon="-2.38521">
        <ele>10.60000038147</ele>
        <time>2021-05-02T09:17:58.000Z</time>
      </trkpt>
      <trkpt lat="47.31871" lon="-2.38518">
        <ele>10.199999809265</ele>
        <time>2021-05-02T09:17:59.000Z</time>
      </trkpt>
      <trkpt lat="47.31914" lon="-2.38497">
        <ele>10.199999809265</ele>
        <time>2021-05-02T09:18:05.000Z</time>
      </trkpt>
      <trkpt lat="47.31929" lon="-2.38491">
        <ele>9.8000001907349</ele>
        <time>2021-05-02T09:18:07.000Z</time>
      </trkpt>
      <trkpt lat="47.31937" lon="-2.38488">
        <ele>9.3999996185303</ele>
        <time>2021-05-02T09:18:08.000Z</time>
      </trkpt>
      <trkpt lat="47.31945" lon="-2.38487">
        <ele>9</ele>
        <time>2021-05-02T09:18:09.000Z</time>
      </trkpt>
      <trkpt lat="47.31953" lon="-2.38485">
        <ele>8.6000003814697</ele>
        <time>2021-05-02T09:18:10.000Z</time>
      </trkpt>
      <trkpt lat="47.31961" lon="-2.38483">
        <ele>8.1999998092651</ele>
        <time>2021-05-02T09:18:11.000Z</time>
      </trkpt>
      <trkpt lat="47.31993" lon="-2.38472">
        <ele>7.8000001907349</ele>
        <time>2021-05-02T09:18:15.000Z</time>
      </trkpt>
      <trkpt lat="47.32" lon="-2.38469">
        <ele>7</ele>
        <time>2021-05-02T09:18:16.000Z</time>
      </trkpt>
      <trkpt lat="47.32008" lon="-2.38465">
        <ele>6.5999999046326</ele>
        <time>2021-05-02T09:18:17.000Z</time>
      </trkpt>
      <trkpt lat="47.32015" lon="-2.38462">
        <ele>6.1999998092651</ele>
        <time>2021-05-02T09:18:18.000Z</time>
      </trkpt>
      <trkpt lat="47.3206" lon="-2.38446">
        <ele>5.5999999046326</ele>
        <time>2021-05-02T09:18:24.000Z</time>
      </trkpt>
      <trkpt lat="47.32067" lon="-2.38444">
        <ele>5.1999998092651</ele>
        <time>2021-05-02T09:18:25.000Z</time>
      </trkpt>
      <trkpt lat="47.32075" lon="-2.38441">
        <ele>4.8000001907349</ele>
        <time>2021-05-02T09:18:26.000Z</time>
      </trkpt>
      <trkpt lat="47.32082" lon="-2.38438">
        <ele>4.4000000953674</ele>
        <time>2021-05-02T09:18:27.000Z</time>
      </trkpt>
      <trkpt lat="47.32089" lon="-2.38435">
        <ele>4</ele>
        <time>2021-05-02T09:18:28.000Z</time>
      </trkpt>
      <trkpt lat="47.32108" lon="-2.38425">
        <ele>4</ele>
        <time>2021-05-02T09:18:31.000Z</time>
      </trkpt>
      <trkpt lat="47.32114" lon="-2.38422">
        <ele>3.4000000953674</ele>
        <time>2021-05-02T09:18:32.000Z</time>
      </trkpt>
      <trkpt lat="47.3212" lon="-2.38418">
        <ele>3</ele>
        <time>2021-05-02T09:18:33.000Z</time>
      </trkpt>
      <trkpt lat="47.32126" lon="-2.38414">
        <ele>2.5999999046326</ele>
        <time>2021-05-02T09:18:34.000Z</time>
      </trkpt>
      <trkpt lat="47.32133" lon="-2.38409">
        <ele>2.2000000476837</ele>
        <time>2021-05-02T09:18:35.000Z</time>
      </trkpt>
      <trkpt lat="47.32138" lon="-2.38403">
        <ele>1.7999999523163</ele>
        <time>2021-05-02T09:18:36.000Z</time>
      </trkpt>
      <trkpt lat="47.32148" lon="-2.38388">
        <ele>1.7999999523163</ele>
        <time>2021-05-02T09:18:38.000Z</time>
      </trkpt>
      <trkpt lat="47.32157" lon="-2.38373">
        <ele>1.7999999523163</ele>
        <time>2021-05-02T09:18:40.000Z</time>
      </trkpt>
      <trkpt lat="47.32179" lon="-2.38338">
        <ele>1.3999999761581</ele>
        <time>2021-05-02T09:18:45.000Z</time>
      </trkpt>
      <trkpt lat="47.32183" lon="-2.38332">
        <ele>1</ele>
        <time>2021-05-02T09:18:46.000Z</time>
      </trkpt>
      <trkpt lat="47.32188" lon="-2.38325">
        <ele>0.40000000596046</ele>
        <time>2021-05-02T09:18:47.000Z</time>
      </trkpt>
      <trkpt lat="47.32193" lon="-2.38319">
        <ele>31.1</ele>
        <time>2021-05-02T09:18:48.000Z</time>
      </trkpt>
      <trkpt lat="47.32199" lon="-2.38312">
        <ele>-0.40000000596046</ele>
        <time>2021-05-02T09:18:49.000Z</time>
      </trkpt>
      <trkpt lat="47.32209" lon="-2.38299">
        <ele>-0.40000000596046</ele>
        <time>2021-05-02T09:18:51.000Z</time>
      </trkpt>
      <trkpt lat="47.32213" lon="-2.38295">
        <ele>-0.40000000596046</ele>
        <time>2021-05-02T09:18:52.000Z</time>
      </trkpt>
      <trkpt lat="47.32222" lon="-2.38293">
        <ele>-0.40000000596046</ele>
        <time>2021-05-02T09:18:54.000Z</time>
      </trkpt>
      <trkpt lat="47.32232" lon="-2.38292">
        <ele>-0.40000000596046</ele>
        <time>2021-05-02T09:18:56.000Z</time>
      </trkpt>
      <trkpt lat="47.32249" lon="-2.38287">
        <ele>-0.40000000596046</ele>
        <time>2021-05-02T09:18:59.000Z</time>
      </trkpt>
      <trkpt lat="47.32279" lon="-2.38286">
        <ele>-0.40000000596046</ele>
        <time>2021-05-02T09:19:04.000Z</time>
      </trkpt>
      <trkpt lat="47.32284" lon="-2.38288">
        <ele>-0.40000000596046</ele>
        <time>2021-05-02T09:19:05.000Z</time>
      </trkpt>
      <trkpt lat="47.32306" lon="-2.38296">
        <ele>-0.40000000596046</ele>
        <time>2021-05-02T09:19:09.000Z</time>
      </trkpt>
      <trkpt lat="47.32345" lon="-2.38313">
        <ele>-0.40000000596046</ele>
        <time>2021-05-02T09:19:16.000Z</time>
      </trkpt>
      <trkpt lat="47.3235" lon="-2.38315">
        <ele>33.4</ele>
        <time>2021-05-02T09:19:17.000Z</time>
      </trkpt>
      <trkpt lat="47.32356" lon="-2.38317">
        <ele>0.60000002384186</ele>
        <time>2021-05-02T09:19:18.000Z</time>
      </trkpt>
      <trkpt lat="47.32361" lon="-2.3832">
        <ele>1</ele>
        <time>2021-05-02T09:19:19.000Z</time>
      </trkpt>
      <trkpt lat="47.32366" lon="-2.38322">
        <ele>1.3999999761581</ele>
        <time>2021-05-02T09:19:20.000Z</time>
      </trkpt>
      <trkpt lat="47.32371" lon="-2.38325">
        <ele>1.7999999523163</ele>
        <time>2021-05-02T09:19:21.000Z</time>
      </trkpt>
      <trkpt lat="47.32388" lon="-2.38333">
        <ele>1.7999999523163</ele>
        <time>2021-05-02T09:19:24.000Z</time>
      </trkpt>
      <trkpt lat="47.32431" lon="-2.38352">
        <ele>1.7999999523163</ele>
        <time>2021-05-02T09:19:32.000Z</time>
      </trkpt>
      <trkpt lat="47.32448" lon="-2.38361">
        <ele>1.7999999523163</ele>
        <time>2021-05-02T09:19:35.000Z</time>
      </trkpt>
      <trkpt lat="47.32458" lon="-2.38365">
        <ele>1.7999999523163</ele>
        <time>2021-05-02T09:19:37.000Z</time>
      </trkpt>
      <trkpt lat="47.32471" lon="-2.38371">
        <ele>2.2000000476837</ele>
        <time>2021-05-02T09:19:39.000Z</time>
      </trkpt>
      <trkpt lat="47.32478" lon="-2.38374">
        <ele>2.5999999046326</ele>
        <time>2021-05-02T09:19:40.000Z</time>
      </trkpt>
      <trkpt lat="47.32484" lon="-2.38377">
        <ele>3</ele>
        <time>2021-05-02T09:19:41.000Z</time>
      </trkpt>
      <trkpt lat="47.32491" lon="-2.38379">
        <ele>3.4000000953674</ele>
        <time>2021-05-02T09:19:42.000Z</time>
      </trkpt>
      <trkpt lat="47.32496" lon="-2.38382">
        <ele>3.7999999523163</ele>
        <time>2021-05-02T09:19:43.000Z</time>
      </trkpt>
      <trkpt lat="47.32502" lon="-2.38384">
        <ele>3.7999999523163</ele>
        <time>2021-05-02T09:19:44.000Z</time>
      </trkpt>
      <trkpt lat="47.32507" lon="-2.38385">
        <ele>3.7999999523163</ele>
        <time>2021-05-02T09:19:45.000Z</time>
      </trkpt>
      <trkpt lat="47.32518" lon="-2.38378">
        <ele>3.7999999523163</ele>
        <time>2021-05-02T09:19:48.000Z</time>
      </trkpt>
      <trkpt lat="47.32522" lon="-2.38362">
        <ele>3.7999999523163</ele>
        <time>2021-05-02T09:19:51.000Z</time>
      </trkpt>
      <trkpt lat="47.32524" lon="-2.38343">
        <ele>3.4000000953674</ele>
        <time>2021-05-02T09:19:54.000Z</time>
      </trkpt>
      <trkpt lat="47.32525" lon="-2.38336">
        <ele>3</ele>
        <time>2021-05-02T09:19:55.000Z</time>
      </trkpt>
      <trkpt lat="47.32525" lon="-2.38329">
        <ele>2.5999999046326</ele>
        <time>2021-05-02T09:19:56.000Z</time>
      </trkpt>
      <trkpt lat="47.32526" lon="-2.38322">
        <ele>2.2000000476837</ele>
        <time>2021-05-02T09:19:57.000Z</time>
      </trkpt>
      <trkpt lat="47.32529" lon="-2.38317">
        <ele>1.7999999523163</ele>
        <time>2021-05-02T09:19:58.000Z</time>
      </trkpt>
      <trkpt lat="47.32543" lon="-2.38308">
        <ele>1.7999999523163</ele>
        <time>2021-05-02T09:20:01.000Z</time>
      </trkpt>
      <trkpt lat="47.3257" lon="-2.383">
        <ele>1.3999999761581</ele>
        <time>2021-05-02T09:20:05.000Z</time>
      </trkpt>
      <trkpt lat="47.32577" lon="-2.38298">
        <ele>1</ele>
        <time>2021-05-02T09:20:06.000Z</time>
      </trkpt>
      <trkpt lat="47.32584" lon="-2.38297">
        <ele>0.60000002384186</ele>
        <time>2021-05-02T09:20:07.000Z</time>
      </trkpt>
      <trkpt lat="47.32591" lon="-2.38296">
        <ele>0.20000000298023</ele>
        <time>2021-05-02T09:20:08.000Z</time>
      </trkpt>
      <trkpt lat="47.32598" lon="-2.38297">
        <ele>-0.20000000298023</ele>
        <time>2021-05-02T09:20:09.000Z</time>
      </trkpt>
      <trkpt lat="47.3261" lon="-2.38301">
        <ele>-0.20000000298023</ele>
        <time>2021-05-02T09:20:11.000Z</time>
      </trkpt>
      <trkpt lat="47.32629" lon="-2.38322">
        <ele>-0.20000000298023</ele>
        <time>2021-05-02T09:20:15.000Z</time>
      </trkpt>
      <trkpt lat="47.32637" lon="-2.38331">
        <ele>-0.20000000298023</ele>
        <time>2021-05-02T09:20:17.000Z</time>
      </trkpt>
      <trkpt lat="47.32648" lon="-2.38345">
        <ele>-0.20000000298023</ele>
        <time>2021-05-02T09:20:20.000Z</time>
      </trkpt>
      <trkpt lat="47.32652" lon="-2.38349">
        <ele>-0.20000000298023</ele>
        <time>2021-05-02T09:20:21.000Z</time>
      </trkpt>
      <trkpt lat="47.32659" lon="-2.38358">
        <ele>-0.20000000298023</ele>
        <time>2021-05-02T09:20:23.000Z</time>
      </trkpt>
      <trkpt lat="47.32663" lon="-2.38362">
        <ele>0.20000000298023</ele>
        <time>2021-05-02T09:20:24.000Z</time>
      </trkpt>
      <trkpt lat="47.32666" lon="-2.38367">
        <ele>0.60000002384186</ele>
        <time>2021-05-02T09:20:25.000Z</time>
      </trkpt>
      <trkpt lat="47.32669" lon="-2.38371">
        <ele>1.2000000476837</ele>
        <time>2021-05-02T09:20:26.000Z</time>
      </trkpt>
      <trkpt lat="47.32673" lon="-2.38376">
        <ele>1.6000000238419</ele>
        <time>2021-05-02T09:20:27.000Z</time>
      </trkpt>
      <trkpt lat="47.32676" lon="-2.38381">
        <ele>2</ele>
        <time>2021-05-02T09:20:28.000Z</time>
      </trkpt>
      <trkpt lat="47.32689" lon="-2.38397">
        <ele>2.4000000953674</ele>
        <time>2021-05-02T09:20:32.000Z</time>
      </trkpt>
      <trkpt lat="47.32692" lon="-2.38401">
        <ele>2.7999999523163</ele>
        <time>2021-05-02T09:20:33.000Z</time>
      </trkpt>
      <trkpt lat="47.32696" lon="-2.38404">
        <ele>3.2000000476837</ele>
        <time>2021-05-02T09:20:34.000Z</time>
      </trkpt>
      <trkpt lat="47.32699" lon="-2.38406">
        <ele>3.5999999046326</ele>
        <time>2021-05-02T09:20:35.000Z</time>
      </trkpt>
      <trkpt lat="47.32703" lon="-2.38407">
        <ele>4.1999998092651</ele>
        <time>2021-05-02T09:20:36.000Z</time>
      </trkpt>
      <trkpt lat="47.32711" lon="-2.38409">
        <ele>4.1999998092651</ele>
        <time>2021-05-02T09:20:38.000Z</time>
      </trkpt>
      <trkpt lat="47.32726" lon="-2.38406">
        <ele>4.5999999046326</ele>
        <time>2021-05-02T09:20:42.000Z</time>
      </trkpt>
      <trkpt lat="47.3273" lon="-2.38406">
        <ele>5.4000000953674</ele>
        <time>2021-05-02T09:20:43.000Z</time>
      </trkpt>
      <trkpt lat="47.32733" lon="-2.38405">
        <ele>5.8000001907349</ele>
        <time>2021-05-02T09:20:44.000Z</time>
      </trkpt>
      <trkpt lat="47.32737" lon="-2.38403">
        <ele>6.1999998092651</ele>
        <time>2021-05-02T09:20:45.000Z</time>
      </trkpt>
      <trkpt lat="47.32754" lon="-2.38401">
        <ele>6.1999998092651</ele>
        <time>2021-05-02T09:20:49.000Z</time>
      </trkpt>
      <trkpt lat="47.32771" lon="-2.38397">
        <ele>6.1999998092651</ele>
        <time>2021-05-02T09:20:54.000Z</time>
      </trkpt>
      <trkpt lat="47.32785" lon="-2.38391">
        <ele>6.1999998092651</ele>
        <time>2021-05-02T09:21:00.000Z</time>
      </trkpt>
      <trkpt lat="47.32787" lon="-2.38388">
        <ele>6.1999998092651</ele>
        <time>2021-05-02T09:21:01.000Z</time>
      </trkpt>
      <trkpt lat="47.32787" lon="-2.38386">
        <ele>6.1999998092651</ele>
        <time>2021-05-02T09:21:03.000Z</time>
      </trkpt>
      <trkpt lat="47.32785" lon="-2.38381">
        <ele>6.1999998092651</ele>
        <time>2021-05-02T09:21:54.000Z</time>
      </trkpt>
      <trkpt lat="47.32784" lon="-2.38374">
        <ele>6.1999998092651</ele>
        <time>2021-05-02T09:21:56.000Z</time>
      </trkpt>
      <trkpt lat="47.32786" lon="-2.38351">
        <ele>6.1999998092651</ele>
        <time>2021-05-02T09:22:00.000Z</time>
      </trkpt>
      <trkpt lat="47.32795" lon="-2.38306">
        <ele>6.1999998092651</ele>
        <time>2021-05-02T09:22:06.000Z</time>
      </trkpt>
      <trkpt lat="47.32811" lon="-2.38246">
        <ele>6.1999998092651</ele>
        <time>2021-05-02T09:22:12.000Z</time>
      </trkpt>
      <trkpt lat="47.32814" lon="-2.38234">
        <ele>5.8000001907349</ele>
        <time>2021-05-02T09:22:13.000Z</time>
      </trkpt>
      <trkpt lat="47.32817" lon="-2.38223">
        <ele>5.1999998092651</ele>
        <time>2021-05-02T09:22:14.000Z</time>
      </trkpt>
      <trkpt lat="47.3282" lon="-2.38211">
        <ele>4.8000001907349</ele>
        <time>2021-05-02T09:22:15.000Z</time>
      </trkpt>
      <trkpt lat="47.32824" lon="-2.382">
        <ele>4.4000000953674</ele>
        <time>2021-05-02T09:22:16.000Z</time>
      </trkpt>
      <trkpt lat="47.32828" lon="-2.38189">
        <ele>3.7999999523163</ele>
        <time>2021-05-02T09:22:17.000Z</time>
      </trkpt>
      <trkpt lat="47.32837" lon="-2.38168">
        <ele>3.4000000953674</ele>
        <time>2021-05-02T09:22:19.000Z</time>
      </trkpt>
      <trkpt lat="47.32842" lon="-2.38158">
        <ele>3</ele>
        <time>2021-05-02T09:22:20.000Z</time>
      </trkpt>
      <trkpt lat="47.32848" lon="-2.38149">
        <ele>2.5999999046326</ele>
        <time>2021-05-02T09:22:21.000Z</time>
      </trkpt>
      <trkpt lat="47.32853" lon="-2.38139">
        <ele>2.2000000476837</ele>
        <time>2021-05-02T09:22:22.000Z</time>
      </trkpt>
      <trkpt lat="47.32859" lon="-2.38129">
        <ele>1.7999999523163</ele>
        <time>2021-05-02T09:22:23.000Z</time>
      </trkpt>
      <trkpt lat="47.32874" lon="-2.38102">
        <ele>1.3999999761581</ele>
        <time>2021-05-02T09:22:26.000Z</time>
      </trkpt>
      <trkpt lat="47.32879" lon="-2.38093">
        <ele>1</ele>
        <time>2021-05-02T09:22:27.000Z</time>
      </trkpt>
      <trkpt lat="47.32885" lon="-2.38084">
        <ele>0.60000002384186</ele>
        <time>2021-05-02T09:22:28.000Z</time>
      </trkpt>
      <trkpt lat="47.3289" lon="-2.38076">
        <ele>30</ele>
        <time>2021-05-02T09:22:29.000Z</time>
      </trkpt>
      <trkpt lat="47.32895" lon="-2.38067">
        <ele>-0.40000000596046</ele>
        <time>2021-05-02T09:22:30.000Z</time>
      </trkpt>
      <trkpt lat="47.32901" lon="-2.38058">
        <ele>-0.40000000596046</ele>
        <time>2021-05-02T09:22:31.000Z</time>
      </trkpt>
      <trkpt lat="47.32936" lon="-2.38002">
        <ele>-0.80000001192093</ele>
        <time>2021-05-02T09:22:38.000Z</time>
      </trkpt>
      <trkpt lat="47.32941" lon="-2.37995">
        <ele>-1.2000000476837</ele>
        <time>2021-05-02T09:22:39.000Z</time>
      </trkpt>
      <trkpt lat="47.32946" lon="-2.37987">
        <ele>-1.6000000238419</ele>
        <time>2021-05-02T09:22:40.000Z</time>
      </trkpt>
      <trkpt lat="47.32951" lon="-2.3798">
        <ele>-2</ele>
        <time>2021-05-02T09:22:41.000Z</time>
      </trkpt>
      <trkpt lat="47.32956" lon="-2.37974">
        <ele>-2.4000000953674</ele>
        <time>2021-05-02T09:22:42.000Z</time>
      </trkpt>
      <trkpt lat="47.32971" lon="-2.37952">
        <ele>-2.4000000953674</ele>
        <time>2021-05-02T09:22:45.000Z</time>
      </trkpt>
      <trkpt lat="47.33007" lon="-2.37892">
        <ele>-2.7999999523163</ele>
        <time>2021-05-02T09:22:53.000Z</time>
      </trkpt>
      <trkpt lat="47.33011" lon="-2.37883">
        <ele>-3.2000000476837</ele>
        <time>2021-05-02T09:22:54.000Z</time>
      </trkpt>
      <trkpt lat="47.33015" lon="-2.37875">
        <ele>-3.5999999046326</ele>
        <time>2021-05-02T09:22:55.000Z</time>
      </trkpt>
      <trkpt lat="47.33018" lon="-2.37866">
        <ele>-4</ele>
        <time>2021-05-02T09:22:56.000Z</time>
      </trkpt>
      <trkpt lat="47.33021" lon="-2.37858">
        <ele>-4.4000000953674</ele>
        <time>2021-05-02T09:22:57.000Z</time>
      </trkpt>
      <trkpt lat="47.33025" lon="-2.3785">
        <ele>-4.4000000953674</ele>
        <time>2021-05-02T09:22:58.000Z</time>
      </trkpt>
      <trkpt lat="47.33044" lon="-2.37823">
        <ele>-4.4000000953674</ele>
        <time>2021-05-02T09:23:02.000Z</time>
      </trkpt>
      <trkpt lat="47.33048" lon="-2.37818">
        <ele>-4.4000000953674</ele>
        <time>2021-05-02T09:23:03.000Z</time>
      </trkpt>
      <trkpt lat="47.33054" lon="-2.37812">
        <ele>-4.8000001907349</ele>
        <time>2021-05-02T09:23:04.000Z</time>
      </trkpt>
      <trkpt lat="47.33059" lon="-2.37806">
        <ele>-5.1999998092651</ele>
        <time>2021-05-02T09:23:05.000Z</time>
      </trkpt>
      <trkpt lat="47.33065" lon="-2.378">
        <ele>-5.5999999046326</ele>
        <time>2021-05-02T09:23:06.000Z</time>
      </trkpt>
      <trkpt lat="47.33071" lon="-2.37795">
        <ele>-6</ele>
        <time>2021-05-02T09:23:07.000Z</time>
      </trkpt>
      <trkpt lat="47.33078" lon="-2.37789">
        <ele>-6.4000000953674</ele>
        <time>2021-05-02T09:23:08.000Z</time>
      </trkpt>
      <trkpt lat="47.33084" lon="-2.37784">
        <ele>-6.4000000953674</ele>
        <time>2021-05-02T09:23:09.000Z</time>
      </trkpt>
      <trkpt lat="47.33111" lon="-2.37755">
        <ele>-6.8000001907349</ele>
        <time>2021-05-02T09:23:14.000Z</time>
      </trkpt>
      <trkpt lat="47.33117" lon="-2.37749">
        <ele>-7.4000000953674</ele>
        <time>2021-05-02T09:23:15.000Z</time>
      </trkpt>
      <trkpt lat="47.33122" lon="-2.37744">
        <ele>-7.8000001907349</ele>
        <time>2021-05-02T09:23:16.000Z</time>
      </trkpt>
      <trkpt lat="47.33127" lon="-2.37739">
        <ele>-8.1999998092651</ele>
        <time>2021-05-02T09:23:17.000Z</time>
      </trkpt>
      <trkpt lat="47.33132" lon="-2.37735">
        <ele>-8.6000003814697</ele>
        <time>2021-05-02T09:23:18.000Z</time>
      </trkpt>
      <trkpt lat="47.33145" lon="-2.37733">
        <ele>-8.6000003814697</ele>
        <time>2021-05-02T09:23:20.000Z</time>
      </trkpt>
      <trkpt lat="47.33162" lon="-2.3775">
        <ele>-8.6000003814697</ele>
        <time>2021-05-02T09:23:23.000Z</time>
      </trkpt>
      <trkpt lat="47.33167" lon="-2.37758">
        <ele>-8.6000003814697</ele>
        <time>2021-05-02T09:23:24.000Z</time>
      </trkpt>
      <trkpt lat="47.33186" lon="-2.37795">
        <ele>-8.6000003814697</ele>
        <time>2021-05-02T09:23:29.000Z</time>
      </trkpt>
      <trkpt lat="47.33207" lon="-2.37832">
        <ele>-8.6000003814697</ele>
        <time>2021-05-02T09:23:35.000Z</time>
      </trkpt>
      <trkpt lat="47.33228" lon="-2.37859">
        <ele>-8.1999998092651</ele>
        <time>2021-05-02T09:23:40.000Z</time>
      </trkpt>
      <trkpt lat="47.33232" lon="-2.37864">
        <ele>-7.5999999046326</ele>
        <time>2021-05-02T09:23:41.000Z</time>
      </trkpt>
      <trkpt lat="47.33237" lon="-2.37868">
        <ele>-7.1999998092651</ele>
        <time>2021-05-02T09:23:42.000Z</time>
      </trkpt>
      <trkpt lat="47.33242" lon="-2.37872">
        <ele>-6.8000001907349</ele>
        <time>2021-05-02T09:23:43.000Z</time>
      </trkpt>
      <trkpt lat="47.33246" lon="-2.37874">
        <ele>-6.4000000953674</ele>
        <time>2021-05-02T09:23:44.000Z</time>
      </trkpt>
      <trkpt lat="47.33255" lon="-2.37877">
        <ele>-6.4000000953674</ele>
        <time>2021-05-02T09:23:46.000Z</time>
      </trkpt>
      <trkpt lat="47.33263" lon="-2.37877">
        <ele>-6.4000000953674</ele>
        <time>2021-05-02T09:23:48.000Z</time>
      </trkpt>
      <trkpt lat="47.33271" lon="-2.37874">
        <ele>-6.4000000953674</ele>
        <time>2021-05-02T09:23:50.000Z</time>
      </trkpt>
      <trkpt lat="47.33274" lon="-2.37872">
        <ele>-5.8000001907349</ele>
        <time>2021-05-02T09:23:51.000Z</time>
      </trkpt>
      <trkpt lat="47.33279" lon="-2.37871">
        <ele>-5.4000000953674</ele>
        <time>2021-05-02T09:23:52.000Z</time>
      </trkpt>
      <trkpt lat="47.33283" lon="-2.3787">
        <ele>-5</ele>
        <time>2021-05-02T09:23:53.000Z</time>
      </trkpt>
      <trkpt lat="47.33287" lon="-2.37869">
        <ele>-4.4000000953674</ele>
        <time>2021-05-02T09:23:54.000Z</time>
      </trkpt>
      <trkpt lat="47.33291" lon="-2.37868">
        <ele>-4</ele>
        <time>2021-05-02T09:23:55.000Z</time>
      </trkpt>
      <trkpt lat="47.33299" lon="-2.37866">
        <ele>-3.5999999046326</ele>
        <time>2021-05-02T09:23:57.000Z</time>
      </trkpt>
      <trkpt lat="47.33304" lon="-2.37864">
        <ele>-3</ele>
        <time>2021-05-02T09:23:58.000Z</time>
      </trkpt>
      <trkpt lat="47.33308" lon="-2.37862">
        <ele>-2.5999999046326</ele>
        <time>2021-05-02T09:23:59.000Z</time>
      </trkpt>
      <trkpt lat="47.33312" lon="-2.3786">
        <ele>-2.2000000476837</ele>
        <time>2021-05-02T09:24:00.000Z</time>
      </trkpt>
      <trkpt lat="47.33316" lon="-2.37858">
        <ele>-1.7999999523163</ele>
        <time>2021-05-02T09:24:01.000Z</time>
      </trkpt>
      <trkpt lat="47.3332" lon="-2.37856">
        <ele>-1.7999999523163</ele>
        <time>2021-05-02T09:24:02.000Z</time>
      </trkpt>
      <trkpt lat="47.33332" lon="-2.37854">
        <ele>-1.3999999761581</ele>
        <time>2021-05-02T09:24:05.000Z</time>
      </trkpt>
      <trkpt lat="47.33336" lon="-2.37854">
        <ele>-0.80000001192093</ele>
        <time>2021-05-02T09:24:06.000Z</time>
      </trkpt>
      <trkpt lat="47.3334" lon="-2.37853">
        <ele>-0.40000000596046</ele>
        <time>2021-05-02T09:24:07.000Z</time>
      </trkpt>
      <trkpt lat="47.33344" lon="-2.37853">
        <ele>34.7</ele>
        <time>2021-05-02T09:24:08.000Z</time>
      </trkpt>
      <trkpt lat="47.33348" lon="-2.37854">
        <ele>0.40000000596046</ele>
        <time>2021-05-02T09:24:09.000Z</time>
      </trkpt>
      <trkpt lat="47.33356" lon="-2.37852">
        <ele>0.40000000596046</ele>
        <time>2021-05-02T09:24:11.000Z</time>
      </trkpt>
      <trkpt lat="47.33364" lon="-2.3784">
        <ele>0.40000000596046</ele>
        <time>2021-05-02T09:24:14.000Z</time>
      </trkpt>
      <trkpt lat="47.33367" lon="-2.37834">
        <ele>0.40000000596046</ele>
        <time>2021-05-02T09:24:15.000Z</time>
      </trkpt>
      <trkpt lat="47.33378" lon="-2.37812">
        <ele>0.80000001192093</ele>
        <time>2021-05-02T09:24:19.000Z</time>
      </trkpt>
      <trkpt lat="47.3338" lon="-2.37806">
        <ele>1.2000000476837</ele>
        <time>2021-05-02T09:24:20.000Z</time>
      </trkpt>
      <trkpt lat="47.33382" lon="-2.378">
        <ele>1.6000000238419</ele>
        <time>2021-05-02T09:24:21.000Z</time>
      </trkpt>
      <trkpt lat="47.33384" lon="-2.37793">
        <ele>2</ele>
        <time>2021-05-02T09:24:22.000Z</time>
      </trkpt>
      <trkpt lat="47.33385" lon="-2.37787">
        <ele>2.5999999046326</ele>
        <time>2021-05-02T09:24:23.000Z</time>
      </trkpt>
      <trkpt lat="47.33387" lon="-2.37766">
        <ele>2.5999999046326</ele>
        <time>2021-05-02T09:24:26.000Z</time>
      </trkpt>
      <trkpt lat="47.33386" lon="-2.37724">
        <ele>2.5999999046326</ele>
        <time>2021-05-02T09:24:33.000Z</time>
      </trkpt>
      <trkpt lat="47.33386" lon="-2.37693">
        <ele>2.5999999046326</ele>
        <time>2021-05-02T09:24:39.000Z</time>
      </trkpt>
      <trkpt lat="47.3339" lon="-2.37654">
        <ele>2.5999999046326</ele>
        <time>2021-05-02T09:24:46.000Z</time>
      </trkpt>
      <trkpt lat="47.33397" lon="-2.37638">
        <ele>2.5999999046326</ele>
        <time>2021-05-02T09:24:51.000Z</time>
      </trkpt>
      <trkpt lat="47.33411" lon="-2.37622">
        <ele>2.5999999046326</ele>
        <time>2021-05-02T09:24:57.000Z</time>
      </trkpt>
      <trkpt lat="47.33425" lon="-2.37609">
        <ele>2.5999999046326</ele>
        <time>2021-05-02T09:25:03.000Z</time>
      </trkpt>
      <trkpt lat="47.33438" lon="-2.37598">
        <ele>2.5999999046326</ele>
        <time>2021-05-02T09:25:09.000Z</time>
      </trkpt>
      <trkpt lat="47.33453" lon="-2.37587">
        <ele>2.5999999046326</ele>
        <time>2021-05-02T09:25:14.000Z</time>
      </trkpt>
      <trkpt lat="47.33474" lon="-2.37566">
        <ele>2.5999999046326</ele>
        <time>2021-05-02T09:25:22.000Z</time>
      </trkpt>
      <trkpt lat="47.3349" lon="-2.37545">
        <ele>2.5999999046326</ele>
        <time>2021-05-02T09:25:28.000Z</time>
      </trkpt>
      <trkpt lat="47.33509" lon="-2.37513">
        <ele>2.5999999046326</ele>
        <time>2021-05-02T09:25:34.000Z</time>
      </trkpt>
      <trkpt lat="47.33519" lon="-2.37494">
        <ele>2.5999999046326</ele>
        <time>2021-05-02T09:25:37.000Z</time>
      </trkpt>
      <trkpt lat="47.33525" lon="-2.3748">
        <ele>2.2000000476837</ele>
        <time>2021-05-02T09:25:39.000Z</time>
      </trkpt>
      <trkpt lat="47.33528" lon="-2.37472">
        <ele>1.2000000476837</ele>
        <time>2021-05-02T09:25:40.000Z</time>
      </trkpt>
      <trkpt lat="47.33531" lon="-2.37465">
        <ele>0.80000001192093</ele>
        <time>2021-05-02T09:25:41.000Z</time>
      </trkpt>
      <trkpt lat="47.33534" lon="-2.37457">
        <ele>0.40000000596046</ele>
        <time>2021-05-02T09:25:42.000Z</time>
      </trkpt>
      <trkpt lat="47.33537" lon="-2.3744">
        <ele>0.40000000596046</ele>
        <time>2021-05-02T09:25:44.000Z</time>
      </trkpt>
      <trkpt lat="47.33539" lon="-2.37423">
        <ele>0.40000000596046</ele>
        <time>2021-05-02T09:25:46.000Z</time>
      </trkpt>
      <trkpt lat="47.33539" lon="-2.37357">
        <ele>0.40000000596046</ele>
        <time>2021-05-02T09:25:53.000Z</time>
      </trkpt>
      <trkpt lat="47.33537" lon="-2.37348">
        <ele>30.5</ele>
        <time>2021-05-02T09:25:54.000Z</time>
      </trkpt>
      <trkpt lat="47.33534" lon="-2.37338">
        <ele>-0.40000000596046</ele>
        <time>2021-05-02T09:25:55.000Z</time>
      </trkpt>
      <trkpt lat="47.3353" lon="-2.37328">
        <ele>-0.80000001192093</ele>
        <time>2021-05-02T09:25:56.000Z</time>
      </trkpt>
      <trkpt lat="47.33527" lon="-2.37318">
        <ele>-1.2000000476837</ele>
        <time>2021-05-02T09:25:57.000Z</time>
      </trkpt>
      <trkpt lat="47.33523" lon="-2.37308">
        <ele>-1.6000000238419</ele>
        <time>2021-05-02T09:25:58.000Z</time>
      </trkpt>
      <trkpt lat="47.33511" lon="-2.37268">
        <ele>-2.2000000476837</ele>
        <time>2021-05-02T09:26:02.000Z</time>
      </trkpt>
      <trkpt lat="47.33508" lon="-2.37259">
        <ele>-2.5999999046326</ele>
        <time>2021-05-02T09:26:03.000Z</time>
      </trkpt>
      <trkpt lat="47.33506" lon="-2.3725">
        <ele>-3</ele>
        <time>2021-05-02T09:26:04.000Z</time>
      </trkpt>
      <trkpt lat="47.33503" lon="-2.37241">
        <ele>-4</ele>
        <time>2021-05-02T09:26:05.000Z</time>
      </trkpt>
      <trkpt lat="47.33497" lon="-2.37221">
        <ele>-4.4000000953674</ele>
        <time>2021-05-02T09:26:07.000Z</time>
      </trkpt>
      <trkpt lat="47.33493" lon="-2.37211">
        <ele>-4.8000001907349</ele>
        <time>2021-05-02T09:26:08.000Z</time>
      </trkpt>
      <trkpt lat="47.33489" lon="-2.37199">
        <ele>-5.4000000953674</ele>
        <time>2021-05-02T09:26:09.000Z</time>
      </trkpt>
      <trkpt lat="47.33486" lon="-2.37188">
        <ele>-5.8000001907349</ele>
        <time>2021-05-02T09:26:10.000Z</time>
      </trkpt>
      <trkpt lat="47.33484" lon="-2.37177">
        <ele>-6.1999998092651</ele>
        <time>2021-05-02T09:26:11.000Z</time>
      </trkpt>
      <trkpt lat="47.33479" lon="-2.37144">
        <ele>-6.5999999046326</ele>
        <time>2021-05-02T09:26:14.000Z</time>
      </trkpt>
      <trkpt lat="47.33477" lon="-2.37132">
        <ele>-7</ele>
        <time>2021-05-02T09:26:15.000Z</time>
      </trkpt>
      <trkpt lat="47.33476" lon="-2.37121">
        <ele>-7.4000000953674</ele>
        <time>2021-05-02T09:26:16.000Z</time>
      </trkpt>
      <trkpt lat="47.33475" lon="-2.37109">
        <ele>-7.8000001907349</ele>
        <time>2021-05-02T09:26:17.000Z</time>
      </trkpt>
      <trkpt lat="47.33473" lon="-2.37097">
        <ele>-8.1999998092651</ele>
        <time>2021-05-02T09:26:18.000Z</time>
      </trkpt>
      <trkpt lat="47.33471" lon="-2.37053">
        <ele>-8.6000003814697</ele>
        <time>2021-05-02T09:26:22.000Z</time>
      </trkpt>
      <trkpt lat="47.33472" lon="-2.37042">
        <ele>-9.1999998092651</ele>
        <time>2021-05-02T09:26:23.000Z</time>
      </trkpt>
      <trkpt lat="47.33473" lon="-2.37032">
        <ele>-9.6000003814697</ele>
        <time>2021-05-02T09:26:24.000Z</time>
      </trkpt>
      <trkpt lat="47.33474" lon="-2.37023">
        <ele>-10</ele>
        <time>2021-05-02T09:26:25.000Z</time>
      </trkpt>
      <trkpt lat="47.33474" lon="-2.37015">
        <ele>-10.60000038147</ele>
        <time>2021-05-02T09:26:26.000Z</time>
      </trkpt>
      <trkpt lat="47.33474" lon="-2.37008">
        <ele>-10.60000038147</ele>
        <time>2021-05-02T09:26:27.000Z</time>
      </trkpt>
      <trkpt lat="47.33474" lon="-2.37001">
        <ele>-11</ele>
        <time>2021-05-02T09:26:28.000Z</time>
      </trkpt>
      <trkpt lat="47.33472" lon="-2.36996">
        <ele>-11.39999961853</ele>
        <time>2021-05-02T09:26:29.000Z</time>
      </trkpt>
      <trkpt lat="47.3347" lon="-2.36992">
        <ele>-12.39999961853</ele>
        <time>2021-05-02T09:26:30.000Z</time>
      </trkpt>
      <trkpt lat="47.33468" lon="-2.36988">
        <ele>-12.800000190735</ele>
        <time>2021-05-02T09:26:31.000Z</time>
      </trkpt>
      <trkpt lat="47.3346" lon="-2.36973">
        <ele>-12.800000190735</ele>
        <time>2021-05-02T09:26:34.000Z</time>
      </trkpt>
      <trkpt lat="47.33454" lon="-2.36963">
        <ele>-12.800000190735</ele>
        <time>2021-05-02T09:26:36.000Z</time>
      </trkpt>
      <trkpt lat="47.33452" lon="-2.36957">
        <ele>-12.800000190735</ele>
        <time>2021-05-02T09:26:37.000Z</time>
      </trkpt>
      <trkpt lat="47.33451" lon="-2.36951">
        <ele>-12.800000190735</ele>
        <time>2021-05-02T09:26:38.000Z</time>
      </trkpt>
      <trkpt lat="47.33447" lon="-2.36919">
        <ele>-12.800000190735</ele>
        <time>2021-05-02T09:26:43.000Z</time>
      </trkpt>
      <trkpt lat="47.33443" lon="-2.36881">
        <ele>-12.800000190735</ele>
        <time>2021-05-02T09:26:49.000Z</time>
      </trkpt>
      <trkpt lat="47.33444" lon="-2.36859">
        <ele>-12.800000190735</ele>
        <time>2021-05-02T09:26:53.000Z</time>
      </trkpt>
      <trkpt lat="47.33447" lon="-2.36848">
        <ele>-13.199999809265</ele>
        <time>2021-05-02T09:26:55.000Z</time>
      </trkpt>
      <trkpt lat="47.3345" lon="-2.36842">
        <ele>-13.60000038147</ele>
        <time>2021-05-02T09:26:56.000Z</time>
      </trkpt>
      <trkpt lat="47.33453" lon="-2.36834">
        <ele>-14.199999809265</ele>
        <time>2021-05-02T09:26:57.000Z</time>
      </trkpt>
      <trkpt lat="47.33456" lon="-2.36825">
        <ele>-14.60000038147</ele>
        <time>2021-05-02T09:26:58.000Z</time>
      </trkpt>
      <trkpt lat="47.33459" lon="-2.36818">
        <ele>-15</ele>
        <time>2021-05-02T09:26:59.000Z</time>
      </trkpt>
      <trkpt lat="47.3346" lon="-2.36811">
        <ele>-15</ele>
        <time>2021-05-02T09:27:00.000Z</time>
      </trkpt>
      <trkpt lat="47.33464" lon="-2.3679">
        <ele>-15</ele>
        <time>2021-05-02T09:27:03.000Z</time>
      </trkpt>
      <trkpt lat="47.33476" lon="-2.36748">
        <ele>-15</ele>
        <time>2021-05-02T09:27:10.000Z</time>
      </trkpt>
      <trkpt lat="47.33489" lon="-2.36714">
        <ele>-15</ele>
        <time>2021-05-02T09:27:16.000Z</time>
      </trkpt>
      <trkpt lat="47.33498" lon="-2.36695">
        <ele>-15</ele>
        <time>2021-05-02T09:27:19.000Z</time>
      </trkpt>
      <trkpt lat="47.33504" lon="-2.36681">
        <ele>-15</ele>
        <time>2021-05-02T09:27:21.000Z</time>
      </trkpt>
      <trkpt lat="47.33516" lon="-2.36663">
        <ele>-15</ele>
        <time>2021-05-02T09:27:24.000Z</time>
      </trkpt>
      <trkpt lat="47.33527" lon="-2.36654">
        <ele>-15</ele>
        <time>2021-05-02T09:27:26.000Z</time>
      </trkpt>
      <trkpt lat="47.33537" lon="-2.36639">
        <ele>-15</ele>
        <time>2021-05-02T09:27:29.000Z</time>
      </trkpt>
      <trkpt lat="47.33537" lon="-2.36631">
        <ele>-15</ele>
        <time>2021-05-02T09:27:31.000Z</time>
      </trkpt>
      <trkpt lat="47.33531" lon="-2.36623">
        <ele>-15</ele>
        <time>2021-05-02T09:27:35.000Z</time>
      </trkpt>
      <trkpt lat="47.33529" lon="-2.36621">
        <ele>-15</ele>
        <time>2021-05-02T09:27:36.000Z</time>
      </trkpt>
      <trkpt lat="47.33527" lon="-2.36618">
        <ele>-14.60000038147</ele>
        <time>2021-05-02T09:27:37.000Z</time>
      </trkpt>
      <trkpt lat="47.33524" lon="-2.36616">
        <ele>-14</ele>
        <time>2021-05-02T09:27:38.000Z</time>
      </trkpt>
      <trkpt lat="47.33522" lon="-2.36614">
        <ele>-13.60000038147</ele>
        <time>2021-05-02T09:27:39.000Z</time>
      </trkpt>
      <trkpt lat="47.33518" lon="-2.36612">
        <ele>-13.199999809265</ele>
        <time>2021-05-02T09:27:40.000Z</time>
      </trkpt>
      <trkpt lat="47.33514" lon="-2.36611">
        <ele>-12.60000038147</ele>
        <time>2021-05-02T09:27:41.000Z</time>
      </trkpt>
      <trkpt lat="47.33504" lon="-2.36604">
        <ele>-11.800000190735</ele>
        <time>2021-05-02T09:27:44.000Z</time>
      </trkpt>
      <trkpt lat="47.33501" lon="-2.36601">
        <ele>-11.39999961853</ele>
        <time>2021-05-02T09:27:45.000Z</time>
      </trkpt>
      <trkpt lat="47.33498" lon="-2.36599">
        <ele>-11</ele>
        <time>2021-05-02T09:27:46.000Z</time>
      </trkpt>
      <trkpt lat="47.33494" lon="-2.36597">
        <ele>-10.39999961853</ele>
        <time>2021-05-02T09:27:47.000Z</time>
      </trkpt>
      <trkpt lat="47.33479" lon="-2.36597">
        <ele>-10.39999961853</ele>
        <time>2021-05-02T09:27:51.000Z</time>
      </trkpt>
      <trkpt lat="47.33473" lon="-2.36593">
        <ele>-10.39999961853</ele>
        <time>2021-05-02T09:27:53.000Z</time>
      </trkpt>
      <trkpt lat="47.33472" lon="-2.36589">
        <ele>-10.39999961853</ele>
        <time>2021-05-02T09:27:54.000Z</time>
      </trkpt>
      <trkpt lat="47.33472" lon="-2.3657">
        <ele>-10.39999961853</ele>
        <time>2021-05-02T09:27:58.000Z</time>
      </trkpt>
      <trkpt lat="47.33471" lon="-2.3655">
        <ele>-10.39999961853</ele>
        <time>2021-05-02T09:28:02.000Z</time>
      </trkpt>
      <trkpt lat="47.33472" lon="-2.3654">
        <ele>-10.39999961853</ele>
        <time>2021-05-02T09:28:04.000Z</time>
      </trkpt>
      <trkpt lat="47.33474" lon="-2.36506">
        <ele>-10</ele>
        <time>2021-05-02T09:28:10.000Z</time>
      </trkpt>
      <trkpt lat="47.33475" lon="-2.36501">
        <ele>-9.6000003814697</ele>
        <time>2021-05-02T09:28:11.000Z</time>
      </trkpt>
      <trkpt lat="47.33475" lon="-2.36495">
        <ele>-9.1999998092651</ele>
        <time>2021-05-02T09:28:12.000Z</time>
      </trkpt>
      <trkpt lat="47.33475" lon="-2.36489">
        <ele>-8.8000001907349</ele>
        <time>2021-05-02T09:28:13.000Z</time>
      </trkpt>
      <trkpt lat="47.33474" lon="-2.36484">
        <ele>-8.3999996185303</ele>
        <time>2021-05-02T09:28:14.000Z</time>
      </trkpt>
      <trkpt lat="47.33475" lon="-2.36469">
        <ele>-8.3999996185303</ele>
        <time>2021-05-02T09:28:17.000Z</time>
      </trkpt>
      <trkpt lat="47.33475" lon="-2.36436">
        <ele>-8.3999996185303</ele>
        <time>2021-05-02T09:28:24.000Z</time>
      </trkpt>
      <trkpt lat="47.33473" lon="-2.36431">
        <ele>-8.3999996185303</ele>
        <time>2021-05-02T09:28:25.000Z</time>
      </trkpt>
      <trkpt lat="47.33468" lon="-2.36425">
        <ele>-8.3999996185303</ele>
        <time>2021-05-02T09:28:27.000Z</time>
      </trkpt>
      <trkpt lat="47.33462" lon="-2.36422">
        <ele>-8.3999996185303</ele>
        <time>2021-05-02T09:28:29.000Z</time>
      </trkpt>
      <trkpt lat="47.33453" lon="-2.36415">
        <ele>-8.3999996185303</ele>
        <time>2021-05-02T09:28:32.000Z</time>
      </trkpt>
      <trkpt lat="47.33445" lon="-2.36401">
        <ele>-8.3999996185303</ele>
        <time>2021-05-02T09:28:37.000Z</time>
      </trkpt>
      <trkpt lat="47.33443" lon="-2.36392">
        <ele>-8.3999996185303</ele>
        <time>2021-05-02T09:28:40.000Z</time>
      </trkpt>
      <trkpt lat="47.33442" lon="-2.36389">
        <ele>-8.3999996185303</ele>
        <time>2021-05-02T09:28:41.000Z</time>
      </trkpt>
      <trkpt lat="47.33439" lon="-2.36379">
        <ele>-8.3999996185303</ele>
        <time>2021-05-02T09:28:43.000Z</time>
      </trkpt>
      <trkpt lat="47.33437" lon="-2.36373">
        <ele>-8</ele>
        <time>2021-05-02T09:28:44.000Z</time>
      </trkpt>
      <trkpt lat="47.33436" lon="-2.36367">
        <ele>-7.5999999046326</ele>
        <time>2021-05-02T09:28:45.000Z</time>
      </trkpt>
      <trkpt lat="47.33435" lon="-2.36361">
        <ele>-7.1999998092651</ele>
        <time>2021-05-02T09:28:46.000Z</time>
      </trkpt>
      <trkpt lat="47.33432" lon="-2.36356">
        <ele>-6.8000001907349</ele>
        <time>2021-05-02T09:28:47.000Z</time>
      </trkpt>
      <trkpt lat="47.3343" lon="-2.3635">
        <ele>-6.4000000953674</ele>
        <time>2021-05-02T09:28:48.000Z</time>
      </trkpt>
      <trkpt lat="47.33419" lon="-2.36313">
        <ele>-6.4000000953674</ele>
        <time>2021-05-02T09:28:55.000Z</time>
      </trkpt>
      <trkpt lat="47.33412" lon="-2.36277">
        <ele>-6</ele>
        <time>2021-05-02T09:29:01.000Z</time>
      </trkpt>
      <trkpt lat="47.33412" lon="-2.3627">
        <ele>-5.4000000953674</ele>
        <time>2021-05-02T09:29:02.000Z</time>
      </trkpt>
      <trkpt lat="47.33411" lon="-2.36264">
        <ele>-5</ele>
        <time>2021-05-02T09:29:03.000Z</time>
      </trkpt>
      <trkpt lat="47.33411" lon="-2.36257">
        <ele>-4.5999999046326</ele>
        <time>2021-05-02T09:29:04.000Z</time>
      </trkpt>
      <trkpt lat="47.33411" lon="-2.3625">
        <ele>-4.1999998092651</ele>
        <time>2021-05-02T09:29:05.000Z</time>
      </trkpt>
      <trkpt lat="47.33412" lon="-2.36223">
        <ele>-4.1999998092651</ele>
        <time>2021-05-02T09:29:09.000Z</time>
      </trkpt>
      <trkpt lat="47.33413" lon="-2.36216">
        <ele>-4.1999998092651</ele>
        <time>2021-05-02T09:29:10.000Z</time>
      </trkpt>
      <trkpt lat="47.33415" lon="-2.3619">
        <ele>-4.1999998092651</ele>
        <time>2021-05-02T09:29:14.000Z</time>
      </trkpt>
      <trkpt lat="47.33413" lon="-2.3618">
        <ele>-4.1999998092651</ele>
        <time>2021-05-02T09:29:16.000Z</time>
      </trkpt>
      <trkpt lat="47.3341" lon="-2.36168">
        <ele>-4.1999998092651</ele>
        <time>2021-05-02T09:29:19.000Z</time>
      </trkpt>
      <trkpt lat="47.33409" lon="-2.36165">
        <ele>-4.1999998092651</ele>
        <time>2021-05-02T09:29:23.000Z</time>
      </trkpt>
      <trkpt lat="47.33408" lon="-2.36163">
        <ele>-4.1999998092651</ele>
        <time>2021-05-02T09:30:30.000Z</time>
      </trkpt>
      <trkpt lat="47.33407" lon="-2.36162">
        <ele>-4.1999998092651</ele>
        <time>2021-05-02T09:30:31.000Z</time>
      </trkpt>
      <trkpt lat="47.33405" lon="-2.36162">
        <ele>-4.1999998092651</ele>
        <time>2021-05-02T09:30:32.000Z</time>
      </trkpt>
      <trkpt lat="47.33394" lon="-2.3617">
        <ele>-3.7999999523163</ele>
        <time>2021-05-02T09:30:36.000Z</time>
      </trkpt>
      <trkpt lat="47.3339" lon="-2.36173">
        <ele>-3.4000000953674</ele>
        <time>2021-05-02T09:30:37.000Z</time>
      </trkpt>
      <trkpt lat="47.33386" lon="-2.36176">
        <ele>-3</ele>
        <time>2021-05-02T09:30:38.000Z</time>
      </trkpt>
      <trkpt lat="47.33382" lon="-2.36178">
        <ele>-2.5999999046326</ele>
        <time>2021-05-02T09:30:39.000Z</time>
      </trkpt>
      <trkpt lat="47.33377" lon="-2.36181">
        <ele>-2.2000000476837</ele>
        <time>2021-05-02T09:30:40.000Z</time>
      </trkpt>
      <trkpt lat="47.33373" lon="-2.36183">
        <ele>-2.2000000476837</ele>
        <time>2021-05-02T09:30:41.000Z</time>
      </trkpt>
      <trkpt lat="47.33341" lon="-2.36204">
        <ele>-2.2000000476837</ele>
        <time>2021-05-02T09:30:48.000Z</time>
      </trkpt>
      <trkpt lat="47.33317" lon="-2.3622">
        <ele>-2.2000000476837</ele>
        <time>2021-05-02T09:30:53.000Z</time>
      </trkpt>
      <trkpt lat="47.33313" lon="-2.36219">
        <ele>-2.2000000476837</ele>
        <time>2021-05-02T09:30:54.000Z</time>
      </trkpt>
      <trkpt lat="47.33306" lon="-2.36199">
        <ele>-2.2000000476837</ele>
        <time>2021-05-02T09:30:57.000Z</time>
      </trkpt>
      <trkpt lat="47.33307" lon="-2.36166">
        <ele>-2.2000000476837</ele>
        <time>2021-05-02T09:31:01.000Z</time>
      </trkpt>
      <trkpt lat="47.33307" lon="-2.36102">
        <ele>-2.2000000476837</ele>
        <time>2021-05-02T09:31:09.000Z</time>
      </trkpt>
      <trkpt lat="47.33309" lon="-2.3604">
        <ele>-2.2000000476837</ele>
        <time>2021-05-02T09:31:17.000Z</time>
      </trkpt>
      <trkpt lat="47.33315" lon="-2.35986">
        <ele>-2.2000000476837</ele>
        <time>2021-05-02T09:31:24.000Z</time>
      </trkpt>
      <trkpt lat="47.33317" lon="-2.35978">
        <ele>-2.2000000476837</ele>
        <time>2021-05-02T09:31:25.000Z</time>
      </trkpt>
      <trkpt lat="47.33321" lon="-2.35946">
        <ele>-2.2000000476837</ele>
        <time>2021-05-02T09:31:29.000Z</time>
      </trkpt>
      <trkpt lat="47.3332" lon="-2.35938">
        <ele>-2.2000000476837</ele>
        <time>2021-05-02T09:31:30.000Z</time>
      </trkpt>
      <trkpt lat="47.33314" lon="-2.35915">
        <ele>-2.2000000476837</ele>
        <time>2021-05-02T09:31:33.000Z</time>
      </trkpt>
      <trkpt lat="47.33312" lon="-2.35908">
        <ele>-2.2000000476837</ele>
        <time>2021-05-02T09:31:34.000Z</time>
      </trkpt>
      <trkpt lat="47.33305" lon="-2.35894">
        <ele>-2.2000000476837</ele>
        <time>2021-05-02T09:31:36.000Z</time>
      </trkpt>
      <trkpt lat="47.33295" lon="-2.35884">
        <ele>-2.2000000476837</ele>
        <time>2021-05-02T09:31:38.000Z</time>
      </trkpt>
      <trkpt lat="47.33284" lon="-2.35877">
        <ele>-2.2000000476837</ele>
        <time>2021-05-02T09:31:40.000Z</time>
      </trkpt>
      <trkpt lat="47.33272" lon="-2.35868">
        <ele>-2.2000000476837</ele>
        <time>2021-05-02T09:31:42.000Z</time>
      </trkpt>
      <trkpt lat="47.33267" lon="-2.35862">
        <ele>-2.2000000476837</ele>
        <time>2021-05-02T09:31:43.000Z</time>
      </trkpt>
      <trkpt lat="47.33256" lon="-2.35849">
        <ele>-2.5999999046326</ele>
        <time>2021-05-02T09:31:45.000Z</time>
      </trkpt>
      <trkpt lat="47.3325" lon="-2.35843">
        <ele>-3</ele>
        <time>2021-05-02T09:31:46.000Z</time>
      </trkpt>
      <trkpt lat="47.33244" lon="-2.35836">
        <ele>-3.4000000953674</ele>
        <time>2021-05-02T09:31:47.000Z</time>
      </trkpt>
      <trkpt lat="47.33237" lon="-2.35831">
        <ele>-4</ele>
        <time>2021-05-02T09:31:48.000Z</time>
      </trkpt>
      <trkpt lat="47.33228" lon="-2.35827">
        <ele>-4.4000000953674</ele>
        <time>2021-05-02T09:31:49.000Z</time>
      </trkpt>
      <trkpt lat="47.3322" lon="-2.35822">
        <ele>-5.1999998092651</ele>
        <time>2021-05-02T09:31:50.000Z</time>
      </trkpt>
      <trkpt lat="47.33211" lon="-2.35819">
        <ele>-5.5999999046326</ele>
        <time>2021-05-02T09:31:51.000Z</time>
      </trkpt>
      <trkpt lat="47.33203" lon="-2.35816">
        <ele>-6</ele>
        <time>2021-05-02T09:31:52.000Z</time>
      </trkpt>
      <trkpt lat="47.33195" lon="-2.35814">
        <ele>-6.4000000953674</ele>
        <time>2021-05-02T09:31:53.000Z</time>
      </trkpt>
      <trkpt lat="47.33187" lon="-2.35812">
        <ele>-6.8000001907349</ele>
        <time>2021-05-02T09:31:54.000Z</time>
      </trkpt>
      <trkpt lat="47.33179" lon="-2.35811">
        <ele>-7.1999998092651</ele>
        <time>2021-05-02T09:31:55.000Z</time>
      </trkpt>
      <trkpt lat="47.33172" lon="-2.35811">
        <ele>-7.5999999046326</ele>
        <time>2021-05-02T09:31:56.000Z</time>
      </trkpt>
      <trkpt lat="47.33164" lon="-2.3581">
        <ele>-8</ele>
        <time>2021-05-02T09:31:57.000Z</time>
      </trkpt>
      <trkpt lat="47.33158" lon="-2.35809">
        <ele>-8.3999996185303</ele>
        <time>2021-05-02T09:31:58.000Z</time>
      </trkpt>
      <trkpt lat="47.33123" lon="-2.35806">
        <ele>-8.3999996185303</ele>
        <time>2021-05-02T09:32:03.000Z</time>
      </trkpt>
      <trkpt lat="47.33076" lon="-2.35808">
        <ele>-9</ele>
        <time>2021-05-02T09:32:09.000Z</time>
      </trkpt>
      <trkpt lat="47.33069" lon="-2.35808">
        <ele>-9.3999996185303</ele>
        <time>2021-05-02T09:32:10.000Z</time>
      </trkpt>
      <trkpt lat="47.33061" lon="-2.35808">
        <ele>-9.8000001907349</ele>
        <time>2021-05-02T09:32:11.000Z</time>
      </trkpt>
      <trkpt lat="47.33054" lon="-2.35808">
        <ele>-10.39999961853</ele>
        <time>2021-05-02T09:32:12.000Z</time>
      </trkpt>
      <trkpt lat="47.33046" lon="-2.35807">
        <ele>-10.800000190735</ele>
        <time>2021-05-02T09:32:13.000Z</time>
      </trkpt>
      <trkpt lat="47.33032" lon="-2.35802">
        <ele>-10.800000190735</ele>
        <time>2021-05-02T09:32:15.000Z</time>
      </trkpt>
      <trkpt lat="47.33025" lon="-2.35797">
        <ele>-10.800000190735</ele>
        <time>2021-05-02T09:32:16.000Z</time>
      </trkpt>
      <trkpt lat="47.3302" lon="-2.3579">
        <ele>-11.199999809265</ele>
        <time>2021-05-02T09:32:17.000Z</time>
      </trkpt>
      <trkpt lat="47.33014" lon="-2.35781">
        <ele>-11.60000038147</ele>
        <time>2021-05-02T09:32:18.000Z</time>
      </trkpt>
      <trkpt lat="47.3301" lon="-2.35771">
        <ele>-12</ele>
        <time>2021-05-02T09:32:19.000Z</time>
      </trkpt>
      <trkpt lat="47.33007" lon="-2.3576">
        <ele>-12.39999961853</ele>
        <time>2021-05-02T09:32:20.000Z</time>
      </trkpt>
      <trkpt lat="47.33005" lon="-2.35749">
        <ele>-12.800000190735</ele>
        <time>2021-05-02T09:32:21.000Z</time>
      </trkpt>
      <trkpt lat="47.33004" lon="-2.35726">
        <ele>-12.800000190735</ele>
        <time>2021-05-02T09:32:23.000Z</time>
      </trkpt>
      <trkpt lat="47.33005" lon="-2.35705">
        <ele>-12.800000190735</ele>
        <time>2021-05-02T09:32:25.000Z</time>
      </trkpt>
      <trkpt lat="47.3301" lon="-2.35674">
        <ele>-12.800000190735</ele>
        <time>2021-05-02T09:32:28.000Z</time>
      </trkpt>
      <trkpt lat="47.33014" lon="-2.35649">
        <ele>-12.800000190735</ele>
        <time>2021-05-02T09:32:31.000Z</time>
      </trkpt>
      <trkpt lat="47.33015" lon="-2.35635">
        <ele>-12.800000190735</ele>
        <time>2021-05-02T09:32:33.000Z</time>
      </trkpt>
      <trkpt lat="47.33021" lon="-2.35589">
        <ele>-12.800000190735</ele>
        <time>2021-05-02T09:32:39.000Z</time>
      </trkpt>
      <trkpt lat="47.33023" lon="-2.35541">
        <ele>-12.800000190735</ele>
        <time>2021-05-02T09:32:45.000Z</time>
      </trkpt>
      <trkpt lat="47.33024" lon="-2.35508">
        <ele>-12.39999961853</ele>
        <time>2021-05-02T09:32:49.000Z</time>
      </trkpt>
      <trkpt lat="47.33025" lon="-2.35499">
        <ele>-12</ele>
        <time>2021-05-02T09:32:50.000Z</time>
      </trkpt>
      <trkpt lat="47.33026" lon="-2.35491">
        <ele>-11.60000038147</ele>
        <time>2021-05-02T09:32:51.000Z</time>
      </trkpt>
      <trkpt lat="47.33027" lon="-2.35484">
        <ele>-11.199999809265</ele>
        <time>2021-05-02T09:32:52.000Z</time>
      </trkpt>
      <trkpt lat="47.33027" lon="-2.35476">
        <ele>-10.800000190735</ele>
        <time>2021-05-02T09:32:53.000Z</time>
      </trkpt>
      <trkpt lat="47.33029" lon="-2.35455">
        <ele>-10.800000190735</ele>
        <time>2021-05-02T09:32:56.000Z</time>
      </trkpt>
      <trkpt lat="47.33028" lon="-2.35448">
        <ele>-10.800000190735</ele>
        <time>2021-05-02T09:32:57.000Z</time>
      </trkpt>
      <trkpt lat="47.33028" lon="-2.35431">
        <ele>-10.800000190735</ele>
        <time>2021-05-02T09:33:00.000Z</time>
      </trkpt>
      <trkpt lat="47.33028" lon="-2.35405">
        <ele>-10</ele>
        <time>2021-05-02T09:33:04.000Z</time>
      </trkpt>
      <trkpt lat="47.33028" lon="-2.35397">
        <ele>-9.6000003814697</ele>
        <time>2021-05-02T09:33:05.000Z</time>
      </trkpt>
      <trkpt lat="47.33027" lon="-2.3539">
        <ele>-9.1999998092651</ele>
        <time>2021-05-02T09:33:06.000Z</time>
      </trkpt>
      <trkpt lat="47.33026" lon="-2.35383">
        <ele>-8.6000003814697</ele>
        <time>2021-05-02T09:33:07.000Z</time>
      </trkpt>
      <trkpt lat="47.3302" lon="-2.35335">
        <ele>-8.6000003814697</ele>
        <time>2021-05-02T09:33:14.000Z</time>
      </trkpt>
      <trkpt lat="47.33017" lon="-2.35287">
        <ele>-8.6000003814697</ele>
        <time>2021-05-02T09:33:20.000Z</time>
      </trkpt>
      <trkpt lat="47.33017" lon="-2.35279">
        <ele>-8.6000003814697</ele>
        <time>2021-05-02T09:33:21.000Z</time>
      </trkpt>
      <trkpt lat="47.33018" lon="-2.35271">
        <ele>-8.1999998092651</ele>
        <time>2021-05-02T09:33:22.000Z</time>
      </trkpt>
      <trkpt lat="47.3302" lon="-2.35262">
        <ele>-7.8000001907349</ele>
        <time>2021-05-02T09:33:23.000Z</time>
      </trkpt>
      <trkpt lat="47.33021" lon="-2.35254">
        <ele>-7.4000000953674</ele>
        <time>2021-05-02T09:33:24.000Z</time>
      </trkpt>
      <trkpt lat="47.33021" lon="-2.35246">
        <ele>-7</ele>
        <time>2021-05-02T09:33:25.000Z</time>
      </trkpt>
      <trkpt lat="47.33021" lon="-2.35238">
        <ele>-6.5999999046326</ele>
        <time>2021-05-02T09:33:26.000Z</time>
      </trkpt>
      <trkpt lat="47.33022" lon="-2.3523">
        <ele>-6.5999999046326</ele>
        <time>2021-05-02T09:33:27.000Z</time>
      </trkpt>
      <trkpt lat="47.33024" lon="-2.35222">
        <ele>-6.5999999046326</ele>
        <time>2021-05-02T09:33:28.000Z</time>
      </trkpt>
      <trkpt lat="47.33033" lon="-2.35201">
        <ele>-6.5999999046326</ele>
        <time>2021-05-02T09:33:31.000Z</time>
      </trkpt>
      <trkpt lat="47.33037" lon="-2.35194">
        <ele>-6.5999999046326</ele>
        <time>2021-05-02T09:33:32.000Z</time>
      </trkpt>
      <trkpt lat="47.33053" lon="-2.35164">
        <ele>-6.5999999046326</ele>
        <time>2021-05-02T09:33:38.000Z</time>
      </trkpt>
      <trkpt lat="47.33059" lon="-2.3515">
        <ele>-6.5999999046326</ele>
        <time>2021-05-02T09:33:44.000Z</time>
      </trkpt>
      <trkpt lat="47.3306" lon="-2.35148">
        <ele>-7</ele>
        <time>2021-05-02T09:33:47.000Z</time>
      </trkpt>
      <trkpt lat="47.33061" lon="-2.35146">
        <ele>-8.1999998092651</ele>
        <time>2021-05-02T09:33:50.000Z</time>
      </trkpt>
      <trkpt lat="47.33062" lon="-2.35143">
        <ele>-8.6000003814697</ele>
        <time>2021-05-02T09:33:51.000Z</time>
      </trkpt>
      <trkpt lat="47.33069" lon="-2.35123">
        <ele>-8.6000003814697</ele>
        <time>2021-05-02T09:33:56.000Z</time>
      </trkpt>
      <trkpt lat="47.33085" lon="-2.35091">
        <ele>-8.6000003814697</ele>
        <time>2021-05-02T09:34:02.000Z</time>
      </trkpt>
      <trkpt lat="47.33097" lon="-2.35071">
        <ele>-8.6000003814697</ele>
        <time>2021-05-02T09:34:06.000Z</time>
      </trkpt>
      <trkpt lat="47.33117" lon="-2.35039">
        <ele>-8.6000003814697</ele>
        <time>2021-05-02T09:34:12.000Z</time>
      </trkpt>
      <trkpt lat="47.33127" lon="-2.35023">
        <ele>-8.6000003814697</ele>
        <time>2021-05-02T09:34:15.000Z</time>
      </trkpt>
      <trkpt lat="47.33136" lon="-2.35009">
        <ele>-8.6000003814697</ele>
        <time>2021-05-02T09:34:18.000Z</time>
      </trkpt>
      <trkpt lat="47.33137" lon="-2.35009">
        <ele>-9</ele>
        <time>2021-05-02T09:34:19.000Z</time>
      </trkpt>
      <trkpt lat="47.3314" lon="-2.35009">
        <ele>-9.3999996185303</ele>
        <time>2021-05-02T09:34:20.000Z</time>
      </trkpt>
      <trkpt lat="47.33144" lon="-2.35009">
        <ele>-9.8000001907349</ele>
        <time>2021-05-02T09:34:21.000Z</time>
      </trkpt>
      <trkpt lat="47.33147" lon="-2.35011">
        <ele>-10.199999809265</ele>
        <time>2021-05-02T09:34:22.000Z</time>
      </trkpt>
      <trkpt lat="47.3315" lon="-2.35012">
        <ele>-10.60000038147</ele>
        <time>2021-05-02T09:34:23.000Z</time>
      </trkpt>
      <trkpt lat="47.33152" lon="-2.35014">
        <ele>-10.60000038147</ele>
        <time>2021-05-02T09:34:24.000Z</time>
      </trkpt>
      <trkpt lat="47.33157" lon="-2.35016">
        <ele>-10.60000038147</ele>
        <time>2021-05-02T09:34:26.000Z</time>
      </trkpt>
      <trkpt lat="47.33163" lon="-2.35014">
        <ele>-10.60000038147</ele>
        <time>2021-05-02T09:34:28.000Z</time>
      </trkpt>
      <trkpt lat="47.33175" lon="-2.35004">
        <ele>-10.60000038147</ele>
        <time>2021-05-02T09:34:31.000Z</time>
      </trkpt>
      <trkpt lat="47.33179" lon="-2.34998">
        <ele>-10.60000038147</ele>
        <time>2021-05-02T09:34:32.000Z</time>
      </trkpt>
      <trkpt lat="47.33206" lon="-2.34969">
        <ele>-10.60000038147</ele>
        <time>2021-05-02T09:34:37.000Z</time>
      </trkpt>
      <trkpt lat="47.33221" lon="-2.34954">
        <ele>-10.60000038147</ele>
        <time>2021-05-02T09:34:41.000Z</time>
      </trkpt>
      <trkpt lat="47.33229" lon="-2.34949">
        <ele>-10.60000038147</ele>
        <time>2021-05-02T09:34:43.000Z</time>
      </trkpt>
      <trkpt lat="47.33243" lon="-2.34943">
        <ele>-10.60000038147</ele>
        <time>2021-05-02T09:34:47.000Z</time>
      </trkpt>
      <trkpt lat="47.33263" lon="-2.34937">
        <ele>-10.60000038147</ele>
        <time>2021-05-02T09:34:53.000Z</time>
      </trkpt>
      <trkpt lat="47.33292" lon="-2.34933">
        <ele>-10.60000038147</ele>
        <time>2021-05-02T09:35:00.000Z</time>
      </trkpt>
      <trkpt lat="47.33308" lon="-2.34935">
        <ele>-10.60000038147</ele>
        <time>2021-05-02T09:35:06.000Z</time>
      </trkpt>
      <trkpt lat="47.33312" lon="-2.34935">
        <ele>-10.60000038147</ele>
        <time>2021-05-02T09:35:11.000Z</time>
      </trkpt>
      <trkpt lat="47.33345" lon="-2.34935">
        <ele>-10.60000038147</ele>
        <time>2021-05-02T09:36:19.000Z</time>
      </trkpt>
      <trkpt lat="47.3336" lon="-2.34927">
        <ele>-10.60000038147</ele>
        <time>2021-05-02T09:36:24.000Z</time>
      </trkpt>
      <trkpt lat="47.33366" lon="-2.34927">
        <ele>-10.199999809265</ele>
        <time>2021-05-02T09:36:26.000Z</time>
      </trkpt>
      <trkpt lat="47.3337" lon="-2.34927">
        <ele>-9.8000001907349</ele>
        <time>2021-05-02T09:36:27.000Z</time>
      </trkpt>
      <trkpt lat="47.33373" lon="-2.34926">
        <ele>-9.3999996185303</ele>
        <time>2021-05-02T09:36:28.000Z</time>
      </trkpt>
      <trkpt lat="47.33377" lon="-2.34927">
        <ele>-9</ele>
        <time>2021-05-02T09:36:29.000Z</time>
      </trkpt>
      <trkpt lat="47.33382" lon="-2.34925">
        <ele>-8.6000003814697</ele>
        <time>2021-05-02T09:36:30.000Z</time>
      </trkpt>
      <trkpt lat="47.33392" lon="-2.34921">
        <ele>-8.6000003814697</ele>
        <time>2021-05-02T09:36:32.000Z</time>
      </trkpt>
      <trkpt lat="47.33397" lon="-2.34919">
        <ele>-8.6000003814697</ele>
        <time>2021-05-02T09:36:33.000Z</time>
      </trkpt>
      <trkpt lat="47.33429" lon="-2.34907">
        <ele>-8.6000003814697</ele>
        <time>2021-05-02T09:36:39.000Z</time>
      </trkpt>
      <trkpt lat="47.33452" lon="-2.34901">
        <ele>-8.1999998092651</ele>
        <time>2021-05-02T09:36:43.000Z</time>
      </trkpt>
      <trkpt lat="47.33457" lon="-2.34899">
        <ele>-7.8000001907349</ele>
        <time>2021-05-02T09:36:44.000Z</time>
      </trkpt>
      <trkpt lat="47.33462" lon="-2.34897">
        <ele>-7.4000000953674</ele>
        <time>2021-05-02T09:36:45.000Z</time>
      </trkpt>
      <trkpt lat="47.33466" lon="-2.34897">
        <ele>-6.5999999046326</ele>
        <time>2021-05-02T09:36:46.000Z</time>
      </trkpt>
      <trkpt lat="47.33479" lon="-2.34892">
        <ele>-6.5999999046326</ele>
        <time>2021-05-02T09:36:49.000Z</time>
      </trkpt>
      <trkpt lat="47.33484" lon="-2.3489">
        <ele>-6.5999999046326</ele>
        <time>2021-05-02T09:36:50.000Z</time>
      </trkpt>
      <trkpt lat="47.33488" lon="-2.34889">
        <ele>-6.5999999046326</ele>
        <time>2021-05-02T09:36:51.000Z</time>
      </trkpt>
      <trkpt lat="47.33503" lon="-2.34893">
        <ele>-6.5999999046326</ele>
        <time>2021-05-02T09:36:55.000Z</time>
      </trkpt>
      <trkpt lat="47.33525" lon="-2.34905">
        <ele>-6.5999999046326</ele>
        <time>2021-05-02T09:37:01.000Z</time>
      </trkpt>
      <trkpt lat="47.33539" lon="-2.3491">
        <ele>-6.5999999046326</ele>
        <time>2021-05-02T09:37:06.000Z</time>
      </trkpt>
      <trkpt lat="47.3356" lon="-2.34922">
        <ele>-6.5999999046326</ele>
        <time>2021-05-02T09:37:12.000Z</time>
      </trkpt>
      <trkpt lat="47.33593" lon="-2.34941">
        <ele>-6.5999999046326</ele>
        <time>2021-05-02T09:37:19.000Z</time>
      </trkpt>
      <trkpt lat="47.336" lon="-2.34944">
        <ele>-6.5999999046326</ele>
        <time>2021-05-02T09:37:20.000Z</time>
      </trkpt>
      <trkpt lat="47.33608" lon="-2.34949">
        <ele>-7</ele>
        <time>2021-05-02T09:37:21.000Z</time>
      </trkpt>
      <trkpt lat="47.33616" lon="-2.34953">
        <ele>-7.4000000953674</ele>
        <time>2021-05-02T09:37:22.000Z</time>
      </trkpt>
      <trkpt lat="47.33622" lon="-2.34957">
        <ele>-7.8000001907349</ele>
        <time>2021-05-02T09:37:23.000Z</time>
      </trkpt>
      <trkpt lat="47.33629" lon="-2.3496">
        <ele>-8.1999998092651</ele>
        <time>2021-05-02T09:37:24.000Z</time>
      </trkpt>
      <trkpt lat="47.33634" lon="-2.34962">
        <ele>-8.6000003814697</ele>
        <time>2021-05-02T09:37:25.000Z</time>
      </trkpt>
      <trkpt lat="47.33648" lon="-2.3496">
        <ele>-8.6000003814697</ele>
        <time>2021-05-02T09:37:27.000Z</time>
      </trkpt>
      <trkpt lat="47.33663" lon="-2.34964">
        <ele>-9</ele>
        <time>2021-05-02T09:37:29.000Z</time>
      </trkpt>
      <trkpt lat="47.3367" lon="-2.34967">
        <ele>-9.6000003814697</ele>
        <time>2021-05-02T09:37:30.000Z</time>
      </trkpt>
      <trkpt lat="47.33674" lon="-2.34967">
        <ele>-10</ele>
        <time>2021-05-02T09:37:31.000Z</time>
      </trkpt>
      <trkpt lat="47.33676" lon="-2.34967">
        <ele>-10.39999961853</ele>
        <time>2021-05-02T09:37:32.000Z</time>
      </trkpt>
      <trkpt lat="47.33678" lon="-2.34968">
        <ele>-10.800000190735</ele>
        <time>2021-05-02T09:37:33.000Z</time>
      </trkpt>
      <trkpt lat="47.3368" lon="-2.34967">
        <ele>-10.800000190735</ele>
        <time>2021-05-02T09:37:36.000Z</time>
      </trkpt>
      <trkpt lat="47.33678" lon="-2.34966">
        <ele>-10.800000190735</ele>
        <time>2021-05-02T09:37:37.000Z</time>
      </trkpt>
      <trkpt lat="47.33674" lon="-2.34961">
        <ele>-10.800000190735</ele>
        <time>2021-05-02T09:37:39.000Z</time>
      </trkpt>
      <trkpt lat="47.33665" lon="-2.3495">
        <ele>-10.800000190735</ele>
        <time>2021-05-02T09:37:44.000Z</time>
      </trkpt>
      <trkpt lat="47.33648" lon="-2.34929">
        <ele>-10.800000190735</ele>
        <time>2021-05-02T09:37:50.000Z</time>
      </trkpt>
      <trkpt lat="47.3363" lon="-2.34907">
        <ele>-10.800000190735</ele>
        <time>2021-05-02T09:37:55.000Z</time>
      </trkpt>
      <trkpt lat="47.33626" lon="-2.34902">
        <ele>-10.800000190735</ele>
        <time>2021-05-02T09:37:56.000Z</time>
      </trkpt>
      <trkpt lat="47.33615" lon="-2.34886">
        <ele>-10.39999961853</ele>
        <time>2021-05-02T09:37:59.000Z</time>
      </trkpt>
      <trkpt lat="47.33611" lon="-2.34881">
        <ele>-9.6000003814697</ele>
        <time>2021-05-02T09:38:00.000Z</time>
      </trkpt>
      <trkpt lat="47.33608" lon="-2.34876">
        <ele>-9.1999998092651</ele>
        <time>2021-05-02T09:38:01.000Z</time>
      </trkpt>
      <trkpt lat="47.33604" lon="-2.34871">
        <ele>-8.8000001907349</ele>
        <time>2021-05-02T09:38:02.000Z</time>
      </trkpt>
      <trkpt lat="47.336" lon="-2.34867">
        <ele>-8.8000001907349</ele>
        <time>2021-05-02T09:38:03.000Z</time>
      </trkpt>
      <trkpt lat="47.33574" lon="-2.34835">
        <ele>-8.8000001907349</ele>
        <time>2021-05-02T09:38:10.000Z</time>
      </trkpt>
      <trkpt lat="47.33563" lon="-2.34821">
        <ele>-8.8000001907349</ele>
        <time>2021-05-02T09:38:13.000Z</time>
      </trkpt>
      <trkpt lat="47.33552" lon="-2.34809">
        <ele>-8.8000001907349</ele>
        <time>2021-05-02T09:38:16.000Z</time>
      </trkpt>
      <trkpt lat="47.33535" lon="-2.3478">
        <ele>-8.8000001907349</ele>
        <time>2021-05-02T09:38:21.000Z</time>
      </trkpt>
      <trkpt lat="47.33524" lon="-2.34766">
        <ele>-8.3999996185303</ele>
        <time>2021-05-02T09:38:23.000Z</time>
      </trkpt>
      <trkpt lat="47.3352" lon="-2.34759">
        <ele>-8</ele>
        <time>2021-05-02T09:38:24.000Z</time>
      </trkpt>
      <trkpt lat="47.33516" lon="-2.34752">
        <ele>-7.1999998092651</ele>
        <time>2021-05-02T09:38:25.000Z</time>
      </trkpt>
      <trkpt lat="47.33512" lon="-2.34745">
        <ele>-6.8000001907349</ele>
        <time>2021-05-02T09:38:26.000Z</time>
      </trkpt>
      <trkpt lat="47.33507" lon="-2.34739">
        <ele>-6.8000001907349</ele>
        <time>2021-05-02T09:38:27.000Z</time>
      </trkpt>
      <trkpt lat="47.33484" lon="-2.34709">
        <ele>-6.8000001907349</ele>
        <time>2021-05-02T09:38:31.000Z</time>
      </trkpt>
      <trkpt lat="47.33479" lon="-2.34699">
        <ele>-6.8000001907349</ele>
        <time>2021-05-02T09:38:32.000Z</time>
      </trkpt>
      <trkpt lat="47.33452" lon="-2.34656">
        <ele>-6.8000001907349</ele>
        <time>2021-05-02T09:38:37.000Z</time>
      </trkpt>
      <trkpt lat="47.33441" lon="-2.34637">
        <ele>-7.1999998092651</ele>
        <time>2021-05-02T09:38:39.000Z</time>
      </trkpt>
      <trkpt lat="47.33436" lon="-2.34628">
        <ele>-7.5999999046326</ele>
        <time>2021-05-02T09:38:40.000Z</time>
      </trkpt>
      <trkpt lat="47.33432" lon="-2.34618">
        <ele>-8</ele>
        <time>2021-05-02T09:38:41.000Z</time>
      </trkpt>
      <trkpt lat="47.33426" lon="-2.34608">
        <ele>-8.3999996185303</ele>
        <time>2021-05-02T09:38:42.000Z</time>
      </trkpt>
      <trkpt lat="47.33421" lon="-2.34599">
        <ele>-9</ele>
        <time>2021-05-02T09:38:43.000Z</time>
      </trkpt>
      <trkpt lat="47.33416" lon="-2.34589">
        <ele>-9</ele>
        <time>2021-05-02T09:38:44.000Z</time>
      </trkpt>
      <trkpt lat="47.33395" lon="-2.34549">
        <ele>-9.3999996185303</ele>
        <time>2021-05-02T09:38:48.000Z</time>
      </trkpt>
      <trkpt lat="47.3339" lon="-2.34539">
        <ele>-10.199999809265</ele>
        <time>2021-05-02T09:38:49.000Z</time>
      </trkpt>
      <trkpt lat="47.33385" lon="-2.34529">
        <ele>-10.60000038147</ele>
        <time>2021-05-02T09:38:50.000Z</time>
      </trkpt>
      <trkpt lat="47.33379" lon="-2.34518">
        <ele>-11.199999809265</ele>
        <time>2021-05-02T09:38:51.000Z</time>
      </trkpt>
      <trkpt lat="47.33375" lon="-2.34509">
        <ele>-11.199999809265</ele>
        <time>2021-05-02T09:38:52.000Z</time>
      </trkpt>
      <trkpt lat="47.33371" lon="-2.34502">
        <ele>-11.60000038147</ele>
        <time>2021-05-02T09:38:53.000Z</time>
      </trkpt>
      <trkpt lat="47.33367" lon="-2.34495">
        <ele>-12</ele>
        <time>2021-05-02T09:38:54.000Z</time>
      </trkpt>
      <trkpt lat="47.33364" lon="-2.3449">
        <ele>-12.39999961853</ele>
        <time>2021-05-02T09:38:55.000Z</time>
      </trkpt>
      <trkpt lat="47.33362" lon="-2.34488">
        <ele>-12.800000190735</ele>
        <time>2021-05-02T09:38:56.000Z</time>
      </trkpt>
      <trkpt lat="47.33359" lon="-2.34486">
        <ele>-13.199999809265</ele>
        <time>2021-05-02T09:38:57.000Z</time>
      </trkpt>
      <trkpt lat="47.33358" lon="-2.34487">
        <ele>-13.199999809265</ele>
        <time>2021-05-02T09:38:58.000Z</time>
      </trkpt>
      <trkpt lat="47.33357" lon="-2.3449">
        <ele>-13.199999809265</ele>
        <time>2021-05-02T09:38:59.000Z</time>
      </trkpt>
      <trkpt lat="47.33352" lon="-2.34499">
        <ele>-13.199999809265</ele>
        <time>2021-05-02T09:39:05.000Z</time>
      </trkpt>
      <trkpt lat="47.33348" lon="-2.34508">
        <ele>-13.60000038147</ele>
        <time>2021-05-02T09:39:10.000Z</time>
      </trkpt>
      <trkpt lat="47.33347" lon="-2.3451">
        <ele>-14</ele>
        <time>2021-05-02T09:39:11.000Z</time>
      </trkpt>
      <trkpt lat="47.33347" lon="-2.34512">
        <ele>-14.39999961853</ele>
        <time>2021-05-02T09:39:12.000Z</time>
      </trkpt>
      <trkpt lat="47.33346" lon="-2.34514">
        <ele>-14.800000190735</ele>
        <time>2021-05-02T09:39:13.000Z</time>
      </trkpt>
      <trkpt lat="47.33346" lon="-2.34514">
        <ele>-15.199999809265</ele>
        <time>2021-05-02T09:39:14.000Z</time>
      </trkpt>
      <trkpt lat="47.33346" lon="-2.34514">
        <ele>-15.199999809265</ele>
        <time>2021-05-02T09:39:15.000Z</time>
      </trkpt>
      <trkpt lat="47.33343" lon="-2.34519">
        <ele>-15.199999809265</ele>
        <time>2021-05-02T09:41:00.000Z</time>
      </trkpt>
      <trkpt lat="47.33342" lon="-2.34521">
        <ele>-15.199999809265</ele>
        <time>2021-05-02T09:41:01.000Z</time>
      </trkpt>
      <trkpt lat="47.33337" lon="-2.34537">
        <ele>-15.199999809265</ele>
        <time>2021-05-02T09:41:06.000Z</time>
      </trkpt>
      <trkpt lat="47.3333" lon="-2.34558">
        <ele>-15.199999809265</ele>
        <time>2021-05-02T09:41:13.000Z</time>
      </trkpt>
      <trkpt lat="47.33324" lon="-2.34577">
        <ele>-15.199999809265</ele>
        <time>2021-05-02T09:41:18.000Z</time>
      </trkpt>
      <trkpt lat="47.33312" lon="-2.34614">
        <ele>-15.199999809265</ele>
        <time>2021-05-02T09:41:25.000Z</time>
      </trkpt>
      <trkpt lat="47.33304" lon="-2.34631">
        <ele>-15.199999809265</ele>
        <time>2021-05-02T09:41:29.000Z</time>
      </trkpt>
      <trkpt lat="47.33295" lon="-2.34653">
        <ele>-15.199999809265</ele>
        <time>2021-05-02T09:41:35.000Z</time>
      </trkpt>
      <trkpt lat="47.33292" lon="-2.34658">
        <ele>-15.199999809265</ele>
        <time>2021-05-02T09:41:37.000Z</time>
      </trkpt>
      <trkpt lat="47.33288" lon="-2.34667">
        <ele>-17</ele>
        <time>2021-05-02T09:41:49.000Z</time>
      </trkpt>
      <trkpt lat="47.33287" lon="-2.34671">
        <ele>-17</ele>
        <time>2021-05-02T09:41:50.000Z</time>
      </trkpt>
      <trkpt lat="47.33279" lon="-2.34694">
        <ele>-17</ele>
        <time>2021-05-02T09:41:55.000Z</time>
      </trkpt>
      <trkpt lat="47.3327" lon="-2.34721">
        <ele>-17</ele>
        <time>2021-05-02T09:42:00.000Z</time>
      </trkpt>
      <trkpt lat="47.33262" lon="-2.34735">
        <ele>-17</ele>
        <time>2021-05-02T09:42:05.000Z</time>
      </trkpt>
      <trkpt lat="47.33258" lon="-2.34742">
        <ele>-17</ele>
        <time>2021-05-02T09:42:09.000Z</time>
      </trkpt>
      <trkpt lat="47.33258" lon="-2.34745">
        <ele>-17</ele>
        <time>2021-05-02T09:42:10.000Z</time>
      </trkpt>
      <trkpt lat="47.33254" lon="-2.34763">
        <ele>-17</ele>
        <time>2021-05-02T09:42:15.000Z</time>
      </trkpt>
      <trkpt lat="47.33246" lon="-2.34787">
        <ele>-17</ele>
        <time>2021-05-02T09:42:20.000Z</time>
      </trkpt>
      <trkpt lat="47.33237" lon="-2.34819">
        <ele>-17</ele>
        <time>2021-05-02T09:42:26.000Z</time>
      </trkpt>
      <trkpt lat="47.33227" lon="-2.34839">
        <ele>-17</ele>
        <time>2021-05-02T09:42:31.000Z</time>
      </trkpt>
      <trkpt lat="47.33226" lon="-2.34843">
        <ele>-16.60000038147</ele>
        <time>2021-05-02T09:42:32.000Z</time>
      </trkpt>
      <trkpt lat="47.33224" lon="-2.34847">
        <ele>-16.200000762939</ele>
        <time>2021-05-02T09:42:33.000Z</time>
      </trkpt>
      <trkpt lat="47.33223" lon="-2.3485">
        <ele>-15.800000190735</ele>
        <time>2021-05-02T09:42:34.000Z</time>
      </trkpt>
      <trkpt lat="47.33221" lon="-2.34856">
        <ele>-15.39999961853</ele>
        <time>2021-05-02T09:42:35.000Z</time>
      </trkpt>
      <trkpt lat="47.3322" lon="-2.3486">
        <ele>-15</ele>
        <time>2021-05-02T09:42:36.000Z</time>
      </trkpt>
      <trkpt lat="47.33217" lon="-2.3487">
        <ele>-15</ele>
        <time>2021-05-02T09:42:38.000Z</time>
      </trkpt>
      <trkpt lat="47.33204" lon="-2.34902">
        <ele>-15</ele>
        <time>2021-05-02T09:42:45.000Z</time>
      </trkpt>
      <trkpt lat="47.3319" lon="-2.3493">
        <ele>-15</ele>
        <time>2021-05-02T09:42:51.000Z</time>
      </trkpt>
      <trkpt lat="47.33182" lon="-2.34946">
        <ele>-14.60000038147</ele>
        <time>2021-05-02T09:42:54.000Z</time>
      </trkpt>
      <trkpt lat="47.33178" lon="-2.34952">
        <ele>-14.199999809265</ele>
        <time>2021-05-02T09:42:55.000Z</time>
      </trkpt>
      <trkpt lat="47.33175" lon="-2.34956">
        <ele>-13.39999961853</ele>
        <time>2021-05-02T09:42:56.000Z</time>
      </trkpt>
      <trkpt lat="47.33172" lon="-2.3496">
        <ele>-13</ele>
        <time>2021-05-02T09:42:57.000Z</time>
      </trkpt>
      <trkpt lat="47.33165" lon="-2.34972">
        <ele>-13</ele>
        <time>2021-05-02T09:43:01.000Z</time>
      </trkpt>
      <trkpt lat="47.3316" lon="-2.34985">
        <ele>-13</ele>
        <time>2021-05-02T09:43:06.000Z</time>
      </trkpt>
      <trkpt lat="47.33157" lon="-2.34988">
        <ele>-13</ele>
        <time>2021-05-02T09:43:08.000Z</time>
      </trkpt>
      <trkpt lat="47.33152" lon="-2.34993">
        <ele>-13</ele>
        <time>2021-05-02T09:43:10.000Z</time>
      </trkpt>
      <trkpt lat="47.33147" lon="-2.35006">
        <ele>-13</ele>
        <time>2021-05-02T09:43:12.000Z</time>
      </trkpt>
      <trkpt lat="47.33141" lon="-2.35021">
        <ele>-13</ele>
        <time>2021-05-02T09:43:15.000Z</time>
      </trkpt>
      <trkpt lat="47.33127" lon="-2.35048">
        <ele>-13</ele>
        <time>2021-05-02T09:43:21.000Z</time>
      </trkpt>
      <trkpt lat="47.33107" lon="-2.35074">
        <ele>-12.60000038147</ele>
        <time>2021-05-02T09:43:27.000Z</time>
      </trkpt>
      <trkpt lat="47.33104" lon="-2.35078">
        <ele>-12.199999809265</ele>
        <time>2021-05-02T09:43:28.000Z</time>
      </trkpt>
      <trkpt lat="47.33101" lon="-2.35082">
        <ele>-11.800000190735</ele>
        <time>2021-05-02T09:43:29.000Z</time>
      </trkpt>
      <trkpt lat="47.33098" lon="-2.35089">
        <ele>-11.199999809265</ele>
        <time>2021-05-02T09:43:30.000Z</time>
      </trkpt>
      <trkpt lat="47.33095" lon="-2.35095">
        <ele>-10.800000190735</ele>
        <time>2021-05-02T09:43:31.000Z</time>
      </trkpt>
      <trkpt lat="47.33092" lon="-2.35101">
        <ele>-10.800000190735</ele>
        <time>2021-05-02T09:43:32.000Z</time>
      </trkpt>
      <trkpt lat="47.33075" lon="-2.35121">
        <ele>-10.800000190735</ele>
        <time>2021-05-02T09:43:37.000Z</time>
      </trkpt>
      <trkpt lat="47.33068" lon="-2.35127">
        <ele>-10.800000190735</ele>
        <time>2021-05-02T09:43:39.000Z</time>
      </trkpt>
      <trkpt lat="47.33057" lon="-2.35144">
        <ele>-10.800000190735</ele>
        <time>2021-05-02T09:43:42.000Z</time>
      </trkpt>
      <trkpt lat="47.33045" lon="-2.3517">
        <ele>-10.800000190735</ele>
        <time>2021-05-02T09:43:46.000Z</time>
      </trkpt>
      <trkpt lat="47.33042" lon="-2.35176">
        <ele>-10.800000190735</ele>
        <time>2021-05-02T09:43:47.000Z</time>
      </trkpt>
      <trkpt lat="47.3303" lon="-2.35194">
        <ele>-10.800000190735</ele>
        <time>2021-05-02T09:43:52.000Z</time>
      </trkpt>
      <trkpt lat="47.33026" lon="-2.35189">
        <ele>-10.800000190735</ele>
        <time>2021-05-02T09:43:55.000Z</time>
      </trkpt>
      <trkpt lat="47.3302" lon="-2.35166">
        <ele>-10.800000190735</ele>
        <time>2021-05-02T09:44:00.000Z</time>
      </trkpt>
      <trkpt lat="47.33016" lon="-2.35135">
        <ele>-10.800000190735</ele>
        <time>2021-05-02T09:44:05.000Z</time>
      </trkpt>
      <trkpt lat="47.33015" lon="-2.35127">
        <ele>-10.800000190735</ele>
        <time>2021-05-02T09:44:06.000Z</time>
      </trkpt>
      <trkpt lat="47.33012" lon="-2.35111">
        <ele>-10.800000190735</ele>
        <time>2021-05-02T09:44:08.000Z</time>
      </trkpt>
      <trkpt lat="47.33012" lon="-2.35099">
        <ele>-10.800000190735</ele>
        <time>2021-05-02T09:44:10.000Z</time>
      </trkpt>
      <trkpt lat="47.33011" lon="-2.35083">
        <ele>-10.800000190735</ele>
        <time>2021-05-02T09:44:13.000Z</time>
      </trkpt>
      <trkpt lat="47.3301" lon="-2.35077">
        <ele>-10.800000190735</ele>
        <time>2021-05-02T09:44:14.000Z</time>
      </trkpt>
      <trkpt lat="47.33004" lon="-2.35054">
        <ele>-10.800000190735</ele>
        <time>2021-05-02T09:44:18.000Z</time>
      </trkpt>
      <trkpt lat="47.33004" lon="-2.35048">
        <ele>-10.800000190735</ele>
        <time>2021-05-02T09:44:19.000Z</time>
      </trkpt>
      <trkpt lat="47.33001" lon="-2.35027">
        <ele>-10.800000190735</ele>
        <time>2021-05-02T09:44:23.000Z</time>
      </trkpt>
      <trkpt lat="47.33001" lon="-2.35022">
        <ele>-10.800000190735</ele>
        <time>2021-05-02T09:44:24.000Z</time>
      </trkpt>
      <trkpt lat="47.32992" lon="-2.34997">
        <ele>-10.800000190735</ele>
        <time>2021-05-02T09:44:29.000Z</time>
      </trkpt>
      <trkpt lat="47.32981" lon="-2.34969">
        <ele>-10.800000190735</ele>
        <time>2021-05-02T09:44:34.000Z</time>
      </trkpt>
      <trkpt lat="47.32977" lon="-2.3496">
        <ele>-11.39999961853</ele>
        <time>2021-05-02T09:44:36.000Z</time>
      </trkpt>
      <trkpt lat="47.32975" lon="-2.34955">
        <ele>-11.800000190735</ele>
        <time>2021-05-02T09:44:37.000Z</time>
      </trkpt>
      <trkpt lat="47.32972" lon="-2.34947">
        <ele>-12.199999809265</ele>
        <time>2021-05-02T09:44:38.000Z</time>
      </trkpt>
      <trkpt lat="47.32969" lon="-2.34941">
        <ele>-12.60000038147</ele>
        <time>2021-05-02T09:44:39.000Z</time>
      </trkpt>
      <trkpt lat="47.32967" lon="-2.34934">
        <ele>-13</ele>
        <time>2021-05-02T09:44:40.000Z</time>
      </trkpt>
      <trkpt lat="47.32964" lon="-2.34927">
        <ele>-13</ele>
        <time>2021-05-02T09:44:41.000Z</time>
      </trkpt>
      <trkpt lat="47.32959" lon="-2.34912">
        <ele>-13</ele>
        <time>2021-05-02T09:44:43.000Z</time>
      </trkpt>
      <trkpt lat="47.32948" lon="-2.34883">
        <ele>-13</ele>
        <time>2021-05-02T09:44:47.000Z</time>
      </trkpt>
      <trkpt lat="47.32943" lon="-2.3487">
        <ele>-13</ele>
        <time>2021-05-02T09:44:49.000Z</time>
      </trkpt>
      <trkpt lat="47.32937" lon="-2.34856">
        <ele>-13</ele>
        <time>2021-05-02T09:44:51.000Z</time>
      </trkpt>
      <trkpt lat="47.32927" lon="-2.34831">
        <ele>-13</ele>
        <time>2021-05-02T09:44:55.000Z</time>
      </trkpt>
      <trkpt lat="47.3291" lon="-2.34798">
        <ele>-13</ele>
        <time>2021-05-02T09:45:01.000Z</time>
      </trkpt>
      <trkpt lat="47.32901" lon="-2.34795">
        <ele>-13</ele>
        <time>2021-05-02T09:45:03.000Z</time>
      </trkpt>
      <trkpt lat="47.32897" lon="-2.34797">
        <ele>-13</ele>
        <time>2021-05-02T09:45:04.000Z</time>
      </trkpt>
      <trkpt lat="47.32873" lon="-2.34812">
        <ele>-13</ele>
        <time>2021-05-02T09:45:09.000Z</time>
      </trkpt>
      <trkpt lat="47.32864" lon="-2.34819">
        <ele>-13</ele>
        <time>2021-05-02T09:45:11.000Z</time>
      </trkpt>
      <trkpt lat="47.32843" lon="-2.3483">
        <ele>-13</ele>
        <time>2021-05-02T09:45:15.000Z</time>
      </trkpt>
      <trkpt lat="47.32812" lon="-2.34852">
        <ele>-13</ele>
        <time>2021-05-02T09:45:21.000Z</time>
      </trkpt>
      <trkpt lat="47.3277" lon="-2.34883">
        <ele>-13</ele>
        <time>2021-05-02T09:45:29.000Z</time>
      </trkpt>
      <trkpt lat="47.32738" lon="-2.34905">
        <ele>-13</ele>
        <time>2021-05-02T09:45:35.000Z</time>
      </trkpt>
      <trkpt lat="47.32717" lon="-2.34921">
        <ele>-13</ele>
        <time>2021-05-02T09:45:39.000Z</time>
      </trkpt>
      <trkpt lat="47.32707" lon="-2.34929">
        <ele>-13</ele>
        <time>2021-05-02T09:45:41.000Z</time>
      </trkpt>
      <trkpt lat="47.32675" lon="-2.34953">
        <ele>-13</ele>
        <time>2021-05-02T09:45:48.000Z</time>
      </trkpt>
      <trkpt lat="47.32668" lon="-2.34956">
        <ele>-13</ele>
        <time>2021-05-02T09:45:51.000Z</time>
      </trkpt>
      <trkpt lat="47.32657" lon="-2.34958">
        <ele>-13</ele>
        <time>2021-05-02T09:45:57.000Z</time>
      </trkpt>
      <trkpt lat="47.32644" lon="-2.34971">
        <ele>-13</ele>
        <time>2021-05-02T09:46:02.000Z</time>
      </trkpt>
      <trkpt lat="47.32632" lon="-2.3498">
        <ele>-13</ele>
        <time>2021-05-02T09:46:05.000Z</time>
      </trkpt>
      <trkpt lat="47.32627" lon="-2.34981">
        <ele>-12.60000038147</ele>
        <time>2021-05-02T09:46:06.000Z</time>
      </trkpt>
      <trkpt lat="47.32622" lon="-2.34983">
        <ele>-12.199999809265</ele>
        <time>2021-05-02T09:46:07.000Z</time>
      </trkpt>
      <trkpt lat="47.32617" lon="-2.34985">
        <ele>-11.800000190735</ele>
        <time>2021-05-02T09:46:08.000Z</time>
      </trkpt>
      <trkpt lat="47.32612" lon="-2.34988">
        <ele>-11.39999961853</ele>
        <time>2021-05-02T09:46:09.000Z</time>
      </trkpt>
      <trkpt lat="47.32607" lon="-2.3499">
        <ele>-11</ele>
        <time>2021-05-02T09:46:10.000Z</time>
      </trkpt>
      <trkpt lat="47.32601" lon="-2.34993">
        <ele>-11</ele>
        <time>2021-05-02T09:46:11.000Z</time>
      </trkpt>
      <trkpt lat="47.32582" lon="-2.35">
        <ele>-10.39999961853</ele>
        <time>2021-05-02T09:46:14.000Z</time>
      </trkpt>
      <trkpt lat="47.32577" lon="-2.35003">
        <ele>-10</ele>
        <time>2021-05-02T09:46:15.000Z</time>
      </trkpt>
      <trkpt lat="47.32571" lon="-2.35006">
        <ele>-9.6000003814697</ele>
        <time>2021-05-02T09:46:16.000Z</time>
      </trkpt>
      <trkpt lat="47.32565" lon="-2.35009">
        <ele>-9.1999998092651</ele>
        <time>2021-05-02T09:46:17.000Z</time>
      </trkpt>
      <trkpt lat="47.32559" lon="-2.35012">
        <ele>-8.6000003814697</ele>
        <time>2021-05-02T09:46:18.000Z</time>
      </trkpt>
      <trkpt lat="47.32535" lon="-2.35019">
        <ele>-8.6000003814697</ele>
        <time>2021-05-02T09:46:22.000Z</time>
      </trkpt>
      <trkpt lat="47.32499" lon="-2.3503">
        <ele>-8.6000003814697</ele>
        <time>2021-05-02T09:46:28.000Z</time>
      </trkpt>
      <trkpt lat="47.32493" lon="-2.35032">
        <ele>-8.6000003814697</ele>
        <time>2021-05-02T09:46:29.000Z</time>
      </trkpt>
      <trkpt lat="47.3247" lon="-2.3504">
        <ele>-8.1999998092651</ele>
        <time>2021-05-02T09:46:33.000Z</time>
      </trkpt>
      <trkpt lat="47.32463" lon="-2.35042">
        <ele>-7.8000001907349</ele>
        <time>2021-05-02T09:46:34.000Z</time>
      </trkpt>
      <trkpt lat="47.32457" lon="-2.35043">
        <ele>-7.4000000953674</ele>
        <time>2021-05-02T09:46:35.000Z</time>
      </trkpt>
      <trkpt lat="47.32451" lon="-2.35045">
        <ele>-6.8000001907349</ele>
        <time>2021-05-02T09:46:36.000Z</time>
      </trkpt>
      <trkpt lat="47.32444" lon="-2.35046">
        <ele>-6.4000000953674</ele>
        <time>2021-05-02T09:46:37.000Z</time>
      </trkpt>
      <trkpt lat="47.32425" lon="-2.35049">
        <ele>-6.4000000953674</ele>
        <time>2021-05-02T09:46:40.000Z</time>
      </trkpt>
      <trkpt lat="47.32381" lon="-2.35053">
        <ele>-6.4000000953674</ele>
        <time>2021-05-02T09:46:47.000Z</time>
      </trkpt>
      <trkpt lat="47.32336" lon="-2.35052">
        <ele>-6.4000000953674</ele>
        <time>2021-05-02T09:46:54.000Z</time>
      </trkpt>
      <trkpt lat="47.32329" lon="-2.35052">
        <ele>-6.4000000953674</ele>
        <time>2021-05-02T09:46:55.000Z</time>
      </trkpt>
      <trkpt lat="47.32303" lon="-2.35052">
        <ele>-6.4000000953674</ele>
        <time>2021-05-02T09:46:59.000Z</time>
      </trkpt>
      <trkpt lat="47.3229" lon="-2.35051">
        <ele>-6.8000001907349</ele>
        <time>2021-05-02T09:47:01.000Z</time>
      </trkpt>
      <trkpt lat="47.32285" lon="-2.35052">
        <ele>-7.1999998092651</ele>
        <time>2021-05-02T09:47:02.000Z</time>
      </trkpt>
      <trkpt lat="47.32279" lon="-2.35052">
        <ele>-7.5999999046326</ele>
        <time>2021-05-02T09:47:03.000Z</time>
      </trkpt>
      <trkpt lat="47.32272" lon="-2.35051">
        <ele>-8.3999996185303</ele>
        <time>2021-05-02T09:47:04.000Z</time>
      </trkpt>
      <trkpt lat="47.32253" lon="-2.35051">
        <ele>-8.3999996185303</ele>
        <time>2021-05-02T09:47:07.000Z</time>
      </trkpt>
      <trkpt lat="47.32243" lon="-2.35054">
        <ele>-8.8000001907349</ele>
        <time>2021-05-02T09:47:09.000Z</time>
      </trkpt>
      <trkpt lat="47.32237" lon="-2.35054">
        <ele>-9.1999998092651</ele>
        <time>2021-05-02T09:47:10.000Z</time>
      </trkpt>
      <trkpt lat="47.32232" lon="-2.35054">
        <ele>-9.6000003814697</ele>
        <time>2021-05-02T09:47:11.000Z</time>
      </trkpt>
      <trkpt lat="47.32228" lon="-2.35055">
        <ele>-10.199999809265</ele>
        <time>2021-05-02T09:47:12.000Z</time>
      </trkpt>
      <trkpt lat="47.32223" lon="-2.35055">
        <ele>-10.60000038147</ele>
        <time>2021-05-02T09:47:13.000Z</time>
      </trkpt>
      <trkpt lat="47.32211" lon="-2.35057">
        <ele>-10.60000038147</ele>
        <time>2021-05-02T09:47:15.000Z</time>
      </trkpt>
      <trkpt lat="47.32181" lon="-2.35059">
        <ele>-10.60000038147</ele>
        <time>2021-05-02T09:47:20.000Z</time>
      </trkpt>
      <trkpt lat="47.32143" lon="-2.35061">
        <ele>-10.60000038147</ele>
        <time>2021-05-02T09:47:26.000Z</time>
      </trkpt>
      <trkpt lat="47.32112" lon="-2.35062">
        <ele>-11</ele>
        <time>2021-05-02T09:47:31.000Z</time>
      </trkpt>
      <trkpt lat="47.32106" lon="-2.35062">
        <ele>-11.39999961853</ele>
        <time>2021-05-02T09:47:32.000Z</time>
      </trkpt>
      <trkpt lat="47.32101" lon="-2.35062">
        <ele>-11.800000190735</ele>
        <time>2021-05-02T09:47:33.000Z</time>
      </trkpt>
      <trkpt lat="47.32095" lon="-2.35062">
        <ele>-12.199999809265</ele>
        <time>2021-05-02T09:47:34.000Z</time>
      </trkpt>
      <trkpt lat="47.3209" lon="-2.35062">
        <ele>-12.60000038147</ele>
        <time>2021-05-02T09:47:35.000Z</time>
      </trkpt>
      <trkpt lat="47.32057" lon="-2.3506">
        <ele>-12.60000038147</ele>
        <time>2021-05-02T09:47:41.000Z</time>
      </trkpt>
      <trkpt lat="47.32042" lon="-2.3506">
        <ele>-12.60000038147</ele>
        <time>2021-05-02T09:47:44.000Z</time>
      </trkpt>
      <trkpt lat="47.32035" lon="-2.35066">
        <ele>-12.60000038147</ele>
        <time>2021-05-02T09:47:46.000Z</time>
      </trkpt>
      <trkpt lat="47.32038" lon="-2.35079">
        <ele>-12.60000038147</ele>
        <time>2021-05-02T09:47:49.000Z</time>
      </trkpt>
      <trkpt lat="47.32042" lon="-2.35107">
        <ele>-12.60000038147</ele>
        <time>2021-05-02T09:47:54.000Z</time>
      </trkpt>
      <trkpt lat="47.32032" lon="-2.35126">
        <ele>-12.60000038147</ele>
        <time>2021-05-02T09:47:57.000Z</time>
      </trkpt>
      <trkpt lat="47.32008" lon="-2.35153">
        <ele>-12.60000038147</ele>
        <time>2021-05-02T09:48:02.000Z</time>
      </trkpt>
      <trkpt lat="47.31997" lon="-2.35163">
        <ele>-12.60000038147</ele>
        <time>2021-05-02T09:48:04.000Z</time>
      </trkpt>
      <trkpt lat="47.31986" lon="-2.35171">
        <ele>-12.60000038147</ele>
        <time>2021-05-02T09:48:06.000Z</time>
      </trkpt>
      <trkpt lat="47.31953" lon="-2.35206">
        <ele>-12.60000038147</ele>
        <time>2021-05-02T09:48:13.000Z</time>
      </trkpt>
      <trkpt lat="47.31923" lon="-2.35232">
        <ele>-12.60000038147</ele>
        <time>2021-05-02T09:48:19.000Z</time>
      </trkpt>
      <trkpt lat="47.31917" lon="-2.35237">
        <ele>-12.60000038147</ele>
        <time>2021-05-02T09:48:20.000Z</time>
      </trkpt>
      <trkpt lat="47.31892" lon="-2.35264">
        <ele>-12.60000038147</ele>
        <time>2021-05-02T09:48:25.000Z</time>
      </trkpt>
      <trkpt lat="47.31877" lon="-2.35277">
        <ele>-12.199999809265</ele>
        <time>2021-05-02T09:48:28.000Z</time>
      </trkpt>
      <trkpt lat="47.31872" lon="-2.35281">
        <ele>-11.60000038147</ele>
        <time>2021-05-02T09:48:29.000Z</time>
      </trkpt>
      <trkpt lat="47.31866" lon="-2.35285">
        <ele>-11.199999809265</ele>
        <time>2021-05-02T09:48:30.000Z</time>
      </trkpt>
      <trkpt lat="47.31861" lon="-2.35289">
        <ele>-10.800000190735</ele>
        <time>2021-05-02T09:48:31.000Z</time>
      </trkpt>
      <trkpt lat="47.31856" lon="-2.35293">
        <ele>-10.39999961853</ele>
        <time>2021-05-02T09:48:32.000Z</time>
      </trkpt>
      <trkpt lat="47.31823" lon="-2.35315">
        <ele>-10.39999961853</ele>
        <time>2021-05-02T09:48:38.000Z</time>
      </trkpt>
      <trkpt lat="47.3181" lon="-2.35325">
        <ele>-10</ele>
        <time>2021-05-02T09:48:41.000Z</time>
      </trkpt>
      <trkpt lat="47.31806" lon="-2.35328">
        <ele>-9.6000003814697</ele>
        <time>2021-05-02T09:48:42.000Z</time>
      </trkpt>
      <trkpt lat="47.31801" lon="-2.35331">
        <ele>-9.1999998092651</ele>
        <time>2021-05-02T09:48:43.000Z</time>
      </trkpt>
      <trkpt lat="47.31797" lon="-2.35335">
        <ele>-8.8000001907349</ele>
        <time>2021-05-02T09:48:44.000Z</time>
      </trkpt>
      <trkpt lat="47.31792" lon="-2.35338">
        <ele>-8.3999996185303</ele>
        <time>2021-05-02T09:48:45.000Z</time>
      </trkpt>
      <trkpt lat="47.31787" lon="-2.3534">
        <ele>-8.3999996185303</ele>
        <time>2021-05-02T09:48:46.000Z</time>
      </trkpt>
      <trkpt lat="47.31773" lon="-2.35347">
        <ele>-8.3999996185303</ele>
        <time>2021-05-02T09:48:49.000Z</time>
      </trkpt>
      <trkpt lat="47.31768" lon="-2.35351">
        <ele>-8.3999996185303</ele>
        <time>2021-05-02T09:48:50.000Z</time>
      </trkpt>
      <trkpt lat="47.3176" lon="-2.35359">
        <ele>-8</ele>
        <time>2021-05-02T09:48:52.000Z</time>
      </trkpt>
      <trkpt lat="47.31758" lon="-2.35365">
        <ele>-7.4000000953674</ele>
        <time>2021-05-02T09:48:53.000Z</time>
      </trkpt>
      <trkpt lat="47.31757" lon="-2.35369">
        <ele>-7</ele>
        <time>2021-05-02T09:48:54.000Z</time>
      </trkpt>
      <trkpt lat="47.31758" lon="-2.35374">
        <ele>-6.5999999046326</ele>
        <time>2021-05-02T09:48:55.000Z</time>
      </trkpt>
      <trkpt lat="47.31761" lon="-2.3538">
        <ele>-6.1999998092651</ele>
        <time>2021-05-02T09:48:56.000Z</time>
      </trkpt>
      <trkpt lat="47.31768" lon="-2.35391">
        <ele>-6.1999998092651</ele>
        <time>2021-05-02T09:48:58.000Z</time>
      </trkpt>
      <trkpt lat="47.31784" lon="-2.35417">
        <ele>-6.1999998092651</ele>
        <time>2021-05-02T09:49:02.000Z</time>
      </trkpt>
      <trkpt lat="47.318" lon="-2.35443">
        <ele>-6.1999998092651</ele>
        <time>2021-05-02T09:49:06.000Z</time>
      </trkpt>
      <trkpt lat="47.31804" lon="-2.35451">
        <ele>-6.5999999046326</ele>
        <time>2021-05-02T09:49:07.000Z</time>
      </trkpt>
      <trkpt lat="47.31808" lon="-2.35459">
        <ele>-7</ele>
        <time>2021-05-02T09:49:08.000Z</time>
      </trkpt>
      <trkpt lat="47.31811" lon="-2.35465">
        <ele>-7.4000000953674</ele>
        <time>2021-05-02T09:49:09.000Z</time>
      </trkpt>
      <trkpt lat="47.31815" lon="-2.35471">
        <ele>-7.8000001907349</ele>
        <time>2021-05-02T09:49:10.000Z</time>
      </trkpt>
      <trkpt lat="47.31818" lon="-2.35477">
        <ele>-8.1999998092651</ele>
        <time>2021-05-02T09:49:11.000Z</time>
      </trkpt>
      <trkpt lat="47.31825" lon="-2.3549">
        <ele>-8.1999998092651</ele>
        <time>2021-05-02T09:49:13.000Z</time>
      </trkpt>
      <trkpt lat="47.31837" lon="-2.35518">
        <ele>-8.1999998092651</ele>
        <time>2021-05-02T09:49:17.000Z</time>
      </trkpt>
      <trkpt lat="47.31838" lon="-2.35525">
        <ele>-8.1999998092651</ele>
        <time>2021-05-02T09:49:18.000Z</time>
      </trkpt>
      <trkpt lat="47.31836" lon="-2.35547">
        <ele>-8.1999998092651</ele>
        <time>2021-05-02T09:49:21.000Z</time>
      </trkpt>
      <trkpt lat="47.31824" lon="-2.35565">
        <ele>-8.1999998092651</ele>
        <time>2021-05-02T09:49:25.000Z</time>
      </trkpt>
      <trkpt lat="47.31804" lon="-2.35588">
        <ele>-8.1999998092651</ele>
        <time>2021-05-02T09:49:31.000Z</time>
      </trkpt>
      <trkpt lat="47.31789" lon="-2.35611">
        <ele>-8.1999998092651</ele>
        <time>2021-05-02T09:49:36.000Z</time>
      </trkpt>
      <trkpt lat="47.31787" lon="-2.35616">
        <ele>-8.1999998092651</ele>
        <time>2021-05-02T09:49:37.000Z</time>
      </trkpt>
      <trkpt lat="47.31784" lon="-2.35636">
        <ele>-8.1999998092651</ele>
        <time>2021-05-02T09:49:40.000Z</time>
      </trkpt>
      <trkpt lat="47.31784" lon="-2.35649">
        <ele>-8.1999998092651</ele>
        <time>2021-05-02T09:49:42.000Z</time>
      </trkpt>
      <trkpt lat="47.31783" lon="-2.35682">
        <ele>-8.1999998092651</ele>
        <time>2021-05-02T09:49:47.000Z</time>
      </trkpt>
      <trkpt lat="47.31785" lon="-2.35698">
        <ele>-7.8000001907349</ele>
        <time>2021-05-02T09:49:49.000Z</time>
      </trkpt>
      <trkpt lat="47.31786" lon="-2.35707">
        <ele>-7.4000000953674</ele>
        <time>2021-05-02T09:49:50.000Z</time>
      </trkpt>
      <trkpt lat="47.31787" lon="-2.35716">
        <ele>-7</ele>
        <time>2021-05-02T09:49:51.000Z</time>
      </trkpt>
      <trkpt lat="47.31788" lon="-2.35724">
        <ele>-6.5999999046326</ele>
        <time>2021-05-02T09:49:52.000Z</time>
      </trkpt>
      <trkpt lat="47.31789" lon="-2.35733">
        <ele>-6.1999998092651</ele>
        <time>2021-05-02T09:49:53.000Z</time>
      </trkpt>
      <trkpt lat="47.31791" lon="-2.35776">
        <ele>-6.1999998092651</ele>
        <time>2021-05-02T09:49:58.000Z</time>
      </trkpt>
      <trkpt lat="47.31796" lon="-2.35798">
        <ele>-5.8000001907349</ele>
        <time>2021-05-02T09:50:01.000Z</time>
      </trkpt>
      <trkpt lat="47.31799" lon="-2.35803">
        <ele>-5.4000000953674</ele>
        <time>2021-05-02T09:50:02.000Z</time>
      </trkpt>
      <trkpt lat="47.31802" lon="-2.35808">
        <ele>-5</ele>
        <time>2021-05-02T09:50:03.000Z</time>
      </trkpt>
      <trkpt lat="47.31806" lon="-2.35813">
        <ele>-4.4000000953674</ele>
        <time>2021-05-02T09:50:04.000Z</time>
      </trkpt>
      <trkpt lat="47.3181" lon="-2.35818">
        <ele>-4</ele>
        <time>2021-05-02T09:50:05.000Z</time>
      </trkpt>
      <trkpt lat="47.3182" lon="-2.35832">
        <ele>-4</ele>
        <time>2021-05-02T09:50:08.000Z</time>
      </trkpt>
      <trkpt lat="47.31826" lon="-2.35858">
        <ele>-4</ele>
        <time>2021-05-02T09:50:12.000Z</time>
      </trkpt>
      <trkpt lat="47.31818" lon="-2.35878">
        <ele>-4</ele>
        <time>2021-05-02T09:50:15.000Z</time>
      </trkpt>
      <trkpt lat="47.31801" lon="-2.3589">
        <ele>-4</ele>
        <time>2021-05-02T09:50:19.000Z</time>
      </trkpt>
      <trkpt lat="47.31796" lon="-2.35893">
        <ele>-4</ele>
        <time>2021-05-02T09:50:20.000Z</time>
      </trkpt>
      <trkpt lat="47.31772" lon="-2.35908">
        <ele>-4</ele>
        <time>2021-05-02T09:50:25.000Z</time>
      </trkpt>
      <trkpt lat="47.31768" lon="-2.35911">
        <ele>-4</ele>
        <time>2021-05-02T09:50:26.000Z</time>
      </trkpt>
      <trkpt lat="47.31744" lon="-2.35925">
        <ele>-4</ele>
        <time>2021-05-02T09:50:31.000Z</time>
      </trkpt>
      <trkpt lat="47.31718" lon="-2.35944">
        <ele>-4</ele>
        <time>2021-05-02T09:50:37.000Z</time>
      </trkpt>
      <trkpt lat="47.31713" lon="-2.35947">
        <ele>-4</ele>
        <time>2021-05-02T09:50:38.000Z</time>
      </trkpt>
      <trkpt lat="47.31708" lon="-2.35949">
        <ele>-3.5999999046326</ele>
        <time>2021-05-02T09:50:39.000Z</time>
      </trkpt>
      <trkpt lat="47.31703" lon="-2.3595">
        <ele>-3.2000000476837</ele>
        <time>2021-05-02T09:50:40.000Z</time>
      </trkpt>
      <trkpt lat="47.31698" lon="-2.35952">
        <ele>-2.7999999523163</ele>
        <time>2021-05-02T09:50:41.000Z</time>
      </trkpt>
      <trkpt lat="47.31693" lon="-2.35954">
        <ele>-2.4000000953674</ele>
        <time>2021-05-02T09:50:42.000Z</time>
      </trkpt>
      <trkpt lat="47.31689" lon="-2.35957">
        <ele>-2</ele>
        <time>2021-05-02T09:50:43.000Z</time>
      </trkpt>
      <trkpt lat="47.3167" lon="-2.35968">
        <ele>-2</ele>
        <time>2021-05-02T09:50:47.000Z</time>
      </trkpt>
      <trkpt lat="47.31651" lon="-2.35979">
        <ele>-2</ele>
        <time>2021-05-02T09:50:51.000Z</time>
      </trkpt>
      <trkpt lat="47.31643" lon="-2.35986">
        <ele>-1.6000000238419</ele>
        <time>2021-05-02T09:50:53.000Z</time>
      </trkpt>
      <trkpt lat="47.31638" lon="-2.3599">
        <ele>-1.2000000476837</ele>
        <time>2021-05-02T09:50:54.000Z</time>
      </trkpt>
      <trkpt lat="47.31634" lon="-2.35994">
        <ele>-0.80000001192093</ele>
        <time>2021-05-02T09:50:55.000Z</time>
      </trkpt>
      <trkpt lat="47.3163" lon="-2.35998">
        <ele>-0.40000000596046</ele>
        <time>2021-05-02T09:50:56.000Z</time>
      </trkpt>
      <trkpt lat="47.31626" lon="-2.36002">
        <ele>37.5</ele>
        <time>2021-05-02T09:50:57.000Z</time>
      </trkpt>
      <trkpt lat="47.31614" lon="-2.36015">
        <ele>37.9</ele>
        <time>2021-05-02T09:51:00.000Z</time>
      </trkpt>
      <trkpt lat="47.31602" lon="-2.36029">
        <ele>38.3</ele>
        <time>2021-05-02T09:51:03.000Z</time>
      </trkpt>
      <trkpt lat="47.31595" lon="-2.36039">
        <ele>38.6</ele>
        <time>2021-05-02T09:51:05.000Z</time>
      </trkpt>
      <trkpt lat="47.3157" lon="-2.36061">
        <ele>39</ele>
        <time>2021-05-02T09:51:11.000Z</time>
      </trkpt>
      <trkpt lat="47.3155" lon="-2.36078">
        <ele>39.2</ele>
        <time>2021-05-02T09:51:16.000Z</time>
      </trkpt>
      <trkpt lat="47.31546" lon="-2.36082">
        <ele>39.3</ele>
        <time>2021-05-02T09:51:17.000Z</time>
      </trkpt>
      <trkpt lat="47.31535" lon="-2.36096">
        <ele>39.7</ele>
        <time>2021-05-02T09:51:20.000Z</time>
      </trkpt>
      <trkpt lat="47.31527" lon="-2.36106">
        <ele>0.60000002384186</ele>
        <time>2021-05-02T09:51:22.000Z</time>
      </trkpt>
      <trkpt lat="47.31523" lon="-2.3611">
        <ele>1</ele>
        <time>2021-05-02T09:51:23.000Z</time>
      </trkpt>
      <trkpt lat="47.31519" lon="-2.36114">
        <ele>1.3999999761581</ele>
        <time>2021-05-02T09:51:24.000Z</time>
      </trkpt>
      <trkpt lat="47.31515" lon="-2.36118">
        <ele>1.7999999523163</ele>
        <time>2021-05-02T09:51:25.000Z</time>
      </trkpt>
      <trkpt lat="47.31511" lon="-2.36123">
        <ele>2.2000000476837</ele>
        <time>2021-05-02T09:51:26.000Z</time>
      </trkpt>
      <trkpt lat="47.31506" lon="-2.36128">
        <ele>2.2000000476837</ele>
        <time>2021-05-02T09:51:27.000Z</time>
      </trkpt>
      <trkpt lat="47.31478" lon="-2.36159">
        <ele>2.2000000476837</ele>
        <time>2021-05-02T09:51:34.000Z</time>
      </trkpt>
      <trkpt lat="47.31464" lon="-2.36173">
        <ele>2.2000000476837</ele>
        <time>2021-05-02T09:51:39.000Z</time>
      </trkpt>
      <trkpt lat="47.31461" lon="-2.36172">
        <ele>2.2000000476837</ele>
        <time>2021-05-02T09:51:42.000Z</time>
      </trkpt>
      <trkpt lat="47.3146" lon="-2.3617">
        <ele>2.2000000476837</ele>
        <time>2021-05-02T09:55:02.000Z</time>
      </trkpt>
      <trkpt lat="47.31456" lon="-2.36157">
        <ele>2.2000000476837</ele>
        <time>2021-05-02T09:55:08.000Z</time>
      </trkpt>
      <trkpt lat="47.3145" lon="-2.36137">
        <ele>2.2000000476837</ele>
        <time>2021-05-02T09:55:14.000Z</time>
      </trkpt>
      <trkpt lat="47.31445" lon="-2.36122">
        <ele>2.2000000476837</ele>
        <time>2021-05-02T09:55:20.000Z</time>
      </trkpt>
      <trkpt lat="47.3144" lon="-2.36107">
        <ele>2.2000000476837</ele>
        <time>2021-05-02T09:55:28.000Z</time>
      </trkpt>
      <trkpt lat="47.3144" lon="-2.36106">
        <ele>2.2000000476837</ele>
        <time>2021-05-02T09:55:29.000Z</time>
      </trkpt>
      <trkpt lat="47.31439" lon="-2.36098">
        <ele>0.20000000298023</ele>
        <time>2021-05-02T10:01:03.000Z</time>
      </trkpt>
      <trkpt lat="47.31437" lon="-2.36091">
        <ele>0.20000000298023</ele>
        <time>2021-05-02T10:01:05.000Z</time>
      </trkpt>
      <trkpt lat="47.31429" lon="-2.36064">
        <ele>0.20000000298023</ele>
        <time>2021-05-02T10:01:10.000Z</time>
      </trkpt>
      <trkpt lat="47.31417" lon="-2.36024">
        <ele>0.20000000298023</ele>
        <time>2021-05-02T10:01:15.000Z</time>
      </trkpt>
      <trkpt lat="47.31408" lon="-2.36001">
        <ele>-0.20000000298023</ele>
        <time>2021-05-02T10:01:18.000Z</time>
      </trkpt>
      <trkpt lat="47.31406" lon="-2.35993">
        <ele>-0.60000002384186</ele>
        <time>2021-05-02T10:01:19.000Z</time>
      </trkpt>
      <trkpt lat="47.31403" lon="-2.35985">
        <ele>-1</ele>
        <time>2021-05-02T10:01:20.000Z</time>
      </trkpt>
      <trkpt lat="47.314" lon="-2.35976">
        <ele>-1.3999999761581</ele>
        <time>2021-05-02T10:01:21.000Z</time>
      </trkpt>
      <trkpt lat="47.31396" lon="-2.35967">
        <ele>-1.7999999523163</ele>
        <time>2021-05-02T10:01:22.000Z</time>
      </trkpt>
      <trkpt lat="47.31383" lon="-2.35944">
        <ele>-1.7999999523163</ele>
        <time>2021-05-02T10:01:25.000Z</time>
      </trkpt>
      <trkpt lat="47.31375" lon="-2.35929">
        <ele>-2.2000000476837</ele>
        <time>2021-05-02T10:01:27.000Z</time>
      </trkpt>
      <trkpt lat="47.31371" lon="-2.35923">
        <ele>-2.7999999523163</ele>
        <time>2021-05-02T10:01:28.000Z</time>
      </trkpt>
      <trkpt lat="47.31368" lon="-2.35915">
        <ele>-3.2000000476837</ele>
        <time>2021-05-02T10:01:29.000Z</time>
      </trkpt>
      <trkpt lat="47.31364" lon="-2.35908">
        <ele>-3.5999999046326</ele>
        <time>2021-05-02T10:01:30.000Z</time>
      </trkpt>
      <trkpt lat="47.31361" lon="-2.359">
        <ele>-4</ele>
        <time>2021-05-02T10:01:31.000Z</time>
      </trkpt>
      <trkpt lat="47.31346" lon="-2.35869">
        <ele>-4</ele>
        <time>2021-05-02T10:01:35.000Z</time>
      </trkpt>
      <trkpt lat="47.31344" lon="-2.35862">
        <ele>-4</ele>
        <time>2021-05-02T10:01:36.000Z</time>
      </trkpt>
      <trkpt lat="47.3134" lon="-2.35829">
        <ele>-4</ele>
        <time>2021-05-02T10:01:40.000Z</time>
      </trkpt>
      <trkpt lat="47.3134" lon="-2.3582">
        <ele>-3.5999999046326</ele>
        <time>2021-05-02T10:01:41.000Z</time>
      </trkpt>
      <trkpt lat="47.31339" lon="-2.35811">
        <ele>-3.2000000476837</ele>
        <time>2021-05-02T10:01:42.000Z</time>
      </trkpt>
      <trkpt lat="47.31338" lon="-2.35803">
        <ele>-2.7999999523163</ele>
        <time>2021-05-02T10:01:43.000Z</time>
      </trkpt>
      <trkpt lat="47.31337" lon="-2.35794">
        <ele>-2.2000000476837</ele>
        <time>2021-05-02T10:01:44.000Z</time>
      </trkpt>
      <trkpt lat="47.31335" lon="-2.35786">
        <ele>-1.7999999523163</ele>
        <time>2021-05-02T10:01:45.000Z</time>
      </trkpt>
      <trkpt lat="47.31332" lon="-2.35761">
        <ele>-1.7999999523163</ele>
        <time>2021-05-02T10:01:48.000Z</time>
      </trkpt>
      <trkpt lat="47.31333" lon="-2.35731">
        <ele>-1.7999999523163</ele>
        <time>2021-05-02T10:01:52.000Z</time>
      </trkpt>
      <trkpt lat="47.31334" lon="-2.35723">
        <ele>-1.7999999523163</ele>
        <time>2021-05-02T10:01:53.000Z</time>
      </trkpt>
      <trkpt lat="47.31334" lon="-2.35673">
        <ele>-1.7999999523163</ele>
        <time>2021-05-02T10:01:59.000Z</time>
      </trkpt>
      <trkpt lat="47.31333" lon="-2.35619">
        <ele>-1.7999999523163</ele>
        <time>2021-05-02T10:02:05.000Z</time>
      </trkpt>
      <trkpt lat="47.3133" lon="-2.35552">
        <ele>-1.7999999523163</ele>
        <time>2021-05-02T10:02:12.000Z</time>
      </trkpt>
      <trkpt lat="47.31333" lon="-2.35487">
        <ele>-1.7999999523163</ele>
        <time>2021-05-02T10:02:19.000Z</time>
      </trkpt>
      <trkpt lat="47.31332" lon="-2.35413">
        <ele>-1.7999999523163</ele>
        <time>2021-05-02T10:02:27.000Z</time>
      </trkpt>
      <trkpt lat="47.31331" lon="-2.35338">
        <ele>-1.7999999523163</ele>
        <time>2021-05-02T10:02:35.000Z</time>
      </trkpt>
      <trkpt lat="47.31335" lon="-2.3528">
        <ele>-1.7999999523163</ele>
        <time>2021-05-02T10:02:41.000Z</time>
      </trkpt>
      <trkpt lat="47.31339" lon="-2.35207">
        <ele>-1.7999999523163</ele>
        <time>2021-05-02T10:02:48.000Z</time>
      </trkpt>
      <trkpt lat="47.31342" lon="-2.35125">
        <ele>-1.7999999523163</ele>
        <time>2021-05-02T10:02:56.000Z</time>
      </trkpt>
      <trkpt lat="47.31342" lon="-2.35116">
        <ele>-1.7999999523163</ele>
        <time>2021-05-02T10:02:57.000Z</time>
      </trkpt>
      <trkpt lat="47.31343" lon="-2.35062">
        <ele>-2.2000000476837</ele>
        <time>2021-05-02T10:03:03.000Z</time>
      </trkpt>
      <trkpt lat="47.31343" lon="-2.35053">
        <ele>-2.5999999046326</ele>
        <time>2021-05-02T10:03:04.000Z</time>
      </trkpt>
      <trkpt lat="47.31343" lon="-2.35044">
        <ele>-3</ele>
        <time>2021-05-02T10:03:05.000Z</time>
      </trkpt>
      <trkpt lat="47.31343" lon="-2.35035">
        <ele>-3.7999999523163</ele>
        <time>2021-05-02T10:03:06.000Z</time>
      </trkpt>
      <trkpt lat="47.31341" lon="-2.34993">
        <ele>-3.7999999523163</ele>
        <time>2021-05-02T10:03:11.000Z</time>
      </trkpt>
      <trkpt lat="47.31338" lon="-2.34975">
        <ele>-3.7999999523163</ele>
        <time>2021-05-02T10:03:13.000Z</time>
      </trkpt>
      <trkpt lat="47.31329" lon="-2.3494">
        <ele>-3.7999999523163</ele>
        <time>2021-05-02T10:03:17.000Z</time>
      </trkpt>
      <trkpt lat="47.31322" lon="-2.34916">
        <ele>-3.7999999523163</ele>
        <time>2021-05-02T10:03:20.000Z</time>
      </trkpt>
      <trkpt lat="47.31299" lon="-2.34834">
        <ele>-3.7999999523163</ele>
        <time>2021-05-02T10:03:29.000Z</time>
      </trkpt>
      <trkpt lat="47.31286" lon="-2.34764">
        <ele>-3.7999999523163</ele>
        <time>2021-05-02T10:03:38.000Z</time>
      </trkpt>
      <trkpt lat="47.31276" lon="-2.34711">
        <ele>-3.7999999523163</ele>
        <time>2021-05-02T10:03:45.000Z</time>
      </trkpt>
      <trkpt lat="47.31276" lon="-2.34691">
        <ele>-3.7999999523163</ele>
        <time>2021-05-02T10:03:49.000Z</time>
      </trkpt>
      <trkpt lat="47.31278" lon="-2.34686">
        <ele>-3.7999999523163</ele>
        <time>2021-05-02T10:03:50.000Z</time>
      </trkpt>
      <trkpt lat="47.31288" lon="-2.34666">
        <ele>-3.7999999523163</ele>
        <time>2021-05-02T10:03:53.000Z</time>
      </trkpt>
      <trkpt lat="47.3129" lon="-2.34657">
        <ele>-3.7999999523163</ele>
        <time>2021-05-02T10:03:54.000Z</time>
      </trkpt>
      <trkpt lat="47.3129" lon="-2.34638">
        <ele>-3.7999999523163</ele>
        <time>2021-05-02T10:03:56.000Z</time>
      </trkpt>
      <trkpt lat="47.31288" lon="-2.34617">
        <ele>-3.7999999523163</ele>
        <time>2021-05-02T10:03:58.000Z</time>
      </trkpt>
      <trkpt lat="47.31285" lon="-2.34581">
        <ele>-4.4000000953674</ele>
        <time>2021-05-02T10:04:01.000Z</time>
      </trkpt>
      <trkpt lat="47.31284" lon="-2.34569">
        <ele>-4.8000001907349</ele>
        <time>2021-05-02T10:04:02.000Z</time>
      </trkpt>
      <trkpt lat="47.31282" lon="-2.34557">
        <ele>-5.1999998092651</ele>
        <time>2021-05-02T10:04:03.000Z</time>
      </trkpt>
      <trkpt lat="47.31281" lon="-2.34544">
        <ele>-5.5999999046326</ele>
        <time>2021-05-02T10:04:04.000Z</time>
      </trkpt>
      <trkpt lat="47.31279" lon="-2.34532">
        <ele>-6</ele>
        <time>2021-05-02T10:04:05.000Z</time>
      </trkpt>
      <trkpt lat="47.31274" lon="-2.34481">
        <ele>-6</ele>
        <time>2021-05-02T10:04:09.000Z</time>
      </trkpt>
      <trkpt lat="47.31267" lon="-2.34415">
        <ele>-6</ele>
        <time>2021-05-02T10:04:14.000Z</time>
      </trkpt>
      <trkpt lat="47.31261" lon="-2.34376">
        <ele>-6.4000000953674</ele>
        <time>2021-05-02T10:04:17.000Z</time>
      </trkpt>
      <trkpt lat="47.31258" lon="-2.34364">
        <ele>-7</ele>
        <time>2021-05-02T10:04:18.000Z</time>
      </trkpt>
      <trkpt lat="47.31254" lon="-2.34353">
        <ele>-7.8000001907349</ele>
        <time>2021-05-02T10:04:19.000Z</time>
      </trkpt>
      <trkpt lat="47.31248" lon="-2.34343">
        <ele>-8.3999996185303</ele>
        <time>2021-05-02T10:04:20.000Z</time>
      </trkpt>
      <trkpt lat="47.31234" lon="-2.34327">
        <ele>-8.8000001907349</ele>
        <time>2021-05-02T10:04:22.000Z</time>
      </trkpt>
      <trkpt lat="47.31225" lon="-2.34323">
        <ele>-9.1999998092651</ele>
        <time>2021-05-02T10:04:23.000Z</time>
      </trkpt>
      <trkpt lat="47.31217" lon="-2.34319">
        <ele>-9.6000003814697</ele>
        <time>2021-05-02T10:04:24.000Z</time>
      </trkpt>
      <trkpt lat="47.31207" lon="-2.34313">
        <ele>-10</ele>
        <time>2021-05-02T10:04:25.000Z</time>
      </trkpt>
      <trkpt lat="47.31199" lon="-2.34305">
        <ele>-10.39999961853</ele>
        <time>2021-05-02T10:04:26.000Z</time>
      </trkpt>
      <trkpt lat="47.31185" lon="-2.34287">
        <ele>-10.39999961853</ele>
        <time>2021-05-02T10:04:28.000Z</time>
      </trkpt>
      <trkpt lat="47.31175" lon="-2.34266">
        <ele>-10.39999961853</ele>
        <time>2021-05-02T10:04:30.000Z</time>
      </trkpt>
      <trkpt lat="47.31159" lon="-2.34235">
        <ele>-10.39999961853</ele>
        <time>2021-05-02T10:04:33.000Z</time>
      </trkpt>
      <trkpt lat="47.31143" lon="-2.34208">
        <ele>-10.39999961853</ele>
        <time>2021-05-02T10:04:36.000Z</time>
      </trkpt>
      <trkpt lat="47.31124" lon="-2.34178">
        <ele>-10.39999961853</ele>
        <time>2021-05-02T10:04:40.000Z</time>
      </trkpt>
      <trkpt lat="47.311" lon="-2.34136">
        <ele>-10.39999961853</ele>
        <time>2021-05-02T10:04:46.000Z</time>
      </trkpt>
      <trkpt lat="47.31084" lon="-2.34108">
        <ele>-10</ele>
        <time>2021-05-02T10:04:50.000Z</time>
      </trkpt>
      <trkpt lat="47.31081" lon="-2.34101">
        <ele>-9.6000003814697</ele>
        <time>2021-05-02T10:04:51.000Z</time>
      </trkpt>
      <trkpt lat="47.31078" lon="-2.34094">
        <ele>-9.1999998092651</ele>
        <time>2021-05-02T10:04:52.000Z</time>
      </trkpt>
      <trkpt lat="47.31075" lon="-2.34087">
        <ele>-8.8000001907349</ele>
        <time>2021-05-02T10:04:53.000Z</time>
      </trkpt>
      <trkpt lat="47.31073" lon="-2.34079">
        <ele>-8.3999996185303</ele>
        <time>2021-05-02T10:04:54.000Z</time>
      </trkpt>
      <trkpt lat="47.31066" lon="-2.34056">
        <ele>-8</ele>
        <time>2021-05-02T10:04:57.000Z</time>
      </trkpt>
      <trkpt lat="47.31064" lon="-2.34048">
        <ele>-7.5999999046326</ele>
        <time>2021-05-02T10:04:58.000Z</time>
      </trkpt>
      <trkpt lat="47.31063" lon="-2.34039">
        <ele>-7.1999998092651</ele>
        <time>2021-05-02T10:04:59.000Z</time>
      </trkpt>
      <trkpt lat="47.31062" lon="-2.34031">
        <ele>-6.8000001907349</ele>
        <time>2021-05-02T10:05:00.000Z</time>
      </trkpt>
      <trkpt lat="47.31061" lon="-2.34023">
        <ele>-6.4000000953674</ele>
        <time>2021-05-02T10:05:01.000Z</time>
      </trkpt>
      <trkpt lat="47.3106" lon="-2.34005">
        <ele>-6.4000000953674</ele>
        <time>2021-05-02T10:05:03.000Z</time>
      </trkpt>
      <trkpt lat="47.31059" lon="-2.33953">
        <ele>-6.4000000953674</ele>
        <time>2021-05-02T10:05:09.000Z</time>
      </trkpt>
      <trkpt lat="47.31055" lon="-2.33947">
        <ele>-6.4000000953674</ele>
        <time>2021-05-02T10:05:10.000Z</time>
      </trkpt>
      <trkpt lat="47.31039" lon="-2.33945">
        <ele>-6.4000000953674</ele>
        <time>2021-05-02T10:05:13.000Z</time>
      </trkpt>
      <trkpt lat="47.31033" lon="-2.33947">
        <ele>-6.4000000953674</ele>
        <time>2021-05-02T10:05:14.000Z</time>
      </trkpt>
      <trkpt lat="47.31013" lon="-2.33953">
        <ele>-6</ele>
        <time>2021-05-02T10:05:18.000Z</time>
      </trkpt>
      <trkpt lat="47.31007" lon="-2.33954">
        <ele>-5.4000000953674</ele>
        <time>2021-05-02T10:05:19.000Z</time>
      </trkpt>
      <trkpt lat="47.31002" lon="-2.33954">
        <ele>-5</ele>
        <time>2021-05-02T10:05:20.000Z</time>
      </trkpt>
      <trkpt lat="47.30997" lon="-2.33954">
        <ele>-4.5999999046326</ele>
        <time>2021-05-02T10:05:21.000Z</time>
      </trkpt>
      <trkpt lat="47.30992" lon="-2.33955">
        <ele>-4.1999998092651</ele>
        <time>2021-05-02T10:05:22.000Z</time>
      </trkpt>
      <trkpt lat="47.30966" lon="-2.33957">
        <ele>-4.1999998092651</ele>
        <time>2021-05-02T10:05:27.000Z</time>
      </trkpt>
      <trkpt lat="47.30934" lon="-2.33951">
        <ele>-4.1999998092651</ele>
        <time>2021-05-02T10:05:33.000Z</time>
      </trkpt>
      <trkpt lat="47.30901" lon="-2.33947">
        <ele>-3.7999999523163</ele>
        <time>2021-05-02T10:05:39.000Z</time>
      </trkpt>
      <trkpt lat="47.30895" lon="-2.33948">
        <ele>-3.4000000953674</ele>
        <time>2021-05-02T10:05:40.000Z</time>
      </trkpt>
      <trkpt lat="47.30889" lon="-2.3395">
        <ele>-3</ele>
        <time>2021-05-02T10:05:41.000Z</time>
      </trkpt>
      <trkpt lat="47.30884" lon="-2.33951">
        <ele>-2.5999999046326</ele>
        <time>2021-05-02T10:05:42.000Z</time>
      </trkpt>
      <trkpt lat="47.30879" lon="-2.33951">
        <ele>-2.2000000476837</ele>
        <time>2021-05-02T10:05:43.000Z</time>
      </trkpt>
      <trkpt lat="47.30867" lon="-2.33954">
        <ele>-2.2000000476837</ele>
        <time>2021-05-02T10:05:45.000Z</time>
      </trkpt>
      <trkpt lat="47.30821" lon="-2.33963">
        <ele>-2.2000000476837</ele>
        <time>2021-05-02T10:05:53.000Z</time>
      </trkpt>
      <trkpt lat="47.30791" lon="-2.33971">
        <ele>-2.2000000476837</ele>
        <time>2021-05-02T10:05:59.000Z</time>
      </trkpt>
      <trkpt lat="47.30782" lon="-2.33976">
        <ele>-2.2000000476837</ele>
        <time>2021-05-02T10:06:01.000Z</time>
      </trkpt>
      <trkpt lat="47.30779" lon="-2.33986">
        <ele>-2.2000000476837</ele>
        <time>2021-05-02T10:06:03.000Z</time>
      </trkpt>
      <trkpt lat="47.30778" lon="-2.34006">
        <ele>-2.2000000476837</ele>
        <time>2021-05-02T10:06:06.000Z</time>
      </trkpt>
      <trkpt lat="47.30777" lon="-2.34014">
        <ele>-2.2000000476837</ele>
        <time>2021-05-02T10:06:07.000Z</time>
      </trkpt>
      <trkpt lat="47.30778" lon="-2.34021">
        <ele>-2.2000000476837</ele>
        <time>2021-05-02T10:06:08.000Z</time>
      </trkpt>
      <trkpt lat="47.30777" lon="-2.34029">
        <ele>-2.2000000476837</ele>
        <time>2021-05-02T10:06:09.000Z</time>
      </trkpt>
      <trkpt lat="47.30778" lon="-2.34044">
        <ele>-2.2000000476837</ele>
        <time>2021-05-02T10:06:11.000Z</time>
      </trkpt>
      <trkpt lat="47.30776" lon="-2.34088">
        <ele>-2.2000000476837</ele>
        <time>2021-05-02T10:06:17.000Z</time>
      </trkpt>
      <trkpt lat="47.30772" lon="-2.34146">
        <ele>-2.2000000476837</ele>
        <time>2021-05-02T10:06:24.000Z</time>
      </trkpt>
      <trkpt lat="47.3077" lon="-2.34162">
        <ele>-2.2000000476837</ele>
        <time>2021-05-02T10:06:26.000Z</time>
      </trkpt>
      <trkpt lat="47.3077" lon="-2.34186">
        <ele>-2.2000000476837</ele>
        <time>2021-05-02T10:06:29.000Z</time>
      </trkpt>
      <trkpt lat="47.30766" lon="-2.34217">
        <ele>-2.2000000476837</ele>
        <time>2021-05-02T10:06:33.000Z</time>
      </trkpt>
      <trkpt lat="47.30762" lon="-2.34221">
        <ele>-2.2000000476837</ele>
        <time>2021-05-02T10:06:34.000Z</time>
      </trkpt>
      <trkpt lat="47.30747" lon="-2.34225">
        <ele>-2.2000000476837</ele>
        <time>2021-05-02T10:06:37.000Z</time>
      </trkpt>
      <trkpt lat="47.30738" lon="-2.34229">
        <ele>-2.2000000476837</ele>
        <time>2021-05-02T10:06:39.000Z</time>
      </trkpt>
      <trkpt lat="47.30736" lon="-2.34237">
        <ele>-2.2000000476837</ele>
        <time>2021-05-02T10:06:41.000Z</time>
      </trkpt>
      <trkpt lat="47.30735" lon="-2.34248">
        <ele>-2.2000000476837</ele>
        <time>2021-05-02T10:06:43.000Z</time>
      </trkpt>
      <trkpt lat="47.30734" lon="-2.34255">
        <ele>-2.2000000476837</ele>
        <time>2021-05-02T10:06:44.000Z</time>
      </trkpt>
      <trkpt lat="47.30733" lon="-2.34261">
        <ele>-2.2000000476837</ele>
        <time>2021-05-02T10:06:45.000Z</time>
      </trkpt>
      <trkpt lat="47.30722" lon="-2.34286">
        <ele>-2.2000000476837</ele>
        <time>2021-05-02T10:06:49.000Z</time>
      </trkpt>
      <trkpt lat="47.30703" lon="-2.34323">
        <ele>-2.2000000476837</ele>
        <time>2021-05-02T10:06:55.000Z</time>
      </trkpt>
      <trkpt lat="47.30684" lon="-2.34364">
        <ele>-2.2000000476837</ele>
        <time>2021-05-02T10:07:01.000Z</time>
      </trkpt>
      <trkpt lat="47.30681" lon="-2.3437">
        <ele>-1.7999999523163</ele>
        <time>2021-05-02T10:07:02.000Z</time>
      </trkpt>
      <trkpt lat="47.30678" lon="-2.34375">
        <ele>-1.3999999761581</ele>
        <time>2021-05-02T10:07:03.000Z</time>
      </trkpt>
      <trkpt lat="47.30675" lon="-2.34381">
        <ele>-0.80000001192093</ele>
        <time>2021-05-02T10:07:04.000Z</time>
      </trkpt>
      <trkpt lat="47.30672" lon="-2.34386">
        <ele>-0.40000000596046</ele>
        <time>2021-05-02T10:07:05.000Z</time>
      </trkpt>
      <trkpt lat="47.30668" lon="-2.34392">
        <ele>40</ele>
        <time>2021-05-02T10:07:06.000Z</time>
      </trkpt>
      <trkpt lat="47.30663" lon="-2.34398">
        <ele>40</ele>
        <time>2021-05-02T10:07:07.000Z</time>
      </trkpt>
      <trkpt lat="47.30657" lon="-2.34403">
        <ele>40</ele>
        <time>2021-05-02T10:07:08.000Z</time>
      </trkpt>
      <trkpt lat="47.30617" lon="-2.3445">
        <ele>40.4</ele>
        <time>2021-05-02T10:07:16.000Z</time>
      </trkpt>
      <trkpt lat="47.30608" lon="-2.34462">
        <ele>40.6</ele>
        <time>2021-05-02T10:07:18.000Z</time>
      </trkpt>
      <trkpt lat="47.30596" lon="-2.34485">
        <ele>40.5</ele>
        <time>2021-05-02T10:07:21.000Z</time>
      </trkpt>
      <trkpt lat="47.30571" lon="-2.34534">
        <ele>39.8</ele>
        <time>2021-05-02T10:07:27.000Z</time>
      </trkpt>
      <trkpt lat="47.30538" lon="-2.34583">
        <ele>38</ele>
        <time>2021-05-02T10:07:33.000Z</time>
      </trkpt>
      <trkpt lat="47.30528" lon="-2.34597">
        <ele>37.5</ele>
        <time>2021-05-02T10:07:35.000Z</time>
      </trkpt>
      <trkpt lat="47.30519" lon="-2.34609">
        <ele>37.4</ele>
        <time>2021-05-02T10:07:37.000Z</time>
      </trkpt>
      <trkpt lat="47.30517" lon="-2.34614">
        <ele>-0.40000000596046</ele>
        <time>2021-05-02T10:07:38.000Z</time>
      </trkpt>
      <trkpt lat="47.30514" lon="-2.34619">
        <ele>-0.80000001192093</ele>
        <time>2021-05-02T10:07:39.000Z</time>
      </trkpt>
      <trkpt lat="47.30512" lon="-2.34624">
        <ele>-1.2000000476837</ele>
        <time>2021-05-02T10:07:40.000Z</time>
      </trkpt>
      <trkpt lat="47.30508" lon="-2.3463">
        <ele>-1.6000000238419</ele>
        <time>2021-05-02T10:07:41.000Z</time>
      </trkpt>
      <trkpt lat="47.30505" lon="-2.34634">
        <ele>-2.2000000476837</ele>
        <time>2021-05-02T10:07:42.000Z</time>
      </trkpt>
      <trkpt lat="47.30492" lon="-2.3465">
        <ele>-2.2000000476837</ele>
        <time>2021-05-02T10:07:45.000Z</time>
      </trkpt>
      <trkpt lat="47.30459" lon="-2.34687">
        <ele>-2.2000000476837</ele>
        <time>2021-05-02T10:07:51.000Z</time>
      </trkpt>
      <trkpt lat="47.30421" lon="-2.34721">
        <ele>-2.2000000476837</ele>
        <time>2021-05-02T10:07:58.000Z</time>
      </trkpt>
      <trkpt lat="47.30393" lon="-2.34741">
        <ele>-2.2000000476837</ele>
        <time>2021-05-02T10:08:03.000Z</time>
      </trkpt>
      <trkpt lat="47.30359" lon="-2.34767">
        <ele>-2.2000000476837</ele>
        <time>2021-05-02T10:08:09.000Z</time>
      </trkpt>
      <trkpt lat="47.30354" lon="-2.34771">
        <ele>-1.6000000238419</ele>
        <time>2021-05-02T10:08:10.000Z</time>
      </trkpt>
      <trkpt lat="47.30348" lon="-2.34776">
        <ele>-1.2000000476837</ele>
        <time>2021-05-02T10:08:11.000Z</time>
      </trkpt>
      <trkpt lat="47.30343" lon="-2.34781">
        <ele>-0.80000001192093</ele>
        <time>2021-05-02T10:08:12.000Z</time>
      </trkpt>
      <trkpt lat="47.30337" lon="-2.34786">
        <ele>-0.40000000596046</ele>
        <time>2021-05-02T10:08:13.000Z</time>
      </trkpt>
      <trkpt lat="47.30334" lon="-2.34792">
        <ele>39</ele>
        <time>2021-05-02T10:08:14.000Z</time>
      </trkpt>
      <trkpt lat="47.3033" lon="-2.34799">
        <ele>39</ele>
        <time>2021-05-02T10:08:15.000Z</time>
      </trkpt>
      <trkpt lat="47.30322" lon="-2.34815">
        <ele>38.7</ele>
        <time>2021-05-02T10:08:19.000Z</time>
      </trkpt>
      <trkpt lat="47.30311" lon="-2.34826">
        <ele>38.3</ele>
        <time>2021-05-02T10:08:23.000Z</time>
      </trkpt>
      <trkpt lat="47.30289" lon="-2.3485">
        <ele>-0.40000000596046</ele>
        <time>2021-05-02T10:08:29.000Z</time>
      </trkpt>
      <trkpt lat="47.30285" lon="-2.34853">
        <ele>-0.80000001192093</ele>
        <time>2021-05-02T10:08:30.000Z</time>
      </trkpt>
      <trkpt lat="47.30281" lon="-2.34856">
        <ele>-1.2000000476837</ele>
        <time>2021-05-02T10:08:31.000Z</time>
      </trkpt>
      <trkpt lat="47.30276" lon="-2.34859">
        <ele>-1.6000000238419</ele>
        <time>2021-05-02T10:08:32.000Z</time>
      </trkpt>
      <trkpt lat="47.30271" lon="-2.34863">
        <ele>-2</ele>
        <time>2021-05-02T10:08:33.000Z</time>
      </trkpt>
      <trkpt lat="47.30261" lon="-2.34869">
        <ele>-2</ele>
        <time>2021-05-02T10:08:35.000Z</time>
      </trkpt>
      <trkpt lat="47.30239" lon="-2.34884">
        <ele>-2</ele>
        <time>2021-05-02T10:08:39.000Z</time>
      </trkpt>
      <trkpt lat="47.30234" lon="-2.3489">
        <ele>-2</ele>
        <time>2021-05-02T10:08:40.000Z</time>
      </trkpt>
      <trkpt lat="47.30215" lon="-2.34909">
        <ele>-2</ele>
        <time>2021-05-02T10:08:44.000Z</time>
      </trkpt>
      <trkpt lat="47.30213" lon="-2.34917">
        <ele>-2</ele>
        <time>2021-05-02T10:08:45.000Z</time>
      </trkpt>
      <trkpt lat="47.30213" lon="-2.34946">
        <ele>-2</ele>
        <time>2021-05-02T10:08:48.000Z</time>
      </trkpt>
      <trkpt lat="47.30212" lon="-2.35014">
        <ele>-2</ele>
        <time>2021-05-02T10:08:54.000Z</time>
      </trkpt>
      <trkpt lat="47.3021" lon="-2.35073">
        <ele>-2</ele>
        <time>2021-05-02T10:08:59.000Z</time>
      </trkpt>
      <trkpt lat="47.3021" lon="-2.35085">
        <ele>-2.4000000953674</ele>
        <time>2021-05-02T10:09:00.000Z</time>
      </trkpt>
      <trkpt lat="47.3021" lon="-2.35095">
        <ele>-2.7999999523163</ele>
        <time>2021-05-02T10:09:01.000Z</time>
      </trkpt>
      <trkpt lat="47.3021" lon="-2.35105">
        <ele>-3.4000000953674</ele>
        <time>2021-05-02T10:09:02.000Z</time>
      </trkpt>
      <trkpt lat="47.30209" lon="-2.35115">
        <ele>-3.7999999523163</ele>
        <time>2021-05-02T10:09:03.000Z</time>
      </trkpt>
      <trkpt lat="47.30208" lon="-2.35124">
        <ele>-4.1999998092651</ele>
        <time>2021-05-02T10:09:04.000Z</time>
      </trkpt>
      <trkpt lat="47.30208" lon="-2.35133">
        <ele>-4.1999998092651</ele>
        <time>2021-05-02T10:09:05.000Z</time>
      </trkpt>
      <trkpt lat="47.30209" lon="-2.35143">
        <ele>-4.1999998092651</ele>
        <time>2021-05-02T10:09:06.000Z</time>
      </trkpt>
      <trkpt lat="47.30205" lon="-2.35168">
        <ele>-4.5999999046326</ele>
        <time>2021-05-02T10:09:09.000Z</time>
      </trkpt>
      <trkpt lat="47.302" lon="-2.35171">
        <ele>-5</ele>
        <time>2021-05-02T10:09:10.000Z</time>
      </trkpt>
      <trkpt lat="47.30196" lon="-2.35173">
        <ele>-5.4000000953674</ele>
        <time>2021-05-02T10:09:11.000Z</time>
      </trkpt>
      <trkpt lat="47.30191" lon="-2.35175">
        <ele>-6</ele>
        <time>2021-05-02T10:09:12.000Z</time>
      </trkpt>
      <trkpt lat="47.30186" lon="-2.35178">
        <ele>-6.4000000953674</ele>
        <time>2021-05-02T10:09:13.000Z</time>
      </trkpt>
      <trkpt lat="47.30176" lon="-2.35181">
        <ele>-6.4000000953674</ele>
        <time>2021-05-02T10:09:15.000Z</time>
      </trkpt>
      <trkpt lat="47.30172" lon="-2.35183">
        <ele>-6.4000000953674</ele>
        <time>2021-05-02T10:09:16.000Z</time>
      </trkpt>
      <trkpt lat="47.30152" lon="-2.35194">
        <ele>-6.4000000953674</ele>
        <time>2021-05-02T10:09:21.000Z</time>
      </trkpt>
      <trkpt lat="47.30128" lon="-2.35199">
        <ele>-6.4000000953674</ele>
        <time>2021-05-02T10:09:26.000Z</time>
      </trkpt>
      <trkpt lat="47.30122" lon="-2.35202">
        <ele>-6.4000000953674</ele>
        <time>2021-05-02T10:09:27.000Z</time>
      </trkpt>
      <trkpt lat="47.30103" lon="-2.35211">
        <ele>-6.4000000953674</ele>
        <time>2021-05-02T10:09:30.000Z</time>
      </trkpt>
      <trkpt lat="47.30068" lon="-2.35227">
        <ele>-6.4000000953674</ele>
        <time>2021-05-02T10:09:36.000Z</time>
      </trkpt>
      <trkpt lat="47.30055" lon="-2.35232">
        <ele>-6.4000000953674</ele>
        <time>2021-05-02T10:09:39.000Z</time>
      </trkpt>
      <trkpt lat="47.30046" lon="-2.35237">
        <ele>-6.8000001907349</ele>
        <time>2021-05-02T10:09:41.000Z</time>
      </trkpt>
      <trkpt lat="47.30041" lon="-2.3524">
        <ele>-7.5999999046326</ele>
        <time>2021-05-02T10:09:42.000Z</time>
      </trkpt>
      <trkpt lat="47.30037" lon="-2.35241">
        <ele>-8</ele>
        <time>2021-05-02T10:09:43.000Z</time>
      </trkpt>
      <trkpt lat="47.30033" lon="-2.35243">
        <ele>-8.3999996185303</ele>
        <time>2021-05-02T10:09:44.000Z</time>
      </trkpt>
      <trkpt lat="47.3003" lon="-2.35244">
        <ele>-8.3999996185303</ele>
        <time>2021-05-02T10:09:45.000Z</time>
      </trkpt>
      <trkpt lat="47.30024" lon="-2.35245">
        <ele>-8.3999996185303</ele>
        <time>2021-05-02T10:09:48.000Z</time>
      </trkpt>
      <trkpt lat="47.30015" lon="-2.35252">
        <ele>-8.3999996185303</ele>
        <time>2021-05-02T10:09:51.000Z</time>
      </trkpt>
      <trkpt lat="47.30009" lon="-2.35255">
        <ele>-8.3999996185303</ele>
        <time>2021-05-02T10:09:53.000Z</time>
      </trkpt>
      <trkpt lat="47.30001" lon="-2.35261">
        <ele>-8.3999996185303</ele>
        <time>2021-05-02T10:09:59.000Z</time>
      </trkpt>
      <trkpt lat="47.30001" lon="-2.35261">
        <ele>-8.3999996185303</ele>
        <time>2021-05-02T10:10:00.000Z</time>
      </trkpt>
      <trkpt lat="47.29998" lon="-2.35261">
        <ele>-8.3999996185303</ele>
        <time>2021-05-02T10:11:23.000Z</time>
      </trkpt>
      <trkpt lat="47.29994" lon="-2.35265">
        <ele>-8.3999996185303</ele>
        <time>2021-05-02T10:11:25.000Z</time>
      </trkpt>
      <trkpt lat="47.29979" lon="-2.35282">
        <ele>-8.3999996185303</ele>
        <time>2021-05-02T10:11:30.000Z</time>
      </trkpt>
      <trkpt lat="47.29976" lon="-2.35286">
        <ele>-8.3999996185303</ele>
        <time>2021-05-02T10:11:31.000Z</time>
      </trkpt>
      <trkpt lat="47.29956" lon="-2.35313">
        <ele>-8.3999996185303</ele>
        <time>2021-05-02T10:11:37.000Z</time>
      </trkpt>
      <trkpt lat="47.29928" lon="-2.35349">
        <ele>-8.3999996185303</ele>
        <time>2021-05-02T10:11:44.000Z</time>
      </trkpt>
      <trkpt lat="47.29892" lon="-2.35393">
        <ele>-8.3999996185303</ele>
        <time>2021-05-02T10:11:53.000Z</time>
      </trkpt>
      <trkpt lat="47.29853" lon="-2.35433">
        <ele>-8.3999996185303</ele>
        <time>2021-05-02T10:12:02.000Z</time>
      </trkpt>
      <trkpt lat="47.29829" lon="-2.35466">
        <ele>-8.3999996185303</ele>
        <time>2021-05-02T10:12:09.000Z</time>
      </trkpt>
      <trkpt lat="47.29828" lon="-2.35472">
        <ele>-8.3999996185303</ele>
        <time>2021-05-02T10:12:10.000Z</time>
      </trkpt>
      <trkpt lat="47.29829" lon="-2.35478">
        <ele>-8</ele>
        <time>2021-05-02T10:12:11.000Z</time>
      </trkpt>
      <trkpt lat="47.29829" lon="-2.35483">
        <ele>-7.5999999046326</ele>
        <time>2021-05-02T10:12:12.000Z</time>
      </trkpt>
      <trkpt lat="47.2983" lon="-2.35489">
        <ele>-7.1999998092651</ele>
        <time>2021-05-02T10:12:13.000Z</time>
      </trkpt>
      <trkpt lat="47.29832" lon="-2.35495">
        <ele>-6.8000001907349</ele>
        <time>2021-05-02T10:12:14.000Z</time>
      </trkpt>
      <trkpt lat="47.29834" lon="-2.35502">
        <ele>-6.4000000953674</ele>
        <time>2021-05-02T10:12:15.000Z</time>
      </trkpt>
      <trkpt lat="47.29837" lon="-2.35515">
        <ele>-6.4000000953674</ele>
        <time>2021-05-02T10:12:17.000Z</time>
      </trkpt>
      <trkpt lat="47.29841" lon="-2.35529">
        <ele>-6.4000000953674</ele>
        <time>2021-05-02T10:12:19.000Z</time>
      </trkpt>
      <trkpt lat="47.29857" lon="-2.35578">
        <ele>-6.4000000953674</ele>
        <time>2021-05-02T10:12:26.000Z</time>
      </trkpt>
      <trkpt lat="47.29864" lon="-2.35608">
        <ele>-6</ele>
        <time>2021-05-02T10:12:30.000Z</time>
      </trkpt>
      <trkpt lat="47.29866" lon="-2.35615">
        <ele>-5.5999999046326</ele>
        <time>2021-05-02T10:12:31.000Z</time>
      </trkpt>
      <trkpt lat="47.29868" lon="-2.35622">
        <ele>-5.1999998092651</ele>
        <time>2021-05-02T10:12:32.000Z</time>
      </trkpt>
      <trkpt lat="47.2987" lon="-2.35629">
        <ele>-4.8000001907349</ele>
        <time>2021-05-02T10:12:33.000Z</time>
      </trkpt>
      <trkpt lat="47.29871" lon="-2.35636">
        <ele>-4.4000000953674</ele>
        <time>2021-05-02T10:12:34.000Z</time>
      </trkpt>
      <trkpt lat="47.29872" lon="-2.35642">
        <ele>-4.4000000953674</ele>
        <time>2021-05-02T10:12:35.000Z</time>
      </trkpt>
      <trkpt lat="47.29876" lon="-2.35671">
        <ele>-4.4000000953674</ele>
        <time>2021-05-02T10:12:39.000Z</time>
      </trkpt>
      <trkpt lat="47.29877" lon="-2.35678">
        <ele>-4.4000000953674</ele>
        <time>2021-05-02T10:12:40.000Z</time>
      </trkpt>
      <trkpt lat="47.29882" lon="-2.35699">
        <ele>-4.4000000953674</ele>
        <time>2021-05-02T10:12:43.000Z</time>
      </trkpt>
      <trkpt lat="47.29889" lon="-2.35728">
        <ele>-4.4000000953674</ele>
        <time>2021-05-02T10:12:48.000Z</time>
      </trkpt>
      <trkpt lat="47.29895" lon="-2.35744">
        <ele>-4.4000000953674</ele>
        <time>2021-05-02T10:12:53.000Z</time>
      </trkpt>
      <trkpt lat="47.29897" lon="-2.3575">
        <ele>-4.4000000953674</ele>
        <time>2021-05-02T10:12:56.000Z</time>
      </trkpt>
      <trkpt lat="47.29897" lon="-2.35754">
        <ele>-4.4000000953674</ele>
        <time>2021-05-02T10:12:57.000Z</time>
      </trkpt>
      <trkpt lat="47.29886" lon="-2.35763">
        <ele>-4.4000000953674</ele>
        <time>2021-05-02T10:13:00.000Z</time>
      </trkpt>
      <trkpt lat="47.29877" lon="-2.35768">
        <ele>-4.4000000953674</ele>
        <time>2021-05-02T10:13:02.000Z</time>
      </trkpt>
      <trkpt lat="47.29856" lon="-2.35777">
        <ele>-4.4000000953674</ele>
        <time>2021-05-02T10:13:06.000Z</time>
      </trkpt>
      <trkpt lat="47.29833" lon="-2.35784">
        <ele>-4</ele>
        <time>2021-05-02T10:13:10.000Z</time>
      </trkpt>
      <trkpt lat="47.29828" lon="-2.35786">
        <ele>-3.5999999046326</ele>
        <time>2021-05-02T10:13:11.000Z</time>
      </trkpt>
      <trkpt lat="47.29822" lon="-2.35787">
        <ele>-3.2000000476837</ele>
        <time>2021-05-02T10:13:12.000Z</time>
      </trkpt>
      <trkpt lat="47.29816" lon="-2.35789">
        <ele>-2.7999999523163</ele>
        <time>2021-05-02T10:13:13.000Z</time>
      </trkpt>
      <trkpt lat="47.2981" lon="-2.35791">
        <ele>-2.4000000953674</ele>
        <time>2021-05-02T10:13:14.000Z</time>
      </trkpt>
      <trkpt lat="47.29773" lon="-2.35804">
        <ele>-2.4000000953674</ele>
        <time>2021-05-02T10:13:21.000Z</time>
      </trkpt>
      <trkpt lat="47.29727" lon="-2.35826">
        <ele>-2.4000000953674</ele>
        <time>2021-05-02T10:13:29.000Z</time>
      </trkpt>
      <trkpt lat="47.29685" lon="-2.35846">
        <ele>-2.4000000953674</ele>
        <time>2021-05-02T10:13:35.000Z</time>
      </trkpt>
      <trkpt lat="47.29668" lon="-2.35853">
        <ele>-2.4000000953674</ele>
        <time>2021-05-02T10:13:38.000Z</time>
      </trkpt>
      <trkpt lat="47.29663" lon="-2.35858">
        <ele>-2.4000000953674</ele>
        <time>2021-05-02T10:13:39.000Z</time>
      </trkpt>
      <trkpt lat="47.2964" lon="-2.35874">
        <ele>-2.4000000953674</ele>
        <time>2021-05-02T10:13:44.000Z</time>
      </trkpt>
      <trkpt lat="47.29634" lon="-2.35876">
        <ele>-2.4000000953674</ele>
        <time>2021-05-02T10:13:45.000Z</time>
      </trkpt>
      <trkpt lat="47.29607" lon="-2.3589">
        <ele>-2.4000000953674</ele>
        <time>2021-05-02T10:13:50.000Z</time>
      </trkpt>
      <trkpt lat="47.29576" lon="-2.35911">
        <ele>-2.4000000953674</ele>
        <time>2021-05-02T10:13:56.000Z</time>
      </trkpt>
      <trkpt lat="47.2957" lon="-2.35915">
        <ele>-2.7999999523163</ele>
        <time>2021-05-02T10:13:57.000Z</time>
      </trkpt>
      <trkpt lat="47.29565" lon="-2.35918">
        <ele>-3.2000000476837</ele>
        <time>2021-05-02T10:13:58.000Z</time>
      </trkpt>
      <trkpt lat="47.29559" lon="-2.35921">
        <ele>-3.5999999046326</ele>
        <time>2021-05-02T10:13:59.000Z</time>
      </trkpt>
      <trkpt lat="47.29553" lon="-2.35924">
        <ele>-4</ele>
        <time>2021-05-02T10:14:00.000Z</time>
      </trkpt>
      <trkpt lat="47.29548" lon="-2.35928">
        <ele>-4.4000000953674</ele>
        <time>2021-05-02T10:14:01.000Z</time>
      </trkpt>
      <trkpt lat="47.29537" lon="-2.35934">
        <ele>-4.4000000953674</ele>
        <time>2021-05-02T10:14:03.000Z</time>
      </trkpt>
      <trkpt lat="47.29514" lon="-2.35946">
        <ele>-4.4000000953674</ele>
        <time>2021-05-02T10:14:08.000Z</time>
      </trkpt>
      <trkpt lat="47.2951" lon="-2.35942">
        <ele>-4.4000000953674</ele>
        <time>2021-05-02T10:14:09.000Z</time>
      </trkpt>
      <trkpt lat="47.29503" lon="-2.35923">
        <ele>-4.4000000953674</ele>
        <time>2021-05-02T10:14:12.000Z</time>
      </trkpt>
      <trkpt lat="47.29501" lon="-2.35917">
        <ele>-4.4000000953674</ele>
        <time>2021-05-02T10:14:13.000Z</time>
      </trkpt>
      <trkpt lat="47.29497" lon="-2.35905">
        <ele>-4.4000000953674</ele>
        <time>2021-05-02T10:14:15.000Z</time>
      </trkpt>
      <trkpt lat="47.2949" lon="-2.359">
        <ele>-4.4000000953674</ele>
        <time>2021-05-02T10:14:17.000Z</time>
      </trkpt>
      <trkpt lat="47.29477" lon="-2.35901">
        <ele>-4.4000000953674</ele>
        <time>2021-05-02T10:14:20.000Z</time>
      </trkpt>
      <trkpt lat="47.29472" lon="-2.35901">
        <ele>-4.4000000953674</ele>
        <time>2021-05-02T10:14:21.000Z</time>
      </trkpt>
      <trkpt lat="47.29463" lon="-2.35902">
        <ele>-4.4000000953674</ele>
        <time>2021-05-02T10:14:23.000Z</time>
      </trkpt>
      <trkpt lat="47.29452" lon="-2.35905">
        <ele>-4.4000000953674</ele>
        <time>2021-05-02T10:14:26.000Z</time>
      </trkpt>
      <trkpt lat="47.29449" lon="-2.35907">
        <ele>-4.4000000953674</ele>
        <time>2021-05-02T10:14:29.000Z</time>
      </trkpt>
      <trkpt lat="47.2944" lon="-2.35915">
        <ele>-4.4000000953674</ele>
        <time>2021-05-02T10:14:35.000Z</time>
      </trkpt>
      <trkpt lat="47.29435" lon="-2.35912">
        <ele>-4.4000000953674</ele>
        <time>2021-05-02T10:14:37.000Z</time>
      </trkpt>
      <trkpt lat="47.2943" lon="-2.35901">
        <ele>-4.4000000953674</ele>
        <time>2021-05-02T10:14:39.000Z</time>
      </trkpt>
      <trkpt lat="47.29422" lon="-2.3589">
        <ele>-4.4000000953674</ele>
        <time>2021-05-02T10:14:41.000Z</time>
      </trkpt>
      <trkpt lat="47.29415" lon="-2.3588">
        <ele>-4.4000000953674</ele>
        <time>2021-05-02T10:14:43.000Z</time>
      </trkpt>
      <trkpt lat="47.29383" lon="-2.35846">
        <ele>-4.4000000953674</ele>
        <time>2021-05-02T10:14:50.000Z</time>
      </trkpt>
      <trkpt lat="47.29352" lon="-2.35818">
        <ele>-4.4000000953674</ele>
        <time>2021-05-02T10:14:57.000Z</time>
      </trkpt>
      <trkpt lat="47.29348" lon="-2.35813">
        <ele>-4.4000000953674</ele>
        <time>2021-05-02T10:14:58.000Z</time>
      </trkpt>
      <trkpt lat="47.29323" lon="-2.35791">
        <ele>-4.4000000953674</ele>
        <time>2021-05-02T10:15:03.000Z</time>
      </trkpt>
      <trkpt lat="47.2929" lon="-2.35763">
        <ele>-4.4000000953674</ele>
        <time>2021-05-02T10:15:10.000Z</time>
      </trkpt>
      <trkpt lat="47.29258" lon="-2.35736">
        <ele>-4.4000000953674</ele>
        <time>2021-05-02T10:15:17.000Z</time>
      </trkpt>
      <trkpt lat="47.29245" lon="-2.35746">
        <ele>-4.4000000953674</ele>
        <time>2021-05-02T10:15:20.000Z</time>
      </trkpt>
      <trkpt lat="47.29242" lon="-2.35753">
        <ele>-4.4000000953674</ele>
        <time>2021-05-02T10:15:21.000Z</time>
      </trkpt>
      <trkpt lat="47.29225" lon="-2.35774">
        <ele>-4.4000000953674</ele>
        <time>2021-05-02T10:15:25.000Z</time>
      </trkpt>
      <trkpt lat="47.29189" lon="-2.35809">
        <ele>-4.4000000953674</ele>
        <time>2021-05-02T10:15:32.000Z</time>
      </trkpt>
      <trkpt lat="47.29155" lon="-2.35831">
        <ele>-4.4000000953674</ele>
        <time>2021-05-02T10:15:38.000Z</time>
      </trkpt>
      <trkpt lat="47.2915" lon="-2.35836">
        <ele>-4.4000000953674</ele>
        <time>2021-05-02T10:15:39.000Z</time>
      </trkpt>
      <trkpt lat="47.29125" lon="-2.35863">
        <ele>-4.4000000953674</ele>
        <time>2021-05-02T10:15:44.000Z</time>
      </trkpt>
      <trkpt lat="47.29083" lon="-2.35914">
        <ele>-4.4000000953674</ele>
        <time>2021-05-02T10:15:53.000Z</time>
      </trkpt>
      <trkpt lat="47.29044" lon="-2.35958">
        <ele>-4.4000000953674</ele>
        <time>2021-05-02T10:16:01.000Z</time>
      </trkpt>
      <trkpt lat="47.29006" lon="-2.35999">
        <ele>-4.4000000953674</ele>
        <time>2021-05-02T10:16:09.000Z</time>
      </trkpt>
      <trkpt lat="47.2897" lon="-2.36035">
        <ele>-4.4000000953674</ele>
        <time>2021-05-02T10:16:16.000Z</time>
      </trkpt>
      <trkpt lat="47.28933" lon="-2.36062">
        <ele>-4.4000000953674</ele>
        <time>2021-05-02T10:16:23.000Z</time>
      </trkpt>
      <trkpt lat="47.28912" lon="-2.36076">
        <ele>-4.4000000953674</ele>
        <time>2021-05-02T10:16:27.000Z</time>
      </trkpt>
      <trkpt lat="47.28897" lon="-2.36089">
        <ele>-4.4000000953674</ele>
        <time>2021-05-02T10:16:30.000Z</time>
      </trkpt>
      <trkpt lat="47.28859" lon="-2.36125">
        <ele>-4.4000000953674</ele>
        <time>2021-05-02T10:16:38.000Z</time>
      </trkpt>
      <trkpt lat="47.28836" lon="-2.36152">
        <ele>-4.4000000953674</ele>
        <time>2021-05-02T10:16:43.000Z</time>
      </trkpt>
      <trkpt lat="47.28829" lon="-2.36164">
        <ele>-4.4000000953674</ele>
        <time>2021-05-02T10:16:45.000Z</time>
      </trkpt>
      <trkpt lat="47.28825" lon="-2.3617">
        <ele>-4.4000000953674</ele>
        <time>2021-05-02T10:16:46.000Z</time>
      </trkpt>
      <trkpt lat="47.28811" lon="-2.36185">
        <ele>-4.4000000953674</ele>
        <time>2021-05-02T10:16:49.000Z</time>
      </trkpt>
      <trkpt lat="47.28806" lon="-2.36188">
        <ele>-4.4000000953674</ele>
        <time>2021-05-02T10:16:50.000Z</time>
      </trkpt>
      <trkpt lat="47.28773" lon="-2.3621">
        <ele>-4.4000000953674</ele>
        <time>2021-05-02T10:16:57.000Z</time>
      </trkpt>
      <trkpt lat="47.28745" lon="-2.36227">
        <ele>-4.4000000953674</ele>
        <time>2021-05-02T10:17:04.000Z</time>
      </trkpt>
      <trkpt lat="47.28724" lon="-2.36247">
        <ele>-4.4000000953674</ele>
        <time>2021-05-02T10:17:10.000Z</time>
      </trkpt>
      <trkpt lat="47.28714" lon="-2.36262">
        <ele>-4.4000000953674</ele>
        <time>2021-05-02T10:17:15.000Z</time>
      </trkpt>
      <trkpt lat="47.28705" lon="-2.36273">
        <ele>-4</ele>
        <time>2021-05-02T10:17:19.000Z</time>
      </trkpt>
      <trkpt lat="47.28702" lon="-2.36274">
        <ele>-3.5999999046326</ele>
        <time>2021-05-02T10:17:20.000Z</time>
      </trkpt>
      <trkpt lat="47.287" lon="-2.36276">
        <ele>-3</ele>
        <time>2021-05-02T10:17:21.000Z</time>
      </trkpt>
      <trkpt lat="47.28697" lon="-2.36278">
        <ele>-2.5999999046326</ele>
        <time>2021-05-02T10:17:22.000Z</time>
      </trkpt>
      <trkpt lat="47.28695" lon="-2.36279">
        <ele>-2.2000000476837</ele>
        <time>2021-05-02T10:17:23.000Z</time>
      </trkpt>
      <trkpt lat="47.28682" lon="-2.3628">
        <ele>-1.7999999523163</ele>
        <time>2021-05-02T10:17:27.000Z</time>
      </trkpt>
      <trkpt lat="47.2868" lon="-2.36279">
        <ele>-1.3999999761581</ele>
        <time>2021-05-02T10:17:28.000Z</time>
      </trkpt>
      <trkpt lat="47.28678" lon="-2.36275">
        <ele>-0.60000002384186</ele>
        <time>2021-05-02T10:17:29.000Z</time>
      </trkpt>
      <trkpt lat="47.28675" lon="-2.36267">
        <ele>-0.20000000298023</ele>
        <time>2021-05-02T10:17:31.000Z</time>
      </trkpt>
      <trkpt lat="47.28674" lon="-2.36263">
        <ele>-0.20000000298023</ele>
        <time>2021-05-02T10:17:32.000Z</time>
      </trkpt>
      <trkpt lat="47.28673" lon="-2.36251">
        <ele>-0.20000000298023</ele>
        <time>2021-05-02T10:17:34.000Z</time>
      </trkpt>
      <trkpt lat="47.28672" lon="-2.36237">
        <ele>-0.20000000298023</ele>
        <time>2021-05-02T10:17:37.000Z</time>
      </trkpt>
      <trkpt lat="47.28672" lon="-2.36223">
        <ele>0.20000000298023</ele>
        <time>2021-05-02T10:17:40.000Z</time>
      </trkpt>
      <trkpt lat="47.28671" lon="-2.36219">
        <ele>0.80000001192093</ele>
        <time>2021-05-02T10:17:41.000Z</time>
      </trkpt>
      <trkpt lat="47.2867" lon="-2.36214">
        <ele>1.2000000476837</ele>
        <time>2021-05-02T10:17:42.000Z</time>
      </trkpt>
      <trkpt lat="47.28669" lon="-2.3621">
        <ele>1.6000000238419</ele>
        <time>2021-05-02T10:17:43.000Z</time>
      </trkpt>
      <trkpt lat="47.28668" lon="-2.36206">
        <ele>2</ele>
        <time>2021-05-02T10:17:44.000Z</time>
      </trkpt>
      <trkpt lat="47.28663" lon="-2.36193">
        <ele>2</ele>
        <time>2021-05-02T10:17:47.000Z</time>
      </trkpt>
      <trkpt lat="47.28658" lon="-2.36183">
        <ele>2</ele>
        <time>2021-05-02T10:17:50.000Z</time>
      </trkpt>
      <trkpt lat="47.28653" lon="-2.36181">
        <ele>2</ele>
        <time>2021-05-02T10:17:52.000Z</time>
      </trkpt>
      <trkpt lat="47.28649" lon="-2.36177">
        <ele>2.4000000953674</ele>
        <time>2021-05-02T10:17:54.000Z</time>
      </trkpt>
      <trkpt lat="47.28648" lon="-2.36174">
        <ele>2.7999999523163</ele>
        <time>2021-05-02T10:17:55.000Z</time>
      </trkpt>
      <trkpt lat="47.28647" lon="-2.36171">
        <ele>3.7999999523163</ele>
        <time>2021-05-02T10:17:56.000Z</time>
      </trkpt>
      <trkpt lat="47.28646" lon="-2.36168">
        <ele>4.1999998092651</ele>
        <time>2021-05-02T10:17:57.000Z</time>
      </trkpt>
      <trkpt lat="47.28635" lon="-2.36155">
        <ele>4.1999998092651</ele>
        <time>2021-05-02T10:18:00.000Z</time>
      </trkpt>
      <trkpt lat="47.2863" lon="-2.36152">
        <ele>4.1999998092651</ele>
        <time>2021-05-02T10:18:01.000Z</time>
      </trkpt>
      <trkpt lat="47.28623" lon="-2.36152">
        <ele>4.5999999046326</ele>
        <time>2021-05-02T10:18:03.000Z</time>
      </trkpt>
      <trkpt lat="47.2862" lon="-2.36152">
        <ele>5</ele>
        <time>2021-05-02T10:18:04.000Z</time>
      </trkpt>
      <trkpt lat="47.28617" lon="-2.36153">
        <ele>5.4000000953674</ele>
        <time>2021-05-02T10:18:05.000Z</time>
      </trkpt>
      <trkpt lat="47.28615" lon="-2.36155">
        <ele>6</ele>
        <time>2021-05-02T10:18:06.000Z</time>
      </trkpt>
      <trkpt lat="47.28612" lon="-2.36157">
        <ele>6.4000000953674</ele>
        <time>2021-05-02T10:18:07.000Z</time>
      </trkpt>
      <trkpt lat="47.28597" lon="-2.36158">
        <ele>6.4000000953674</ele>
        <time>2021-05-02T10:18:12.000Z</time>
      </trkpt>
      <trkpt lat="47.28577" lon="-2.36154">
        <ele>6.4000000953674</ele>
        <time>2021-05-02T10:18:17.000Z</time>
      </trkpt>
      <trkpt lat="47.28559" lon="-2.36162">
        <ele>5.8000001907349</ele>
        <time>2021-05-02T10:18:21.000Z</time>
      </trkpt>
      <trkpt lat="47.28555" lon="-2.36161">
        <ele>5.4000000953674</ele>
        <time>2021-05-02T10:18:22.000Z</time>
      </trkpt>
      <trkpt lat="47.28552" lon="-2.36157">
        <ele>4.8000001907349</ele>
        <time>2021-05-02T10:18:23.000Z</time>
      </trkpt>
      <trkpt lat="47.2855" lon="-2.36153">
        <ele>4.1999998092651</ele>
        <time>2021-05-02T10:18:24.000Z</time>
      </trkpt>
      <trkpt lat="47.28547" lon="-2.36146">
        <ele>3.7999999523163</ele>
        <time>2021-05-02T10:18:25.000Z</time>
      </trkpt>
      <trkpt lat="47.28542" lon="-2.36129">
        <ele>3.7999999523163</ele>
        <time>2021-05-02T10:18:27.000Z</time>
      </trkpt>
      <trkpt lat="47.28538" lon="-2.36113">
        <ele>3.7999999523163</ele>
        <time>2021-05-02T10:18:29.000Z</time>
      </trkpt>
      <trkpt lat="47.28532" lon="-2.36093">
        <ele>3.7999999523163</ele>
        <time>2021-05-02T10:18:32.000Z</time>
      </trkpt>
      <trkpt lat="47.28521" lon="-2.36068">
        <ele>3.7999999523163</ele>
        <time>2021-05-02T10:18:37.000Z</time>
      </trkpt>
      <trkpt lat="47.28498" lon="-2.36043">
        <ele>3.7999999523163</ele>
        <time>2021-05-02T10:18:44.000Z</time>
      </trkpt>
      <trkpt lat="47.28475" lon="-2.36032">
        <ele>3.7999999523163</ele>
        <time>2021-05-02T10:18:49.000Z</time>
      </trkpt>
      <trkpt lat="47.28456" lon="-2.36002">
        <ele>3.7999999523163</ele>
        <time>2021-05-02T10:18:54.000Z</time>
      </trkpt>
      <trkpt lat="47.28454" lon="-2.3598">
        <ele>3.7999999523163</ele>
        <time>2021-05-02T10:18:57.000Z</time>
      </trkpt>
      <trkpt lat="47.28457" lon="-2.35966">
        <ele>3.4000000953674</ele>
        <time>2021-05-02T10:18:59.000Z</time>
      </trkpt>
      <trkpt lat="47.28458" lon="-2.35959">
        <ele>2.7999999523163</ele>
        <time>2021-05-02T10:19:00.000Z</time>
      </trkpt>
      <trkpt lat="47.28459" lon="-2.35953">
        <ele>2.4000000953674</ele>
        <time>2021-05-02T10:19:01.000Z</time>
      </trkpt>
      <trkpt lat="47.28461" lon="-2.35951">
        <ele>1.7999999523163</ele>
        <time>2021-05-02T10:19:02.000Z</time>
      </trkpt>
      <trkpt lat="47.28463" lon="-2.35951">
        <ele>1.2000000476837</ele>
        <time>2021-05-02T10:19:03.000Z</time>
      </trkpt>
      <trkpt lat="47.28464" lon="-2.35952">
        <ele>0.60000002384186</ele>
        <time>2021-05-02T10:19:04.000Z</time>
      </trkpt>
      <trkpt lat="47.28465" lon="-2.35953">
        <ele>38.5</ele>
        <time>2021-05-02T10:19:05.000Z</time>
      </trkpt>
      <trkpt lat="47.28465" lon="-2.35954">
        <ele>-0.60000002384186</ele>
        <time>2021-05-02T10:19:06.000Z</time>
      </trkpt>
      <trkpt lat="47.28463" lon="-2.35956">
        <ele>-0.60000002384186</ele>
        <time>2021-05-02T10:19:08.000Z</time>
      </trkpt>
      <trkpt lat="47.28459" lon="-2.35965">
        <ele>-0.60000002384186</ele>
        <time>2021-05-02T10:19:11.000Z</time>
      </trkpt>
      <trkpt lat="47.28452" lon="-2.35979">
        <ele>-0.60000002384186</ele>
        <time>2021-05-02T10:19:16.000Z</time>
      </trkpt>
      <trkpt lat="47.28448" lon="-2.35984">
        <ele>-0.20000000298023</ele>
        <time>2021-05-02T10:19:18.000Z</time>
      </trkpt>
      <trkpt lat="47.28445" lon="-2.35987">
        <ele>0.20000000298023</ele>
        <time>2021-05-02T10:19:19.000Z</time>
      </trkpt>
      <trkpt lat="47.28443" lon="-2.35989">
        <ele>0.60000002384186</ele>
        <time>2021-05-02T10:19:20.000Z</time>
      </trkpt>
      <trkpt lat="47.28439" lon="-2.35992">
        <ele>1</ele>
        <time>2021-05-02T10:19:21.000Z</time>
      </trkpt>
      <trkpt lat="47.28436" lon="-2.35994">
        <ele>1.3999999761581</ele>
        <time>2021-05-02T10:19:22.000Z</time>
      </trkpt>
      <trkpt lat="47.2842" lon="-2.36008">
        <ele>1.3999999761581</ele>
        <time>2021-05-02T10:19:26.000Z</time>
      </trkpt>
      <trkpt lat="47.28396" lon="-2.36022">
        <ele>1.3999999761581</ele>
        <time>2021-05-02T10:19:32.000Z</time>
      </trkpt>
      <trkpt lat="47.28372" lon="-2.36034">
        <ele>1.3999999761581</ele>
        <time>2021-05-02T10:19:37.000Z</time>
      </trkpt>
      <trkpt lat="47.28366" lon="-2.36038">
        <ele>0.80000001192093</ele>
        <time>2021-05-02T10:19:38.000Z</time>
      </trkpt>
      <trkpt lat="47.2836" lon="-2.3604">
        <ele>0.20000000298023</ele>
        <time>2021-05-02T10:19:39.000Z</time>
      </trkpt>
      <trkpt lat="47.28354" lon="-2.36043">
        <ele>-0.40000000596046</ele>
        <time>2021-05-02T10:19:40.000Z</time>
      </trkpt>
      <trkpt lat="47.28348" lon="-2.36046">
        <ele>-0.80000001192093</ele>
        <time>2021-05-02T10:19:41.000Z</time>
      </trkpt>
      <trkpt lat="47.28343" lon="-2.36049">
        <ele>-1.3999999761581</ele>
        <time>2021-05-02T10:19:42.000Z</time>
      </trkpt>
      <trkpt lat="47.28337" lon="-2.36053">
        <ele>-2</ele>
        <time>2021-05-02T10:19:43.000Z</time>
      </trkpt>
      <trkpt lat="47.28333" lon="-2.36057">
        <ele>-2.5999999046326</ele>
        <time>2021-05-02T10:19:44.000Z</time>
      </trkpt>
      <trkpt lat="47.28329" lon="-2.36058">
        <ele>-3.2000000476837</ele>
        <time>2021-05-02T10:19:45.000Z</time>
      </trkpt>
      <trkpt lat="47.28325" lon="-2.36058">
        <ele>-3.7999999523163</ele>
        <time>2021-05-02T10:19:46.000Z</time>
      </trkpt>
      <trkpt lat="47.28321" lon="-2.36058">
        <ele>-4.1999998092651</ele>
        <time>2021-05-02T10:19:47.000Z</time>
      </trkpt>
      <trkpt lat="47.28316" lon="-2.36057">
        <ele>-4.8000001907349</ele>
        <time>2021-05-02T10:19:48.000Z</time>
      </trkpt>
      <trkpt lat="47.28312" lon="-2.36056">
        <ele>-5.4000000953674</ele>
        <time>2021-05-02T10:19:49.000Z</time>
      </trkpt>
      <trkpt lat="47.28307" lon="-2.36055">
        <ele>-6</ele>
        <time>2021-05-02T10:19:50.000Z</time>
      </trkpt>
      <trkpt lat="47.28295" lon="-2.36048">
        <ele>-6</ele>
        <time>2021-05-02T10:19:53.000Z</time>
      </trkpt>
      <trkpt lat="47.28291" lon="-2.36043">
        <ele>-6.4000000953674</ele>
        <time>2021-05-02T10:19:54.000Z</time>
      </trkpt>
      <trkpt lat="47.28288" lon="-2.36038">
        <ele>-7</ele>
        <time>2021-05-02T10:19:55.000Z</time>
      </trkpt>
      <trkpt lat="47.28286" lon="-2.36032">
        <ele>-7.5999999046326</ele>
        <time>2021-05-02T10:19:56.000Z</time>
      </trkpt>
      <trkpt lat="47.28286" lon="-2.36026">
        <ele>-8.3999996185303</ele>
        <time>2021-05-02T10:19:57.000Z</time>
      </trkpt>
      <trkpt lat="47.28286" lon="-2.36018">
        <ele>-9.1999998092651</ele>
        <time>2021-05-02T10:19:58.000Z</time>
      </trkpt>
      <trkpt lat="47.28287" lon="-2.3601">
        <ele>-10.60000038147</ele>
        <time>2021-05-02T10:19:59.000Z</time>
      </trkpt>
      <trkpt lat="47.28288" lon="-2.36001">
        <ele>-11.39999961853</ele>
        <time>2021-05-02T10:20:00.000Z</time>
      </trkpt>
      <trkpt lat="47.28289" lon="-2.35994">
        <ele>-12</ele>
        <time>2021-05-02T10:20:01.000Z</time>
      </trkpt>
      <trkpt lat="47.28289" lon="-2.35987">
        <ele>-12.800000190735</ele>
        <time>2021-05-02T10:20:02.000Z</time>
      </trkpt>
      <trkpt lat="47.28281" lon="-2.35967">
        <ele>-12.800000190735</ele>
        <time>2021-05-02T10:20:06.000Z</time>
      </trkpt>
      <trkpt lat="47.28279" lon="-2.35961">
        <ele>-12.800000190735</ele>
        <time>2021-05-02T10:20:07.000Z</time>
      </trkpt>
      <trkpt lat="47.28266" lon="-2.35935">
        <ele>-12.800000190735</ele>
        <time>2021-05-02T10:20:12.000Z</time>
      </trkpt>
      <trkpt lat="47.28255" lon="-2.35919">
        <ele>-12.800000190735</ele>
        <time>2021-05-02T10:20:16.000Z</time>
      </trkpt>
      <trkpt lat="47.28251" lon="-2.35917">
        <ele>-12.800000190735</ele>
        <time>2021-05-02T10:20:17.000Z</time>
      </trkpt>
      <trkpt lat="47.28224" lon="-2.35913">
        <ele>-12.800000190735</ele>
        <time>2021-05-02T10:20:23.000Z</time>
      </trkpt>
      <trkpt lat="47.28196" lon="-2.35909">
        <ele>-12.800000190735</ele>
        <time>2021-05-02T10:20:29.000Z</time>
      </trkpt>
      <trkpt lat="47.28182" lon="-2.35905">
        <ele>-13.199999809265</ele>
        <time>2021-05-02T10:20:33.000Z</time>
      </trkpt>
      <trkpt lat="47.28178" lon="-2.35905">
        <ele>-13.60000038147</ele>
        <time>2021-05-02T10:20:34.000Z</time>
      </trkpt>
      <trkpt lat="47.28175" lon="-2.35904">
        <ele>-14</ele>
        <time>2021-05-02T10:20:35.000Z</time>
      </trkpt>
      <trkpt lat="47.28172" lon="-2.35904">
        <ele>-14.39999961853</ele>
        <time>2021-05-02T10:20:36.000Z</time>
      </trkpt>
      <trkpt lat="47.28169" lon="-2.35902">
        <ele>-14.800000190735</ele>
        <time>2021-05-02T10:20:37.000Z</time>
      </trkpt>
      <trkpt lat="47.28162" lon="-2.35899">
        <ele>-14.800000190735</ele>
        <time>2021-05-02T10:20:39.000Z</time>
      </trkpt>
      <trkpt lat="47.28152" lon="-2.35893">
        <ele>-14.800000190735</ele>
        <time>2021-05-02T10:20:42.000Z</time>
      </trkpt>
      <trkpt lat="47.28151" lon="-2.35889">
        <ele>-14.800000190735</ele>
        <time>2021-05-02T10:20:43.000Z</time>
      </trkpt>
      <trkpt lat="47.28141" lon="-2.35872">
        <ele>-14.800000190735</ele>
        <time>2021-05-02T10:20:48.000Z</time>
      </trkpt>
      <trkpt lat="47.28133" lon="-2.35868">
        <ele>-14.800000190735</ele>
        <time>2021-05-02T10:20:53.000Z</time>
      </trkpt>
      <trkpt lat="47.28129" lon="-2.35859">
        <ele>-14.800000190735</ele>
        <time>2021-05-02T10:20:57.000Z</time>
      </trkpt>
      <trkpt lat="47.28126" lon="-2.35852">
        <ele>-14.800000190735</ele>
        <time>2021-05-02T10:20:59.000Z</time>
      </trkpt>
      <trkpt lat="47.28118" lon="-2.35842">
        <ele>-14.800000190735</ele>
        <time>2021-05-02T10:21:03.000Z</time>
      </trkpt>
      <trkpt lat="47.28103" lon="-2.35835">
        <ele>-14.800000190735</ele>
        <time>2021-05-02T10:21:07.000Z</time>
      </trkpt>
      <trkpt lat="47.28091" lon="-2.35815">
        <ele>-14.800000190735</ele>
        <time>2021-05-02T10:21:11.000Z</time>
      </trkpt>
      <trkpt lat="47.28085" lon="-2.35779">
        <ele>-14.39999961853</ele>
        <time>2021-05-02T10:21:15.000Z</time>
      </trkpt>
      <trkpt lat="47.28084" lon="-2.35772">
        <ele>-14</ele>
        <time>2021-05-02T10:21:16.000Z</time>
      </trkpt>
      <trkpt lat="47.28084" lon="-2.35766">
        <ele>-13.60000038147</ele>
        <time>2021-05-02T10:21:17.000Z</time>
      </trkpt>
      <trkpt lat="47.28084" lon="-2.3576">
        <ele>-13.199999809265</ele>
        <time>2021-05-02T10:21:18.000Z</time>
      </trkpt>
      <trkpt lat="47.28085" lon="-2.35753">
        <ele>-12.800000190735</ele>
        <time>2021-05-02T10:21:19.000Z</time>
      </trkpt>
      <trkpt lat="47.28087" lon="-2.35735">
        <ele>-12.800000190735</ele>
        <time>2021-05-02T10:21:22.000Z</time>
      </trkpt>
      <trkpt lat="47.28087" lon="-2.35726">
        <ele>-12.39999961853</ele>
        <time>2021-05-02T10:21:24.000Z</time>
      </trkpt>
      <trkpt lat="47.28088" lon="-2.35722">
        <ele>-12</ele>
        <time>2021-05-02T10:21:25.000Z</time>
      </trkpt>
      <trkpt lat="47.28088" lon="-2.35718">
        <ele>-11.39999961853</ele>
        <time>2021-05-02T10:21:26.000Z</time>
      </trkpt>
      <trkpt lat="47.28089" lon="-2.35715">
        <ele>-11</ele>
        <time>2021-05-02T10:21:27.000Z</time>
      </trkpt>
      <trkpt lat="47.2809" lon="-2.35712">
        <ele>-10.60000038147</ele>
        <time>2021-05-02T10:21:28.000Z</time>
      </trkpt>
      <trkpt lat="47.28089" lon="-2.35692">
        <ele>-10.60000038147</ele>
        <time>2021-05-02T10:21:32.000Z</time>
      </trkpt>
      <trkpt lat="47.28082" lon="-2.35659">
        <ele>-10.60000038147</ele>
        <time>2021-05-02T10:21:36.000Z</time>
      </trkpt>
      <trkpt lat="47.28077" lon="-2.35642">
        <ele>-11</ele>
        <time>2021-05-02T10:21:39.000Z</time>
      </trkpt>
      <trkpt lat="47.28076" lon="-2.35636">
        <ele>-11.39999961853</ele>
        <time>2021-05-02T10:21:40.000Z</time>
      </trkpt>
      <trkpt lat="47.28076" lon="-2.3563">
        <ele>-11.800000190735</ele>
        <time>2021-05-02T10:21:41.000Z</time>
      </trkpt>
      <trkpt lat="47.28076" lon="-2.35625">
        <ele>-12.39999961853</ele>
        <time>2021-05-02T10:21:42.000Z</time>
      </trkpt>
      <trkpt lat="47.28077" lon="-2.3562">
        <ele>-12.800000190735</ele>
        <time>2021-05-02T10:21:43.000Z</time>
      </trkpt>
      <trkpt lat="47.28078" lon="-2.35616">
        <ele>-13.39999961853</ele>
        <time>2021-05-02T10:21:44.000Z</time>
      </trkpt>
      <trkpt lat="47.2808" lon="-2.35615">
        <ele>-14</ele>
        <time>2021-05-02T10:21:45.000Z</time>
      </trkpt>
      <trkpt lat="47.28082" lon="-2.35616">
        <ele>-14.60000038147</ele>
        <time>2021-05-02T10:21:46.000Z</time>
      </trkpt>
      <trkpt lat="47.28083" lon="-2.35617">
        <ele>-15.199999809265</ele>
        <time>2021-05-02T10:21:47.000Z</time>
      </trkpt>
      <trkpt lat="47.28087" lon="-2.35622">
        <ele>-15.199999809265</ele>
        <time>2021-05-02T10:21:50.000Z</time>
      </trkpt>
      <trkpt lat="47.28087" lon="-2.35622">
        <ele>-15.199999809265</ele>
        <time>2021-05-02T10:21:52.000Z</time>
      </trkpt>
      <trkpt lat="47.28085" lon="-2.35614">
        <ele>-15.199999809265</ele>
        <time>2021-05-02T10:40:03.000Z</time>
      </trkpt>
      <trkpt lat="47.28079" lon="-2.35602">
        <ele>-15.199999809265</ele>
        <time>2021-05-02T10:40:08.000Z</time>
      </trkpt>
      <trkpt lat="47.28077" lon="-2.35599">
        <ele>-15.199999809265</ele>
        <time>2021-05-02T10:40:09.000Z</time>
      </trkpt>
      <trkpt lat="47.28069" lon="-2.35589">
        <ele>-15.199999809265</ele>
        <time>2021-05-02T10:40:12.000Z</time>
      </trkpt>
      <trkpt lat="47.28065" lon="-2.35588">
        <ele>-15.199999809265</ele>
        <time>2021-05-02T10:40:13.000Z</time>
      </trkpt>
      <trkpt lat="47.28042" lon="-2.35577">
        <ele>-15.199999809265</ele>
        <time>2021-05-02T10:40:17.000Z</time>
      </trkpt>
      <trkpt lat="47.28028" lon="-2.35567">
        <ele>-15.199999809265</ele>
        <time>2021-05-02T10:40:20.000Z</time>
      </trkpt>
      <trkpt lat="47.28023" lon="-2.35566">
        <ele>-15.199999809265</ele>
        <time>2021-05-02T10:40:21.000Z</time>
      </trkpt>
      <trkpt lat="47.28013" lon="-2.35563">
        <ele>-15.199999809265</ele>
        <time>2021-05-02T10:40:24.000Z</time>
      </trkpt>
      <trkpt lat="47.2801" lon="-2.35558">
        <ele>-15.199999809265</ele>
        <time>2021-05-02T10:40:25.000Z</time>
      </trkpt>
      <trkpt lat="47.28002" lon="-2.35534">
        <ele>-15.199999809265</ele>
        <time>2021-05-02T10:40:29.000Z</time>
      </trkpt>
      <trkpt lat="47.28001" lon="-2.35527">
        <ele>-15.60000038147</ele>
        <time>2021-05-02T10:40:30.000Z</time>
      </trkpt>
      <trkpt lat="47.27998" lon="-2.3552">
        <ele>-16</ele>
        <time>2021-05-02T10:40:31.000Z</time>
      </trkpt>
      <trkpt lat="47.27995" lon="-2.35513">
        <ele>-16.60000038147</ele>
        <time>2021-05-02T10:40:32.000Z</time>
      </trkpt>
      <trkpt lat="47.27991" lon="-2.35504">
        <ele>-17</ele>
        <time>2021-05-02T10:40:33.000Z</time>
      </trkpt>
      <trkpt lat="47.27987" lon="-2.35494">
        <ele>-17.39999961853</ele>
        <time>2021-05-02T10:40:34.000Z</time>
      </trkpt>
      <trkpt lat="47.27981" lon="-2.35485">
        <ele>-17.39999961853</ele>
        <time>2021-05-02T10:40:35.000Z</time>
      </trkpt>
      <trkpt lat="47.27969" lon="-2.35472">
        <ele>-17.39999961853</ele>
        <time>2021-05-02T10:40:37.000Z</time>
      </trkpt>
      <trkpt lat="47.27954" lon="-2.35464">
        <ele>-17.39999961853</ele>
        <time>2021-05-02T10:40:39.000Z</time>
      </trkpt>
      <trkpt lat="47.27947" lon="-2.35459">
        <ele>-17.39999961853</ele>
        <time>2021-05-02T10:40:40.000Z</time>
      </trkpt>
      <trkpt lat="47.27925" lon="-2.35435">
        <ele>-17.39999961853</ele>
        <time>2021-05-02T10:40:44.000Z</time>
      </trkpt>
      <trkpt lat="47.2792" lon="-2.35428">
        <ele>-17.39999961853</ele>
        <time>2021-05-02T10:40:45.000Z</time>
      </trkpt>
      <trkpt lat="47.27888" lon="-2.35384">
        <ele>-17.39999961853</ele>
        <time>2021-05-02T10:40:52.000Z</time>
      </trkpt>
      <trkpt lat="47.27869" lon="-2.35364">
        <ele>-17.39999961853</ele>
        <time>2021-05-02T10:40:56.000Z</time>
      </trkpt>
      <trkpt lat="47.27863" lon="-2.35361">
        <ele>-17.39999961853</ele>
        <time>2021-05-02T10:40:57.000Z</time>
      </trkpt>
      <trkpt lat="47.27842" lon="-2.35361">
        <ele>-17.39999961853</ele>
        <time>2021-05-02T10:41:00.000Z</time>
      </trkpt>
      <trkpt lat="47.27836" lon="-2.35361">
        <ele>-17.799999237061</ele>
        <time>2021-05-02T10:41:01.000Z</time>
      </trkpt>
      <trkpt lat="47.27829" lon="-2.35362">
        <ele>-18.39999961853</ele>
        <time>2021-05-02T10:41:02.000Z</time>
      </trkpt>
      <trkpt lat="47.27823" lon="-2.35362">
        <ele>-18.799999237061</ele>
        <time>2021-05-02T10:41:03.000Z</time>
      </trkpt>
      <trkpt lat="47.27817" lon="-2.35362">
        <ele>-19.200000762939</ele>
        <time>2021-05-02T10:41:04.000Z</time>
      </trkpt>
      <trkpt lat="47.27811" lon="-2.35361">
        <ele>-19.60000038147</ele>
        <time>2021-05-02T10:41:05.000Z</time>
      </trkpt>
      <trkpt lat="47.27801" lon="-2.35351">
        <ele>-19.60000038147</ele>
        <time>2021-05-02T10:41:07.000Z</time>
      </trkpt>
      <trkpt lat="47.27793" lon="-2.35333">
        <ele>-19.60000038147</ele>
        <time>2021-05-02T10:41:09.000Z</time>
      </trkpt>
      <trkpt lat="47.2779" lon="-2.35324">
        <ele>-19.60000038147</ele>
        <time>2021-05-02T10:41:10.000Z</time>
      </trkpt>
      <trkpt lat="47.27777" lon="-2.35268">
        <ele>-19.60000038147</ele>
        <time>2021-05-02T10:41:16.000Z</time>
      </trkpt>
      <trkpt lat="47.27768" lon="-2.35206">
        <ele>-19.60000038147</ele>
        <time>2021-05-02T10:41:23.000Z</time>
      </trkpt>
      <trkpt lat="47.27753" lon="-2.35198">
        <ele>-19.60000038147</ele>
        <time>2021-05-02T10:41:26.000Z</time>
      </trkpt>
      <trkpt lat="47.27733" lon="-2.35204">
        <ele>-19.60000038147</ele>
        <time>2021-05-02T10:41:29.000Z</time>
      </trkpt>
      <trkpt lat="47.27727" lon="-2.35205">
        <ele>-19.60000038147</ele>
        <time>2021-05-02T10:41:30.000Z</time>
      </trkpt>
      <trkpt lat="47.27692" lon="-2.35217">
        <ele>-19.60000038147</ele>
        <time>2021-05-02T10:41:36.000Z</time>
      </trkpt>
      <trkpt lat="47.27682" lon="-2.35221">
        <ele>-19.60000038147</ele>
        <time>2021-05-02T10:41:38.000Z</time>
      </trkpt>
      <trkpt lat="47.27673" lon="-2.35218">
        <ele>-19.60000038147</ele>
        <time>2021-05-02T10:41:40.000Z</time>
      </trkpt>
      <trkpt lat="47.2767" lon="-2.35203">
        <ele>-19.60000038147</ele>
        <time>2021-05-02T10:41:42.000Z</time>
      </trkpt>
      <trkpt lat="47.27667" lon="-2.3518">
        <ele>-19.200000762939</ele>
        <time>2021-05-02T10:41:45.000Z</time>
      </trkpt>
      <trkpt lat="47.27665" lon="-2.35174">
        <ele>-18.799999237061</ele>
        <time>2021-05-02T10:41:46.000Z</time>
      </trkpt>
      <trkpt lat="47.27662" lon="-2.35172">
        <ele>-18.39999961853</ele>
        <time>2021-05-02T10:41:47.000Z</time>
      </trkpt>
      <trkpt lat="47.27657" lon="-2.3517">
        <ele>-17.60000038147</ele>
        <time>2021-05-02T10:41:48.000Z</time>
      </trkpt>
      <trkpt lat="47.27646" lon="-2.3517">
        <ele>-17.60000038147</ele>
        <time>2021-05-02T10:41:50.000Z</time>
      </trkpt>
      <trkpt lat="47.27641" lon="-2.3517">
        <ele>-17.200000762939</ele>
        <time>2021-05-02T10:41:51.000Z</time>
      </trkpt>
      <trkpt lat="47.27636" lon="-2.3517">
        <ele>-16.60000038147</ele>
        <time>2021-05-02T10:41:52.000Z</time>
      </trkpt>
      <trkpt lat="47.27631" lon="-2.35171">
        <ele>-16.200000762939</ele>
        <time>2021-05-02T10:41:53.000Z</time>
      </trkpt>
      <trkpt lat="47.27626" lon="-2.35171">
        <ele>-15.800000190735</ele>
        <time>2021-05-02T10:41:54.000Z</time>
      </trkpt>
      <trkpt lat="47.27621" lon="-2.35172">
        <ele>-15.39999961853</ele>
        <time>2021-05-02T10:41:55.000Z</time>
      </trkpt>
      <trkpt lat="47.27612" lon="-2.35169">
        <ele>-15.39999961853</ele>
        <time>2021-05-02T10:41:57.000Z</time>
      </trkpt>
      <trkpt lat="47.27605" lon="-2.3515">
        <ele>-15.39999961853</ele>
        <time>2021-05-02T10:42:00.000Z</time>
      </trkpt>
      <trkpt lat="47.27602" lon="-2.35136">
        <ele>-15.39999961853</ele>
        <time>2021-05-02T10:42:02.000Z</time>
      </trkpt>
      <trkpt lat="47.27599" lon="-2.35131">
        <ele>-15.39999961853</ele>
        <time>2021-05-02T10:42:03.000Z</time>
      </trkpt>
      <trkpt lat="47.27595" lon="-2.35127">
        <ele>-15.39999961853</ele>
        <time>2021-05-02T10:42:04.000Z</time>
      </trkpt>
      <trkpt lat="47.27578" lon="-2.35125">
        <ele>-15.39999961853</ele>
        <time>2021-05-02T10:42:07.000Z</time>
      </trkpt>
      <trkpt lat="47.27568" lon="-2.35128">
        <ele>-15.39999961853</ele>
        <time>2021-05-02T10:42:09.000Z</time>
      </trkpt>
      <trkpt lat="47.27558" lon="-2.3513">
        <ele>-15</ele>
        <time>2021-05-02T10:42:11.000Z</time>
      </trkpt>
      <trkpt lat="47.27553" lon="-2.35132">
        <ele>-14.199999809265</ele>
        <time>2021-05-02T10:42:12.000Z</time>
      </trkpt>
      <trkpt lat="47.27547" lon="-2.35133">
        <ele>-13.800000190735</ele>
        <time>2021-05-02T10:42:13.000Z</time>
      </trkpt>
      <trkpt lat="47.27542" lon="-2.35134">
        <ele>-13.199999809265</ele>
        <time>2021-05-02T10:42:14.000Z</time>
      </trkpt>
      <trkpt lat="47.27532" lon="-2.35134">
        <ele>-13.199999809265</ele>
        <time>2021-05-02T10:42:16.000Z</time>
      </trkpt>
      <trkpt lat="47.27522" lon="-2.35132">
        <ele>-13.199999809265</ele>
        <time>2021-05-02T10:42:18.000Z</time>
      </trkpt>
      <trkpt lat="47.27508" lon="-2.35126">
        <ele>-13.199999809265</ele>
        <time>2021-05-02T10:42:21.000Z</time>
      </trkpt>
      <trkpt lat="47.27503" lon="-2.35122">
        <ele>-13.199999809265</ele>
        <time>2021-05-02T10:42:23.000Z</time>
      </trkpt>
      <trkpt lat="47.27498" lon="-2.35102">
        <ele>-13.199999809265</ele>
        <time>2021-05-02T10:42:27.000Z</time>
      </trkpt>
      <trkpt lat="47.275" lon="-2.35064">
        <ele>-13.199999809265</ele>
        <time>2021-05-02T10:42:32.000Z</time>
      </trkpt>
      <trkpt lat="47.275" lon="-2.3504">
        <ele>-13.199999809265</ele>
        <time>2021-05-02T10:42:35.000Z</time>
      </trkpt>
      <trkpt lat="47.27496" lon="-2.35022">
        <ele>-13.199999809265</ele>
        <time>2021-05-02T10:42:37.000Z</time>
      </trkpt>
      <trkpt lat="47.27478" lon="-2.34962">
        <ele>-13.199999809265</ele>
        <time>2021-05-02T10:42:44.000Z</time>
      </trkpt>
      <trkpt lat="47.27471" lon="-2.34935">
        <ele>-13.199999809265</ele>
        <time>2021-05-02T10:42:47.000Z</time>
      </trkpt>
      <trkpt lat="47.27466" lon="-2.34918">
        <ele>-13.199999809265</ele>
        <time>2021-05-02T10:42:49.000Z</time>
      </trkpt>
      <trkpt lat="47.27457" lon="-2.34884">
        <ele>-13.199999809265</ele>
        <time>2021-05-02T10:42:53.000Z</time>
      </trkpt>
      <trkpt lat="47.27457" lon="-2.34866">
        <ele>-13.199999809265</ele>
        <time>2021-05-02T10:42:55.000Z</time>
      </trkpt>
      <trkpt lat="47.27457" lon="-2.34826">
        <ele>-13.199999809265</ele>
        <time>2021-05-02T10:43:00.000Z</time>
      </trkpt>
      <trkpt lat="47.27455" lon="-2.34779">
        <ele>-13.199999809265</ele>
        <time>2021-05-02T10:43:06.000Z</time>
      </trkpt>
      <trkpt lat="47.27454" lon="-2.34729">
        <ele>-13.199999809265</ele>
        <time>2021-05-02T10:43:12.000Z</time>
      </trkpt>
      <trkpt lat="47.27455" lon="-2.34672">
        <ele>-13.199999809265</ele>
        <time>2021-05-02T10:43:19.000Z</time>
      </trkpt>
      <trkpt lat="47.27451" lon="-2.34618">
        <ele>-12.800000190735</ele>
        <time>2021-05-02T10:43:25.000Z</time>
      </trkpt>
      <trkpt lat="47.2745" lon="-2.3461">
        <ele>-12</ele>
        <time>2021-05-02T10:43:26.000Z</time>
      </trkpt>
      <trkpt lat="47.27449" lon="-2.34601">
        <ele>-11.60000038147</ele>
        <time>2021-05-02T10:43:27.000Z</time>
      </trkpt>
      <trkpt lat="47.27448" lon="-2.34593">
        <ele>-11.199999809265</ele>
        <time>2021-05-02T10:43:28.000Z</time>
      </trkpt>
      <trkpt lat="47.27443" lon="-2.34554">
        <ele>-11.199999809265</ele>
        <time>2021-05-02T10:43:33.000Z</time>
      </trkpt>
      <trkpt lat="47.27429" lon="-2.34498">
        <ele>-11.199999809265</ele>
        <time>2021-05-02T10:43:40.000Z</time>
      </trkpt>
      <trkpt lat="47.27423" lon="-2.34444">
        <ele>-11.199999809265</ele>
        <time>2021-05-02T10:43:46.000Z</time>
      </trkpt>
      <trkpt lat="47.27417" lon="-2.3438">
        <ele>-11.199999809265</ele>
        <time>2021-05-02T10:43:53.000Z</time>
      </trkpt>
      <trkpt lat="47.27414" lon="-2.34315">
        <ele>-11.199999809265</ele>
        <time>2021-05-02T10:44:00.000Z</time>
      </trkpt>
      <trkpt lat="47.27413" lon="-2.34269">
        <ele>-11.60000038147</ele>
        <time>2021-05-02T10:44:05.000Z</time>
      </trkpt>
      <trkpt lat="47.27413" lon="-2.3426">
        <ele>-12</ele>
        <time>2021-05-02T10:44:06.000Z</time>
      </trkpt>
      <trkpt lat="47.27413" lon="-2.34252">
        <ele>-12.39999961853</ele>
        <time>2021-05-02T10:44:07.000Z</time>
      </trkpt>
      <trkpt lat="47.27413" lon="-2.34247">
        <ele>-12.800000190735</ele>
        <time>2021-05-02T10:44:08.000Z</time>
      </trkpt>
      <trkpt lat="47.27412" lon="-2.34244">
        <ele>-13.199999809265</ele>
        <time>2021-05-02T10:44:09.000Z</time>
      </trkpt>
      <trkpt lat="47.2741" lon="-2.34242">
        <ele>-13.199999809265</ele>
        <time>2021-05-02T10:44:10.000Z</time>
      </trkpt>
      <trkpt lat="47.27409" lon="-2.34241">
        <ele>-13.199999809265</ele>
        <time>2021-05-02T10:44:11.000Z</time>
      </trkpt>
      <trkpt lat="47.27402" lon="-2.34233">
        <ele>-13.199999809265</ele>
        <time>2021-05-02T10:44:14.000Z</time>
      </trkpt>
      <trkpt lat="47.27398" lon="-2.34213">
        <ele>-13.199999809265</ele>
        <time>2021-05-02T10:44:17.000Z</time>
      </trkpt>
      <trkpt lat="47.27397" lon="-2.34206">
        <ele>-13.199999809265</ele>
        <time>2021-05-02T10:44:18.000Z</time>
      </trkpt>
      <trkpt lat="47.27385" lon="-2.34186">
        <ele>-13.199999809265</ele>
        <time>2021-05-02T10:44:21.000Z</time>
      </trkpt>
      <trkpt lat="47.27363" lon="-2.3417">
        <ele>-13.199999809265</ele>
        <time>2021-05-02T10:44:25.000Z</time>
      </trkpt>
      <trkpt lat="47.27327" lon="-2.34148">
        <ele>-13.199999809265</ele>
        <time>2021-05-02T10:44:31.000Z</time>
      </trkpt>
      <trkpt lat="47.27315" lon="-2.34141">
        <ele>-13.199999809265</ele>
        <time>2021-05-02T10:44:33.000Z</time>
      </trkpt>
      <trkpt lat="47.27288" lon="-2.3412">
        <ele>-13.199999809265</ele>
        <time>2021-05-02T10:44:38.000Z</time>
      </trkpt>
      <trkpt lat="47.27279" lon="-2.34109">
        <ele>-13.199999809265</ele>
        <time>2021-05-02T10:44:40.000Z</time>
      </trkpt>
      <trkpt lat="47.27273" lon="-2.34093">
        <ele>-13.199999809265</ele>
        <time>2021-05-02T10:44:42.000Z</time>
      </trkpt>
      <trkpt lat="47.27269" lon="-2.34075">
        <ele>-13.199999809265</ele>
        <time>2021-05-02T10:44:44.000Z</time>
      </trkpt>
      <trkpt lat="47.27263" lon="-2.34056">
        <ele>-13.199999809265</ele>
        <time>2021-05-02T10:44:46.000Z</time>
      </trkpt>
      <trkpt lat="47.27249" lon="-2.34044">
        <ele>-13.199999809265</ele>
        <time>2021-05-02T10:44:49.000Z</time>
      </trkpt>
      <trkpt lat="47.27229" lon="-2.34044">
        <ele>-13.199999809265</ele>
        <time>2021-05-02T10:44:52.000Z</time>
      </trkpt>
      <trkpt lat="47.27223" lon="-2.34045">
        <ele>-13.199999809265</ele>
        <time>2021-05-02T10:44:53.000Z</time>
      </trkpt>
      <trkpt lat="47.27211" lon="-2.34044">
        <ele>-13.199999809265</ele>
        <time>2021-05-02T10:44:55.000Z</time>
      </trkpt>
      <trkpt lat="47.27199" lon="-2.34035">
        <ele>-13.199999809265</ele>
        <time>2021-05-02T10:44:57.000Z</time>
      </trkpt>
      <trkpt lat="47.27165" lon="-2.34002">
        <ele>-13.199999809265</ele>
        <time>2021-05-02T10:45:03.000Z</time>
      </trkpt>
      <trkpt lat="47.27127" lon="-2.33965">
        <ele>-13.199999809265</ele>
        <time>2021-05-02T10:45:10.000Z</time>
      </trkpt>
      <trkpt lat="47.27094" lon="-2.33932">
        <ele>-13.199999809265</ele>
        <time>2021-05-02T10:45:16.000Z</time>
      </trkpt>
      <trkpt lat="47.27088" lon="-2.33927">
        <ele>-13.800000190735</ele>
        <time>2021-05-02T10:45:17.000Z</time>
      </trkpt>
      <trkpt lat="47.27082" lon="-2.33921">
        <ele>-14.199999809265</ele>
        <time>2021-05-02T10:45:18.000Z</time>
      </trkpt>
      <trkpt lat="47.27076" lon="-2.33913">
        <ele>-14.60000038147</ele>
        <time>2021-05-02T10:45:19.000Z</time>
      </trkpt>
      <trkpt lat="47.27069" lon="-2.33907">
        <ele>-15.199999809265</ele>
        <time>2021-05-02T10:45:20.000Z</time>
      </trkpt>
      <trkpt lat="47.27062" lon="-2.339">
        <ele>-15.60000038147</ele>
        <time>2021-05-02T10:45:21.000Z</time>
      </trkpt>
      <trkpt lat="47.27047" lon="-2.33886">
        <ele>-16.200000762939</ele>
        <time>2021-05-02T10:45:23.000Z</time>
      </trkpt>
      <trkpt lat="47.27039" lon="-2.33879">
        <ele>-16.60000038147</ele>
        <time>2021-05-02T10:45:24.000Z</time>
      </trkpt>
      <trkpt lat="47.27032" lon="-2.33872">
        <ele>-17.200000762939</ele>
        <time>2021-05-02T10:45:25.000Z</time>
      </trkpt>
      <trkpt lat="47.27025" lon="-2.33867">
        <ele>-17.60000038147</ele>
        <time>2021-05-02T10:45:26.000Z</time>
      </trkpt>
      <trkpt lat="47.27017" lon="-2.33861">
        <ele>-18.200000762939</ele>
        <time>2021-05-02T10:45:27.000Z</time>
      </trkpt>
      <trkpt lat="47.26983" lon="-2.33839">
        <ele>-18.60000038147</ele>
        <time>2021-05-02T10:45:31.000Z</time>
      </trkpt>
      <trkpt lat="47.26974" lon="-2.33835">
        <ele>-19</ele>
        <time>2021-05-02T10:45:32.000Z</time>
      </trkpt>
      <trkpt lat="47.26966" lon="-2.33831">
        <ele>-19.799999237061</ele>
        <time>2021-05-02T10:45:33.000Z</time>
      </trkpt>
      <trkpt lat="47.26957" lon="-2.33827">
        <ele>-20.60000038147</ele>
        <time>2021-05-02T10:45:34.000Z</time>
      </trkpt>
      <trkpt lat="47.26949" lon="-2.33823">
        <ele>-21.60000038147</ele>
        <time>2021-05-02T10:45:35.000Z</time>
      </trkpt>
      <trkpt lat="47.26941" lon="-2.33818">
        <ele>-22.39999961853</ele>
        <time>2021-05-02T10:45:36.000Z</time>
      </trkpt>
      <trkpt lat="47.26934" lon="-2.33812">
        <ele>-23.39999961853</ele>
        <time>2021-05-02T10:45:37.000Z</time>
      </trkpt>
      <trkpt lat="47.26928" lon="-2.33806">
        <ele>-24.200000762939</ele>
        <time>2021-05-02T10:45:38.000Z</time>
      </trkpt>
      <trkpt lat="47.26923" lon="-2.33799">
        <ele>-25</ele>
        <time>2021-05-02T10:45:39.000Z</time>
      </trkpt>
      <trkpt lat="47.26919" lon="-2.33789">
        <ele>-25.60000038147</ele>
        <time>2021-05-02T10:45:40.000Z</time>
      </trkpt>
      <trkpt lat="47.26918" lon="-2.33778">
        <ele>-26.200000762939</ele>
        <time>2021-05-02T10:45:41.000Z</time>
      </trkpt>
      <trkpt lat="47.26918" lon="-2.33768">
        <ele>-26.799999237061</ele>
        <time>2021-05-02T10:45:42.000Z</time>
      </trkpt>
      <trkpt lat="47.26918" lon="-2.33759">
        <ele>-27.39999961853</ele>
        <time>2021-05-02T10:45:43.000Z</time>
      </trkpt>
      <trkpt lat="47.2692" lon="-2.33749">
        <ele>-27.39999961853</ele>
        <time>2021-05-02T10:45:44.000Z</time>
      </trkpt>
      <trkpt lat="47.26929" lon="-2.3371">
        <ele>-27.39999961853</ele>
        <time>2021-05-02T10:45:48.000Z</time>
      </trkpt>
      <trkpt lat="47.26925" lon="-2.33669">
        <ele>-27.39999961853</ele>
        <time>2021-05-02T10:45:52.000Z</time>
      </trkpt>
      <trkpt lat="47.26922" lon="-2.33648">
        <ele>-27.39999961853</ele>
        <time>2021-05-02T10:45:54.000Z</time>
      </trkpt>
      <trkpt lat="47.26909" lon="-2.3359">
        <ele>-27.39999961853</ele>
        <time>2021-05-02T10:46:01.000Z</time>
      </trkpt>
      <trkpt lat="47.2689" lon="-2.33545">
        <ele>-27.39999961853</ele>
        <time>2021-05-02T10:46:06.000Z</time>
      </trkpt>
      <trkpt lat="47.26884" lon="-2.33538">
        <ele>-27.39999961853</ele>
        <time>2021-05-02T10:46:07.000Z</time>
      </trkpt>
      <trkpt lat="47.26877" lon="-2.33534">
        <ele>-27.799999237061</ele>
        <time>2021-05-02T10:46:08.000Z</time>
      </trkpt>
      <trkpt lat="47.26869" lon="-2.33532">
        <ele>-28.39999961853</ele>
        <time>2021-05-02T10:46:09.000Z</time>
      </trkpt>
      <trkpt lat="47.2686" lon="-2.33531">
        <ele>-28.799999237061</ele>
        <time>2021-05-02T10:46:10.000Z</time>
      </trkpt>
      <trkpt lat="47.26852" lon="-2.33532">
        <ele>-29.200000762939</ele>
        <time>2021-05-02T10:46:11.000Z</time>
      </trkpt>
      <trkpt lat="47.26844" lon="-2.33535">
        <ele>-29.60000038147</ele>
        <time>2021-05-02T10:46:12.000Z</time>
      </trkpt>
      <trkpt lat="47.26837" lon="-2.33539">
        <ele>-29.60000038147</ele>
        <time>2021-05-02T10:46:13.000Z</time>
      </trkpt>
      <trkpt lat="47.26822" lon="-2.33546">
        <ele>-29.60000038147</ele>
        <time>2021-05-02T10:46:15.000Z</time>
      </trkpt>
      <trkpt lat="47.26795" lon="-2.33557">
        <ele>-30.39999961853</ele>
        <time>2021-05-02T10:46:19.000Z</time>
      </trkpt>
      <trkpt lat="47.2679" lon="-2.3356">
        <ele>-30.799999237061</ele>
        <time>2021-05-02T10:46:20.000Z</time>
      </trkpt>
      <trkpt lat="47.26786" lon="-2.33562">
        <ele>-31.200000762939</ele>
        <time>2021-05-02T10:46:21.000Z</time>
      </trkpt>
      <trkpt lat="47.26783" lon="-2.33563">
        <ele>-31.60000038147</ele>
        <time>2021-05-02T10:46:22.000Z</time>
      </trkpt>
      <trkpt lat="47.26774" lon="-2.33565">
        <ele>-32</ele>
        <time>2021-05-02T10:46:26.000Z</time>
      </trkpt>
      <trkpt lat="47.26774" lon="-2.3356">
        <ele>-32.400001525879</ele>
        <time>2021-05-02T10:46:27.000Z</time>
      </trkpt>
      <trkpt lat="47.26773" lon="-2.33554">
        <ele>-32.799999237061</ele>
        <time>2021-05-02T10:46:28.000Z</time>
      </trkpt>
      <trkpt lat="47.26772" lon="-2.33547">
        <ele>-33.200000762939</ele>
        <time>2021-05-02T10:46:29.000Z</time>
      </trkpt>
      <trkpt lat="47.26771" lon="-2.3354">
        <ele>-33.599998474121</ele>
        <time>2021-05-02T10:46:30.000Z</time>
      </trkpt>
      <trkpt lat="47.26771" lon="-2.33532">
        <ele>-33.599998474121</ele>
        <time>2021-05-02T10:46:31.000Z</time>
      </trkpt>
      <trkpt lat="47.26763" lon="-2.33477">
        <ele>-33.599998474121</ele>
        <time>2021-05-02T10:46:37.000Z</time>
      </trkpt>
      <trkpt lat="47.26752" lon="-2.33409">
        <ele>-33.599998474121</ele>
        <time>2021-05-02T10:46:44.000Z</time>
      </trkpt>
      <trkpt lat="47.26744" lon="-2.33341">
        <ele>-33.599998474121</ele>
        <time>2021-05-02T10:46:51.000Z</time>
      </trkpt>
      <trkpt lat="47.26739" lon="-2.33329">
        <ele>-33.599998474121</ele>
        <time>2021-05-02T10:46:54.000Z</time>
      </trkpt>
      <trkpt lat="47.26724" lon="-2.33321">
        <ele>-33.599998474121</ele>
        <time>2021-05-02T10:46:58.000Z</time>
      </trkpt>
      <trkpt lat="47.26719" lon="-2.33317">
        <ele>-33.599998474121</ele>
        <time>2021-05-02T10:46:59.000Z</time>
      </trkpt>
      <trkpt lat="47.26709" lon="-2.33294">
        <ele>-33.599998474121</ele>
        <time>2021-05-02T10:47:02.000Z</time>
      </trkpt>
      <trkpt lat="47.26705" lon="-2.33268">
        <ele>-33.599998474121</ele>
        <time>2021-05-02T10:47:05.000Z</time>
      </trkpt>
      <trkpt lat="47.26704" lon="-2.3326">
        <ele>-33.599998474121</ele>
        <time>2021-05-02T10:47:06.000Z</time>
      </trkpt>
      <trkpt lat="47.267" lon="-2.33235">
        <ele>-33.599998474121</ele>
        <time>2021-05-02T10:47:09.000Z</time>
      </trkpt>
      <trkpt lat="47.26699" lon="-2.33228">
        <ele>-33.599998474121</ele>
        <time>2021-05-02T10:47:10.000Z</time>
      </trkpt>
      <trkpt lat="47.26694" lon="-2.33199">
        <ele>-33.599998474121</ele>
        <time>2021-05-02T10:47:15.000Z</time>
      </trkpt>
      <trkpt lat="47.26691" lon="-2.33187">
        <ele>-33.599998474121</ele>
        <time>2021-05-02T10:47:17.000Z</time>
      </trkpt>
      <trkpt lat="47.26689" lon="-2.33174">
        <ele>-33.599998474121</ele>
        <time>2021-05-02T10:47:19.000Z</time>
      </trkpt>
      <trkpt lat="47.26679" lon="-2.33163">
        <ele>-33.599998474121</ele>
        <time>2021-05-02T10:47:22.000Z</time>
      </trkpt>
      <trkpt lat="47.26675" lon="-2.3316">
        <ele>-33.599998474121</ele>
        <time>2021-05-02T10:47:23.000Z</time>
      </trkpt>
      <trkpt lat="47.26667" lon="-2.33165">
        <ele>-33.599998474121</ele>
        <time>2021-05-02T10:47:26.000Z</time>
      </trkpt>
      <trkpt lat="47.26653" lon="-2.33184">
        <ele>-33.599998474121</ele>
        <time>2021-05-02T10:47:30.000Z</time>
      </trkpt>
      <trkpt lat="47.26643" lon="-2.33193">
        <ele>-33.599998474121</ele>
        <time>2021-05-02T10:47:32.000Z</time>
      </trkpt>
      <trkpt lat="47.26629" lon="-2.33209">
        <ele>-33.599998474121</ele>
        <time>2021-05-02T10:47:35.000Z</time>
      </trkpt>
      <trkpt lat="47.26597" lon="-2.33241">
        <ele>-33.599998474121</ele>
        <time>2021-05-02T10:47:41.000Z</time>
      </trkpt>
      <trkpt lat="47.26569" lon="-2.33269">
        <ele>-33.599998474121</ele>
        <time>2021-05-02T10:47:47.000Z</time>
      </trkpt>
      <trkpt lat="47.26551" lon="-2.3329">
        <ele>-33.599998474121</ele>
        <time>2021-05-02T10:47:52.000Z</time>
      </trkpt>
      <trkpt lat="47.26541" lon="-2.33298">
        <ele>-33.599998474121</ele>
        <time>2021-05-02T10:47:55.000Z</time>
      </trkpt>
      <trkpt lat="47.26539" lon="-2.33298">
        <ele>-33.599998474121</ele>
        <time>2021-05-02T10:47:56.000Z</time>
      </trkpt>
      <trkpt lat="47.26531" lon="-2.33283">
        <ele>-33.599998474121</ele>
        <time>2021-05-02T10:47:59.000Z</time>
      </trkpt>
      <trkpt lat="47.26516" lon="-2.33284">
        <ele>-33.599998474121</ele>
        <time>2021-05-02T10:48:02.000Z</time>
      </trkpt>
      <trkpt lat="47.26511" lon="-2.33285">
        <ele>-33.599998474121</ele>
        <time>2021-05-02T10:48:03.000Z</time>
      </trkpt>
      <trkpt lat="47.26504" lon="-2.33279">
        <ele>-33.599998474121</ele>
        <time>2021-05-02T10:48:05.000Z</time>
      </trkpt>
      <trkpt lat="47.26499" lon="-2.33279">
        <ele>-33.599998474121</ele>
        <time>2021-05-02T10:48:06.000Z</time>
      </trkpt>
      <trkpt lat="47.26483" lon="-2.33279">
        <ele>-33.599998474121</ele>
        <time>2021-05-02T10:48:09.000Z</time>
      </trkpt>
      <trkpt lat="47.26477" lon="-2.33278">
        <ele>-33.599998474121</ele>
        <time>2021-05-02T10:48:10.000Z</time>
      </trkpt>
      <trkpt lat="47.26438" lon="-2.3327">
        <ele>-33.599998474121</ele>
        <time>2021-05-02T10:48:16.000Z</time>
      </trkpt>
      <trkpt lat="47.26388" lon="-2.3326">
        <ele>-33.599998474121</ele>
        <time>2021-05-02T10:48:24.000Z</time>
      </trkpt>
      <trkpt lat="47.26378" lon="-2.33236">
        <ele>-33.599998474121</ele>
        <time>2021-05-02T10:48:27.000Z</time>
      </trkpt>
      <trkpt lat="47.26376" lon="-2.33206">
        <ele>-33.599998474121</ele>
        <time>2021-05-02T10:48:30.000Z</time>
      </trkpt>
      <trkpt lat="47.26374" lon="-2.33136">
        <ele>-33.599998474121</ele>
        <time>2021-05-02T10:48:37.000Z</time>
      </trkpt>
      <trkpt lat="47.2637" lon="-2.33062">
        <ele>-33.599998474121</ele>
        <time>2021-05-02T10:48:45.000Z</time>
      </trkpt>
      <trkpt lat="47.26367" lon="-2.32995">
        <ele>-33.599998474121</ele>
        <time>2021-05-02T10:48:52.000Z</time>
      </trkpt>
      <trkpt lat="47.26366" lon="-2.32986">
        <ele>-33.599998474121</ele>
        <time>2021-05-02T10:48:53.000Z</time>
      </trkpt>
      <trkpt lat="47.26352" lon="-2.32968">
        <ele>-33.599998474121</ele>
        <time>2021-05-02T10:48:56.000Z</time>
      </trkpt>
      <trkpt lat="47.26341" lon="-2.32944">
        <ele>-33.599998474121</ele>
        <time>2021-05-02T10:48:59.000Z</time>
      </trkpt>
      <trkpt lat="47.26335" lon="-2.32926">
        <ele>-33.599998474121</ele>
        <time>2021-05-02T10:49:01.000Z</time>
      </trkpt>
      <trkpt lat="47.26325" lon="-2.32893">
        <ele>-33.599998474121</ele>
        <time>2021-05-02T10:49:05.000Z</time>
      </trkpt>
      <trkpt lat="47.26314" lon="-2.32864">
        <ele>-33.599998474121</ele>
        <time>2021-05-02T10:49:09.000Z</time>
      </trkpt>
      <trkpt lat="47.26304" lon="-2.32857">
        <ele>-33.599998474121</ele>
        <time>2021-05-02T10:49:11.000Z</time>
      </trkpt>
      <trkpt lat="47.26287" lon="-2.32846">
        <ele>-33.599998474121</ele>
        <time>2021-05-02T10:49:14.000Z</time>
      </trkpt>
      <trkpt lat="47.26283" lon="-2.3283">
        <ele>-33.599998474121</ele>
        <time>2021-05-02T10:49:16.000Z</time>
      </trkpt>
      <trkpt lat="47.26283" lon="-2.32821">
        <ele>-33.599998474121</ele>
        <time>2021-05-02T10:49:17.000Z</time>
      </trkpt>
      <trkpt lat="47.26279" lon="-2.32803">
        <ele>-33.599998474121</ele>
        <time>2021-05-02T10:49:19.000Z</time>
      </trkpt>
      <trkpt lat="47.2627" lon="-2.32778">
        <ele>-33.599998474121</ele>
        <time>2021-05-02T10:49:22.000Z</time>
      </trkpt>
      <trkpt lat="47.26266" lon="-2.3277">
        <ele>-33.599998474121</ele>
        <time>2021-05-02T10:49:23.000Z</time>
      </trkpt>
      <trkpt lat="47.26245" lon="-2.32737">
        <ele>-33.599998474121</ele>
        <time>2021-05-02T10:49:28.000Z</time>
      </trkpt>
      <trkpt lat="47.26236" lon="-2.32724">
        <ele>-33.599998474121</ele>
        <time>2021-05-02T10:49:30.000Z</time>
      </trkpt>
      <trkpt lat="47.26214" lon="-2.32695">
        <ele>-33.599998474121</ele>
        <time>2021-05-02T10:49:35.000Z</time>
      </trkpt>
      <trkpt lat="47.26209" lon="-2.3269">
        <ele>-33.200000762939</ele>
        <time>2021-05-02T10:49:36.000Z</time>
      </trkpt>
      <trkpt lat="47.26204" lon="-2.32683">
        <ele>-32.200000762939</ele>
        <time>2021-05-02T10:49:37.000Z</time>
      </trkpt>
      <trkpt lat="47.26199" lon="-2.32678">
        <ele>-31.799999237061</ele>
        <time>2021-05-02T10:49:38.000Z</time>
      </trkpt>
      <trkpt lat="47.26194" lon="-2.32672">
        <ele>-31.39999961853</ele>
        <time>2021-05-02T10:49:39.000Z</time>
      </trkpt>
      <trkpt lat="47.26184" lon="-2.32662">
        <ele>-31.39999961853</ele>
        <time>2021-05-02T10:49:41.000Z</time>
      </trkpt>
      <trkpt lat="47.26179" lon="-2.32658">
        <ele>-31.39999961853</ele>
        <time>2021-05-02T10:49:42.000Z</time>
      </trkpt>
      <trkpt lat="47.26168" lon="-2.3265">
        <ele>-31.39999961853</ele>
        <time>2021-05-02T10:49:44.000Z</time>
      </trkpt>
      <trkpt lat="47.26151" lon="-2.32642">
        <ele>-31.39999961853</ele>
        <time>2021-05-02T10:49:47.000Z</time>
      </trkpt>
      <trkpt lat="47.26139" lon="-2.32638">
        <ele>-31.39999961853</ele>
        <time>2021-05-02T10:49:49.000Z</time>
      </trkpt>
      <trkpt lat="47.26121" lon="-2.32635">
        <ele>-31.39999961853</ele>
        <time>2021-05-02T10:49:52.000Z</time>
      </trkpt>
      <trkpt lat="47.26109" lon="-2.32635">
        <ele>-31.39999961853</ele>
        <time>2021-05-02T10:49:54.000Z</time>
      </trkpt>
      <trkpt lat="47.26061" lon="-2.32642">
        <ele>-31.39999961853</ele>
        <time>2021-05-02T10:50:02.000Z</time>
      </trkpt>
      <trkpt lat="47.26021" lon="-2.32651">
        <ele>-31.39999961853</ele>
        <time>2021-05-02T10:50:09.000Z</time>
      </trkpt>
      <trkpt lat="47.26015" lon="-2.32652">
        <ele>-31.39999961853</ele>
        <time>2021-05-02T10:50:10.000Z</time>
      </trkpt>
      <trkpt lat="47.25971" lon="-2.32659">
        <ele>-31.39999961853</ele>
        <time>2021-05-02T10:50:18.000Z</time>
      </trkpt>
      <trkpt lat="47.25962" lon="-2.32662">
        <ele>-31.39999961853</ele>
        <time>2021-05-02T10:50:20.000Z</time>
      </trkpt>
      <trkpt lat="47.25949" lon="-2.32664">
        <ele>-31.39999961853</ele>
        <time>2021-05-02T10:50:23.000Z</time>
      </trkpt>
      <trkpt lat="47.25937" lon="-2.32653">
        <ele>-31.39999961853</ele>
        <time>2021-05-02T10:50:26.000Z</time>
      </trkpt>
      <trkpt lat="47.25933" lon="-2.32647">
        <ele>-31.39999961853</ele>
        <time>2021-05-02T10:50:27.000Z</time>
      </trkpt>
      <trkpt lat="47.2591" lon="-2.32613">
        <ele>-31.39999961853</ele>
        <time>2021-05-02T10:50:32.000Z</time>
      </trkpt>
      <trkpt lat="47.25883" lon="-2.32583">
        <ele>-31.39999961853</ele>
        <time>2021-05-02T10:50:37.000Z</time>
      </trkpt>
      <trkpt lat="47.25878" lon="-2.32578">
        <ele>-31.39999961853</ele>
        <time>2021-05-02T10:50:38.000Z</time>
      </trkpt>
      <trkpt lat="47.25852" lon="-2.32542">
        <ele>-31.39999961853</ele>
        <time>2021-05-02T10:50:44.000Z</time>
      </trkpt>
      <trkpt lat="47.25819" lon="-2.32494">
        <ele>-31.39999961853</ele>
        <time>2021-05-02T10:50:52.000Z</time>
      </trkpt>
      <trkpt lat="47.25816" lon="-2.32489">
        <ele>-31.39999961853</ele>
        <time>2021-05-02T10:50:53.000Z</time>
      </trkpt>
      <trkpt lat="47.25816" lon="-2.32479">
        <ele>-31.39999961853</ele>
        <time>2021-05-02T10:50:55.000Z</time>
      </trkpt>
      <trkpt lat="47.25822" lon="-2.32477">
        <ele>-31.799999237061</ele>
        <time>2021-05-02T10:50:57.000Z</time>
      </trkpt>
      <trkpt lat="47.25826" lon="-2.32477">
        <ele>-32.200000762939</ele>
        <time>2021-05-02T10:50:58.000Z</time>
      </trkpt>
      <trkpt lat="47.2583" lon="-2.32478">
        <ele>-32.599998474121</ele>
        <time>2021-05-02T10:50:59.000Z</time>
      </trkpt>
      <trkpt lat="47.25835" lon="-2.32479">
        <ele>-33</ele>
        <time>2021-05-02T10:51:00.000Z</time>
      </trkpt>
      <trkpt lat="47.25841" lon="-2.32479">
        <ele>-33.400001525879</ele>
        <time>2021-05-02T10:51:01.000Z</time>
      </trkpt>
      <trkpt lat="47.25852" lon="-2.32481">
        <ele>-33.400001525879</ele>
        <time>2021-05-02T10:51:03.000Z</time>
      </trkpt>
      <trkpt lat="47.2587" lon="-2.32484">
        <ele>-33.400001525879</ele>
        <time>2021-05-02T10:51:06.000Z</time>
      </trkpt>
      <trkpt lat="47.2588" lon="-2.32481">
        <ele>-33.400001525879</ele>
        <time>2021-05-02T10:51:08.000Z</time>
      </trkpt>
      <trkpt lat="47.25886" lon="-2.3247">
        <ele>-33.400001525879</ele>
        <time>2021-05-02T10:51:11.000Z</time>
      </trkpt>
      <trkpt lat="47.25888" lon="-2.32465">
        <ele>-33.400001525879</ele>
        <time>2021-05-02T10:51:12.000Z</time>
      </trkpt>
      <trkpt lat="47.259" lon="-2.32451">
        <ele>-33.400001525879</ele>
        <time>2021-05-02T10:51:15.000Z</time>
      </trkpt>
      <trkpt lat="47.25938" lon="-2.32404">
        <ele>-33.400001525879</ele>
        <time>2021-05-02T10:51:23.000Z</time>
      </trkpt>
      <trkpt lat="47.25975" lon="-2.32357">
        <ele>-33.400001525879</ele>
        <time>2021-05-02T10:51:31.000Z</time>
      </trkpt>
      <trkpt lat="47.26007" lon="-2.32316">
        <ele>-33.400001525879</ele>
        <time>2021-05-02T10:51:38.000Z</time>
      </trkpt>
      <trkpt lat="47.2602" lon="-2.32299">
        <ele>-33.400001525879</ele>
        <time>2021-05-02T10:51:41.000Z</time>
      </trkpt>
      <trkpt lat="47.2604" lon="-2.32278">
        <ele>-33.400001525879</ele>
        <time>2021-05-02T10:51:45.000Z</time>
      </trkpt>
      <trkpt lat="47.26064" lon="-2.32252">
        <ele>-33.400001525879</ele>
        <time>2021-05-02T10:51:50.000Z</time>
      </trkpt>
      <trkpt lat="47.26072" lon="-2.32242">
        <ele>-33.400001525879</ele>
        <time>2021-05-02T10:51:52.000Z</time>
      </trkpt>
      <trkpt lat="47.26095" lon="-2.32206">
        <ele>-33.400001525879</ele>
        <time>2021-05-02T10:51:58.000Z</time>
      </trkpt>
      <trkpt lat="47.26099" lon="-2.32199">
        <ele>-33.400001525879</ele>
        <time>2021-05-02T10:51:59.000Z</time>
      </trkpt>
      <trkpt lat="47.26122" lon="-2.32139">
        <ele>-33.400001525879</ele>
        <time>2021-05-02T10:52:07.000Z</time>
      </trkpt>
      <trkpt lat="47.26127" lon="-2.32124">
        <ele>-33.400001525879</ele>
        <time>2021-05-02T10:52:09.000Z</time>
      </trkpt>
      <trkpt lat="47.26136" lon="-2.32092">
        <ele>-33.400001525879</ele>
        <time>2021-05-02T10:52:13.000Z</time>
      </trkpt>
      <trkpt lat="47.26154" lon="-2.32033">
        <ele>-33.400001525879</ele>
        <time>2021-05-02T10:52:21.000Z</time>
      </trkpt>
      <trkpt lat="47.26157" lon="-2.32027">
        <ele>-33.400001525879</ele>
        <time>2021-05-02T10:52:22.000Z</time>
      </trkpt>
      <trkpt lat="47.26165" lon="-2.3202">
        <ele>-33.400001525879</ele>
        <time>2021-05-02T10:52:24.000Z</time>
      </trkpt>
      <trkpt lat="47.26183" lon="-2.32022">
        <ele>-33.400001525879</ele>
        <time>2021-05-02T10:52:28.000Z</time>
      </trkpt>
      <trkpt lat="47.26193" lon="-2.32024">
        <ele>-33.400001525879</ele>
        <time>2021-05-02T10:52:33.000Z</time>
      </trkpt>
      <trkpt lat="47.26194" lon="-2.3201">
        <ele>-33.400001525879</ele>
        <time>2021-05-02T10:52:37.000Z</time>
      </trkpt>
      <trkpt lat="47.262" lon="-2.32">
        <ele>-33.400001525879</ele>
        <time>2021-05-02T10:52:41.000Z</time>
      </trkpt>
      <trkpt lat="47.26202" lon="-2.31997">
        <ele>-33.400001525879</ele>
        <time>2021-05-02T10:52:42.000Z</time>
      </trkpt>
      <trkpt lat="47.26213" lon="-2.31983">
        <ele>-33.400001525879</ele>
        <time>2021-05-02T10:52:46.000Z</time>
      </trkpt>
      <trkpt lat="47.26216" lon="-2.31982">
        <ele>-33.400001525879</ele>
        <time>2021-05-02T10:52:47.000Z</time>
      </trkpt>
      <trkpt lat="47.26228" lon="-2.3197">
        <ele>-33.400001525879</ele>
        <time>2021-05-02T10:52:51.000Z</time>
      </trkpt>
      <trkpt lat="47.2623" lon="-2.31965">
        <ele>-33.400001525879</ele>
        <time>2021-05-02T10:52:52.000Z</time>
      </trkpt>
      <trkpt lat="47.26243" lon="-2.31942">
        <ele>-33.400001525879</ele>
        <time>2021-05-02T10:52:57.000Z</time>
      </trkpt>
      <trkpt lat="47.26257" lon="-2.3192">
        <ele>-33.400001525879</ele>
        <time>2021-05-02T10:53:02.000Z</time>
      </trkpt>
      <trkpt lat="47.26272" lon="-2.31905">
        <ele>-33.400001525879</ele>
        <time>2021-05-02T10:53:06.000Z</time>
      </trkpt>
      <trkpt lat="47.26275" lon="-2.31899">
        <ele>-33.400001525879</ele>
        <time>2021-05-02T10:53:07.000Z</time>
      </trkpt>
      <trkpt lat="47.2628" lon="-2.31887">
        <ele>-33.400001525879</ele>
        <time>2021-05-02T10:53:09.000Z</time>
      </trkpt>
      <trkpt lat="47.26287" lon="-2.31851">
        <ele>-33.400001525879</ele>
        <time>2021-05-02T10:53:14.000Z</time>
      </trkpt>
      <trkpt lat="47.2629" lon="-2.31839">
        <ele>-33.400001525879</ele>
        <time>2021-05-02T10:53:16.000Z</time>
      </trkpt>
      <trkpt lat="47.26292" lon="-2.31826">
        <ele>-33.400001525879</ele>
        <time>2021-05-02T10:53:18.000Z</time>
      </trkpt>
      <trkpt lat="47.26295" lon="-2.31807">
        <ele>-33.400001525879</ele>
        <time>2021-05-02T10:53:21.000Z</time>
      </trkpt>
      <trkpt lat="47.26302" lon="-2.31752">
        <ele>-33.400001525879</ele>
        <time>2021-05-02T10:53:28.000Z</time>
      </trkpt>
      <trkpt lat="47.26301" lon="-2.3173">
        <ele>-33.400001525879</ele>
        <time>2021-05-02T10:53:31.000Z</time>
      </trkpt>
      <trkpt lat="47.26303" lon="-2.31716">
        <ele>-33.400001525879</ele>
        <time>2021-05-02T10:53:33.000Z</time>
      </trkpt>
      <trkpt lat="47.26313" lon="-2.31705">
        <ele>-33.400001525879</ele>
        <time>2021-05-02T10:53:36.000Z</time>
      </trkpt>
      <trkpt lat="47.26317" lon="-2.31703">
        <ele>-33.400001525879</ele>
        <time>2021-05-02T10:53:37.000Z</time>
      </trkpt>
      <trkpt lat="47.2633" lon="-2.31691">
        <ele>-33.400001525879</ele>
        <time>2021-05-02T10:53:41.000Z</time>
      </trkpt>
      <trkpt lat="47.26336" lon="-2.31686">
        <ele>-33</ele>
        <time>2021-05-02T10:53:43.000Z</time>
      </trkpt>
      <trkpt lat="47.2634" lon="-2.31684">
        <ele>-32.400001525879</ele>
        <time>2021-05-02T10:53:44.000Z</time>
      </trkpt>
      <trkpt lat="47.26343" lon="-2.31683">
        <ele>-31.60000038147</ele>
        <time>2021-05-02T10:53:45.000Z</time>
      </trkpt>
      <trkpt lat="47.26347" lon="-2.31681">
        <ele>-31</ele>
        <time>2021-05-02T10:53:46.000Z</time>
      </trkpt>
      <trkpt lat="47.26366" lon="-2.31673">
        <ele>-31</ele>
        <time>2021-05-02T10:53:51.000Z</time>
      </trkpt>
      <trkpt lat="47.26384" lon="-2.31665">
        <ele>-30.60000038147</ele>
        <time>2021-05-02T10:53:56.000Z</time>
      </trkpt>
      <trkpt lat="47.26386" lon="-2.31663">
        <ele>-30.200000762939</ele>
        <time>2021-05-02T10:53:57.000Z</time>
      </trkpt>
      <trkpt lat="47.26389" lon="-2.31661">
        <ele>-29.799999237061</ele>
        <time>2021-05-02T10:53:58.000Z</time>
      </trkpt>
      <trkpt lat="47.26392" lon="-2.31659">
        <ele>-29.39999961853</ele>
        <time>2021-05-02T10:53:59.000Z</time>
      </trkpt>
      <trkpt lat="47.26395" lon="-2.31658">
        <ele>-29</ele>
        <time>2021-05-02T10:54:00.000Z</time>
      </trkpt>
      <trkpt lat="47.26403" lon="-2.31654">
        <ele>-29</ele>
        <time>2021-05-02T10:54:03.000Z</time>
      </trkpt>
      <trkpt lat="47.26408" lon="-2.31647">
        <ele>-29</ele>
        <time>2021-05-02T10:54:05.000Z</time>
      </trkpt>
      <trkpt lat="47.26409" lon="-2.31642">
        <ele>-29</ele>
        <time>2021-05-02T10:54:06.000Z</time>
      </trkpt>
      <trkpt lat="47.26409" lon="-2.31627">
        <ele>-29</ele>
        <time>2021-05-02T10:54:09.000Z</time>
      </trkpt>
      <trkpt lat="47.26409" lon="-2.31611">
        <ele>-29</ele>
        <time>2021-05-02T10:54:12.000Z</time>
      </trkpt>
      <trkpt lat="47.26409" lon="-2.31581">
        <ele>-29</ele>
        <time>2021-05-02T10:54:18.000Z</time>
      </trkpt>
      <trkpt lat="47.2641" lon="-2.31556">
        <ele>-29</ele>
        <time>2021-05-02T10:54:24.000Z</time>
      </trkpt>
      <trkpt lat="47.26412" lon="-2.3155">
        <ele>-29</ele>
        <time>2021-05-02T10:54:26.000Z</time>
      </trkpt>
      <trkpt lat="47.26414" lon="-2.31551">
        <ele>-29</ele>
        <time>2021-05-02T10:54:27.000Z</time>
      </trkpt>
      <trkpt lat="47.26417" lon="-2.31552">
        <ele>-29</ele>
        <time>2021-05-02T10:54:30.000Z</time>
      </trkpt>
    </trkseg>
  </trk>
</gpx>